<?xml version='1.0' encoding='UTF-8'?><gpx version="1.1" creator="JPX - https://github.com/jenetics/jpx" xmlns="http://www.topografix.com/GPX/1/1"><trk><trkseg><trkpt lat="40.7528949" lon="-3.7840839"><ele>921.0000000000001</ele><time>2026-03-24T14:28:47.943Z</time></trkpt><trkpt lat="40.7528377" lon="-3.7841206"><ele>921.0</ele><time>2026-03-24T14:28:55.96Z</time></trkpt><trkpt lat="40.7527732" lon="-3.7841326"><ele>921.0000000000001</ele><time>2026-03-24T14:29:06.952Z</time></trkpt><trkpt lat="40.7528284" lon="-3.7841743"><ele>921.0000000000001</ele><time>2026-03-24T14:31:26.943Z</time></trkpt><trkpt lat="40.7527773" lon="-3.7840608"><ele>921.0</ele><time>2026-03-24T14:31:32.967Z</time></trkpt><trkpt lat="40.7527654" lon="-3.783948"><ele>921.0000000000001</ele><time>2026-03-24T14:31:34.971Z</time></trkpt><trkpt lat="40.7527597" lon="-3.7838583"><ele>921.0000000000001</ele><time>2026-03-24T14:31:36.934Z</time></trkpt><trkpt lat="40.7527344" lon="-3.7837451"><ele>921.0</ele><time>2026-03-24T14:31:38.943Z</time></trkpt><trkpt lat="40.7527201" lon="-3.7836245"><ele>920.9999999999999</ele><time>2026-03-24T14:31:40.963Z</time></trkpt><trkpt lat="40.7526947" lon="-3.7834998"><ele>920.9999999999999</ele><time>2026-03-24T14:31:42.966Z</time></trkpt><trkpt lat="40.7526688" lon="-3.7833499"><ele>921.0</ele><time>2026-03-24T14:31:44.942Z</time></trkpt><trkpt lat="40.7526426" lon="-3.7832292"><ele>921.0</ele><time>2026-03-24T14:31:46.975Z</time></trkpt><trkpt lat="40.7526483" lon="-3.783113"><ele>920.8</ele><time>2026-03-24T14:31:48.963Z</time></trkpt><trkpt lat="40.7527433" lon="-3.7830344"><ele>920.5999999999999</ele><time>2026-03-24T14:31:50.929Z</time></trkpt><trkpt lat="40.7528487" lon="-3.7829982"><ele>920.4</ele><time>2026-03-24T14:31:52.967Z</time></trkpt><trkpt lat="40.7529139" lon="-3.7829461"><ele>920.2</ele><time>2026-03-24T14:31:54.955Z</time></trkpt><trkpt lat="40.7529817" lon="-3.7829184"><ele>920.0</ele><time>2026-03-24T14:31:56.949Z</time></trkpt><trkpt lat="40.7530508" lon="-3.7829826"><ele>920.0000000000001</ele><time>2026-03-24T14:31:59.964Z</time></trkpt><trkpt lat="40.7530638" lon="-3.783121"><ele>920.0</ele><time>2026-03-24T14:32:01.971Z</time></trkpt><trkpt lat="40.7530754" lon="-3.7832047"><ele>920.0</ele><time>2026-03-24T14:32:02.944Z</time></trkpt><trkpt lat="40.753096" lon="-3.7832883"><ele>920.0</ele><time>2026-03-24T14:32:03.968Z</time></trkpt><trkpt lat="40.7531161" lon="-3.7833732"><ele>920.0000000000001</ele><time>2026-03-24T14:32:04.965Z</time></trkpt><trkpt lat="40.7531357" lon="-3.7834635"><ele>920.0</ele><time>2026-03-24T14:32:05.957Z</time></trkpt><trkpt lat="40.7531599" lon="-3.7835622"><ele>920.1666666666667</ele><time>2026-03-24T14:32:06.96Z</time></trkpt><trkpt lat="40.7531835" lon="-3.7836626"><ele>920.3333333333334</ele><time>2026-03-24T14:32:07.935Z</time></trkpt><trkpt lat="40.7532097" lon="-3.7837625"><ele>920.5</ele><time>2026-03-24T14:32:08.954Z</time></trkpt><trkpt lat="40.753245" lon="-3.7838612"><ele>920.6666666666667</ele><time>2026-03-24T14:32:09.963Z</time></trkpt><trkpt lat="40.7532623" lon="-3.7839525"><ele>920.8333333333334</ele><time>2026-03-24T14:32:10.97Z</time></trkpt><trkpt lat="40.7532856" lon="-3.784044"><ele>921.0</ele><time>2026-03-24T14:32:11.966Z</time></trkpt><trkpt lat="40.7533154" lon="-3.7841414"><ele>921.0</ele><time>2026-03-24T14:32:12.97Z</time></trkpt><trkpt lat="40.7533462" lon="-3.784229"><ele>921.0</ele><time>2026-03-24T14:32:13.957Z</time></trkpt><trkpt lat="40.753374" lon="-3.7843047"><ele>921.0</ele><time>2026-03-24T14:32:14.969Z</time></trkpt><trkpt lat="40.7534216" lon="-3.7844383"><ele>921.0</ele><time>2026-03-24T14:32:17Z</time></trkpt><trkpt lat="40.7534792" lon="-3.7845044"><ele>921.0</ele><time>2026-03-24T14:32:18.944Z</time></trkpt><trkpt lat="40.7535718" lon="-3.7844884"><ele>921.0</ele><time>2026-03-24T14:32:21.969Z</time></trkpt><trkpt lat="40.7536242" lon="-3.7844252"><ele>921.1666666666666</ele><time>2026-03-24T14:32:22.982Z</time></trkpt><trkpt lat="40.753668" lon="-3.7843622"><ele>921.3333333333333</ele><time>2026-03-24T14:32:23.95Z</time></trkpt><trkpt lat="40.7537116" lon="-3.7842901"><ele>921.5</ele><time>2026-03-24T14:32:24.976Z</time></trkpt><trkpt lat="40.7537661" lon="-3.7842171"><ele>921.6666666666666</ele><time>2026-03-24T14:32:25.968Z</time></trkpt><trkpt lat="40.753816" lon="-3.7841353"><ele>921.8333333333333</ele><time>2026-03-24T14:32:26.966Z</time></trkpt><trkpt lat="40.7538621" lon="-3.7840445"><ele>922.0</ele><time>2026-03-24T14:32:27.975Z</time></trkpt><trkpt lat="40.7539094" lon="-3.7839472"><ele>921.9999999999999</ele><time>2026-03-24T14:32:28.97Z</time></trkpt><trkpt lat="40.7539682" lon="-3.783851"><ele>922.0</ele><time>2026-03-24T14:32:29.966Z</time></trkpt><trkpt lat="40.7540214" lon="-3.7837629"><ele>922.0</ele><time>2026-03-24T14:32:30.946Z</time></trkpt><trkpt lat="40.7540705" lon="-3.7836945"><ele>922.0</ele><time>2026-03-24T14:32:31.945Z</time></trkpt><trkpt lat="40.7541348" lon="-3.783578"><ele>921.9999999999999</ele><time>2026-03-24T14:32:33.934Z</time></trkpt><trkpt lat="40.7541759" lon="-3.7835018"><ele>922.0</ele><time>2026-03-24T14:32:35.93Z</time></trkpt><trkpt lat="40.7542094" lon="-3.7833983"><ele>922.0</ele><time>2026-03-24T14:32:38.946Z</time></trkpt><trkpt lat="40.7542343" lon="-3.7832577"><ele>922.0</ele><time>2026-03-24T14:32:40.935Z</time></trkpt><trkpt lat="40.7543163" lon="-3.7831479"><ele>922.0</ele><time>2026-03-24T14:32:42.932Z</time></trkpt><trkpt lat="40.7543677" lon="-3.7830698"><ele>922.0</ele><time>2026-03-24T14:32:43.956Z</time></trkpt><trkpt lat="40.7544163" lon="-3.7829852"><ele>922.0</ele><time>2026-03-24T14:32:44.946Z</time></trkpt><trkpt lat="40.7544674" lon="-3.7828848"><ele>922.6</ele><time>2026-03-24T14:32:45.95Z</time></trkpt><trkpt lat="40.7545121" lon="-3.7827693"><ele>923.2</ele><time>2026-03-24T14:32:46.935Z</time></trkpt><trkpt lat="40.7545691" lon="-3.7826686"><ele>923.8</ele><time>2026-03-24T14:32:47.938Z</time></trkpt><trkpt lat="40.7546258" lon="-3.7825707"><ele>924.4</ele><time>2026-03-24T14:32:48.968Z</time></trkpt><trkpt lat="40.7546815" lon="-3.7824749"><ele>925.0</ele><time>2026-03-24T14:32:49.933Z</time></trkpt><trkpt lat="40.7547429" lon="-3.7823686"><ele>925.0</ele><time>2026-03-24T14:32:50.937Z</time></trkpt><trkpt lat="40.7548051" lon="-3.7822497"><ele>925.0</ele><time>2026-03-24T14:32:51.953Z</time></trkpt><trkpt lat="40.7548664" lon="-3.782125"><ele>925.0</ele><time>2026-03-24T14:32:52.983Z</time></trkpt><trkpt lat="40.7549293" lon="-3.7819932"><ele>925.0</ele><time>2026-03-24T14:32:53.94Z</time></trkpt><trkpt lat="40.7549891" lon="-3.7818644"><ele>924.6</ele><time>2026-03-24T14:32:54.965Z</time></trkpt><trkpt lat="40.7550475" lon="-3.7817519"><ele>924.2</ele><time>2026-03-24T14:32:55.98Z</time></trkpt><trkpt lat="40.7551028" lon="-3.7816535"><ele>923.8</ele><time>2026-03-24T14:32:56.975Z</time></trkpt><trkpt lat="40.7551504" lon="-3.7815663"><ele>923.4</ele><time>2026-03-24T14:32:57.979Z</time></trkpt><trkpt lat="40.7551866" lon="-3.7814885"><ele>923.0</ele><time>2026-03-24T14:32:58.939Z</time></trkpt><trkpt lat="40.7552535" lon="-3.7813654"><ele>923.0000000000001</ele><time>2026-03-24T14:33:00.954Z</time></trkpt><trkpt lat="40.7552873" lon="-3.7812855"><ele>923.0</ele><time>2026-03-24T14:33:02.943Z</time></trkpt><trkpt lat="40.7553342" lon="-3.7811943"><ele>923.0</ele><time>2026-03-24T14:33:05.965Z</time></trkpt><trkpt lat="40.755373" lon="-3.7810719"><ele>923.0</ele><time>2026-03-24T14:33:07.943Z</time></trkpt><trkpt lat="40.7553927" lon="-3.7809836"><ele>923.0000000000001</ele><time>2026-03-24T14:33:08.973Z</time></trkpt><trkpt lat="40.755429" lon="-3.7809033"><ele>923.0</ele><time>2026-03-24T14:33:09.967Z</time></trkpt><trkpt lat="40.7554961" lon="-3.7808174"><ele>923.5000000000001</ele><time>2026-03-24T14:33:11.974Z</time></trkpt><trkpt lat="40.7555478" lon="-3.7807619"><ele>924.0</ele><time>2026-03-24T14:33:13.971Z</time></trkpt><trkpt lat="40.7555942" lon="-3.7806529"><ele>924.5</ele><time>2026-03-24T14:33:15.961Z</time></trkpt><trkpt lat="40.7556337" lon="-3.7805625"><ele>925.0</ele><time>2026-03-24T14:33:16.977Z</time></trkpt><trkpt lat="40.7556794" lon="-3.7804707"><ele>925.5000000000001</ele><time>2026-03-24T14:33:17.98Z</time></trkpt><trkpt lat="40.7557342" lon="-3.7803695"><ele>926.0</ele><time>2026-03-24T14:33:18.971Z</time></trkpt><trkpt lat="40.7557908" lon="-3.7802448"><ele>926.4</ele><time>2026-03-24T14:33:19.969Z</time></trkpt><trkpt lat="40.7558494" lon="-3.7801154"><ele>926.8</ele><time>2026-03-24T14:33:20.985Z</time></trkpt><trkpt lat="40.7559075" lon="-3.7799948"><ele>927.1999999999999</ele><time>2026-03-24T14:33:21.965Z</time></trkpt><trkpt lat="40.7559687" lon="-3.7798738"><ele>927.5999999999999</ele><time>2026-03-24T14:33:22.948Z</time></trkpt><trkpt lat="40.7560284" lon="-3.7797593"><ele>928.0</ele><time>2026-03-24T14:33:23.934Z</time></trkpt><trkpt lat="40.7560905" lon="-3.7796434"><ele>928.0</ele><time>2026-03-24T14:33:24.952Z</time></trkpt><trkpt lat="40.7561522" lon="-3.7795134"><ele>928.0</ele><time>2026-03-24T14:33:25.986Z</time></trkpt><trkpt lat="40.7562218" lon="-3.7793767"><ele>928.0</ele><time>2026-03-24T14:33:26.976Z</time></trkpt><trkpt lat="40.7562964" lon="-3.7792334"><ele>928.0</ele><time>2026-03-24T14:33:27.967Z</time></trkpt><trkpt lat="40.7563696" lon="-3.7790824"><ele>929.0</ele><time>2026-03-24T14:33:28.973Z</time></trkpt><trkpt lat="40.7564413" lon="-3.7789291"><ele>930.0</ele><time>2026-03-24T14:33:29.971Z</time></trkpt><trkpt lat="40.7565081" lon="-3.7787652"><ele>931.0</ele><time>2026-03-24T14:33:30.98Z</time></trkpt><trkpt lat="40.7565727" lon="-3.7785993"><ele>932.0</ele><time>2026-03-24T14:33:31.966Z</time></trkpt><trkpt lat="40.7566305" lon="-3.7784268"><ele>932.5</ele><time>2026-03-24T14:33:32.971Z</time></trkpt><trkpt lat="40.756679" lon="-3.778252"><ele>933.0</ele><time>2026-03-24T14:33:33.955Z</time></trkpt><trkpt lat="40.7567227" lon="-3.7780754"><ele>933.5</ele><time>2026-03-24T14:33:34.984Z</time></trkpt><trkpt lat="40.7567661" lon="-3.7779025"><ele>934.0</ele><time>2026-03-24T14:33:36.005Z</time></trkpt><trkpt lat="40.7568148" lon="-3.7777251"><ele>934.25</ele><time>2026-03-24T14:33:36.979Z</time></trkpt><trkpt lat="40.7568534" lon="-3.777542"><ele>934.5</ele><time>2026-03-24T14:33:37.978Z</time></trkpt><trkpt lat="40.7568888" lon="-3.7773581"><ele>934.75</ele><time>2026-03-24T14:33:38.966Z</time></trkpt><trkpt lat="40.7569264" lon="-3.777174"><ele>935.0</ele><time>2026-03-24T14:33:39.983Z</time></trkpt><trkpt lat="40.7569646" lon="-3.7769867"><ele>935.0</ele><time>2026-03-24T14:33:40.988Z</time></trkpt><trkpt lat="40.7570061" lon="-3.7767944"><ele>935.0</ele><time>2026-03-24T14:33:41.941Z</time></trkpt><trkpt lat="40.7570498" lon="-3.7766072"><ele>935.0</ele><time>2026-03-24T14:33:42.933Z</time></trkpt><trkpt lat="40.7570943" lon="-3.7764201"><ele>935.0</ele><time>2026-03-24T14:33:43.954Z</time></trkpt><trkpt lat="40.7571382" lon="-3.7762283"><ele>935.0</ele><time>2026-03-24T14:33:44.942Z</time></trkpt><trkpt lat="40.7571791" lon="-3.7760429"><ele>935.0</ele><time>2026-03-24T14:33:45.956Z</time></trkpt><trkpt lat="40.7572217" lon="-3.7758629"><ele>935.0</ele><time>2026-03-24T14:33:46.936Z</time></trkpt><trkpt lat="40.7572567" lon="-3.7756948"><ele>935.0</ele><time>2026-03-24T14:33:47.962Z</time></trkpt><trkpt lat="40.7572819" lon="-3.7755461"><ele>935.4</ele><time>2026-03-24T14:33:48.974Z</time></trkpt><trkpt lat="40.7573014" lon="-3.7754194"><ele>935.8</ele><time>2026-03-24T14:33:49.966Z</time></trkpt><trkpt lat="40.75731" lon="-3.7753003"><ele>936.2</ele><time>2026-03-24T14:33:50.97Z</time></trkpt><trkpt lat="40.757316" lon="-3.7751819"><ele>936.6</ele><time>2026-03-24T14:33:51.974Z</time></trkpt><trkpt lat="40.7573114" lon="-3.7750679"><ele>937.0</ele><time>2026-03-24T14:33:52.982Z</time></trkpt><trkpt lat="40.7573032" lon="-3.7749519"><ele>937.0</ele><time>2026-03-24T14:33:53.968Z</time></trkpt><trkpt lat="40.7573127" lon="-3.774831"><ele>937.0</ele><time>2026-03-24T14:33:54.957Z</time></trkpt><trkpt lat="40.7573533" lon="-3.7747324"><ele>937.0</ele><time>2026-03-24T14:33:55.945Z</time></trkpt><trkpt lat="40.7574227" lon="-3.7746267"><ele>937.0</ele><time>2026-03-24T14:33:56.991Z</time></trkpt><trkpt lat="40.757486" lon="-3.7745072"><ele>937.0</ele><time>2026-03-24T14:33:57.962Z</time></trkpt><trkpt lat="40.7575407" lon="-3.7743812"><ele>936.8333333333333</ele><time>2026-03-24T14:33:58.956Z</time></trkpt><trkpt lat="40.7575769" lon="-3.774268"><ele>936.6666666666666</ele><time>2026-03-24T14:33:59.971Z</time></trkpt><trkpt lat="40.757611" lon="-3.7741604"><ele>936.5</ele><time>2026-03-24T14:34:00.951Z</time></trkpt><trkpt lat="40.7576324" lon="-3.7740735"><ele>936.3333333333333</ele><time>2026-03-24T14:34:01.96Z</time></trkpt><trkpt lat="40.7576632" lon="-3.7739507"><ele>936.1666666666666</ele><time>2026-03-24T14:34:03.954Z</time></trkpt><trkpt lat="40.757693" lon="-3.7738304"><ele>936.0</ele><time>2026-03-24T14:34:05.957Z</time></trkpt><trkpt lat="40.7577582" lon="-3.7737147"><ele>936.0</ele><time>2026-03-24T14:34:07.951Z</time></trkpt><trkpt lat="40.7578237" lon="-3.7736662"><ele>936.0</ele><time>2026-03-24T14:34:09.021Z</time></trkpt><trkpt lat="40.7578891" lon="-3.7736153"><ele>936.0</ele><time>2026-03-24T14:34:09.967Z</time></trkpt><trkpt lat="40.7579489" lon="-3.773559"><ele>936.0</ele><time>2026-03-24T14:34:10.967Z</time></trkpt><trkpt lat="40.7580053" lon="-3.773482"><ele>936.0</ele><time>2026-03-24T14:34:11.954Z</time></trkpt><trkpt lat="40.7580732" lon="-3.7733764"><ele>936.0</ele><time>2026-03-24T14:34:12.969Z</time></trkpt><trkpt lat="40.7581394" lon="-3.7732431"><ele>936.5</ele><time>2026-03-24T14:34:13.989Z</time></trkpt><trkpt lat="40.7582036" lon="-3.7731001"><ele>937.0</ele><time>2026-03-24T14:34:14.993Z</time></trkpt><trkpt lat="40.7582621" lon="-3.7729638"><ele>937.5</ele><time>2026-03-24T14:34:15.928Z</time></trkpt><trkpt lat="40.7583162" lon="-3.7728194"><ele>938.0</ele><time>2026-03-24T14:34:16.937Z</time></trkpt><trkpt lat="40.7583684" lon="-3.7726689"><ele>938.75</ele><time>2026-03-24T14:34:17.935Z</time></trkpt><trkpt lat="40.7584182" lon="-3.7725111"><ele>939.5</ele><time>2026-03-24T14:34:18.955Z</time></trkpt><trkpt lat="40.7584692" lon="-3.7723499"><ele>940.25</ele><time>2026-03-24T14:34:19.941Z</time></trkpt><trkpt lat="40.7585124" lon="-3.7721923"><ele>941.0</ele><time>2026-03-24T14:34:20.938Z</time></trkpt><trkpt lat="40.7585595" lon="-3.7720381"><ele>941.5</ele><time>2026-03-24T14:34:21.932Z</time></trkpt><trkpt lat="40.7586072" lon="-3.7718889"><ele>942.0</ele><time>2026-03-24T14:34:22.936Z</time></trkpt><trkpt lat="40.7586585" lon="-3.7717497"><ele>942.5</ele><time>2026-03-24T14:34:23.963Z</time></trkpt><trkpt lat="40.7587168" lon="-3.7716175"><ele>943.0</ele><time>2026-03-24T14:34:24.959Z</time></trkpt><trkpt lat="40.7587649" lon="-3.7714824"><ele>943.0</ele><time>2026-03-24T14:34:25.937Z</time></trkpt><trkpt lat="40.7587899" lon="-3.7713447"><ele>943.0</ele><time>2026-03-24T14:34:26.961Z</time></trkpt><trkpt lat="40.7588131" lon="-3.7712061"><ele>943.0</ele><time>2026-03-24T14:34:27.97Z</time></trkpt><trkpt lat="40.7588448" lon="-3.7710693"><ele>943.0</ele><time>2026-03-24T14:34:28.966Z</time></trkpt><trkpt lat="40.7588738" lon="-3.770926"><ele>943.0</ele><time>2026-03-24T14:34:29.97Z</time></trkpt><trkpt lat="40.7589036" lon="-3.7707812"><ele>943.0</ele><time>2026-03-24T14:34:30.95Z</time></trkpt><trkpt lat="40.7589395" lon="-3.7706319"><ele>943.0</ele><time>2026-03-24T14:34:31.993Z</time></trkpt><trkpt lat="40.7589797" lon="-3.7704775"><ele>943.0</ele><time>2026-03-24T14:34:32.965Z</time></trkpt><trkpt lat="40.7590302" lon="-3.7703325"><ele>943.0</ele><time>2026-03-24T14:34:33.938Z</time></trkpt><trkpt lat="40.7590997" lon="-3.7701907"><ele>943.0</ele><time>2026-03-24T14:34:34.978Z</time></trkpt><trkpt lat="40.7591931" lon="-3.7700647"><ele>943.0</ele><time>2026-03-24T14:34:35.946Z</time></trkpt><trkpt lat="40.7592961" lon="-3.7699517"><ele>943.0</ele><time>2026-03-24T14:34:36.974Z</time></trkpt><trkpt lat="40.7594016" lon="-3.7698443"><ele>943.0</ele><time>2026-03-24T14:34:37.98Z</time></trkpt><trkpt lat="40.7594996" lon="-3.7697307"><ele>945.0</ele><time>2026-03-24T14:34:38.973Z</time></trkpt><trkpt lat="40.7595959" lon="-3.769608"><ele>947.0</ele><time>2026-03-24T14:34:39.993Z</time></trkpt><trkpt lat="40.7596928" lon="-3.7695014"><ele>949.0</ele><time>2026-03-24T14:34:40.968Z</time></trkpt><trkpt lat="40.7597961" lon="-3.7693987"><ele>951.0</ele><time>2026-03-24T14:34:41.963Z</time></trkpt><trkpt lat="40.7598975" lon="-3.7693156"><ele>951.25</ele><time>2026-03-24T14:34:42.973Z</time></trkpt><trkpt lat="40.7599927" lon="-3.7692233"><ele>951.5</ele><time>2026-03-24T14:34:43.966Z</time></trkpt><trkpt lat="40.7600906" lon="-3.7691375"><ele>951.75</ele><time>2026-03-24T14:34:44.987Z</time></trkpt><trkpt lat="40.7601754" lon="-3.7690381"><ele>952.0</ele><time>2026-03-24T14:34:45.971Z</time></trkpt><trkpt lat="40.7602465" lon="-3.7689166"><ele>954.25</ele><time>2026-03-24T14:34:46.994Z</time></trkpt><trkpt lat="40.7603113" lon="-3.7687822"><ele>956.5</ele><time>2026-03-24T14:34:47.973Z</time></trkpt><trkpt lat="40.7603798" lon="-3.7686449"><ele>958.75</ele><time>2026-03-24T14:34:48.965Z</time></trkpt><trkpt lat="40.7604379" lon="-3.7684981"><ele>961.0</ele><time>2026-03-24T14:34:49.952Z</time></trkpt><trkpt lat="40.7604815" lon="-3.7683419"><ele>961.0</ele><time>2026-03-24T14:34:50.975Z</time></trkpt><trkpt lat="40.7605123" lon="-3.7681849"><ele>961.0</ele><time>2026-03-24T14:34:51.981Z</time></trkpt><trkpt lat="40.7605464" lon="-3.7680287"><ele>961.0</ele><time>2026-03-24T14:34:52.971Z</time></trkpt><trkpt lat="40.7605863" lon="-3.7678702"><ele>961.0</ele><time>2026-03-24T14:34:53.966Z</time></trkpt><trkpt lat="40.7606409" lon="-3.7677221"><ele>961.0</ele><time>2026-03-24T14:34:54.992Z</time></trkpt><trkpt lat="40.7606987" lon="-3.7675662"><ele>961.0</ele><time>2026-03-24T14:34:55.982Z</time></trkpt><trkpt lat="40.7607557" lon="-3.7674053"><ele>961.0</ele><time>2026-03-24T14:34:56.965Z</time></trkpt><trkpt lat="40.760811" lon="-3.7672477"><ele>961.0</ele><time>2026-03-24T14:34:57.98Z</time></trkpt><trkpt lat="40.7608613" lon="-3.7670947"><ele>961.0</ele><time>2026-03-24T14:34:58.976Z</time></trkpt><trkpt lat="40.7608961" lon="-3.7669488"><ele>960.9999999999999</ele><time>2026-03-24T14:34:59.93Z</time></trkpt><trkpt lat="40.7609256" lon="-3.7668078"><ele>960.9999999999999</ele><time>2026-03-24T14:35:00.922Z</time></trkpt><trkpt lat="40.7609365" lon="-3.7667047"><ele>961.0</ele><time>2026-03-24T14:35:01.943Z</time></trkpt><trkpt lat="40.7609343" lon="-3.7666066"><ele>961.0</ele><time>2026-03-24T14:35:02.951Z</time></trkpt><trkpt lat="40.7609142" lon="-3.7665018"><ele>961.1666666666666</ele><time>2026-03-24T14:35:03.96Z</time></trkpt><trkpt lat="40.7608737" lon="-3.7664125"><ele>961.3333333333333</ele><time>2026-03-24T14:35:04.938Z</time></trkpt><trkpt lat="40.7608158" lon="-3.7663287"><ele>961.5</ele><time>2026-03-24T14:35:05.945Z</time></trkpt><trkpt lat="40.7607614" lon="-3.7662312"><ele>961.6666666666667</ele><time>2026-03-24T14:35:06.949Z</time></trkpt><trkpt lat="40.7607226" lon="-3.766122"><ele>961.8333333333334</ele><time>2026-03-24T14:35:07.948Z</time></trkpt><trkpt lat="40.7607028" lon="-3.7660185"><ele>962.0</ele><time>2026-03-24T14:35:08.948Z</time></trkpt><trkpt lat="40.7607307" lon="-3.7658656"><ele>961.6666666666667</ele><time>2026-03-24T14:35:10.945Z</time></trkpt><trkpt lat="40.7607899" lon="-3.7658106"><ele>961.3333333333334</ele><time>2026-03-24T14:35:11.942Z</time></trkpt><trkpt lat="40.760851" lon="-3.7657554"><ele>961.0</ele><time>2026-03-24T14:35:12.975Z</time></trkpt><trkpt lat="40.7609176" lon="-3.7657061"><ele>960.6666666666667</ele><time>2026-03-24T14:35:13.978Z</time></trkpt><trkpt lat="40.7609908" lon="-3.7656616"><ele>960.3333333333334</ele><time>2026-03-24T14:35:14.957Z</time></trkpt><trkpt lat="40.7610698" lon="-3.7656052"><ele>960.0</ele><time>2026-03-24T14:35:15.973Z</time></trkpt><trkpt lat="40.7611377" lon="-3.7655385"><ele>961.4</ele><time>2026-03-24T14:35:16.991Z</time></trkpt><trkpt lat="40.7611673" lon="-3.7654304"><ele>962.8</ele><time>2026-03-24T14:35:17.985Z</time></trkpt><trkpt lat="40.7611924" lon="-3.7653189"><ele>964.2</ele><time>2026-03-24T14:35:18.95Z</time></trkpt><trkpt lat="40.7612065" lon="-3.7651838"><ele>965.6</ele><time>2026-03-24T14:35:19.969Z</time></trkpt><trkpt lat="40.761236" lon="-3.7650429"><ele>967.0</ele><time>2026-03-24T14:35:20.97Z</time></trkpt><trkpt lat="40.7612707" lon="-3.7648974"><ele>967.0</ele><time>2026-03-24T14:35:21.967Z</time></trkpt><trkpt lat="40.7612928" lon="-3.7647543"><ele>967.0</ele><time>2026-03-24T14:35:22.966Z</time></trkpt><trkpt lat="40.761316" lon="-3.7646021"><ele>967.0</ele><time>2026-03-24T14:35:23.995Z</time></trkpt><trkpt lat="40.76134" lon="-3.7644524"><ele>967.0</ele><time>2026-03-24T14:35:24.989Z</time></trkpt><trkpt lat="40.7613751" lon="-3.7643165"><ele>966.4000000000001</ele><time>2026-03-24T14:35:25.977Z</time></trkpt><trkpt lat="40.7614182" lon="-3.7641873"><ele>965.8000000000001</ele><time>2026-03-24T14:35:26.988Z</time></trkpt><trkpt lat="40.7614669" lon="-3.764072"><ele>965.2</ele><time>2026-03-24T14:35:27.989Z</time></trkpt><trkpt lat="40.7615141" lon="-3.7639717"><ele>964.6</ele><time>2026-03-24T14:35:29.001Z</time></trkpt><trkpt lat="40.7615539" lon="-3.7638899"><ele>964.0</ele><time>2026-03-24T14:35:29.95Z</time></trkpt><trkpt lat="40.761557" lon="-3.7637475"><ele>964.0</ele><time>2026-03-24T14:35:31.972Z</time></trkpt><trkpt lat="40.7614991" lon="-3.7636092"><ele>964.0000000000001</ele><time>2026-03-24T14:35:33.958Z</time></trkpt><trkpt lat="40.7614686" lon="-3.7635081"><ele>964.0000000000001</ele><time>2026-03-24T14:35:34.982Z</time></trkpt><trkpt lat="40.7614464" lon="-3.7633775"><ele>964.0</ele><time>2026-03-24T14:35:35.947Z</time></trkpt><trkpt lat="40.7614357" lon="-3.7632424"><ele>964.0</ele><time>2026-03-24T14:35:36.942Z</time></trkpt><trkpt lat="40.7614296" lon="-3.7631014"><ele>963.75</ele><time>2026-03-24T14:35:37.961Z</time></trkpt><trkpt lat="40.7614357" lon="-3.7629456"><ele>963.5</ele><time>2026-03-24T14:35:38.952Z</time></trkpt><trkpt lat="40.7614459" lon="-3.7627801"><ele>963.25</ele><time>2026-03-24T14:35:39.943Z</time></trkpt><trkpt lat="40.7614649" lon="-3.7625999"><ele>963.0</ele><time>2026-03-24T14:35:40.93Z</time></trkpt><trkpt lat="40.7614852" lon="-3.7624187"><ele>963.5</ele><time>2026-03-24T14:35:41.949Z</time></trkpt><trkpt lat="40.7615183" lon="-3.7622347"><ele>964.0</ele><time>2026-03-24T14:35:42.941Z</time></trkpt><trkpt lat="40.761556" lon="-3.7620526"><ele>964.5</ele><time>2026-03-24T14:35:43.945Z</time></trkpt><trkpt lat="40.7615869" lon="-3.7618907"><ele>965.0</ele><time>2026-03-24T14:35:44.941Z</time></trkpt><trkpt lat="40.7616201" lon="-3.7617234"><ele>965.75</ele><time>2026-03-24T14:35:45.937Z</time></trkpt><trkpt lat="40.7616445" lon="-3.7615536"><ele>966.5</ele><time>2026-03-24T14:35:46.936Z</time></trkpt><trkpt lat="40.7616708" lon="-3.7613796"><ele>967.25</ele><time>2026-03-24T14:35:47.933Z</time></trkpt><trkpt lat="40.7616981" lon="-3.7612013"><ele>968.0</ele><time>2026-03-24T14:35:48.951Z</time></trkpt><trkpt lat="40.7617329" lon="-3.7610369"><ele>968.0000000000001</ele><time>2026-03-24T14:35:49.93Z</time></trkpt><trkpt lat="40.7617674" lon="-3.7608869"><ele>968.0</ele><time>2026-03-24T14:35:50.935Z</time></trkpt><trkpt lat="40.7617938" lon="-3.760767"><ele>968.0</ele><time>2026-03-24T14:35:51.949Z</time></trkpt><trkpt lat="40.7618101" lon="-3.7606645"><ele>968.0</ele><time>2026-03-24T14:35:52.973Z</time></trkpt><trkpt lat="40.7618089" lon="-3.7605586"><ele>968.0000000000001</ele><time>2026-03-24T14:35:53.943Z</time></trkpt><trkpt lat="40.7617769" lon="-3.7604731"><ele>968.0</ele><time>2026-03-24T14:35:54.955Z</time></trkpt><trkpt lat="40.761727" lon="-3.7603723"><ele>968.0</ele><time>2026-03-24T14:35:55.964Z</time></trkpt><trkpt lat="40.7616704" lon="-3.760275"><ele>968.0</ele><time>2026-03-24T14:35:56.976Z</time></trkpt><trkpt lat="40.7616413" lon="-3.760142"><ele>968.0</ele><time>2026-03-24T14:35:57.987Z</time></trkpt><trkpt lat="40.761632" lon="-3.7599812"><ele>968.0</ele><time>2026-03-24T14:35:58.976Z</time></trkpt><trkpt lat="40.7616221" lon="-3.7598281"><ele>968.0</ele><time>2026-03-24T14:35:59.939Z</time></trkpt><trkpt lat="40.761627" lon="-3.7596726"><ele>969.0</ele><time>2026-03-24T14:36:00.961Z</time></trkpt><trkpt lat="40.7616523" lon="-3.7595163"><ele>970.0</ele><time>2026-03-24T14:36:01.955Z</time></trkpt><trkpt lat="40.76169" lon="-3.7593464"><ele>971.0</ele><time>2026-03-24T14:36:02.943Z</time></trkpt><trkpt lat="40.7617373" lon="-3.759189"><ele>972.0</ele><time>2026-03-24T14:36:03.959Z</time></trkpt><trkpt lat="40.7617855" lon="-3.7590331"><ele>973.25</ele><time>2026-03-24T14:36:04.954Z</time></trkpt><trkpt lat="40.7618316" lon="-3.7588824"><ele>974.5</ele><time>2026-03-24T14:36:05.946Z</time></trkpt><trkpt lat="40.7618771" lon="-3.7587294"><ele>975.75</ele><time>2026-03-24T14:36:06.961Z</time></trkpt><trkpt lat="40.7619112" lon="-3.7585711"><ele>977.0</ele><time>2026-03-24T14:36:07.962Z</time></trkpt><trkpt lat="40.7619385" lon="-3.7584184"><ele>977.5000000000001</ele><time>2026-03-24T14:36:08.955Z</time></trkpt><trkpt lat="40.7619446" lon="-3.7582779"><ele>978.0</ele><time>2026-03-24T14:36:09.981Z</time></trkpt><trkpt lat="40.7619333" lon="-3.7581499"><ele>978.5</ele><time>2026-03-24T14:36:10.965Z</time></trkpt><trkpt lat="40.7619049" lon="-3.7580507"><ele>979.0</ele><time>2026-03-24T14:36:11.958Z</time></trkpt><trkpt lat="40.7618753" lon="-3.7579582"><ele>979.5000000000001</ele><time>2026-03-24T14:36:12.967Z</time></trkpt><trkpt lat="40.7618708" lon="-3.7578571"><ele>980.0</ele><time>2026-03-24T14:36:14.989Z</time></trkpt><trkpt lat="40.7618612" lon="-3.7577645"><ele>980.0000000000001</ele><time>2026-03-24T14:36:18.955Z</time></trkpt><trkpt lat="40.761853" lon="-3.7576712"><ele>980.0</ele><time>2026-03-24T14:36:22.964Z</time></trkpt><trkpt lat="40.7618609" lon="-3.7575815"><ele>980.0</ele><time>2026-03-24T14:36:25.971Z</time></trkpt><trkpt lat="40.761879" lon="-3.7574791"><ele>980.0</ele><time>2026-03-24T14:36:28.961Z</time></trkpt><trkpt lat="40.7619064" lon="-3.7573261"><ele>980.0000000000001</ele><time>2026-03-24T14:36:30.96Z</time></trkpt><trkpt lat="40.7619332" lon="-3.7572249"><ele>980.0</ele><time>2026-03-24T14:36:31.96Z</time></trkpt><trkpt lat="40.7619656" lon="-3.7571305"><ele>980.0</ele><time>2026-03-24T14:36:32.933Z</time></trkpt><trkpt lat="40.7619945" lon="-3.7570399"><ele>980.0</ele><time>2026-03-24T14:36:33.962Z</time></trkpt><trkpt lat="40.7621181" lon="-3.7565981"><ele>980.0</ele><time>2026-03-24T14:36:37.953Z</time></trkpt><trkpt lat="40.7621384" lon="-3.7564589"><ele>980.2</ele><time>2026-03-24T14:36:38.963Z</time></trkpt><trkpt lat="40.7621857" lon="-3.7563395"><ele>980.4</ele><time>2026-03-24T14:36:39.965Z</time></trkpt><trkpt lat="40.7622248" lon="-3.7562368"><ele>980.5999999999999</ele><time>2026-03-24T14:36:40.966Z</time></trkpt><trkpt lat="40.7622648" lon="-3.7561093"><ele>980.8</ele><time>2026-03-24T14:36:41.96Z</time></trkpt><trkpt lat="40.7622966" lon="-3.7560093"><ele>981.0</ele><time>2026-03-24T14:36:42.948Z</time></trkpt><trkpt lat="40.7623271" lon="-3.7558921"><ele>981.8</ele><time>2026-03-24T14:36:43.959Z</time></trkpt><trkpt lat="40.7623526" lon="-3.7557698"><ele>982.5999999999999</ele><time>2026-03-24T14:36:44.965Z</time></trkpt><trkpt lat="40.7623838" lon="-3.7556479"><ele>983.4</ele><time>2026-03-24T14:36:45.959Z</time></trkpt><trkpt lat="40.7624135" lon="-3.7555272"><ele>984.2</ele><time>2026-03-24T14:36:46.986Z</time></trkpt><trkpt lat="40.7624405" lon="-3.7554186"><ele>985.0</ele><time>2026-03-24T14:36:48.004Z</time></trkpt><trkpt lat="40.7624572" lon="-3.7553229"><ele>984.9999999999999</ele><time>2026-03-24T14:36:48.98Z</time></trkpt><trkpt lat="40.7624786" lon="-3.7552354"><ele>985.0</ele><time>2026-03-24T14:36:49.971Z</time></trkpt><trkpt lat="40.762501" lon="-3.7551505"><ele>985.0</ele><time>2026-03-24T14:36:50.966Z</time></trkpt><trkpt lat="40.7625263" lon="-3.7550707"><ele>985.0</ele><time>2026-03-24T14:36:51.949Z</time></trkpt><trkpt lat="40.7625757" lon="-3.7549955"><ele>984.9999999999999</ele><time>2026-03-24T14:36:52.986Z</time></trkpt><trkpt lat="40.7626547" lon="-3.7548878"><ele>985.0</ele><time>2026-03-24T14:36:54.974Z</time></trkpt><trkpt lat="40.7626865" lon="-3.7547656"><ele>985.8333333333333</ele><time>2026-03-24T14:36:56.984Z</time></trkpt><trkpt lat="40.7627015" lon="-3.7546848"><ele>986.6666666666666</ele><time>2026-03-24T14:36:57.968Z</time></trkpt><trkpt lat="40.7627156" lon="-3.7545893"><ele>987.5</ele><time>2026-03-24T14:36:58.967Z</time></trkpt><trkpt lat="40.762733" lon="-3.7544911"><ele>988.3333333333333</ele><time>2026-03-24T14:36:59.986Z</time></trkpt><trkpt lat="40.7627571" lon="-3.7543866"><ele>989.1666666666666</ele><time>2026-03-24T14:37:00.978Z</time></trkpt><trkpt lat="40.762784" lon="-3.7542745"><ele>990.0</ele><time>2026-03-24T14:37:01.984Z</time></trkpt><trkpt lat="40.7628161" lon="-3.7541545"><ele>990.4</ele><time>2026-03-24T14:37:02.931Z</time></trkpt><trkpt lat="40.7628497" lon="-3.7540316"><ele>990.8</ele><time>2026-03-24T14:37:03.938Z</time></trkpt><trkpt lat="40.7628824" lon="-3.7539075"><ele>991.2</ele><time>2026-03-24T14:37:04.942Z</time></trkpt><trkpt lat="40.7629161" lon="-3.7537792"><ele>991.6</ele><time>2026-03-24T14:37:05.938Z</time></trkpt><trkpt lat="40.7629485" lon="-3.7536531"><ele>992.0</ele><time>2026-03-24T14:37:06.931Z</time></trkpt><trkpt lat="40.7629809" lon="-3.753529"><ele>992.8333333333334</ele><time>2026-03-24T14:37:07.943Z</time></trkpt><trkpt lat="40.7630126" lon="-3.7534167"><ele>993.6666666666667</ele><time>2026-03-24T14:37:08.947Z</time></trkpt><trkpt lat="40.7630394" lon="-3.7533056"><ele>994.5</ele><time>2026-03-24T14:37:09.955Z</time></trkpt><trkpt lat="40.7630737" lon="-3.7532008"><ele>995.3333333333333</ele><time>2026-03-24T14:37:10.946Z</time></trkpt><trkpt lat="40.7631078" lon="-3.7530955"><ele>996.1666666666666</ele><time>2026-03-24T14:37:11.957Z</time></trkpt><trkpt lat="40.7631424" lon="-3.7529798"><ele>997.0</ele><time>2026-03-24T14:37:12.967Z</time></trkpt><trkpt lat="40.7631818" lon="-3.7528582"><ele>997.0</ele><time>2026-03-24T14:37:13.965Z</time></trkpt><trkpt lat="40.7632181" lon="-3.7527339"><ele>997.0</ele><time>2026-03-24T14:37:14.981Z</time></trkpt><trkpt lat="40.7632566" lon="-3.7526138"><ele>997.0</ele><time>2026-03-24T14:37:15.964Z</time></trkpt><trkpt lat="40.7632981" lon="-3.7524841"><ele>997.0</ele><time>2026-03-24T14:37:16.956Z</time></trkpt><trkpt lat="40.7633343" lon="-3.7523642"><ele>997.0</ele><time>2026-03-24T14:37:17.986Z</time></trkpt><trkpt lat="40.7633706" lon="-3.7522624"><ele>997.3333333333333</ele><time>2026-03-24T14:37:18.969Z</time></trkpt><trkpt lat="40.7634093" lon="-3.7521725"><ele>997.6666666666666</ele><time>2026-03-24T14:37:19.949Z</time></trkpt><trkpt lat="40.763455" lon="-3.7521037"><ele>998.0</ele><time>2026-03-24T14:37:20.98Z</time></trkpt><trkpt lat="40.7635539" lon="-3.7520381"><ele>998.3333333333333</ele><time>2026-03-24T14:37:22.96Z</time></trkpt><trkpt lat="40.7636722" lon="-3.7520362"><ele>998.6666666666666</ele><time>2026-03-24T14:37:24.972Z</time></trkpt><trkpt lat="40.7637398" lon="-3.7520453"><ele>999.0</ele><time>2026-03-24T14:37:25.969Z</time></trkpt><trkpt lat="40.7638218" lon="-3.7520392"><ele>999.8000000000001</ele><time>2026-03-24T14:37:26.948Z</time></trkpt><trkpt lat="40.7639117" lon="-3.7520344"><ele>1000.6000000000001</ele><time>2026-03-24T14:37:27.964Z</time></trkpt><trkpt lat="40.7640026" lon="-3.7520188"><ele>1001.4</ele><time>2026-03-24T14:37:28.977Z</time></trkpt><trkpt lat="40.7640981" lon="-3.7520061"><ele>1002.2</ele><time>2026-03-24T14:37:29.938Z</time></trkpt><trkpt lat="40.7642015" lon="-3.7519922"><ele>1003.0</ele><time>2026-03-24T14:37:30.944Z</time></trkpt><trkpt lat="40.7643131" lon="-3.7519929"><ele>1004.0</ele><time>2026-03-24T14:37:31.949Z</time></trkpt><trkpt lat="40.7644343" lon="-3.7520076"><ele>1005.0</ele><time>2026-03-24T14:37:32.943Z</time></trkpt><trkpt lat="40.7645514" lon="-3.7520264"><ele>1006.0</ele><time>2026-03-24T14:37:33.989Z</time></trkpt><trkpt lat="40.7646685" lon="-3.7520376"><ele>1007.0</ele><time>2026-03-24T14:37:34.972Z</time></trkpt><trkpt lat="40.7647893" lon="-3.7520516"><ele>1007.0</ele><time>2026-03-24T14:37:35.969Z</time></trkpt><trkpt lat="40.7649053" lon="-3.7520529"><ele>1007.0</ele><time>2026-03-24T14:37:36.968Z</time></trkpt><trkpt lat="40.7650227" lon="-3.7520386"><ele>1007.0</ele><time>2026-03-24T14:37:37.98Z</time></trkpt><trkpt lat="40.7651267" lon="-3.752038"><ele>1007.0</ele><time>2026-03-24T14:37:38.969Z</time></trkpt><trkpt lat="40.7652259" lon="-3.7520481"><ele>1007.0</ele><time>2026-03-24T14:37:39.972Z</time></trkpt><trkpt lat="40.7653158" lon="-3.7520596"><ele>1007.7142857142857</ele><time>2026-03-24T14:37:40.946Z</time></trkpt><trkpt lat="40.7653958" lon="-3.7520709"><ele>1008.4285714285716</ele><time>2026-03-24T14:37:41.952Z</time></trkpt><trkpt lat="40.7654634" lon="-3.7520781"><ele>1009.1428571428572</ele><time>2026-03-24T14:37:42.95Z</time></trkpt><trkpt lat="40.765525" lon="-3.7520601"><ele>1009.8571428571429</ele><time>2026-03-24T14:37:43.981Z</time></trkpt><trkpt lat="40.7656077" lon="-3.7519851"><ele>1010.5714285714287</ele><time>2026-03-24T14:37:45.974Z</time></trkpt><trkpt lat="40.765642" lon="-3.7519136"><ele>1011.2857142857144</ele><time>2026-03-24T14:37:48.979Z</time></trkpt><trkpt lat="40.765703" lon="-3.7519483"><ele>1012.0000000000001</ele><time>2026-03-24T14:42:07.183Z</time></trkpt><trkpt lat="40.7657604" lon="-3.7518703"><ele>1011.9999999999999</ele><time>2026-03-24T14:42:25.943Z</time></trkpt><trkpt lat="40.7658084" lon="-3.7518106"><ele>1012.0</ele><time>2026-03-24T14:42:26.958Z</time></trkpt><trkpt lat="40.7658706" lon="-3.7517668"><ele>1012.0</ele><time>2026-03-24T14:42:27.953Z</time></trkpt><trkpt lat="40.7659369" lon="-3.7517239"><ele>1012.0</ele><time>2026-03-24T14:42:28.944Z</time></trkpt><trkpt lat="40.7660205" lon="-3.7516876"><ele>1011.9999999999999</ele><time>2026-03-24T14:42:29.985Z</time></trkpt><trkpt lat="40.7660961" lon="-3.7516553"><ele>1012.0</ele><time>2026-03-24T14:42:30.946Z</time></trkpt><trkpt lat="40.7661772" lon="-3.7516252"><ele>1012.6666666666666</ele><time>2026-03-24T14:42:31.968Z</time></trkpt><trkpt lat="40.766257" lon="-3.75157"><ele>1013.3333333333333</ele><time>2026-03-24T14:42:32.98Z</time></trkpt><trkpt lat="40.7663272" lon="-3.7515133"><ele>1014.0</ele><time>2026-03-24T14:42:33.967Z</time></trkpt><trkpt lat="40.7664008" lon="-3.7514539"><ele>1014.6666666666667</ele><time>2026-03-24T14:42:34.998Z</time></trkpt><trkpt lat="40.7664793" lon="-3.7514056"><ele>1015.3333333333334</ele><time>2026-03-24T14:42:35.977Z</time></trkpt><trkpt lat="40.7665498" lon="-3.7513676"><ele>1016.0</ele><time>2026-03-24T14:42:37.009Z</time></trkpt><trkpt lat="40.7666236" lon="-3.7513411"><ele>1016.0000000000001</ele><time>2026-03-24T14:42:37.969Z</time></trkpt><trkpt lat="40.7667015" lon="-3.7513136"><ele>1016.0</ele><time>2026-03-24T14:42:38.962Z</time></trkpt><trkpt lat="40.7667915" lon="-3.7512708"><ele>1016.0</ele><time>2026-03-24T14:42:39.948Z</time></trkpt><trkpt lat="40.7668789" lon="-3.7512285"><ele>1016.0</ele><time>2026-03-24T14:42:40.943Z</time></trkpt><trkpt lat="40.7669664" lon="-3.7511862"><ele>1016.0000000000001</ele><time>2026-03-24T14:42:41.954Z</time></trkpt><trkpt lat="40.7670454" lon="-3.7511615"><ele>1016.0</ele><time>2026-03-24T14:42:42.952Z</time></trkpt><trkpt lat="40.7671314" lon="-3.7511672"><ele>1016.5999999999999</ele><time>2026-03-24T14:42:43.951Z</time></trkpt><trkpt lat="40.7672251" lon="-3.7511888"><ele>1017.1999999999999</ele><time>2026-03-24T14:42:44.944Z</time></trkpt><trkpt lat="40.7673147" lon="-3.7512046"><ele>1017.8000000000001</ele><time>2026-03-24T14:42:45.949Z</time></trkpt><trkpt lat="40.7673961" lon="-3.7512262"><ele>1018.4000000000001</ele><time>2026-03-24T14:42:46.959Z</time></trkpt><trkpt lat="40.767464" lon="-3.7512255"><ele>1019.0</ele><time>2026-03-24T14:42:47.972Z</time></trkpt><trkpt lat="40.7675763" lon="-3.7511807"><ele>1019.0</ele><time>2026-03-24T14:42:49.975Z</time></trkpt><trkpt lat="40.7676384" lon="-3.7511562"><ele>1019.0000000000001</ele><time>2026-03-24T14:42:51.062Z</time></trkpt><trkpt lat="40.7677611" lon="-3.751161"><ele>1019.0000000000001</ele><time>2026-03-24T14:42:52.962Z</time></trkpt><trkpt lat="40.7678193" lon="-3.7512146"><ele>1019.0</ele><time>2026-03-24T14:42:53.966Z</time></trkpt><trkpt lat="40.7679017" lon="-3.7512944"><ele>1019.0</ele><time>2026-03-24T14:42:55.985Z</time></trkpt><trkpt lat="40.7680238" lon="-3.7512942"><ele>1019.8333333333334</ele><time>2026-03-24T14:42:57.951Z</time></trkpt><trkpt lat="40.7681028" lon="-3.7513001"><ele>1020.6666666666667</ele><time>2026-03-24T14:42:58.962Z</time></trkpt><trkpt lat="40.7681783" lon="-3.7513105"><ele>1021.5</ele><time>2026-03-24T14:42:59.982Z</time></trkpt><trkpt lat="40.7682483" lon="-3.7513187"><ele>1022.3333333333333</ele><time>2026-03-24T14:43:00.973Z</time></trkpt><trkpt lat="40.7683202" lon="-3.7512916"><ele>1023.1666666666666</ele><time>2026-03-24T14:43:01.958Z</time></trkpt><trkpt lat="40.7684001" lon="-3.7512389"><ele>1024.0</ele><time>2026-03-24T14:43:02.981Z</time></trkpt><trkpt lat="40.7684873" lon="-3.7511996"><ele>1024.4</ele><time>2026-03-24T14:43:03.978Z</time></trkpt><trkpt lat="40.7685796" lon="-3.7511825"><ele>1024.8000000000002</ele><time>2026-03-24T14:43:04.938Z</time></trkpt><trkpt lat="40.7686735" lon="-3.7511877"><ele>1025.1999999999998</ele><time>2026-03-24T14:43:05.965Z</time></trkpt><trkpt lat="40.7687726" lon="-3.7512053"><ele>1025.6</ele><time>2026-03-24T14:43:06.962Z</time></trkpt><trkpt lat="40.7688729" lon="-3.7512434"><ele>1026.0</ele><time>2026-03-24T14:43:08.002Z</time></trkpt><trkpt lat="40.7689708" lon="-3.7512945"><ele>1026.0</ele><time>2026-03-24T14:43:08.939Z</time></trkpt><trkpt lat="40.7690546" lon="-3.7513354"><ele>1026.0</ele><time>2026-03-24T14:43:10.001Z</time></trkpt><trkpt lat="40.7691212" lon="-3.7513789"><ele>1026.0</ele><time>2026-03-24T14:43:10.971Z</time></trkpt><trkpt lat="40.7691794" lon="-3.7514194"><ele>1026.0</ele><time>2026-03-24T14:43:11.965Z</time></trkpt><trkpt lat="40.7692407" lon="-3.7514438"><ele>1026.0</ele><time>2026-03-24T14:43:12.983Z</time></trkpt><trkpt lat="40.7693098" lon="-3.7514341"><ele>1026.0</ele><time>2026-03-24T14:43:13.949Z</time></trkpt><trkpt lat="40.7693942" lon="-3.7514035"><ele>1026.3333333333333</ele><time>2026-03-24T14:43:14.966Z</time></trkpt><trkpt lat="40.7694812" lon="-3.7513607"><ele>1026.6666666666667</ele><time>2026-03-24T14:43:15.965Z</time></trkpt><trkpt lat="40.7695469" lon="-3.7513041"><ele>1027.0</ele><time>2026-03-24T14:43:16.963Z</time></trkpt><trkpt lat="40.7696" lon="-3.7512266"><ele>1027.3333333333335</ele><time>2026-03-24T14:43:17.955Z</time></trkpt><trkpt lat="40.7696549" lon="-3.7511323"><ele>1027.6666666666667</ele><time>2026-03-24T14:43:18.98Z</time></trkpt><trkpt lat="40.7697122" lon="-3.7510212"><ele>1028.0</ele><time>2026-03-24T14:43:19.971Z</time></trkpt><trkpt lat="40.7697854" lon="-3.7509169"><ele>1028.0</ele><time>2026-03-24T14:43:20.95Z</time></trkpt><trkpt lat="40.7698722" lon="-3.7508327"><ele>1028.0</ele><time>2026-03-24T14:43:21.976Z</time></trkpt><trkpt lat="40.7699539" lon="-3.7507431"><ele>1028.0</ele><time>2026-03-24T14:43:22.94Z</time></trkpt><trkpt lat="40.7700316" lon="-3.750651"><ele>1028.0</ele><time>2026-03-24T14:43:23.991Z</time></trkpt><trkpt lat="40.7701032" lon="-3.7505576"><ele>1028.0</ele><time>2026-03-24T14:43:24.965Z</time></trkpt><trkpt lat="40.7701726" lon="-3.7504796"><ele>1028.1666666666667</ele><time>2026-03-24T14:43:25.937Z</time></trkpt><trkpt lat="40.7702263" lon="-3.7504058"><ele>1028.3333333333335</ele><time>2026-03-24T14:43:26.984Z</time></trkpt><trkpt lat="40.7702806" lon="-3.7503324"><ele>1028.5</ele><time>2026-03-24T14:43:27.985Z</time></trkpt><trkpt lat="40.7703423" lon="-3.7502691"><ele>1028.6666666666667</ele><time>2026-03-24T14:43:28.959Z</time></trkpt><trkpt lat="40.7704197" lon="-3.7501516"><ele>1028.8333333333333</ele><time>2026-03-24T14:43:30.966Z</time></trkpt><trkpt lat="40.7704526" lon="-3.750069"><ele>1029.0</ele><time>2026-03-24T14:43:31.941Z</time></trkpt><trkpt lat="40.7705085" lon="-3.7499728"><ele>1029.0</ele><time>2026-03-24T14:43:32.93Z</time></trkpt><trkpt lat="40.7705599" lon="-3.7498722"><ele>1029.0</ele><time>2026-03-24T14:43:33.934Z</time></trkpt><trkpt lat="40.7706053" lon="-3.7497788"><ele>1029.0</ele><time>2026-03-24T14:43:34.935Z</time></trkpt><trkpt lat="40.7706406" lon="-3.7496896"><ele>1029.0</ele><time>2026-03-24T14:43:35.929Z</time></trkpt><trkpt lat="40.7706745" lon="-3.7496001"><ele>1029.0</ele><time>2026-03-24T14:43:36.95Z</time></trkpt><trkpt lat="40.7707824" lon="-3.7495192"><ele>1029.0</ele><time>2026-03-24T14:43:38.935Z</time></trkpt><trkpt lat="40.7708897" lon="-3.7495022"><ele>1029.0</ele><time>2026-03-24T14:43:40.936Z</time></trkpt><trkpt lat="40.770945" lon="-3.7494512"><ele>1029.0</ele><time>2026-03-24T14:43:41.945Z</time></trkpt><trkpt lat="40.771006" lon="-3.7493783"><ele>1029.0</ele><time>2026-03-24T14:43:42.953Z</time></trkpt><trkpt lat="40.7710639" lon="-3.7492939"><ele>1029.0</ele><time>2026-03-24T14:43:43.982Z</time></trkpt><trkpt lat="40.771104" lon="-3.7491937"><ele>1029.0</ele><time>2026-03-24T14:43:44.986Z</time></trkpt><trkpt lat="40.7711426" lon="-3.7490987"><ele>1028.8</ele><time>2026-03-24T14:43:45.965Z</time></trkpt><trkpt lat="40.7711907" lon="-3.7490082"><ele>1028.6000000000001</ele><time>2026-03-24T14:43:46.948Z</time></trkpt><trkpt lat="40.7712666" lon="-3.7489385"><ele>1028.4</ele><time>2026-03-24T14:43:47.979Z</time></trkpt><trkpt lat="40.7713686" lon="-3.7488707"><ele>1028.2</ele><time>2026-03-24T14:43:48.964Z</time></trkpt><trkpt lat="40.7714672" lon="-3.7488104"><ele>1028.0</ele><time>2026-03-24T14:43:49.966Z</time></trkpt><trkpt lat="40.7715511" lon="-3.748724"><ele>1028.0</ele><time>2026-03-24T14:43:50.953Z</time></trkpt><trkpt lat="40.7716184" lon="-3.7486221"><ele>1028.0</ele><time>2026-03-24T14:43:51.978Z</time></trkpt><trkpt lat="40.7716908" lon="-3.7485221"><ele>1028.0</ele><time>2026-03-24T14:43:52.974Z</time></trkpt><trkpt lat="40.7717863" lon="-3.7484254"><ele>1028.0</ele><time>2026-03-24T14:43:53.979Z</time></trkpt><trkpt lat="40.7718838" lon="-3.7483505"><ele>1028.0</ele><time>2026-03-24T14:43:54.97Z</time></trkpt><trkpt lat="40.7719805" lon="-3.7482788"><ele>1027.8</ele><time>2026-03-24T14:43:55.966Z</time></trkpt><trkpt lat="40.7720582" lon="-3.7482269"><ele>1027.6</ele><time>2026-03-24T14:43:57.156Z</time></trkpt><trkpt lat="40.7721589" lon="-3.748119"><ele>1027.4</ele><time>2026-03-24T14:43:58.967Z</time></trkpt><trkpt lat="40.7722119" lon="-3.7480579"><ele>1027.2</ele><time>2026-03-24T14:43:59.973Z</time></trkpt><trkpt lat="40.7722851" lon="-3.7480098"><ele>1027.0</ele><time>2026-03-24T14:44:00.969Z</time></trkpt><trkpt lat="40.7723715" lon="-3.747975"><ele>1027.0</ele><time>2026-03-24T14:44:01.983Z</time></trkpt><trkpt lat="40.7724659" lon="-3.747947"><ele>1027.0</ele><time>2026-03-24T14:44:02.953Z</time></trkpt><trkpt lat="40.7725582" lon="-3.7479453"><ele>1027.0</ele><time>2026-03-24T14:44:03.952Z</time></trkpt><trkpt lat="40.7726348" lon="-3.7479371"><ele>1027.0</ele><time>2026-03-24T14:44:04.966Z</time></trkpt><trkpt lat="40.7727043" lon="-3.7479347"><ele>1027.0</ele><time>2026-03-24T14:44:05.972Z</time></trkpt><trkpt lat="40.7728232" lon="-3.7478939"><ele>1026.5</ele><time>2026-03-24T14:44:07.964Z</time></trkpt><trkpt lat="40.7728676" lon="-3.7478316"><ele>1026.0</ele><time>2026-03-24T14:44:08.966Z</time></trkpt><trkpt lat="40.7729212" lon="-3.7477637"><ele>1025.5</ele><time>2026-03-24T14:44:09.998Z</time></trkpt><trkpt lat="40.7729818" lon="-3.7477079"><ele>1025.0</ele><time>2026-03-24T14:44:10.942Z</time></trkpt><trkpt lat="40.7730431" lon="-3.7476629"><ele>1024.5</ele><time>2026-03-24T14:44:11.975Z</time></trkpt><trkpt lat="40.773155" lon="-3.7476233"><ele>1024.0</ele><time>2026-03-24T14:44:13.965Z</time></trkpt><trkpt lat="40.7732219" lon="-3.7476041"><ele>1023.1666666666666</ele><time>2026-03-24T14:44:14.968Z</time></trkpt><trkpt lat="40.7732952" lon="-3.7475823"><ele>1022.3333333333333</ele><time>2026-03-24T14:44:16.066Z</time></trkpt><trkpt lat="40.7734353" lon="-3.7475181"><ele>1021.5</ele><time>2026-03-24T14:44:17.967Z</time></trkpt><trkpt lat="40.7734956" lon="-3.7474731"><ele>1020.6666666666667</ele><time>2026-03-24T14:44:18.948Z</time></trkpt><trkpt lat="40.773542" lon="-3.7474152"><ele>1019.8333333333334</ele><time>2026-03-24T14:44:19.963Z</time></trkpt><trkpt lat="40.7735928" lon="-3.7473655"><ele>1019.0</ele><time>2026-03-24T14:44:20.962Z</time></trkpt><trkpt lat="40.7736542" lon="-3.7473406"><ele>1018.5000000000001</ele><time>2026-03-24T14:44:21.959Z</time></trkpt><trkpt lat="40.7737443" lon="-3.7473231"><ele>1018.0</ele><time>2026-03-24T14:44:23.025Z</time></trkpt><trkpt lat="40.7738289" lon="-3.7473135"><ele>1017.5</ele><time>2026-03-24T14:44:23.973Z</time></trkpt><trkpt lat="40.7738932" lon="-3.7472911"><ele>1017.0</ele><time>2026-03-24T14:44:24.971Z</time></trkpt><trkpt lat="40.7739907" lon="-3.7471907"><ele>1016.5000000000001</ele><time>2026-03-24T14:44:26.955Z</time></trkpt><trkpt lat="40.7740409" lon="-3.7471161"><ele>1016.0</ele><time>2026-03-24T14:44:27.977Z</time></trkpt><trkpt lat="40.7740994" lon="-3.7470519"><ele>1016.0000000000001</ele><time>2026-03-24T14:44:28.941Z</time></trkpt><trkpt lat="40.7741688" lon="-3.7470177"><ele>1016.0</ele><time>2026-03-24T14:44:29.929Z</time></trkpt><trkpt lat="40.774235" lon="-3.747004"><ele>1016.0</ele><time>2026-03-24T14:44:30.957Z</time></trkpt><trkpt lat="40.774341" lon="-3.7470401"><ele>1016.0</ele><time>2026-03-24T14:44:32.971Z</time></trkpt><trkpt lat="40.7743946" lon="-3.747087"><ele>1016.0000000000001</ele><time>2026-03-24T14:44:33.959Z</time></trkpt><trkpt lat="40.7744574" lon="-3.7471188"><ele>1016.0</ele><time>2026-03-24T14:44:34.976Z</time></trkpt><trkpt lat="40.7745638" lon="-3.7470619"><ele>1014.8333333333334</ele><time>2026-03-24T14:44:36.973Z</time></trkpt><trkpt lat="40.7746093" lon="-3.7469996"><ele>1013.6666666666667</ele><time>2026-03-24T14:44:37.948Z</time></trkpt><trkpt lat="40.774675" lon="-3.7468737"><ele>1012.5</ele><time>2026-03-24T14:44:39.974Z</time></trkpt><trkpt lat="40.7747072" lon="-3.7467997"><ele>1011.3333333333333</ele><time>2026-03-24T14:44:40.985Z</time></trkpt><trkpt lat="40.7747263" lon="-3.7467188"><ele>1010.1666666666666</ele><time>2026-03-24T14:44:41.948Z</time></trkpt><trkpt lat="40.7747391" lon="-3.7466343"><ele>1009.0</ele><time>2026-03-24T14:44:42.955Z</time></trkpt><trkpt lat="40.77479" lon="-3.7465046"><ele>1008.8333333333333</ele><time>2026-03-24T14:44:45.009Z</time></trkpt><trkpt lat="40.7748457" lon="-3.7464623"><ele>1008.6666666666666</ele><time>2026-03-24T14:44:45.981Z</time></trkpt><trkpt lat="40.7749145" lon="-3.746424"><ele>1008.5</ele><time>2026-03-24T14:44:46.951Z</time></trkpt><trkpt lat="40.7749791" lon="-3.7463791"><ele>1008.3333333333333</ele><time>2026-03-24T14:44:47.96Z</time></trkpt><trkpt lat="40.7750379" lon="-3.7463255"><ele>1008.1666666666666</ele><time>2026-03-24T14:44:48.96Z</time></trkpt><trkpt lat="40.7750813" lon="-3.7462573"><ele>1008.0</ele><time>2026-03-24T14:44:49.961Z</time></trkpt><trkpt lat="40.7751473" lon="-3.7461583"><ele>1007.0</ele><time>2026-03-24T14:44:51.927Z</time></trkpt><trkpt lat="40.7752254" lon="-3.7460682"><ele>1006.0</ele><time>2026-03-24T14:44:53.974Z</time></trkpt><trkpt lat="40.7753291" lon="-3.7459732"><ele>1005.0</ele><time>2026-03-24T14:44:55.958Z</time></trkpt><trkpt lat="40.7754247" lon="-3.745897"><ele>1004.0</ele><time>2026-03-24T14:44:57.97Z</time></trkpt><trkpt lat="40.7755201" lon="-3.7458379"><ele>1003.0</ele><time>2026-03-24T14:44:59.967Z</time></trkpt><trkpt lat="40.775621" lon="-3.7457929"><ele>1002.3333333333333</ele><time>2026-03-24T14:45:01.945Z</time></trkpt><trkpt lat="40.7756913" lon="-3.7457751"><ele>1001.6666666666666</ele><time>2026-03-24T14:45:02.969Z</time></trkpt><trkpt lat="40.7757595" lon="-3.745742"><ele>1001.0</ele><time>2026-03-24T14:45:03.954Z</time></trkpt><trkpt lat="40.7758209" lon="-3.7456929"><ele>1000.3333333333333</ele><time>2026-03-24T14:45:04.946Z</time></trkpt><trkpt lat="40.7758712" lon="-3.7456378"><ele>999.6666666666666</ele><time>2026-03-24T14:45:05.956Z</time></trkpt><trkpt lat="40.7759672" lon="-3.7455442"><ele>999.0</ele><time>2026-03-24T14:45:07.972Z</time></trkpt><trkpt lat="40.7760363" lon="-3.7455128"><ele>998.5</ele><time>2026-03-24T14:45:08.966Z</time></trkpt><trkpt lat="40.7761073" lon="-3.7455145"><ele>998.0</ele><time>2026-03-24T14:45:09.97Z</time></trkpt><trkpt lat="40.7761726" lon="-3.7455105"><ele>997.5</ele><time>2026-03-24T14:45:10.941Z</time></trkpt><trkpt lat="40.7762786" lon="-3.7455165"><ele>997.0</ele><time>2026-03-24T14:45:12.979Z</time></trkpt><trkpt lat="40.776342" lon="-3.7454802"><ele>996.5</ele><time>2026-03-24T14:45:13.975Z</time></trkpt><trkpt lat="40.7764138" lon="-3.7454282"><ele>996.0</ele><time>2026-03-24T14:45:14.968Z</time></trkpt><trkpt lat="40.7764908" lon="-3.7453834"><ele>996.0</ele><time>2026-03-24T14:45:15.96Z</time></trkpt><trkpt lat="40.7765669" lon="-3.7453383"><ele>996.0</ele><time>2026-03-24T14:45:17.045Z</time></trkpt><trkpt lat="40.7766333" lon="-3.7452917"><ele>996.0</ele><time>2026-03-24T14:45:17.981Z</time></trkpt><trkpt lat="40.776698" lon="-3.7452639"><ele>996.0</ele><time>2026-03-24T14:45:18.973Z</time></trkpt><trkpt lat="40.7768044" lon="-3.7452233"><ele>996.0</ele><time>2026-03-24T14:45:20.935Z</time></trkpt><trkpt lat="40.7769007" lon="-3.7451877"><ele>996.0</ele><time>2026-03-24T14:45:22.94Z</time></trkpt><trkpt lat="40.777009" lon="-3.7451752"><ele>994.3333333333334</ele><time>2026-03-24T14:45:24.93Z</time></trkpt><trkpt lat="40.777124" lon="-3.7451488"><ele>992.6666666666667</ele><time>2026-03-24T14:45:26.96Z</time></trkpt><trkpt lat="40.7771859" lon="-3.7451192"><ele>991.0</ele><time>2026-03-24T14:45:27.965Z</time></trkpt><trkpt lat="40.7772581" lon="-3.7450817"><ele>989.3333333333334</ele><time>2026-03-24T14:45:28.953Z</time></trkpt><trkpt lat="40.7773224" lon="-3.7450254"><ele>987.6666666666667</ele><time>2026-03-24T14:45:29.97Z</time></trkpt><trkpt lat="40.777375" lon="-3.7449683"><ele>986.0</ele><time>2026-03-24T14:45:30.953Z</time></trkpt><trkpt lat="40.7774407" lon="-3.7448579"><ele>986.0000000000001</ele><time>2026-03-24T14:45:32.935Z</time></trkpt><trkpt lat="40.7774961" lon="-3.7447356"><ele>986.0</ele><time>2026-03-24T14:45:34.951Z</time></trkpt><trkpt lat="40.7775311" lon="-3.7446593"><ele>986.0</ele><time>2026-03-24T14:45:35.975Z</time></trkpt><trkpt lat="40.777591" lon="-3.7446021"><ele>986.0</ele><time>2026-03-24T14:45:36.963Z</time></trkpt><trkpt lat="40.7776614" lon="-3.7445548"><ele>986.0000000000001</ele><time>2026-03-24T14:45:37.982Z</time></trkpt><trkpt lat="40.7777195" lon="-3.74451"><ele>986.0</ele><time>2026-03-24T14:45:38.977Z</time></trkpt><trkpt lat="40.7777896" lon="-3.7443857"><ele>984.7142857142857</ele><time>2026-03-24T14:45:40.96Z</time></trkpt><trkpt lat="40.7778125" lon="-3.7443044"><ele>983.4285714285716</ele><time>2026-03-24T14:45:41.986Z</time></trkpt><trkpt lat="40.7778549" lon="-3.7442269"><ele>982.1428571428572</ele><time>2026-03-24T14:45:42.959Z</time></trkpt><trkpt lat="40.7779077" lon="-3.7441567"><ele>980.8571428571429</ele><time>2026-03-24T14:45:44.027Z</time></trkpt><trkpt lat="40.777958" lon="-3.7440849"><ele>979.5714285714287</ele><time>2026-03-24T14:45:44.97Z</time></trkpt><trkpt lat="40.778013" lon="-3.7440167"><ele>978.2857142857144</ele><time>2026-03-24T14:45:45.972Z</time></trkpt><trkpt lat="40.7780594" lon="-3.7439568"><ele>977.0000000000001</ele><time>2026-03-24T14:45:46.963Z</time></trkpt><trkpt lat="40.7780599" lon="-3.7438464"><ele>977.0000000000001</ele><time>2026-03-24T14:45:48.955Z</time></trkpt><trkpt lat="40.7780234" lon="-3.743777"><ele>977.0</ele><time>2026-03-24T14:45:49.958Z</time></trkpt><trkpt lat="40.7779676" lon="-3.7436947"><ele>977.0</ele><time>2026-03-24T14:45:50.961Z</time></trkpt><trkpt lat="40.7779092" lon="-3.7436242"><ele>977.0</ele><time>2026-03-24T14:45:51.941Z</time></trkpt><trkpt lat="40.7778499" lon="-3.7435421"><ele>977.0000000000001</ele><time>2026-03-24T14:45:52.972Z</time></trkpt><trkpt lat="40.7777949" lon="-3.7434745"><ele>977.0</ele><time>2026-03-24T14:45:53.972Z</time></trkpt><trkpt lat="40.7777452" lon="-3.743402"><ele>976.857142857143</ele><time>2026-03-24T14:45:54.949Z</time></trkpt><trkpt lat="40.7777054" lon="-3.7433248"><ele>976.7142857142858</ele><time>2026-03-24T14:45:55.94Z</time></trkpt><trkpt lat="40.7776609" lon="-3.7432524"><ele>976.5714285714286</ele><time>2026-03-24T14:45:56.967Z</time></trkpt><trkpt lat="40.7776211" lon="-3.7431839"><ele>976.4285714285714</ele><time>2026-03-24T14:45:57.939Z</time></trkpt><trkpt lat="40.7775819" lon="-3.7431133"><ele>976.2857142857142</ele><time>2026-03-24T14:45:58.945Z</time></trkpt><trkpt lat="40.7775349" lon="-3.7430493"><ele>976.142857142857</ele><time>2026-03-24T14:45:59.934Z</time></trkpt><trkpt lat="40.7774698" lon="-3.7429988"><ele>975.9999999999999</ele><time>2026-03-24T14:46:00.961Z</time></trkpt><trkpt lat="40.7774005" lon="-3.742952"><ele>977.142857142857</ele><time>2026-03-24T14:46:01.958Z</time></trkpt><trkpt lat="40.7773381" lon="-3.7429034"><ele>978.2857142857142</ele><time>2026-03-24T14:46:02.961Z</time></trkpt><trkpt lat="40.7772857" lon="-3.7428423"><ele>979.4285714285714</ele><time>2026-03-24T14:46:03.993Z</time></trkpt><trkpt lat="40.7772389" lon="-3.7427675"><ele>980.5714285714286</ele><time>2026-03-24T14:46:04.944Z</time></trkpt><trkpt lat="40.7771771" lon="-3.7427149"><ele>981.7142857142858</ele><time>2026-03-24T14:46:05.944Z</time></trkpt><trkpt lat="40.7771106" lon="-3.7426873"><ele>982.857142857143</ele><time>2026-03-24T14:46:06.976Z</time></trkpt><trkpt lat="40.7770453" lon="-3.7426671"><ele>984.0000000000001</ele><time>2026-03-24T14:46:07.989Z</time></trkpt><trkpt lat="40.7769767" lon="-3.7426401"><ele>984.1428571428573</ele><time>2026-03-24T14:46:08.976Z</time></trkpt><trkpt lat="40.7769054" lon="-3.7426079"><ele>984.2857142857143</ele><time>2026-03-24T14:46:09.955Z</time></trkpt><trkpt lat="40.7768285" lon="-3.7425821"><ele>984.4285714285716</ele><time>2026-03-24T14:46:10.979Z</time></trkpt><trkpt lat="40.7767579" lon="-3.7425648"><ele>984.5714285714287</ele><time>2026-03-24T14:46:11.984Z</time></trkpt><trkpt lat="40.7766947" lon="-3.7425233"><ele>984.7142857142858</ele><time>2026-03-24T14:46:12.926Z</time></trkpt><trkpt lat="40.7766363" lon="-3.7424687"><ele>984.8571428571429</ele><time>2026-03-24T14:46:13.939Z</time></trkpt><trkpt lat="40.7765817" lon="-3.7424131"><ele>985.0</ele><time>2026-03-24T14:46:14.939Z</time></trkpt><trkpt lat="40.776528" lon="-3.7423618"><ele>986.0</ele><time>2026-03-24T14:46:15.977Z</time></trkpt><trkpt lat="40.7764247" lon="-3.7422766"><ele>987.0</ele><time>2026-03-24T14:46:17.959Z</time></trkpt><trkpt lat="40.7763211" lon="-3.7422337"><ele>988.0</ele><time>2026-03-24T14:46:19.94Z</time></trkpt><trkpt lat="40.7762155" lon="-3.7422267"><ele>989.0</ele><time>2026-03-24T14:46:21.928Z</time></trkpt><trkpt lat="40.7761506" lon="-3.7422199"><ele>990.0</ele><time>2026-03-24T14:46:23.941Z</time></trkpt><trkpt lat="40.7760869" lon="-3.7422077"><ele>990.0</ele><time>2026-03-24T14:46:24.95Z</time></trkpt><trkpt lat="40.7760229" lon="-3.7421836"><ele>990.0</ele><time>2026-03-24T14:46:25.958Z</time></trkpt><trkpt lat="40.7759146" lon="-3.7421334"><ele>990.0</ele><time>2026-03-24T14:46:27.947Z</time></trkpt><trkpt lat="40.7758113" lon="-3.7420611"><ele>990.0</ele><time>2026-03-24T14:46:29.982Z</time></trkpt><trkpt lat="40.7757509" lon="-3.7420008"><ele>990.0</ele><time>2026-03-24T14:46:30.96Z</time></trkpt><trkpt lat="40.7756881" lon="-3.7419315"><ele>990.0</ele><time>2026-03-24T14:46:31.951Z</time></trkpt><trkpt lat="40.7756275" lon="-3.7418656"><ele>990.0</ele><time>2026-03-24T14:46:32.96Z</time></trkpt><trkpt lat="40.7755711" lon="-3.7417901"><ele>990.0</ele><time>2026-03-24T14:46:33.965Z</time></trkpt><trkpt lat="40.7755092" lon="-3.7417258"><ele>990.0</ele><time>2026-03-24T14:46:34.949Z</time></trkpt><trkpt lat="40.7754407" lon="-3.7416654"><ele>990.0</ele><time>2026-03-24T14:46:35.949Z</time></trkpt><trkpt lat="40.7753762" lon="-3.7416015"><ele>990.0</ele><time>2026-03-24T14:46:36.948Z</time></trkpt><trkpt lat="40.7753061" lon="-3.7415338"><ele>990.0</ele><time>2026-03-24T14:46:37.967Z</time></trkpt><trkpt lat="40.7752367" lon="-3.7414573"><ele>990.0</ele><time>2026-03-24T14:46:38.935Z</time></trkpt><trkpt lat="40.7751771" lon="-3.7413736"><ele>990.0</ele><time>2026-03-24T14:46:39.97Z</time></trkpt><trkpt lat="40.7751099" lon="-3.7412765"><ele>990.0</ele><time>2026-03-24T14:46:41.06Z</time></trkpt><trkpt lat="40.7749659" lon="-3.7411072"><ele>990.8333333333334</ele><time>2026-03-24T14:46:42.959Z</time></trkpt><trkpt lat="40.7749051" lon="-3.7410175"><ele>991.6666666666667</ele><time>2026-03-24T14:46:43.969Z</time></trkpt><trkpt lat="40.7748582" lon="-3.7409375"><ele>992.5</ele><time>2026-03-24T14:46:44.949Z</time></trkpt><trkpt lat="40.7748269" lon="-3.7408569"><ele>993.3333333333334</ele><time>2026-03-24T14:46:45.981Z</time></trkpt><trkpt lat="40.7747918" lon="-3.7407617"><ele>994.1666666666667</ele><time>2026-03-24T14:46:46.954Z</time></trkpt><trkpt lat="40.7747555" lon="-3.7406668"><ele>995.0</ele><time>2026-03-24T14:46:47.978Z</time></trkpt><trkpt lat="40.7747103" lon="-3.7405734"><ele>995.0000000000001</ele><time>2026-03-24T14:46:48.981Z</time></trkpt><trkpt lat="40.7746599" lon="-3.7404991"><ele>995.0</ele><time>2026-03-24T14:46:49.961Z</time></trkpt><trkpt lat="40.7746148" lon="-3.7404222"><ele>995.0</ele><time>2026-03-24T14:46:50.951Z</time></trkpt><trkpt lat="40.7745713" lon="-3.7403466"><ele>995.0</ele><time>2026-03-24T14:46:51.955Z</time></trkpt><trkpt lat="40.7745308" lon="-3.7402688"><ele>995.0000000000001</ele><time>2026-03-24T14:46:52.957Z</time></trkpt><trkpt lat="40.774484" lon="-3.7401892"><ele>995.0</ele><time>2026-03-24T14:46:53.985Z</time></trkpt><trkpt lat="40.7744271" lon="-3.7401039"><ele>994.2</ele><time>2026-03-24T14:46:54.971Z</time></trkpt><trkpt lat="40.7743697" lon="-3.7400277"><ele>993.4</ele><time>2026-03-24T14:46:55.954Z</time></trkpt><trkpt lat="40.7743284" lon="-3.7399445"><ele>992.5999999999999</ele><time>2026-03-24T14:46:56.954Z</time></trkpt><trkpt lat="40.7742911" lon="-3.7397886"><ele>991.8</ele><time>2026-03-24T14:46:58.969Z</time></trkpt><trkpt lat="40.774241" lon="-3.7396585"><ele>991.0</ele><time>2026-03-24T14:47:00.973Z</time></trkpt><trkpt lat="40.7741399" lon="-3.7396025"><ele>990.9999999999999</ele><time>2026-03-24T14:47:02.962Z</time></trkpt><trkpt lat="40.7740833" lon="-3.7395537"><ele>991.0</ele><time>2026-03-24T14:47:03.972Z</time></trkpt><trkpt lat="40.7740292" lon="-3.7394926"><ele>991.0</ele><time>2026-03-24T14:47:04.967Z</time></trkpt><trkpt lat="40.7739746" lon="-3.7394216"><ele>991.0</ele><time>2026-03-24T14:47:05.962Z</time></trkpt><trkpt lat="40.7739296" lon="-3.7393388"><ele>990.9999999999999</ele><time>2026-03-24T14:47:06.982Z</time></trkpt><trkpt lat="40.7738933" lon="-3.739246"><ele>991.0</ele><time>2026-03-24T14:47:07.941Z</time></trkpt><trkpt lat="40.7738528" lon="-3.7391494"><ele>990.4285714285716</ele><time>2026-03-24T14:47:08.95Z</time></trkpt><trkpt lat="40.7738008" lon="-3.7390618"><ele>989.8571428571429</ele><time>2026-03-24T14:47:09.966Z</time></trkpt><trkpt lat="40.773754" lon="-3.7389936"><ele>989.2857142857143</ele><time>2026-03-24T14:47:10.957Z</time></trkpt><trkpt lat="40.7737181" lon="-3.7389168"><ele>988.7142857142858</ele><time>2026-03-24T14:47:11.954Z</time></trkpt><trkpt lat="40.7736937" lon="-3.7388396"><ele>988.1428571428571</ele><time>2026-03-24T14:47:12.947Z</time></trkpt><trkpt lat="40.7736899" lon="-3.7387551"><ele>987.5714285714286</ele><time>2026-03-24T14:47:13.954Z</time></trkpt><trkpt lat="40.7737036" lon="-3.7386529"><ele>987.0</ele><time>2026-03-24T14:47:14.968Z</time></trkpt><trkpt lat="40.7737381" lon="-3.7385321"><ele>986.75</ele><time>2026-03-24T14:47:15.958Z</time></trkpt><trkpt lat="40.7737854" lon="-3.7383886"><ele>986.5</ele><time>2026-03-24T14:47:16.984Z</time></trkpt><trkpt lat="40.7738459" lon="-3.7382338"><ele>986.25</ele><time>2026-03-24T14:47:17.955Z</time></trkpt><trkpt lat="40.7739182" lon="-3.7380819"><ele>986.0</ele><time>2026-03-24T14:47:18.975Z</time></trkpt><trkpt lat="40.7739887" lon="-3.737934"><ele>986.0</ele><time>2026-03-24T14:47:19.945Z</time></trkpt><trkpt lat="40.7740466" lon="-3.7377911"><ele>986.0</ele><time>2026-03-24T14:47:20.985Z</time></trkpt><trkpt lat="40.7740893" lon="-3.7376653"><ele>986.0</ele><time>2026-03-24T14:47:21.969Z</time></trkpt><trkpt lat="40.7741412" lon="-3.7375366"><ele>986.0</ele><time>2026-03-24T14:47:22.971Z</time></trkpt><trkpt lat="40.7742105" lon="-3.7374177"><ele>985.8</ele><time>2026-03-24T14:47:23.956Z</time></trkpt><trkpt lat="40.7742744" lon="-3.7373068"><ele>985.5999999999999</ele><time>2026-03-24T14:47:24.962Z</time></trkpt><trkpt lat="40.7743328" lon="-3.7372025"><ele>985.4</ele><time>2026-03-24T14:47:25.959Z</time></trkpt><trkpt lat="40.774385" lon="-3.7371058"><ele>985.2</ele><time>2026-03-24T14:47:26.975Z</time></trkpt><trkpt lat="40.7744301" lon="-3.7370061"><ele>985.0</ele><time>2026-03-24T14:47:27.971Z</time></trkpt><trkpt lat="40.7744616" lon="-3.7368896"><ele>983.2</ele><time>2026-03-24T14:47:28.993Z</time></trkpt><trkpt lat="40.7744721" lon="-3.7367446"><ele>981.4</ele><time>2026-03-24T14:47:29.985Z</time></trkpt><trkpt lat="40.7744808" lon="-3.736598"><ele>979.5999999999999</ele><time>2026-03-24T14:47:30.964Z</time></trkpt><trkpt lat="40.7744975" lon="-3.7364498"><ele>977.8</ele><time>2026-03-24T14:47:31.976Z</time></trkpt><trkpt lat="40.774523" lon="-3.7363167"><ele>976.0</ele><time>2026-03-24T14:47:32.963Z</time></trkpt><trkpt lat="40.7745588" lon="-3.736196"><ele>976.0</ele><time>2026-03-24T14:47:33.991Z</time></trkpt><trkpt lat="40.774597" lon="-3.7360918"><ele>975.9999999999999</ele><time>2026-03-24T14:47:34.973Z</time></trkpt><trkpt lat="40.774646" lon="-3.7359882"><ele>975.9999999999999</ele><time>2026-03-24T14:47:35.971Z</time></trkpt><trkpt lat="40.774701" lon="-3.7358821"><ele>976.0</ele><time>2026-03-24T14:47:36.967Z</time></trkpt><trkpt lat="40.7747578" lon="-3.7357718"><ele>976.0</ele><time>2026-03-24T14:47:37.942Z</time></trkpt><trkpt lat="40.7748081" lon="-3.7356541"><ele>975.0</ele><time>2026-03-24T14:47:38.979Z</time></trkpt><trkpt lat="40.7748544" lon="-3.7355293"><ele>973.9999999999999</ele><time>2026-03-24T14:47:39.964Z</time></trkpt><trkpt lat="40.7748886" lon="-3.7354035"><ele>972.9999999999999</ele><time>2026-03-24T14:47:40.944Z</time></trkpt><trkpt lat="40.774913" lon="-3.7352614"><ele>972.0</ele><time>2026-03-24T14:47:41.94Z</time></trkpt><trkpt lat="40.7749519" lon="-3.7351141"><ele>971.0</ele><time>2026-03-24T14:47:42.931Z</time></trkpt><trkpt lat="40.7749982" lon="-3.7349587"><ele>970.1999999999999</ele><time>2026-03-24T14:47:43.989Z</time></trkpt><trkpt lat="40.7750523" lon="-3.7348088"><ele>969.3999999999999</ele><time>2026-03-24T14:47:44.966Z</time></trkpt><trkpt lat="40.7751204" lon="-3.7346843"><ele>968.6</ele><time>2026-03-24T14:47:45.971Z</time></trkpt><trkpt lat="40.7751897" lon="-3.7345779"><ele>967.8</ele><time>2026-03-24T14:47:46.959Z</time></trkpt><trkpt lat="40.7752602" lon="-3.7344899"><ele>967.0</ele><time>2026-03-24T14:47:47.964Z</time></trkpt><trkpt lat="40.7753323" lon="-3.7344088"><ele>967.1666666666666</ele><time>2026-03-24T14:47:48.994Z</time></trkpt><trkpt lat="40.7753925" lon="-3.7343416"><ele>967.3333333333333</ele><time>2026-03-24T14:47:49.965Z</time></trkpt><trkpt lat="40.7754566" lon="-3.7342906"><ele>967.5</ele><time>2026-03-24T14:47:50.963Z</time></trkpt><trkpt lat="40.7755225" lon="-3.7342557"><ele>967.6666666666667</ele><time>2026-03-24T14:47:51.965Z</time></trkpt><trkpt lat="40.7756329" lon="-3.7341787"><ele>967.8333333333334</ele><time>2026-03-24T14:47:53.978Z</time></trkpt><trkpt lat="40.7756933" lon="-3.7341248"><ele>968.0</ele><time>2026-03-24T14:47:54.968Z</time></trkpt><trkpt lat="40.7757558" lon="-3.7340498"><ele>968.0</ele><time>2026-03-24T14:47:55.97Z</time></trkpt><trkpt lat="40.7758295" lon="-3.7339711"><ele>968.0</ele><time>2026-03-24T14:47:56.97Z</time></trkpt><trkpt lat="40.775905" lon="-3.733912"><ele>968.0</ele><time>2026-03-24T14:47:57.955Z</time></trkpt><trkpt lat="40.7759856" lon="-3.7338775"><ele>968.0</ele><time>2026-03-24T14:47:58.977Z</time></trkpt><trkpt lat="40.7760732" lon="-3.7338519"><ele>968.0</ele><time>2026-03-24T14:47:59.964Z</time></trkpt><trkpt lat="40.7761719" lon="-3.7338318"><ele>966.8</ele><time>2026-03-24T14:48:00.957Z</time></trkpt><trkpt lat="40.7762719" lon="-3.7338122"><ele>965.5999999999999</ele><time>2026-03-24T14:48:01.955Z</time></trkpt><trkpt lat="40.7763692" lon="-3.7337857"><ele>964.4000000000001</ele><time>2026-03-24T14:48:02.972Z</time></trkpt><trkpt lat="40.7764604" lon="-3.7337309"><ele>963.2</ele><time>2026-03-24T14:48:03.985Z</time></trkpt><trkpt lat="40.7765573" lon="-3.7336751"><ele>962.0</ele><time>2026-03-24T14:48:04.964Z</time></trkpt><trkpt lat="40.7766557" lon="-3.7336028"><ele>962.4000000000001</ele><time>2026-03-24T14:48:05.985Z</time></trkpt><trkpt lat="40.7767443" lon="-3.7335329"><ele>962.8000000000001</ele><time>2026-03-24T14:48:06.964Z</time></trkpt><trkpt lat="40.7768212" lon="-3.733463"><ele>963.2</ele><time>2026-03-24T14:48:07.949Z</time></trkpt><trkpt lat="40.7768837" lon="-3.733377"><ele>963.6</ele><time>2026-03-24T14:48:08.97Z</time></trkpt><trkpt lat="40.7769324" lon="-3.733282"><ele>964.0</ele><time>2026-03-24T14:48:09.956Z</time></trkpt><trkpt lat="40.7769849" lon="-3.7331734"><ele>963.25</ele><time>2026-03-24T14:48:10.981Z</time></trkpt><trkpt lat="40.7770453" lon="-3.733048"><ele>962.5</ele><time>2026-03-24T14:48:11.961Z</time></trkpt><trkpt lat="40.7771074" lon="-3.7329157"><ele>961.75</ele><time>2026-03-24T14:48:12.977Z</time></trkpt><trkpt lat="40.7771731" lon="-3.7327895"><ele>961.0</ele><time>2026-03-24T14:48:13.957Z</time></trkpt><trkpt lat="40.7772351" lon="-3.7326603"><ele>961.0</ele><time>2026-03-24T14:48:14.97Z</time></trkpt><trkpt lat="40.7772997" lon="-3.7325293"><ele>960.9999999999999</ele><time>2026-03-24T14:48:15.972Z</time></trkpt><trkpt lat="40.7773553" lon="-3.7324016"><ele>960.9999999999999</ele><time>2026-03-24T14:48:16.966Z</time></trkpt><trkpt lat="40.7774045" lon="-3.7322767"><ele>961.0</ele><time>2026-03-24T14:48:17.961Z</time></trkpt><trkpt lat="40.7774599" lon="-3.7321486"><ele>961.0</ele><time>2026-03-24T14:48:18.94Z</time></trkpt><trkpt lat="40.7775092" lon="-3.7320243"><ele>961.0</ele><time>2026-03-24T14:48:19.938Z</time></trkpt><trkpt lat="40.7775607" lon="-3.7318962"><ele>960.9999999999999</ele><time>2026-03-24T14:48:20.954Z</time></trkpt><trkpt lat="40.7776071" lon="-3.7317771"><ele>960.9999999999999</ele><time>2026-03-24T14:48:21.945Z</time></trkpt><trkpt lat="40.7776568" lon="-3.7316577"><ele>961.0</ele><time>2026-03-24T14:48:22.979Z</time></trkpt><trkpt lat="40.777698" lon="-3.7315448"><ele>961.0</ele><time>2026-03-24T14:48:23.969Z</time></trkpt><trkpt lat="40.777753" lon="-3.7314536"><ele>960.5999999999999</ele><time>2026-03-24T14:48:24.951Z</time></trkpt><trkpt lat="40.7778294" lon="-3.7313719"><ele>960.1999999999999</ele><time>2026-03-24T14:48:25.967Z</time></trkpt><trkpt lat="40.7779075" lon="-3.7312926"><ele>959.8000000000001</ele><time>2026-03-24T14:48:26.968Z</time></trkpt><trkpt lat="40.7779882" lon="-3.7312091"><ele>959.4000000000001</ele><time>2026-03-24T14:48:27.969Z</time></trkpt><trkpt lat="40.778071" lon="-3.7311183"><ele>959.0</ele><time>2026-03-24T14:48:28.962Z</time></trkpt><trkpt lat="40.778152" lon="-3.7310335"><ele>959.0</ele><time>2026-03-24T14:48:29.961Z</time></trkpt><trkpt lat="40.7782298" lon="-3.7309491"><ele>959.0000000000001</ele><time>2026-03-24T14:48:30.986Z</time></trkpt><trkpt lat="40.778301" lon="-3.730863"><ele>959.0000000000001</ele><time>2026-03-24T14:48:31.989Z</time></trkpt><trkpt lat="40.7783763" lon="-3.7307793"><ele>959.0</ele><time>2026-03-24T14:48:32.953Z</time></trkpt><trkpt lat="40.7784472" lon="-3.7306969"><ele>959.0</ele><time>2026-03-24T14:48:33.967Z</time></trkpt><trkpt lat="40.77851" lon="-3.7306016"><ele>958.6</ele><time>2026-03-24T14:48:34.985Z</time></trkpt><trkpt lat="40.7785617" lon="-3.7304953"><ele>958.2</ele><time>2026-03-24T14:48:35.985Z</time></trkpt><trkpt lat="40.7785947" lon="-3.7303738"><ele>957.8000000000001</ele><time>2026-03-24T14:48:36.98Z</time></trkpt><trkpt lat="40.7786206" lon="-3.7302425"><ele>957.4000000000001</ele><time>2026-03-24T14:48:37.961Z</time></trkpt><trkpt lat="40.7786604" lon="-3.7301063"><ele>957.0</ele><time>2026-03-24T14:48:38.957Z</time></trkpt><trkpt lat="40.7787" lon="-3.7299782"><ele>957.0</ele><time>2026-03-24T14:48:39.932Z</time></trkpt><trkpt lat="40.7787488" lon="-3.7298641"><ele>957.0</ele><time>2026-03-24T14:48:40.981Z</time></trkpt><trkpt lat="40.7787973" lon="-3.7297609"><ele>957.0</ele><time>2026-03-24T14:48:41.968Z</time></trkpt><trkpt lat="40.7788424" lon="-3.7296565"><ele>957.0</ele><time>2026-03-24T14:48:42.972Z</time></trkpt><trkpt lat="40.7788816" lon="-3.7295576"><ele>957.0</ele><time>2026-03-24T14:48:43.971Z</time></trkpt><trkpt lat="40.7789146" lon="-3.7294859"><ele>957.0</ele><time>2026-03-24T14:48:45.004Z</time></trkpt><trkpt lat="40.778971" lon="-3.729375"><ele>957.2</ele><time>2026-03-24T14:48:46.962Z</time></trkpt><trkpt lat="40.7790167" lon="-3.7292892"><ele>957.4000000000001</ele><time>2026-03-24T14:48:48.976Z</time></trkpt><trkpt lat="40.7790604" lon="-3.7291836"><ele>957.5999999999999</ele><time>2026-03-24T14:48:50.955Z</time></trkpt><trkpt lat="40.7791156" lon="-3.7290588"><ele>957.8</ele><time>2026-03-24T14:48:52.971Z</time></trkpt><trkpt lat="40.7791878" lon="-3.7289399"><ele>958.0</ele><time>2026-03-24T14:48:54.963Z</time></trkpt><trkpt lat="40.7792305" lon="-3.7288658"><ele>958.0</ele><time>2026-03-24T14:48:55.983Z</time></trkpt><trkpt lat="40.7792658" lon="-3.728789"><ele>958.0</ele><time>2026-03-24T14:48:56.933Z</time></trkpt><trkpt lat="40.7792981" lon="-3.7287062"><ele>958.0</ele><time>2026-03-24T14:48:57.924Z</time></trkpt><trkpt lat="40.7793248" lon="-3.7286239"><ele>958.0</ele><time>2026-03-24T14:48:58.941Z</time></trkpt><trkpt lat="40.7793764" lon="-3.7284828"><ele>958.0</ele><time>2026-03-24T14:49:00.921Z</time></trkpt><trkpt lat="40.7794391" lon="-3.728339"><ele>956.8333333333333</ele><time>2026-03-24T14:49:02.935Z</time></trkpt><trkpt lat="40.7795062" lon="-3.7282094"><ele>955.6666666666666</ele><time>2026-03-24T14:49:04.956Z</time></trkpt><trkpt lat="40.7795538" lon="-3.7281511"><ele>954.5</ele><time>2026-03-24T14:49:05.926Z</time></trkpt><trkpt lat="40.7796025" lon="-3.7280886"><ele>953.3333333333333</ele><time>2026-03-24T14:49:06.929Z</time></trkpt><trkpt lat="40.7796568" lon="-3.7280228"><ele>952.1666666666666</ele><time>2026-03-24T14:49:07.955Z</time></trkpt><trkpt lat="40.7797127" lon="-3.7279656"><ele>951.0</ele><time>2026-03-24T14:49:08.961Z</time></trkpt><trkpt lat="40.7797879" lon="-3.7278999"><ele>951.0</ele><time>2026-03-24T14:49:09.946Z</time></trkpt><trkpt lat="40.7798544" lon="-3.7278369"><ele>951.0</ele><time>2026-03-24T14:49:10.946Z</time></trkpt><trkpt lat="40.7799158" lon="-3.7277797"><ele>951.0</ele><time>2026-03-24T14:49:11.956Z</time></trkpt><trkpt lat="40.7799767" lon="-3.7277237"><ele>951.0</ele><time>2026-03-24T14:49:12.945Z</time></trkpt><trkpt lat="40.7800375" lon="-3.7276773"><ele>951.0</ele><time>2026-03-24T14:49:13.967Z</time></trkpt><trkpt lat="40.7800974" lon="-3.7276345"><ele>951.0</ele><time>2026-03-24T14:49:14.956Z</time></trkpt><trkpt lat="40.7801656" lon="-3.7275819"><ele>951.0</ele><time>2026-03-24T14:49:15.986Z</time></trkpt><trkpt lat="40.7802254" lon="-3.7275275"><ele>950.1428571428571</ele><time>2026-03-24T14:49:17.008Z</time></trkpt><trkpt lat="40.7802874" lon="-3.7274787"><ele>949.2857142857143</ele><time>2026-03-24T14:49:17.945Z</time></trkpt><trkpt lat="40.780349" lon="-3.7274281"><ele>948.4285714285714</ele><time>2026-03-24T14:49:18.96Z</time></trkpt><trkpt lat="40.7804058" lon="-3.7273627"><ele>947.5714285714286</ele><time>2026-03-24T14:49:19.95Z</time></trkpt><trkpt lat="40.7804583" lon="-3.7272918"><ele>946.7142857142858</ele><time>2026-03-24T14:49:20.965Z</time></trkpt><trkpt lat="40.780501" lon="-3.7272185"><ele>945.8571428571429</ele><time>2026-03-24T14:49:21.959Z</time></trkpt><trkpt lat="40.7805386" lon="-3.7271397"><ele>945.0</ele><time>2026-03-24T14:49:22.973Z</time></trkpt><trkpt lat="40.7805781" lon="-3.7270493"><ele>945.0</ele><time>2026-03-24T14:49:23.979Z</time></trkpt><trkpt lat="40.7806214" lon="-3.7269374"><ele>945.0</ele><time>2026-03-24T14:49:24.958Z</time></trkpt><trkpt lat="40.7806634" lon="-3.7268209"><ele>945.0</ele><time>2026-03-24T14:49:25.969Z</time></trkpt><trkpt lat="40.7807091" lon="-3.7267159"><ele>945.0</ele><time>2026-03-24T14:49:26.958Z</time></trkpt><trkpt lat="40.780746" lon="-3.7266258"><ele>945.0</ele><time>2026-03-24T14:49:27.931Z</time></trkpt><trkpt lat="40.7807791" lon="-3.7265396"><ele>945.0</ele><time>2026-03-24T14:49:28.986Z</time></trkpt><trkpt lat="40.7808182" lon="-3.7264554"><ele>944.6666666666666</ele><time>2026-03-24T14:49:29.962Z</time></trkpt><trkpt lat="40.7808569" lon="-3.7263831"><ele>944.3333333333333</ele><time>2026-03-24T14:49:30.965Z</time></trkpt><trkpt lat="40.7809242" lon="-3.7262406"><ele>944.0</ele><time>2026-03-24T14:49:32.972Z</time></trkpt><trkpt lat="40.7809659" lon="-3.7261642"><ele>943.6666666666666</ele><time>2026-03-24T14:49:33.969Z</time></trkpt><trkpt lat="40.7810068" lon="-3.7260847"><ele>943.3333333333333</ele><time>2026-03-24T14:49:34.967Z</time></trkpt><trkpt lat="40.7810441" lon="-3.7260105"><ele>943.0</ele><time>2026-03-24T14:49:35.931Z</time></trkpt><trkpt lat="40.7810772" lon="-3.7259346"><ele>942.4999999999999</ele><time>2026-03-24T14:49:36.995Z</time></trkpt><trkpt lat="40.7811066" lon="-3.7258488"><ele>942.0</ele><time>2026-03-24T14:49:37.943Z</time></trkpt><trkpt lat="40.7811412" lon="-3.7257745"><ele>941.5</ele><time>2026-03-24T14:49:38.976Z</time></trkpt><trkpt lat="40.7811784" lon="-3.7257007"><ele>941.0</ele><time>2026-03-24T14:49:39.967Z</time></trkpt><trkpt lat="40.7812414" lon="-3.7255678"><ele>940.4999999999999</ele><time>2026-03-24T14:49:41.932Z</time></trkpt><trkpt lat="40.781271" lon="-3.7254907"><ele>940.0</ele><time>2026-03-24T14:49:42.948Z</time></trkpt><trkpt lat="40.781307" lon="-3.7254121"><ele>939.9999999999999</ele><time>2026-03-24T14:49:43.944Z</time></trkpt><trkpt lat="40.7813454" lon="-3.7253344"><ele>940.0</ele><time>2026-03-24T14:49:44.972Z</time></trkpt><trkpt lat="40.7813814" lon="-3.7252623"><ele>940.0</ele><time>2026-03-24T14:49:45.95Z</time></trkpt><trkpt lat="40.7814179" lon="-3.7251277"><ele>940.0</ele><time>2026-03-24T14:49:47.99Z</time></trkpt><trkpt lat="40.7814625" lon="-3.7250109"><ele>939.9999999999999</ele><time>2026-03-24T14:49:49.962Z</time></trkpt><trkpt lat="40.7815098" lon="-3.7249467"><ele>940.0</ele><time>2026-03-24T14:49:50.968Z</time></trkpt><trkpt lat="40.7815579" lon="-3.724876"><ele>939.1428571428571</ele><time>2026-03-24T14:49:51.971Z</time></trkpt><trkpt lat="40.7815968" lon="-3.7247975"><ele>938.2857142857142</ele><time>2026-03-24T14:49:52.959Z</time></trkpt><trkpt lat="40.78163" lon="-3.7247166"><ele>937.4285714285713</ele><time>2026-03-24T14:49:53.977Z</time></trkpt><trkpt lat="40.7816616" lon="-3.7246341"><ele>936.5714285714284</ele><time>2026-03-24T14:49:54.971Z</time></trkpt><trkpt lat="40.7816943" lon="-3.7245455"><ele>935.7142857142857</ele><time>2026-03-24T14:49:55.968Z</time></trkpt><trkpt lat="40.7817292" lon="-3.7244668"><ele>934.8571428571427</ele><time>2026-03-24T14:49:56.979Z</time></trkpt><trkpt lat="40.7817623" lon="-3.7243955"><ele>933.9999999999999</ele><time>2026-03-24T14:49:57.96Z</time></trkpt><trkpt lat="40.7817943" lon="-3.7243211"><ele>932.8571428571427</ele><time>2026-03-24T14:49:58.98Z</time></trkpt><trkpt lat="40.781835" lon="-3.7242461"><ele>931.7142857142857</ele><time>2026-03-24T14:49:59.949Z</time></trkpt><trkpt lat="40.7818733" lon="-3.7241678"><ele>930.5714285714284</ele><time>2026-03-24T14:50:01.005Z</time></trkpt><trkpt lat="40.7819022" lon="-3.7240905"><ele>929.4285714285713</ele><time>2026-03-24T14:50:01.966Z</time></trkpt><trkpt lat="40.7819319" lon="-3.7240044"><ele>928.2857142857142</ele><time>2026-03-24T14:50:02.954Z</time></trkpt><trkpt lat="40.7819632" lon="-3.7239062"><ele>927.1428571428571</ele><time>2026-03-24T14:50:03.991Z</time></trkpt><trkpt lat="40.7820043" lon="-3.7238119"><ele>926.0</ele><time>2026-03-24T14:50:04.976Z</time></trkpt><trkpt lat="40.7820389" lon="-3.7237226"><ele>925.5000000000001</ele><time>2026-03-24T14:50:05.943Z</time></trkpt><trkpt lat="40.7820736" lon="-3.7236252"><ele>925.0</ele><time>2026-03-24T14:50:06.966Z</time></trkpt><trkpt lat="40.7821194" lon="-3.7235312"><ele>924.5</ele><time>2026-03-24T14:50:07.97Z</time></trkpt><trkpt lat="40.7821618" lon="-3.7234361"><ele>924.0</ele><time>2026-03-24T14:50:08.98Z</time></trkpt><trkpt lat="40.7822035" lon="-3.7233644"><ele>923.5000000000001</ele><time>2026-03-24T14:50:09.972Z</time></trkpt><trkpt lat="40.7822615" lon="-3.7232734"><ele>923.0</ele><time>2026-03-24T14:50:11.978Z</time></trkpt><trkpt lat="40.7823141" lon="-3.7231681"><ele>923.0000000000001</ele><time>2026-03-24T14:50:13.934Z</time></trkpt><trkpt lat="40.7823925" lon="-3.7230612"><ele>923.0</ele><time>2026-03-24T14:50:15.94Z</time></trkpt><trkpt lat="40.7824447" lon="-3.7229938"><ele>923.0</ele><time>2026-03-24T14:50:16.951Z</time></trkpt><trkpt lat="40.7824925" lon="-3.7229216"><ele>923.0</ele><time>2026-03-24T14:50:17.953Z</time></trkpt><trkpt lat="40.7825502" lon="-3.7228517"><ele>923.0000000000001</ele><time>2026-03-24T14:50:18.932Z</time></trkpt><trkpt lat="40.7826131" lon="-3.7227839"><ele>923.0</ele><time>2026-03-24T14:50:19.963Z</time></trkpt><trkpt lat="40.7826691" lon="-3.7227213"><ele>923.5714285714286</ele><time>2026-03-24T14:50:20.934Z</time></trkpt><trkpt lat="40.7827277" lon="-3.7226633"><ele>924.1428571428571</ele><time>2026-03-24T14:50:21.958Z</time></trkpt><trkpt lat="40.7827907" lon="-3.722609"><ele>924.7142857142857</ele><time>2026-03-24T14:50:22.943Z</time></trkpt><trkpt lat="40.7828648" lon="-3.7225588"><ele>925.2857142857142</ele><time>2026-03-24T14:50:23.926Z</time></trkpt><trkpt lat="40.782937" lon="-3.7225266"><ele>925.8571428571429</ele><time>2026-03-24T14:50:24.94Z</time></trkpt><trkpt lat="40.783008" lon="-3.7225098"><ele>926.4285714285713</ele><time>2026-03-24T14:50:25.955Z</time></trkpt><trkpt lat="40.7830686" lon="-3.7224768"><ele>926.9999999999999</ele><time>2026-03-24T14:50:26.932Z</time></trkpt><trkpt lat="40.783186" lon="-3.7224216"><ele>927.0</ele><time>2026-03-24T14:50:28.958Z</time></trkpt><trkpt lat="40.7832518" lon="-3.7223946"><ele>927.0</ele><time>2026-03-24T14:50:29.962Z</time></trkpt><trkpt lat="40.783324" lon="-3.7223591"><ele>927.0</ele><time>2026-03-24T14:50:30.953Z</time></trkpt><trkpt lat="40.7833958" lon="-3.7223166"><ele>927.0</ele><time>2026-03-24T14:50:31.979Z</time></trkpt><trkpt lat="40.7834597" lon="-3.7222608"><ele>927.0</ele><time>2026-03-24T14:50:32.965Z</time></trkpt><trkpt lat="40.783527" lon="-3.7221992"><ele>927.0</ele><time>2026-03-24T14:50:33.943Z</time></trkpt><trkpt lat="40.7835911" lon="-3.7221262"><ele>926.4000000000001</ele><time>2026-03-24T14:50:34.943Z</time></trkpt><trkpt lat="40.7836531" lon="-3.7220351"><ele>925.8000000000001</ele><time>2026-03-24T14:50:35.958Z</time></trkpt><trkpt lat="40.7837113" lon="-3.7219309"><ele>925.2</ele><time>2026-03-24T14:50:36.975Z</time></trkpt><trkpt lat="40.7837724" lon="-3.7218303"><ele>924.6</ele><time>2026-03-24T14:50:37.953Z</time></trkpt><trkpt lat="40.7838283" lon="-3.7217245"><ele>924.0</ele><time>2026-03-24T14:50:38.978Z</time></trkpt><trkpt lat="40.7838768" lon="-3.7216093"><ele>925.0</ele><time>2026-03-24T14:50:39.978Z</time></trkpt><trkpt lat="40.7839181" lon="-3.7214923"><ele>926.0000000000001</ele><time>2026-03-24T14:50:40.957Z</time></trkpt><trkpt lat="40.7839641" lon="-3.7213831"><ele>927.0000000000001</ele><time>2026-03-24T14:50:41.958Z</time></trkpt><trkpt lat="40.7840092" lon="-3.7212721"><ele>928.0</ele><time>2026-03-24T14:50:42.949Z</time></trkpt><trkpt lat="40.7840464" lon="-3.7211572"><ele>929.0</ele><time>2026-03-24T14:50:43.969Z</time></trkpt><trkpt lat="40.7840772" lon="-3.7210467"><ele>929.0000000000001</ele><time>2026-03-24T14:50:44.973Z</time></trkpt><trkpt lat="40.7841102" lon="-3.7209518"><ele>929.0</ele><time>2026-03-24T14:50:45.965Z</time></trkpt><trkpt lat="40.7841326" lon="-3.7208696"><ele>929.0</ele><time>2026-03-24T14:50:46.945Z</time></trkpt><trkpt lat="40.7841455" lon="-3.7207788"><ele>929.0</ele><time>2026-03-24T14:50:47.961Z</time></trkpt><trkpt lat="40.7841468" lon="-3.7206769"><ele>929.0000000000001</ele><time>2026-03-24T14:50:48.938Z</time></trkpt><trkpt lat="40.7841513" lon="-3.7205585"><ele>929.0</ele><time>2026-03-24T14:50:49.969Z</time></trkpt><trkpt lat="40.7841618" lon="-3.7204247"><ele>929.0</ele><time>2026-03-24T14:50:50.962Z</time></trkpt><trkpt lat="40.7841709" lon="-3.7202826"><ele>929.0000000000001</ele><time>2026-03-24T14:50:51.931Z</time></trkpt><trkpt lat="40.7841857" lon="-3.7201417"><ele>929.0000000000001</ele><time>2026-03-24T14:50:52.945Z</time></trkpt><trkpt lat="40.7841971" lon="-3.7200033"><ele>929.0</ele><time>2026-03-24T14:50:53.954Z</time></trkpt><trkpt lat="40.7842077" lon="-3.7198712"><ele>929.0</ele><time>2026-03-24T14:50:54.985Z</time></trkpt><trkpt lat="40.7842131" lon="-3.7197455"><ele>928.6666666666667</ele><time>2026-03-24T14:50:55.951Z</time></trkpt><trkpt lat="40.7842176" lon="-3.7196223"><ele>928.3333333333334</ele><time>2026-03-24T14:50:56.949Z</time></trkpt><trkpt lat="40.7842231" lon="-3.7195096"><ele>928.0</ele><time>2026-03-24T14:50:57.94Z</time></trkpt><trkpt lat="40.7842284" lon="-3.7194124"><ele>927.6666666666667</ele><time>2026-03-24T14:50:58.946Z</time></trkpt><trkpt lat="40.7842277" lon="-3.7193177"><ele>927.3333333333334</ele><time>2026-03-24T14:50:59.942Z</time></trkpt><trkpt lat="40.7842269" lon="-3.7192177"><ele>927.0</ele><time>2026-03-24T14:51:00.977Z</time></trkpt><trkpt lat="40.7842325" lon="-3.7191157"><ele>926.5714285714284</ele><time>2026-03-24T14:51:01.947Z</time></trkpt><trkpt lat="40.7842407" lon="-3.719016"><ele>926.1428571428571</ele><time>2026-03-24T14:51:02.977Z</time></trkpt><trkpt lat="40.7842503" lon="-3.7189162"><ele>925.7142857142857</ele><time>2026-03-24T14:51:03.958Z</time></trkpt><trkpt lat="40.7842576" lon="-3.7188187"><ele>925.2857142857142</ele><time>2026-03-24T14:51:04.991Z</time></trkpt><trkpt lat="40.784265" lon="-3.7187311"><ele>924.8571428571429</ele><time>2026-03-24T14:51:05.976Z</time></trkpt><trkpt lat="40.7842753" lon="-3.7186475"><ele>924.4285714285714</ele><time>2026-03-24T14:51:06.967Z</time></trkpt><trkpt lat="40.7842891" lon="-3.7185618"><ele>924.0</ele><time>2026-03-24T14:51:07.961Z</time></trkpt><trkpt lat="40.7842989" lon="-3.718474"><ele>922.6666666666666</ele><time>2026-03-24T14:51:08.961Z</time></trkpt><trkpt lat="40.7843124" lon="-3.7183852"><ele>921.3333333333333</ele><time>2026-03-24T14:51:09.979Z</time></trkpt><trkpt lat="40.7843236" lon="-3.7182858"><ele>920.0</ele><time>2026-03-24T14:51:10.983Z</time></trkpt><trkpt lat="40.7843393" lon="-3.7181808"><ele>918.6666666666666</ele><time>2026-03-24T14:51:11.976Z</time></trkpt><trkpt lat="40.7843609" lon="-3.7180667"><ele>917.3333333333333</ele><time>2026-03-24T14:51:12.956Z</time></trkpt><trkpt lat="40.7843699" lon="-3.7179459"><ele>916.0</ele><time>2026-03-24T14:51:13.985Z</time></trkpt><trkpt lat="40.7843842" lon="-3.7178182"><ele>914.4</ele><time>2026-03-24T14:51:14.981Z</time></trkpt><trkpt lat="40.7844016" lon="-3.7176818"><ele>912.8</ele><time>2026-03-24T14:51:15.95Z</time></trkpt><trkpt lat="40.7844135" lon="-3.7175531"><ele>911.1999999999999</ele><time>2026-03-24T14:51:16.948Z</time></trkpt><trkpt lat="40.7844219" lon="-3.7174243"><ele>909.5999999999999</ele><time>2026-03-24T14:51:17.944Z</time></trkpt><trkpt lat="40.784436" lon="-3.7173104"><ele>908.0</ele><time>2026-03-24T14:51:18.959Z</time></trkpt><trkpt lat="40.7844489" lon="-3.7171992"><ele>908.0</ele><time>2026-03-24T14:51:19.988Z</time></trkpt><trkpt lat="40.7844583" lon="-3.7170793"><ele>908.0</ele><time>2026-03-24T14:51:20.967Z</time></trkpt><trkpt lat="40.784461" lon="-3.7169596"><ele>908.0</ele><time>2026-03-24T14:51:21.951Z</time></trkpt><trkpt lat="40.7844607" lon="-3.7168405"><ele>908.0</ele><time>2026-03-24T14:51:22.975Z</time></trkpt><trkpt lat="40.7844468" lon="-3.7167128"><ele>908.0</ele><time>2026-03-24T14:51:23.953Z</time></trkpt><trkpt lat="40.7844275" lon="-3.716585"><ele>908.2</ele><time>2026-03-24T14:51:24.972Z</time></trkpt><trkpt lat="40.784394" lon="-3.7164649"><ele>908.4</ele><time>2026-03-24T14:51:25.983Z</time></trkpt><trkpt lat="40.7843685" lon="-3.7163311"><ele>908.6000000000001</ele><time>2026-03-24T14:51:26.97Z</time></trkpt><trkpt lat="40.7843448" lon="-3.7161946"><ele>908.8000000000001</ele><time>2026-03-24T14:51:27.979Z</time></trkpt><trkpt lat="40.7843222" lon="-3.716062"><ele>909.0</ele><time>2026-03-24T14:51:28.957Z</time></trkpt><trkpt lat="40.7842974" lon="-3.7159325"><ele>909.3333333333334</ele><time>2026-03-24T14:51:29.949Z</time></trkpt><trkpt lat="40.7842801" lon="-3.7158182"><ele>909.6666666666667</ele><time>2026-03-24T14:51:30.984Z</time></trkpt><trkpt lat="40.7842778" lon="-3.7157108"><ele>910.0</ele><time>2026-03-24T14:51:31.978Z</time></trkpt><trkpt lat="40.7842754" lon="-3.7155915"><ele>910.3333333333334</ele><time>2026-03-24T14:51:32.984Z</time></trkpt><trkpt lat="40.7842899" lon="-3.7154717"><ele>910.6666666666667</ele><time>2026-03-24T14:51:33.978Z</time></trkpt><trkpt lat="40.7843045" lon="-3.7153443"><ele>911.0</ele><time>2026-03-24T14:51:34.969Z</time></trkpt><trkpt lat="40.7843175" lon="-3.7152171"><ele>911.0</ele><time>2026-03-24T14:51:35.974Z</time></trkpt><trkpt lat="40.7843298" lon="-3.7150775"><ele>910.9999999999999</ele><time>2026-03-24T14:51:36.928Z</time></trkpt><trkpt lat="40.7843422" lon="-3.7149431"><ele>910.9999999999999</ele><time>2026-03-24T14:51:37.937Z</time></trkpt><trkpt lat="40.7843575" lon="-3.7148023"><ele>911.0</ele><time>2026-03-24T14:51:38.936Z</time></trkpt><trkpt lat="40.7843672" lon="-3.7146569"><ele>911.0</ele><time>2026-03-24T14:51:39.925Z</time></trkpt><trkpt lat="40.7843712" lon="-3.7145136"><ele>911.25</ele><time>2026-03-24T14:51:40.929Z</time></trkpt><trkpt lat="40.7843689" lon="-3.7143622"><ele>911.5</ele><time>2026-03-24T14:51:41.937Z</time></trkpt><trkpt lat="40.7843659" lon="-3.7142044"><ele>911.75</ele><time>2026-03-24T14:51:42.936Z</time></trkpt><trkpt lat="40.7843667" lon="-3.7140437"><ele>912.0</ele><time>2026-03-24T14:51:43.928Z</time></trkpt><trkpt lat="40.7843682" lon="-3.7138794"><ele>912.0</ele><time>2026-03-24T14:51:44.961Z</time></trkpt><trkpt lat="40.7843702" lon="-3.7137105"><ele>912.0</ele><time>2026-03-24T14:51:45.964Z</time></trkpt><trkpt lat="40.7843767" lon="-3.7135523"><ele>912.0</ele><time>2026-03-24T14:51:46.947Z</time></trkpt><trkpt lat="40.78439" lon="-3.7133924"><ele>912.0</ele><time>2026-03-24T14:51:47.955Z</time></trkpt><trkpt lat="40.78441" lon="-3.7132283"><ele>911.75</ele><time>2026-03-24T14:51:48.948Z</time></trkpt><trkpt lat="40.7844238" lon="-3.7130762"><ele>911.5</ele><time>2026-03-24T14:51:49.945Z</time></trkpt><trkpt lat="40.7844412" lon="-3.7129179"><ele>911.25</ele><time>2026-03-24T14:51:50.974Z</time></trkpt><trkpt lat="40.7844632" lon="-3.7127673"><ele>911.0</ele><time>2026-03-24T14:51:51.949Z</time></trkpt><trkpt lat="40.7845012" lon="-3.7126159"><ele>909.25</ele><time>2026-03-24T14:51:52.971Z</time></trkpt><trkpt lat="40.7845338" lon="-3.7124644"><ele>907.5</ele><time>2026-03-24T14:51:53.989Z</time></trkpt><trkpt lat="40.7845608" lon="-3.7123168"><ele>905.75</ele><time>2026-03-24T14:51:54.98Z</time></trkpt><trkpt lat="40.784585" lon="-3.7121667"><ele>904.0</ele><time>2026-03-24T14:51:55.987Z</time></trkpt><trkpt lat="40.7846061" lon="-3.7120174"><ele>902.8000000000001</ele><time>2026-03-24T14:51:56.979Z</time></trkpt><trkpt lat="40.7846226" lon="-3.711866"><ele>901.6000000000001</ele><time>2026-03-24T14:51:57.961Z</time></trkpt><trkpt lat="40.7846491" lon="-3.71172"><ele>900.4</ele><time>2026-03-24T14:51:58.956Z</time></trkpt><trkpt lat="40.7846676" lon="-3.7115763"><ele>899.2</ele><time>2026-03-24T14:51:59.96Z</time></trkpt><trkpt lat="40.7846831" lon="-3.7114421"><ele>898.0</ele><time>2026-03-24T14:52:00.986Z</time></trkpt><trkpt lat="40.7847082" lon="-3.7113194"><ele>897.9999999999999</ele><time>2026-03-24T14:52:01.957Z</time></trkpt><trkpt lat="40.7847312" lon="-3.7112056"><ele>898.0</ele><time>2026-03-24T14:52:02.968Z</time></trkpt><trkpt lat="40.7847572" lon="-3.7110946"><ele>898.0</ele><time>2026-03-24T14:52:03.964Z</time></trkpt><trkpt lat="40.7847788" lon="-3.710992"><ele>898.0</ele><time>2026-03-24T14:52:04.981Z</time></trkpt><trkpt lat="40.784802" lon="-3.7108993"><ele>897.9999999999999</ele><time>2026-03-24T14:52:05.977Z</time></trkpt><trkpt lat="40.784823" lon="-3.7108111"><ele>898.0</ele><time>2026-03-24T14:52:06.996Z</time></trkpt><trkpt lat="40.7848433" lon="-3.7107292"><ele>897.0</ele><time>2026-03-24T14:52:07.986Z</time></trkpt><trkpt lat="40.7848814" lon="-3.7105885"><ele>896.0</ele><time>2026-03-24T14:52:09.964Z</time></trkpt><trkpt lat="40.7849111" lon="-3.710472"><ele>895.0</ele><time>2026-03-24T14:52:11.972Z</time></trkpt><trkpt lat="40.7849561" lon="-3.7103468"><ele>894.0</ele><time>2026-03-24T14:52:13.965Z</time></trkpt><trkpt lat="40.7850155" lon="-3.7102104"><ele>893.0</ele><time>2026-03-24T14:52:15.988Z</time></trkpt><trkpt lat="40.7850585" lon="-3.710082"><ele>891.8</ele><time>2026-03-24T14:52:17.963Z</time></trkpt><trkpt lat="40.7850994" lon="-3.7099557"><ele>890.5999999999999</ele><time>2026-03-24T14:52:19.968Z</time></trkpt><trkpt lat="40.7851459" lon="-3.7098316"><ele>889.4000000000001</ele><time>2026-03-24T14:52:21.957Z</time></trkpt><trkpt lat="40.7851895" lon="-3.7096922"><ele>888.2</ele><time>2026-03-24T14:52:23.989Z</time></trkpt><trkpt lat="40.7852282" lon="-3.7095448"><ele>887.0</ele><time>2026-03-24T14:52:25.953Z</time></trkpt><trkpt lat="40.7852779" lon="-3.7094001"><ele>884.4000000000001</ele><time>2026-03-24T14:52:27.981Z</time></trkpt><trkpt lat="40.7853271" lon="-3.7092672"><ele>881.8000000000001</ele><time>2026-03-24T14:52:29.953Z</time></trkpt><trkpt lat="40.7853682" lon="-3.7091326"><ele>879.2</ele><time>2026-03-24T14:52:31.976Z</time></trkpt><trkpt lat="40.7854059" lon="-3.7090062"><ele>876.6</ele><time>2026-03-24T14:52:33.972Z</time></trkpt><trkpt lat="40.7854434" lon="-3.7088678"><ele>874.0</ele><time>2026-03-24T14:52:35.98Z</time></trkpt><trkpt lat="40.7854883" lon="-3.7087274"><ele>871.8000000000001</ele><time>2026-03-24T14:52:37.973Z</time></trkpt><trkpt lat="40.7855208" lon="-3.7085752"><ele>869.6000000000001</ele><time>2026-03-24T14:52:39.982Z</time></trkpt><trkpt lat="40.7855561" lon="-3.7084353"><ele>867.4</ele><time>2026-03-24T14:52:41.969Z</time></trkpt><trkpt lat="40.7855965" lon="-3.708283"><ele>865.2</ele><time>2026-03-24T14:52:43.978Z</time></trkpt><trkpt lat="40.7856171" lon="-3.7081977"><ele>863.0</ele><time>2026-03-24T14:52:44.96Z</time></trkpt><trkpt lat="40.7856647" lon="-3.7080458"><ele>863.0</ele><time>2026-03-24T14:52:46.982Z</time></trkpt><trkpt lat="40.7856857" lon="-3.7079673"><ele>863.0</ele><time>2026-03-24T14:52:47.976Z</time></trkpt><trkpt lat="40.7857181" lon="-3.7078272"><ele>863.0</ele><time>2026-03-24T14:52:49.961Z</time></trkpt><trkpt lat="40.78575" lon="-3.7077142"><ele>863.0</ele><time>2026-03-24T14:52:51.929Z</time></trkpt><trkpt lat="40.7857485" lon="-3.7076267"><ele>863.0</ele><time>2026-03-24T14:52:54.935Z</time></trkpt><trkpt lat="40.7858386" lon="-3.70752"><ele>862.7142857142858</ele><time>2026-03-24T14:53:10.924Z</time></trkpt><trkpt lat="40.7858881" lon="-3.7074643"><ele>862.4285714285714</ele><time>2026-03-24T14:53:11.941Z</time></trkpt><trkpt lat="40.7859414" lon="-3.707402"><ele>862.1428571428571</ele><time>2026-03-24T14:53:12.933Z</time></trkpt><trkpt lat="40.7859907" lon="-3.7073371"><ele>861.8571428571429</ele><time>2026-03-24T14:53:13.945Z</time></trkpt><trkpt lat="40.7860337" lon="-3.7072527"><ele>861.5714285714286</ele><time>2026-03-24T14:53:14.93Z</time></trkpt><trkpt lat="40.7860641" lon="-3.7071646"><ele>861.2857142857143</ele><time>2026-03-24T14:53:15.965Z</time></trkpt><trkpt lat="40.7860946" lon="-3.7070688"><ele>861.0</ele><time>2026-03-24T14:53:16.94Z</time></trkpt><trkpt lat="40.7861237" lon="-3.7069595"><ele>859.6666666666666</ele><time>2026-03-24T14:53:17.969Z</time></trkpt><trkpt lat="40.7861554" lon="-3.7068522"><ele>858.3333333333333</ele><time>2026-03-24T14:53:18.942Z</time></trkpt><trkpt lat="40.7861854" lon="-3.7067411"><ele>857.0</ele><time>2026-03-24T14:53:19.944Z</time></trkpt><trkpt lat="40.7862162" lon="-3.7066295"><ele>855.6666666666666</ele><time>2026-03-24T14:53:20.929Z</time></trkpt><trkpt lat="40.7862495" lon="-3.7065232"><ele>854.3333333333333</ele><time>2026-03-24T14:53:21.942Z</time></trkpt><trkpt lat="40.7862817" lon="-3.7064247"><ele>853.0</ele><time>2026-03-24T14:53:22.954Z</time></trkpt><trkpt lat="40.7863089" lon="-3.7063344"><ele>852.9999999999999</ele><time>2026-03-24T14:53:23.981Z</time></trkpt><trkpt lat="40.7863335" lon="-3.7062417"><ele>853.0</ele><time>2026-03-24T14:53:24.952Z</time></trkpt><trkpt lat="40.786359" lon="-3.7061492"><ele>853.0</ele><time>2026-03-24T14:53:25.946Z</time></trkpt><trkpt lat="40.7863864" lon="-3.7060664"><ele>853.0</ele><time>2026-03-24T14:53:26.996Z</time></trkpt><trkpt lat="40.7864324" lon="-3.7059192"><ele>852.9999999999999</ele><time>2026-03-24T14:53:28.961Z</time></trkpt><trkpt lat="40.7864837" lon="-3.705832"><ele>853.0</ele><time>2026-03-24T14:53:30.944Z</time></trkpt><trkpt lat="40.7865453" lon="-3.7058068"><ele>852.9999999999999</ele><time>2026-03-24T14:53:32.961Z</time></trkpt><trkpt lat="40.7866248" lon="-3.7058563"><ele>853.0</ele><time>2026-03-24T14:53:35.945Z</time></trkpt><trkpt lat="40.7866871" lon="-3.7059869"><ele>853.0</ele><time>2026-03-24T14:53:37.945Z</time></trkpt><trkpt lat="40.7867212" lon="-3.7060568"><ele>853.0</ele><time>2026-03-24T14:53:38.946Z</time></trkpt><trkpt lat="40.7867575" lon="-3.7061303"><ele>852.9999999999999</ele><time>2026-03-24T14:53:39.967Z</time></trkpt><trkpt lat="40.7868083" lon="-3.7062027"><ele>853.0</ele><time>2026-03-24T14:53:40.955Z</time></trkpt><trkpt lat="40.7868681" lon="-3.7062568"><ele>853.3333333333333</ele><time>2026-03-24T14:53:41.95Z</time></trkpt><trkpt lat="40.7869328" lon="-3.7062943"><ele>853.6666666666666</ele><time>2026-03-24T14:53:42.968Z</time></trkpt><trkpt lat="40.7869973" lon="-3.7063155"><ele>854.0</ele><time>2026-03-24T14:53:43.975Z</time></trkpt><trkpt lat="40.7870593" lon="-3.706333"><ele>854.3333333333333</ele><time>2026-03-24T14:53:44.969Z</time></trkpt><trkpt lat="40.7871593" lon="-3.7063559"><ele>854.6666666666666</ele><time>2026-03-24T14:53:46.954Z</time></trkpt><trkpt lat="40.7872385" lon="-3.7063462"><ele>855.0</ele><time>2026-03-24T14:53:48.972Z</time></trkpt><trkpt lat="40.7873421" lon="-3.706311"><ele>855.0</ele><time>2026-03-24T14:53:50.965Z</time></trkpt><trkpt lat="40.7874145" lon="-3.7063148"><ele>855.0</ele><time>2026-03-24T14:53:51.95Z</time></trkpt><trkpt lat="40.7874734" lon="-3.7063607"><ele>855.0</ele><time>2026-03-24T14:53:52.979Z</time></trkpt><trkpt lat="40.7875332" lon="-3.7064118"><ele>855.0</ele><time>2026-03-24T14:53:53.968Z</time></trkpt><trkpt lat="40.7875943" lon="-3.7064477"><ele>855.0</ele><time>2026-03-24T14:53:54.964Z</time></trkpt><trkpt lat="40.787673" lon="-3.7064654"><ele>855.0</ele><time>2026-03-24T14:53:55.936Z</time></trkpt><trkpt lat="40.7877593" lon="-3.7064763"><ele>855.0</ele><time>2026-03-24T14:53:56.941Z</time></trkpt><trkpt lat="40.7878476" lon="-3.7064846"><ele>855.8</ele><time>2026-03-24T14:53:57.945Z</time></trkpt><trkpt lat="40.7879362" lon="-3.7064805"><ele>856.6</ele><time>2026-03-24T14:53:58.952Z</time></trkpt><trkpt lat="40.7880402" lon="-3.7064849"><ele>857.4000000000001</ele><time>2026-03-24T14:53:59.943Z</time></trkpt><trkpt lat="40.7881379" lon="-3.7064932"><ele>858.2</ele><time>2026-03-24T14:54:00.935Z</time></trkpt><trkpt lat="40.7882399" lon="-3.706499"><ele>859.0</ele><time>2026-03-24T14:54:01.965Z</time></trkpt><trkpt lat="40.788339" lon="-3.7065076"><ele>858.9999999999999</ele><time>2026-03-24T14:54:02.98Z</time></trkpt><trkpt lat="40.7884336" lon="-3.7065154"><ele>859.0</ele><time>2026-03-24T14:54:03.986Z</time></trkpt><trkpt lat="40.7885227" lon="-3.7065217"><ele>859.0</ele><time>2026-03-24T14:54:04.951Z</time></trkpt><trkpt lat="40.7886089" lon="-3.7065222"><ele>859.0</ele><time>2026-03-24T14:54:05.966Z</time></trkpt><trkpt lat="40.7886892" lon="-3.7065195"><ele>858.9999999999999</ele><time>2026-03-24T14:54:06.94Z</time></trkpt><trkpt lat="40.7887663" lon="-3.7065104"><ele>859.0</ele><time>2026-03-24T14:54:07.959Z</time></trkpt><trkpt lat="40.788851" lon="-3.7065124"><ele>859.3333333333333</ele><time>2026-03-24T14:54:08.949Z</time></trkpt><trkpt lat="40.7889392" lon="-3.7065327"><ele>859.6666666666666</ele><time>2026-03-24T14:54:09.954Z</time></trkpt><trkpt lat="40.7890254" lon="-3.7065555"><ele>860.0</ele><time>2026-03-24T14:54:10.962Z</time></trkpt><trkpt lat="40.7891002" lon="-3.7065698"><ele>860.3333333333333</ele><time>2026-03-24T14:54:11.937Z</time></trkpt><trkpt lat="40.7891738" lon="-3.7065697"><ele>860.6666666666666</ele><time>2026-03-24T14:54:12.945Z</time></trkpt><trkpt lat="40.789249" lon="-3.7065576"><ele>861.0</ele><time>2026-03-24T14:54:13.955Z</time></trkpt><trkpt lat="40.7893319" lon="-3.7065408"><ele>860.4</ele><time>2026-03-24T14:54:14.939Z</time></trkpt><trkpt lat="40.7894239" lon="-3.7065188"><ele>859.8</ele><time>2026-03-24T14:54:15.94Z</time></trkpt><trkpt lat="40.7895233" lon="-3.7065102"><ele>859.1999999999999</ele><time>2026-03-24T14:54:16.937Z</time></trkpt><trkpt lat="40.7896264" lon="-3.7065062"><ele>858.5999999999999</ele><time>2026-03-24T14:54:17.923Z</time></trkpt><trkpt lat="40.7897209" lon="-3.706518"><ele>858.0</ele><time>2026-03-24T14:54:18.931Z</time></trkpt><trkpt lat="40.7898175" lon="-3.7065473"><ele>858.0</ele><time>2026-03-24T14:54:19.932Z</time></trkpt><trkpt lat="40.7898793" lon="-3.7065798"><ele>858.0</ele><time>2026-03-24T14:54:20.943Z</time></trkpt><trkpt lat="40.7899391" lon="-3.7066322"><ele>858.0</ele><time>2026-03-24T14:54:21.936Z</time></trkpt><trkpt lat="40.7900051" lon="-3.7066902"><ele>858.0</ele><time>2026-03-24T14:54:22.933Z</time></trkpt><trkpt lat="40.7900707" lon="-3.7067373"><ele>858.0</ele><time>2026-03-24T14:54:23.953Z</time></trkpt><trkpt lat="40.7901307" lon="-3.7067744"><ele>858.0</ele><time>2026-03-24T14:54:24.957Z</time></trkpt><trkpt lat="40.7901829" lon="-3.7068321"><ele>858.0</ele><time>2026-03-24T14:54:25.951Z</time></trkpt><trkpt lat="40.7902337" lon="-3.7068968"><ele>857.6666666666666</ele><time>2026-03-24T14:54:26.948Z</time></trkpt><trkpt lat="40.7902753" lon="-3.7069731"><ele>857.3333333333333</ele><time>2026-03-24T14:54:27.932Z</time></trkpt><trkpt lat="40.7903107" lon="-3.7070502"><ele>857.0</ele><time>2026-03-24T14:54:28.963Z</time></trkpt><trkpt lat="40.7903495" lon="-3.7071235"><ele>856.6666666666666</ele><time>2026-03-24T14:54:29.986Z</time></trkpt><trkpt lat="40.7903962" lon="-3.7071952"><ele>856.3333333333333</ele><time>2026-03-24T14:54:30.964Z</time></trkpt><trkpt lat="40.7904448" lon="-3.7072872"><ele>856.0</ele><time>2026-03-24T14:54:31.951Z</time></trkpt><trkpt lat="40.7904911" lon="-3.7074047"><ele>856.0</ele><time>2026-03-24T14:54:32.961Z</time></trkpt><trkpt lat="40.7905342" lon="-3.7075218"><ele>856.0</ele><time>2026-03-24T14:54:34.068Z</time></trkpt><trkpt lat="40.79062" lon="-3.7077629"><ele>856.0</ele><time>2026-03-24T14:54:35.961Z</time></trkpt><trkpt lat="40.7906664" lon="-3.7078626"><ele>856.0</ele><time>2026-03-24T14:54:36.976Z</time></trkpt><trkpt lat="40.7907081" lon="-3.7079509"><ele>856.0000000000001</ele><time>2026-03-24T14:54:37.981Z</time></trkpt><trkpt lat="40.7907424" lon="-3.7080291"><ele>856.0</ele><time>2026-03-24T14:54:38.967Z</time></trkpt><trkpt lat="40.7907866" lon="-3.7081007"><ele>856.0</ele><time>2026-03-24T14:54:39.961Z</time></trkpt><trkpt lat="40.7908358" lon="-3.7081654"><ele>856.0</ele><time>2026-03-24T14:54:40.962Z</time></trkpt><trkpt lat="40.7908968" lon="-3.7082006"><ele>856.0</ele><time>2026-03-24T14:54:41.971Z</time></trkpt><trkpt lat="40.7909725" lon="-3.7082336"><ele>856.0000000000001</ele><time>2026-03-24T14:54:42.965Z</time></trkpt><trkpt lat="40.7910637" lon="-3.7082458"><ele>856.0</ele><time>2026-03-24T14:54:43.954Z</time></trkpt><trkpt lat="40.7911562" lon="-3.7082615"><ele>856.0</ele><time>2026-03-24T14:54:44.979Z</time></trkpt><trkpt lat="40.791244" lon="-3.7082599"><ele>855.9999999999999</ele><time>2026-03-24T14:54:45.961Z</time></trkpt><trkpt lat="40.791332" lon="-3.7082662"><ele>855.9999999999999</ele><time>2026-03-24T14:54:46.977Z</time></trkpt><trkpt lat="40.7914248" lon="-3.7082773"><ele>856.0</ele><time>2026-03-24T14:54:47.971Z</time></trkpt><trkpt lat="40.7915162" lon="-3.7082975"><ele>856.0</ele><time>2026-03-24T14:54:48.953Z</time></trkpt><trkpt lat="40.7916154" lon="-3.7083091"><ele>856.0</ele><time>2026-03-24T14:54:49.971Z</time></trkpt><trkpt lat="40.7917176" lon="-3.7083186"><ele>855.9999999999999</ele><time>2026-03-24T14:54:50.976Z</time></trkpt><trkpt lat="40.7918132" lon="-3.7083378"><ele>855.9999999999999</ele><time>2026-03-24T14:54:51.963Z</time></trkpt><trkpt lat="40.7919038" lon="-3.7083459"><ele>856.0</ele><time>2026-03-24T14:54:52.936Z</time></trkpt><trkpt lat="40.7919891" lon="-3.7083532"><ele>856.0</ele><time>2026-03-24T14:54:53.987Z</time></trkpt><trkpt lat="40.7920738" lon="-3.7083623"><ele>855.8333333333333</ele><time>2026-03-24T14:54:54.975Z</time></trkpt><trkpt lat="40.7921508" lon="-3.7083702"><ele>855.6666666666666</ele><time>2026-03-24T14:54:55.955Z</time></trkpt><trkpt lat="40.792221" lon="-3.7083873"><ele>855.5</ele><time>2026-03-24T14:54:56.995Z</time></trkpt><trkpt lat="40.7922825" lon="-3.7084234"><ele>855.3333333333333</ele><time>2026-03-24T14:54:57.982Z</time></trkpt><trkpt lat="40.7923362" lon="-3.7084778"><ele>855.1666666666666</ele><time>2026-03-24T14:54:58.955Z</time></trkpt><trkpt lat="40.7924373" lon="-3.7085566"><ele>855.0</ele><time>2026-03-24T14:55:00.973Z</time></trkpt><trkpt lat="40.7925108" lon="-3.7086293"><ele>855.0</ele><time>2026-03-24T14:55:02.981Z</time></trkpt><trkpt lat="40.7925709" lon="-3.7087223"><ele>855.0</ele><time>2026-03-24T14:55:04.973Z</time></trkpt><trkpt lat="40.7926359" lon="-3.7087738"><ele>855.0</ele><time>2026-03-24T14:55:06.964Z</time></trkpt><trkpt lat="40.7927" lon="-3.7087405"><ele>855.0</ele><time>2026-03-24T14:55:08.957Z</time></trkpt><trkpt lat="40.7927522" lon="-3.7086565"><ele>855.0</ele><time>2026-03-24T14:55:10.944Z</time></trkpt><trkpt lat="40.7928042" lon="-3.7085703"><ele>855.0</ele><time>2026-03-24T14:55:12.973Z</time></trkpt><trkpt lat="40.7928413" lon="-3.7085016"><ele>854.8333333333334</ele><time>2026-03-24T14:55:13.975Z</time></trkpt><trkpt lat="40.7928786" lon="-3.7084159"><ele>854.6666666666667</ele><time>2026-03-24T14:55:14.969Z</time></trkpt><trkpt lat="40.7929265" lon="-3.7083302"><ele>854.5</ele><time>2026-03-24T14:55:15.981Z</time></trkpt><trkpt lat="40.7929829" lon="-3.7082511"><ele>854.3333333333334</ele><time>2026-03-24T14:55:16.988Z</time></trkpt><trkpt lat="40.7930329" lon="-3.7081768"><ele>854.1666666666667</ele><time>2026-03-24T14:55:17.955Z</time></trkpt><trkpt lat="40.7930858" lon="-3.7080939"><ele>854.0</ele><time>2026-03-24T14:55:18.965Z</time></trkpt><trkpt lat="40.7931359" lon="-3.7080023"><ele>854.0000000000001</ele><time>2026-03-24T14:55:19.976Z</time></trkpt><trkpt lat="40.7931865" lon="-3.7079022"><ele>854.0</ele><time>2026-03-24T14:55:20.994Z</time></trkpt><trkpt lat="40.7932397" lon="-3.7078063"><ele>854.0</ele><time>2026-03-24T14:55:21.955Z</time></trkpt><trkpt lat="40.7932959" lon="-3.7077211"><ele>854.0</ele><time>2026-03-24T14:55:22.969Z</time></trkpt><trkpt lat="40.7933548" lon="-3.7076281"><ele>854.0000000000001</ele><time>2026-03-24T14:55:23.969Z</time></trkpt><trkpt lat="40.7934157" lon="-3.7075457"><ele>854.0</ele><time>2026-03-24T14:55:24.981Z</time></trkpt><trkpt lat="40.7934797" lon="-3.7074811"><ele>855.0000000000001</ele><time>2026-03-24T14:55:25.969Z</time></trkpt><trkpt lat="40.7935535" lon="-3.7074412"><ele>856.0</ele><time>2026-03-24T14:55:26.985Z</time></trkpt><trkpt lat="40.7936349" lon="-3.7073951"><ele>857.0</ele><time>2026-03-24T14:55:27.958Z</time></trkpt><trkpt lat="40.7937087" lon="-3.7073394"><ele>858.0</ele><time>2026-03-24T14:55:28.981Z</time></trkpt><trkpt lat="40.793775" lon="-3.7072737"><ele>859.0000000000001</ele><time>2026-03-24T14:55:29.998Z</time></trkpt><trkpt lat="40.7938151" lon="-3.7071834"><ele>860.0</ele><time>2026-03-24T14:55:30.968Z</time></trkpt><trkpt lat="40.793851" lon="-3.7070869"><ele>860.0000000000001</ele><time>2026-03-24T14:55:31.986Z</time></trkpt><trkpt lat="40.7938915" lon="-3.7069905"><ele>860.0</ele><time>2026-03-24T14:55:32.956Z</time></trkpt><trkpt lat="40.7939599" lon="-3.7069116"><ele>860.0</ele><time>2026-03-24T14:55:33.985Z</time></trkpt><trkpt lat="40.7940302" lon="-3.7068418"><ele>860.0</ele><time>2026-03-24T14:55:34.978Z</time></trkpt><trkpt lat="40.7941011" lon="-3.7067844"><ele>860.0000000000001</ele><time>2026-03-24T14:55:35.96Z</time></trkpt><trkpt lat="40.7941891" lon="-3.7067492"><ele>860.0</ele><time>2026-03-24T14:55:36.996Z</time></trkpt><trkpt lat="40.7942908" lon="-3.7067232"><ele>861.2</ele><time>2026-03-24T14:55:37.937Z</time></trkpt><trkpt lat="40.7943934" lon="-3.7067149"><ele>862.4</ele><time>2026-03-24T14:55:38.925Z</time></trkpt><trkpt lat="40.7944938" lon="-3.7067078"><ele>863.5999999999999</ele><time>2026-03-24T14:55:39.948Z</time></trkpt><trkpt lat="40.7945927" lon="-3.7067181"><ele>864.8</ele><time>2026-03-24T14:55:40.928Z</time></trkpt><trkpt lat="40.794683" lon="-3.7067258"><ele>866.0</ele><time>2026-03-24T14:55:41.946Z</time></trkpt><trkpt lat="40.7947781" lon="-3.7067299"><ele>866.0</ele><time>2026-03-24T14:55:42.942Z</time></trkpt><trkpt lat="40.7948646" lon="-3.7067052"><ele>865.9999999999999</ele><time>2026-03-24T14:55:43.971Z</time></trkpt><trkpt lat="40.7949402" lon="-3.7066518"><ele>865.9999999999999</ele><time>2026-03-24T14:55:44.949Z</time></trkpt><trkpt lat="40.7949891" lon="-3.7065439"><ele>866.0</ele><time>2026-03-24T14:55:45.949Z</time></trkpt><trkpt lat="40.7950298" lon="-3.7064353"><ele>866.0</ele><time>2026-03-24T14:55:46.973Z</time></trkpt><trkpt lat="40.795064" lon="-3.7062982"><ele>866.0</ele><time>2026-03-24T14:55:47.977Z</time></trkpt><trkpt lat="40.7951008" lon="-3.7061609"><ele>866.0</ele><time>2026-03-24T14:55:48.973Z</time></trkpt><trkpt lat="40.7951513" lon="-3.7060161"><ele>866.0</ele><time>2026-03-24T14:55:49.968Z</time></trkpt><trkpt lat="40.795204" lon="-3.7058817"><ele>866.0</ele><time>2026-03-24T14:55:50.973Z</time></trkpt><trkpt lat="40.7952459" lon="-3.7057442"><ele>866.4</ele><time>2026-03-24T14:55:51.974Z</time></trkpt><trkpt lat="40.7952736" lon="-3.7056197"><ele>866.8</ele><time>2026-03-24T14:55:52.973Z</time></trkpt><trkpt lat="40.7952873" lon="-3.7054987"><ele>867.1999999999999</ele><time>2026-03-24T14:55:53.977Z</time></trkpt><trkpt lat="40.7953047" lon="-3.7053709"><ele>867.5999999999999</ele><time>2026-03-24T14:55:54.987Z</time></trkpt><trkpt lat="40.7953291" lon="-3.7052368"><ele>868.0</ele><time>2026-03-24T14:55:55.962Z</time></trkpt><trkpt lat="40.7953539" lon="-3.7050962"><ele>868.25</ele><time>2026-03-24T14:55:56.962Z</time></trkpt><trkpt lat="40.7953731" lon="-3.704949"><ele>868.5</ele><time>2026-03-24T14:55:57.943Z</time></trkpt><trkpt lat="40.7953826" lon="-3.7047949"><ele>868.75</ele><time>2026-03-24T14:55:58.961Z</time></trkpt><trkpt lat="40.7953818" lon="-3.7046394"><ele>869.0</ele><time>2026-03-24T14:55:59.977Z</time></trkpt><trkpt lat="40.7953701" lon="-3.7044855"><ele>869.25</ele><time>2026-03-24T14:56:00.979Z</time></trkpt><trkpt lat="40.795362" lon="-3.7043311"><ele>869.5</ele><time>2026-03-24T14:56:01.971Z</time></trkpt><trkpt lat="40.7953592" lon="-3.7041737"><ele>869.75</ele><time>2026-03-24T14:56:02.968Z</time></trkpt><trkpt lat="40.7953637" lon="-3.7040197"><ele>870.0</ele><time>2026-03-24T14:56:03.948Z</time></trkpt><trkpt lat="40.7953818" lon="-3.7038767"><ele>870.0</ele><time>2026-03-24T14:56:04.956Z</time></trkpt><trkpt lat="40.7954159" lon="-3.7037287"><ele>870.0</ele><time>2026-03-24T14:56:05.95Z</time></trkpt><trkpt lat="40.7954702" lon="-3.7035924"><ele>870.0</ele><time>2026-03-24T14:56:06.986Z</time></trkpt><trkpt lat="40.7955252" lon="-3.7034566"><ele>870.0</ele><time>2026-03-24T14:56:07.976Z</time></trkpt><trkpt lat="40.7955871" lon="-3.7033173"><ele>869.75</ele><time>2026-03-24T14:56:08.966Z</time></trkpt><trkpt lat="40.7956433" lon="-3.70317"><ele>869.5</ele><time>2026-03-24T14:56:09.965Z</time></trkpt><trkpt lat="40.7956995" lon="-3.7030288"><ele>869.25</ele><time>2026-03-24T14:56:10.942Z</time></trkpt><trkpt lat="40.7957509" lon="-3.7028855"><ele>869.0</ele><time>2026-03-24T14:56:11.962Z</time></trkpt><trkpt lat="40.7957984" lon="-3.7027529"><ele>869.0000000000001</ele><time>2026-03-24T14:56:12.958Z</time></trkpt><trkpt lat="40.7958426" lon="-3.7026346"><ele>869.0</ele><time>2026-03-24T14:56:13.978Z</time></trkpt><trkpt lat="40.7958903" lon="-3.7025402"><ele>869.0</ele><time>2026-03-24T14:56:14.952Z</time></trkpt><trkpt lat="40.7959501" lon="-3.7024738"><ele>869.0</ele><time>2026-03-24T14:56:15.95Z</time></trkpt><trkpt lat="40.7960172" lon="-3.7024049"><ele>869.0000000000001</ele><time>2026-03-24T14:56:16.941Z</time></trkpt><trkpt lat="40.7960953" lon="-3.7023521"><ele>869.0</ele><time>2026-03-24T14:56:17.973Z</time></trkpt><trkpt lat="40.7961711" lon="-3.7022905"><ele>869.0000000000001</ele><time>2026-03-24T14:56:18.971Z</time></trkpt><trkpt lat="40.7962488" lon="-3.7022232"><ele>869.0</ele><time>2026-03-24T14:56:19.983Z</time></trkpt><trkpt lat="40.7963139" lon="-3.7021614"><ele>869.0</ele><time>2026-03-24T14:56:20.975Z</time></trkpt><trkpt lat="40.7963568" lon="-3.7020795"><ele>869.0</ele><time>2026-03-24T14:56:21.97Z</time></trkpt><trkpt lat="40.7963828" lon="-3.7019757"><ele>869.0000000000001</ele><time>2026-03-24T14:56:22.955Z</time></trkpt><trkpt lat="40.7963998" lon="-3.7018475"><ele>869.0</ele><time>2026-03-24T14:56:23.971Z</time></trkpt><trkpt lat="40.7964143" lon="-3.7017159"><ele>868.8000000000001</ele><time>2026-03-24T14:56:24.95Z</time></trkpt><trkpt lat="40.7964249" lon="-3.7015825"><ele>868.6000000000001</ele><time>2026-03-24T14:56:25.95Z</time></trkpt><trkpt lat="40.7964381" lon="-3.701441"><ele>868.4</ele><time>2026-03-24T14:56:26.996Z</time></trkpt><trkpt lat="40.7964631" lon="-3.7013033"><ele>868.2</ele><time>2026-03-24T14:56:27.966Z</time></trkpt><trkpt lat="40.7964823" lon="-3.7011539"><ele>868.0</ele><time>2026-03-24T14:56:28.959Z</time></trkpt><trkpt lat="40.7965049" lon="-3.7010042"><ele>868.0</ele><time>2026-03-24T14:56:29.995Z</time></trkpt><trkpt lat="40.7965269" lon="-3.7008495"><ele>868.0</ele><time>2026-03-24T14:56:30.982Z</time></trkpt><trkpt lat="40.7965569" lon="-3.7006958"><ele>868.0</ele><time>2026-03-24T14:56:32.001Z</time></trkpt><trkpt lat="40.7965841" lon="-3.7005437"><ele>868.0</ele><time>2026-03-24T14:56:32.983Z</time></trkpt><trkpt lat="40.7966108" lon="-3.7003897"><ele>868.0</ele><time>2026-03-24T14:56:33.977Z</time></trkpt><trkpt lat="40.7966331" lon="-3.7002385"><ele>868.0</ele><time>2026-03-24T14:56:34.948Z</time></trkpt><trkpt lat="40.7966583" lon="-3.7001008"><ele>868.0</ele><time>2026-03-24T14:56:35.997Z</time></trkpt><trkpt lat="40.7966812" lon="-3.6999597"><ele>868.0</ele><time>2026-03-24T14:56:36.952Z</time></trkpt><trkpt lat="40.7967091" lon="-3.6998224"><ele>868.0</ele><time>2026-03-24T14:56:37.962Z</time></trkpt><trkpt lat="40.7967346" lon="-3.6996719"><ele>868.0</ele><time>2026-03-24T14:56:38.983Z</time></trkpt><trkpt lat="40.7967517" lon="-3.6995235"><ele>868.0</ele><time>2026-03-24T14:56:39.971Z</time></trkpt><trkpt lat="40.796763" lon="-3.699369"><ele>868.0</ele><time>2026-03-24T14:56:40.976Z</time></trkpt><trkpt lat="40.7967818" lon="-3.6992121"><ele>868.0</ele><time>2026-03-24T14:56:41.975Z</time></trkpt><trkpt lat="40.796802" lon="-3.6990477"><ele>867.75</ele><time>2026-03-24T14:56:42.971Z</time></trkpt><trkpt lat="40.7968249" lon="-3.6988753"><ele>867.5</ele><time>2026-03-24T14:56:43.973Z</time></trkpt><trkpt lat="40.796846" lon="-3.698703"><ele>867.25</ele><time>2026-03-24T14:56:44.966Z</time></trkpt><trkpt lat="40.7968687" lon="-3.6985305"><ele>867.0</ele><time>2026-03-24T14:56:45.979Z</time></trkpt><trkpt lat="40.7968936" lon="-3.6983604"><ele>867.0</ele><time>2026-03-24T14:56:46.96Z</time></trkpt><trkpt lat="40.7969141" lon="-3.6981919"><ele>867.0</ele><time>2026-03-24T14:56:47.978Z</time></trkpt><trkpt lat="40.7969423" lon="-3.6980274"><ele>867.0</ele><time>2026-03-24T14:56:48.927Z</time></trkpt><trkpt lat="40.7969677" lon="-3.6978638"><ele>867.0</ele><time>2026-03-24T14:56:49.938Z</time></trkpt><trkpt lat="40.7969978" lon="-3.6977109"><ele>866.4000000000001</ele><time>2026-03-24T14:56:50.937Z</time></trkpt><trkpt lat="40.7970202" lon="-3.6975763"><ele>865.8000000000001</ele><time>2026-03-24T14:56:51.929Z</time></trkpt><trkpt lat="40.797044" lon="-3.6974492"><ele>865.2</ele><time>2026-03-24T14:56:52.936Z</time></trkpt><trkpt lat="40.7970776" lon="-3.6973283"><ele>864.6</ele><time>2026-03-24T14:56:53.928Z</time></trkpt><trkpt lat="40.7971022" lon="-3.6972199"><ele>864.0</ele><time>2026-03-24T14:56:54.948Z</time></trkpt><trkpt lat="40.797131" lon="-3.6971056"><ele>864.0</ele><time>2026-03-24T14:56:55.958Z</time></trkpt><trkpt lat="40.7971661" lon="-3.6969919"><ele>864.0000000000001</ele><time>2026-03-24T14:56:56.943Z</time></trkpt><trkpt lat="40.7971988" lon="-3.696879"><ele>864.0000000000001</ele><time>2026-03-24T14:56:57.932Z</time></trkpt><trkpt lat="40.7972342" lon="-3.6967517"><ele>864.0</ele><time>2026-03-24T14:56:58.939Z</time></trkpt><trkpt lat="40.7972683" lon="-3.6966273"><ele>864.0</ele><time>2026-03-24T14:56:59.973Z</time></trkpt><trkpt lat="40.797306" lon="-3.6965066"><ele>863.6</ele><time>2026-03-24T14:57:00.939Z</time></trkpt><trkpt lat="40.797341" lon="-3.6963912"><ele>863.2</ele><time>2026-03-24T14:57:01.965Z</time></trkpt><trkpt lat="40.7973737" lon="-3.6962779"><ele>862.8000000000001</ele><time>2026-03-24T14:57:02.948Z</time></trkpt><trkpt lat="40.7974095" lon="-3.6961465"><ele>862.4000000000001</ele><time>2026-03-24T14:57:03.95Z</time></trkpt><trkpt lat="40.7974402" lon="-3.6960031"><ele>862.0</ele><time>2026-03-24T14:57:04.989Z</time></trkpt><trkpt lat="40.7974704" lon="-3.6958584"><ele>861.4000000000001</ele><time>2026-03-24T14:57:05.968Z</time></trkpt><trkpt lat="40.7975002" lon="-3.6957173"><ele>860.8000000000001</ele><time>2026-03-24T14:57:06.964Z</time></trkpt><trkpt lat="40.7975346" lon="-3.6955855"><ele>860.2</ele><time>2026-03-24T14:57:08.002Z</time></trkpt><trkpt lat="40.7975706" lon="-3.6954624"><ele>859.6</ele><time>2026-03-24T14:57:08.973Z</time></trkpt><trkpt lat="40.797603" lon="-3.6953363"><ele>859.0</ele><time>2026-03-24T14:57:09.972Z</time></trkpt><trkpt lat="40.7976432" lon="-3.6952147"><ele>859.4000000000001</ele><time>2026-03-24T14:57:10.953Z</time></trkpt><trkpt lat="40.7976823" lon="-3.6950996"><ele>859.8000000000001</ele><time>2026-03-24T14:57:11.991Z</time></trkpt><trkpt lat="40.7977239" lon="-3.6949806"><ele>860.1999999999999</ele><time>2026-03-24T14:57:12.971Z</time></trkpt><trkpt lat="40.7977603" lon="-3.6948615"><ele>860.5999999999999</ele><time>2026-03-24T14:57:13.978Z</time></trkpt><trkpt lat="40.7977992" lon="-3.6947276"><ele>861.0</ele><time>2026-03-24T14:57:14.978Z</time></trkpt><trkpt lat="40.7978399" lon="-3.694592"><ele>861.0</ele><time>2026-03-24T14:57:15.974Z</time></trkpt><trkpt lat="40.7978754" lon="-3.6944618"><ele>861.0</ele><time>2026-03-24T14:57:16.966Z</time></trkpt><trkpt lat="40.7979066" lon="-3.6943385"><ele>861.0</ele><time>2026-03-24T14:57:17.96Z</time></trkpt><trkpt lat="40.7979343" lon="-3.6942227"><ele>861.0</ele><time>2026-03-24T14:57:18.97Z</time></trkpt><trkpt lat="40.7979522" lon="-3.6941251"><ele>861.0</ele><time>2026-03-24T14:57:19.972Z</time></trkpt><trkpt lat="40.7979464" lon="-3.6940412"><ele>861.0</ele><time>2026-03-24T14:57:20.98Z</time></trkpt><trkpt lat="40.7978807" lon="-3.6939094"><ele>860.8</ele><time>2026-03-24T14:57:22.956Z</time></trkpt><trkpt lat="40.7977953" lon="-3.6938305"><ele>860.5999999999999</ele><time>2026-03-24T14:57:24.974Z</time></trkpt><trkpt lat="40.7976725" lon="-3.6938092"><ele>860.4</ele><time>2026-03-24T14:57:26.973Z</time></trkpt><trkpt lat="40.7976007" lon="-3.6938044"><ele>860.2</ele><time>2026-03-24T14:57:27.976Z</time></trkpt><trkpt lat="40.7975264" lon="-3.6937901"><ele>860.0</ele><time>2026-03-24T14:57:28.941Z</time></trkpt><trkpt lat="40.7974486" lon="-3.693781"><ele>859.3333333333334</ele><time>2026-03-24T14:57:29.953Z</time></trkpt><trkpt lat="40.7973725" lon="-3.6937672"><ele>858.6666666666667</ele><time>2026-03-24T14:57:30.968Z</time></trkpt><trkpt lat="40.7972887" lon="-3.6937471"><ele>858.0</ele><time>2026-03-24T14:57:31.938Z</time></trkpt><trkpt lat="40.7972096" lon="-3.6937275"><ele>857.3333333333333</ele><time>2026-03-24T14:57:32.942Z</time></trkpt><trkpt lat="40.7971315" lon="-3.6937064"><ele>856.6666666666666</ele><time>2026-03-24T14:57:33.964Z</time></trkpt><trkpt lat="40.7970501" lon="-3.6936792"><ele>856.0</ele><time>2026-03-24T14:57:34.991Z</time></trkpt><trkpt lat="40.7969708" lon="-3.6936507"><ele>856.0000000000001</ele><time>2026-03-24T14:57:35.963Z</time></trkpt><trkpt lat="40.7968878" lon="-3.6936195"><ele>856.0</ele><time>2026-03-24T14:57:36.956Z</time></trkpt><trkpt lat="40.7968123" lon="-3.6935936"><ele>856.0</ele><time>2026-03-24T14:57:37.973Z</time></trkpt><trkpt lat="40.7967408" lon="-3.6935709"><ele>856.0</ele><time>2026-03-24T14:57:38.961Z</time></trkpt><trkpt lat="40.7966722" lon="-3.6935573"><ele>856.0</ele><time>2026-03-24T14:57:39.98Z</time></trkpt><trkpt lat="40.7966078" lon="-3.6935588"><ele>856.0000000000001</ele><time>2026-03-24T14:57:40.96Z</time></trkpt><trkpt lat="40.7965455" lon="-3.6935752"><ele>856.0</ele><time>2026-03-24T14:57:41.976Z</time></trkpt><trkpt lat="40.7964395" lon="-3.6935982"><ele>855.8</ele><time>2026-03-24T14:57:43.965Z</time></trkpt><trkpt lat="40.7963457" lon="-3.6936057"><ele>855.5999999999999</ele><time>2026-03-24T14:57:45.936Z</time></trkpt><trkpt lat="40.7962525" lon="-3.6936276"><ele>855.4</ele><time>2026-03-24T14:57:47.97Z</time></trkpt><trkpt lat="40.796162" lon="-3.6936379"><ele>855.2</ele><time>2026-03-24T14:57:49.961Z</time></trkpt><trkpt lat="40.7960634" lon="-3.6936316"><ele>855.0</ele><time>2026-03-24T14:57:51.954Z</time></trkpt><trkpt lat="40.7959647" lon="-3.6936016"><ele>854.0</ele><time>2026-03-24T14:57:53.976Z</time></trkpt><trkpt lat="40.7958648" lon="-3.6935506"><ele>853.0</ele><time>2026-03-24T14:57:55.992Z</time></trkpt><trkpt lat="40.7958027" lon="-3.6934859"><ele>852.0</ele><time>2026-03-24T14:57:57.956Z</time></trkpt><trkpt lat="40.7957635" lon="-3.6934157"><ele>851.0</ele><time>2026-03-24T14:58:01.959Z</time></trkpt><trkpt lat="40.7956785" lon="-3.6933668"><ele>850.0</ele><time>2026-03-24T14:58:28.967Z</time></trkpt><trkpt lat="40.7956114" lon="-3.6933412"><ele>849.0</ele><time>2026-03-24T14:58:29.976Z</time></trkpt><trkpt lat="40.7955365" lon="-3.6933094"><ele>849.0</ele><time>2026-03-24T14:58:30.976Z</time></trkpt><trkpt lat="40.7954609" lon="-3.6932686"><ele>849.0</ele><time>2026-03-24T14:58:31.974Z</time></trkpt><trkpt lat="40.7953805" lon="-3.6932178"><ele>849.0</ele><time>2026-03-24T14:58:32.985Z</time></trkpt><trkpt lat="40.7952968" lon="-3.6931633"><ele>849.0</ele><time>2026-03-24T14:58:33.977Z</time></trkpt><trkpt lat="40.7952059" lon="-3.6931081"><ele>849.0</ele><time>2026-03-24T14:58:34.972Z</time></trkpt><trkpt lat="40.7951131" lon="-3.6930536"><ele>848.25</ele><time>2026-03-24T14:58:35.95Z</time></trkpt><trkpt lat="40.7950124" lon="-3.692993"><ele>847.5</ele><time>2026-03-24T14:58:36.979Z</time></trkpt><trkpt lat="40.7949015" lon="-3.6929286"><ele>846.75</ele><time>2026-03-24T14:58:37.976Z</time></trkpt><trkpt lat="40.79479" lon="-3.6928587"><ele>846.0</ele><time>2026-03-24T14:58:38.961Z</time></trkpt><trkpt lat="40.7946854" lon="-3.6927901"><ele>845.75</ele><time>2026-03-24T14:58:39.968Z</time></trkpt><trkpt lat="40.7945795" lon="-3.6927221"><ele>845.5</ele><time>2026-03-24T14:58:40.978Z</time></trkpt><trkpt lat="40.7944579" lon="-3.6926503"><ele>845.25</ele><time>2026-03-24T14:58:41.991Z</time></trkpt><trkpt lat="40.7943447" lon="-3.6925866"><ele>845.0</ele><time>2026-03-24T14:58:42.959Z</time></trkpt><trkpt lat="40.7942367" lon="-3.6925293"><ele>844.0</ele><time>2026-03-24T14:58:43.939Z</time></trkpt><trkpt lat="40.7941237" lon="-3.6924765"><ele>843.0</ele><time>2026-03-24T14:58:44.951Z</time></trkpt><trkpt lat="40.7940152" lon="-3.6924301"><ele>842.0</ele><time>2026-03-24T14:58:45.973Z</time></trkpt><trkpt lat="40.7939197" lon="-3.6923811"><ele>841.0</ele><time>2026-03-24T14:58:46.976Z</time></trkpt><trkpt lat="40.7938308" lon="-3.6923402"><ele>840.0</ele><time>2026-03-24T14:58:47.964Z</time></trkpt><trkpt lat="40.7937428" lon="-3.6923014"><ele>840.0</ele><time>2026-03-24T14:58:48.969Z</time></trkpt><trkpt lat="40.7936571" lon="-3.6922629"><ele>840.0</ele><time>2026-03-24T14:58:49.989Z</time></trkpt><trkpt lat="40.7935719" lon="-3.6922383"><ele>840.0</ele><time>2026-03-24T14:58:50.961Z</time></trkpt><trkpt lat="40.7934998" lon="-3.6922347"><ele>840.0</ele><time>2026-03-24T14:58:51.974Z</time></trkpt><trkpt lat="40.793432" lon="-3.6922547"><ele>840.0</ele><time>2026-03-24T14:58:52.973Z</time></trkpt><trkpt lat="40.793357" lon="-3.6922641"><ele>840.0</ele><time>2026-03-24T14:58:53.955Z</time></trkpt><trkpt lat="40.7932793" lon="-3.6922619"><ele>840.0</ele><time>2026-03-24T14:58:54.981Z</time></trkpt><trkpt lat="40.7932182" lon="-3.6922062"><ele>840.0</ele><time>2026-03-24T14:58:55.965Z</time></trkpt><trkpt lat="40.7931865" lon="-3.692039"><ele>840.0</ele><time>2026-03-24T14:58:57.969Z</time></trkpt><trkpt lat="40.7932104" lon="-3.6919388"><ele>840.0</ele><time>2026-03-24T14:58:58.941Z</time></trkpt><trkpt lat="40.7932796" lon="-3.6917853"><ele>840.0</ele><time>2026-03-24T14:59:00.979Z</time></trkpt><trkpt lat="40.7932996" lon="-3.6916953"><ele>839.8</ele><time>2026-03-24T14:59:01.974Z</time></trkpt><trkpt lat="40.7933172" lon="-3.6915801"><ele>839.6</ele><time>2026-03-24T14:59:02.984Z</time></trkpt><trkpt lat="40.7933347" lon="-3.6914582"><ele>839.4000000000001</ele><time>2026-03-24T14:59:03.976Z</time></trkpt><trkpt lat="40.7933489" lon="-3.6913239"><ele>839.2</ele><time>2026-03-24T14:59:04.962Z</time></trkpt><trkpt lat="40.7933518" lon="-3.6911892"><ele>839.0</ele><time>2026-03-24T14:59:05.976Z</time></trkpt><trkpt lat="40.7933549" lon="-3.691048"><ele>839.0</ele><time>2026-03-24T14:59:06.935Z</time></trkpt><trkpt lat="40.793356" lon="-3.6908987"><ele>839.0</ele><time>2026-03-24T14:59:07.979Z</time></trkpt><trkpt lat="40.7933499" lon="-3.6907458"><ele>839.0</ele><time>2026-03-24T14:59:08.972Z</time></trkpt><trkpt lat="40.7933422" lon="-3.6905831"><ele>839.0</ele><time>2026-03-24T14:59:09.99Z</time></trkpt><trkpt lat="40.7933344" lon="-3.6904201"><ele>839.0</ele><time>2026-03-24T14:59:10.95Z</time></trkpt><trkpt lat="40.7933305" lon="-3.6902431"><ele>839.0</ele><time>2026-03-24T14:59:12.003Z</time></trkpt><trkpt lat="40.7933197" lon="-3.6900643"><ele>839.0</ele><time>2026-03-24T14:59:12.975Z</time></trkpt><trkpt lat="40.7933009" lon="-3.6898857"><ele>839.0</ele><time>2026-03-24T14:59:13.967Z</time></trkpt><trkpt lat="40.7932761" lon="-3.6896933"><ele>839.0</ele><time>2026-03-24T14:59:14.939Z</time></trkpt><trkpt lat="40.7932453" lon="-3.6895004"><ele>839.0</ele><time>2026-03-24T14:59:15.947Z</time></trkpt><trkpt lat="40.7932121" lon="-3.689305"><ele>839.0</ele><time>2026-03-24T14:59:16.941Z</time></trkpt><trkpt lat="40.7931795" lon="-3.6891104"><ele>839.0</ele><time>2026-03-24T14:59:17.957Z</time></trkpt><trkpt lat="40.7931399" lon="-3.6889259"><ele>839.0</ele><time>2026-03-24T14:59:18.948Z</time></trkpt><trkpt lat="40.7930893" lon="-3.6887381"><ele>839.0</ele><time>2026-03-24T14:59:19.937Z</time></trkpt><trkpt lat="40.7930396" lon="-3.6885638"><ele>839.0</ele><time>2026-03-24T14:59:20.937Z</time></trkpt><trkpt lat="40.792982" lon="-3.6883884"><ele>839.0</ele><time>2026-03-24T14:59:21.942Z</time></trkpt><trkpt lat="40.7929204" lon="-3.68821"><ele>839.0</ele><time>2026-03-24T14:59:22.945Z</time></trkpt><trkpt lat="40.7928563" lon="-3.6880355"><ele>839.0</ele><time>2026-03-24T14:59:23.936Z</time></trkpt><trkpt lat="40.7927923" lon="-3.6878665"><ele>839.0</ele><time>2026-03-24T14:59:24.946Z</time></trkpt><trkpt lat="40.7927304" lon="-3.687711"><ele>838.75</ele><time>2026-03-24T14:59:25.942Z</time></trkpt><trkpt lat="40.7926682" lon="-3.6875639"><ele>838.5</ele><time>2026-03-24T14:59:26.948Z</time></trkpt><trkpt lat="40.7926006" lon="-3.6874192"><ele>838.25</ele><time>2026-03-24T14:59:27.93Z</time></trkpt><trkpt lat="40.7925363" lon="-3.6872739"><ele>838.0</ele><time>2026-03-24T14:59:28.982Z</time></trkpt><trkpt lat="40.7924626" lon="-3.6871261"><ele>838.0</ele><time>2026-03-24T14:59:29.975Z</time></trkpt><trkpt lat="40.7923852" lon="-3.6869762"><ele>838.0</ele><time>2026-03-24T14:59:30.96Z</time></trkpt><trkpt lat="40.7923031" lon="-3.6868225"><ele>838.0</ele><time>2026-03-24T14:59:31.96Z</time></trkpt><trkpt lat="40.7922162" lon="-3.6866671"><ele>838.0</ele><time>2026-03-24T14:59:32.946Z</time></trkpt><trkpt lat="40.7921208" lon="-3.6865127"><ele>838.0</ele><time>2026-03-24T14:59:33.942Z</time></trkpt><trkpt lat="40.7920231" lon="-3.6863488"><ele>838.0</ele><time>2026-03-24T14:59:34.949Z</time></trkpt><trkpt lat="40.7919192" lon="-3.6861806"><ele>838.0</ele><time>2026-03-24T14:59:35.957Z</time></trkpt><trkpt lat="40.7918101" lon="-3.6860144"><ele>838.3333333333333</ele><time>2026-03-24T14:59:36.96Z</time></trkpt><trkpt lat="40.7916953" lon="-3.6858561"><ele>838.6666666666667</ele><time>2026-03-24T14:59:37.955Z</time></trkpt><trkpt lat="40.7915779" lon="-3.6857022"><ele>839.0</ele><time>2026-03-24T14:59:38.936Z</time></trkpt><trkpt lat="40.7914545" lon="-3.6855539"><ele>839.0</ele><time>2026-03-24T14:59:39.951Z</time></trkpt><trkpt lat="40.7913256" lon="-3.6854243"><ele>839.0</ele><time>2026-03-24T14:59:40.961Z</time></trkpt><trkpt lat="40.7911954" lon="-3.6852994"><ele>839.0</ele><time>2026-03-24T14:59:41.943Z</time></trkpt><trkpt lat="40.7910564" lon="-3.6851752"><ele>838.3333333333334</ele><time>2026-03-24T14:59:42.966Z</time></trkpt><trkpt lat="40.7909212" lon="-3.6850522"><ele>837.6666666666667</ele><time>2026-03-24T14:59:43.969Z</time></trkpt><trkpt lat="40.7907847" lon="-3.6849306"><ele>837.0</ele><time>2026-03-24T14:59:44.979Z</time></trkpt><trkpt lat="40.7906514" lon="-3.6848192"><ele>837.0</ele><time>2026-03-24T14:59:45.962Z</time></trkpt><trkpt lat="40.7905087" lon="-3.6847165"><ele>837.0</ele><time>2026-03-24T14:59:46.98Z</time></trkpt><trkpt lat="40.7903714" lon="-3.6846092"><ele>837.0</ele><time>2026-03-24T14:59:47.966Z</time></trkpt><trkpt lat="40.7902291" lon="-3.6845043"><ele>837.6666666666667</ele><time>2026-03-24T14:59:48.959Z</time></trkpt><trkpt lat="40.7900918" lon="-3.6844002"><ele>838.3333333333334</ele><time>2026-03-24T14:59:49.971Z</time></trkpt><trkpt lat="40.7899642" lon="-3.6843043"><ele>839.0</ele><time>2026-03-24T14:59:50.97Z</time></trkpt><trkpt lat="40.78982" lon="-3.6842001"><ele>839.0</ele><time>2026-03-24T14:59:51.98Z</time></trkpt><trkpt lat="40.7896811" lon="-3.6841003"><ele>839.0</ele><time>2026-03-24T14:59:52.968Z</time></trkpt><trkpt lat="40.7895474" lon="-3.683994"><ele>839.0</ele><time>2026-03-24T14:59:53.964Z</time></trkpt><trkpt lat="40.7894133" lon="-3.6838927"><ele>839.0</ele><time>2026-03-24T14:59:54.977Z</time></trkpt><trkpt lat="40.7892794" lon="-3.6837871"><ele>839.0</ele><time>2026-03-24T14:59:55.969Z</time></trkpt><trkpt lat="40.7891485" lon="-3.6836794"><ele>839.0</ele><time>2026-03-24T14:59:56.98Z</time></trkpt><trkpt lat="40.7890012" lon="-3.6835704"><ele>839.0</ele><time>2026-03-24T14:59:57.983Z</time></trkpt><trkpt lat="40.7888552" lon="-3.6834594"><ele>839.0</ele><time>2026-03-24T14:59:58.956Z</time></trkpt><trkpt lat="40.7887051" lon="-3.6833411"><ele>839.0</ele><time>2026-03-24T14:59:59.992Z</time></trkpt><trkpt lat="40.7885617" lon="-3.6832039"><ele>839.0</ele><time>2026-03-24T15:00:00.968Z</time></trkpt><trkpt lat="40.7884255" lon="-3.6830485"><ele>839.0</ele><time>2026-03-24T15:00:01.98Z</time></trkpt><trkpt lat="40.7882877" lon="-3.6828807"><ele>839.0</ele><time>2026-03-24T15:00:02.957Z</time></trkpt><trkpt lat="40.7881578" lon="-3.6826994"><ele>839.0</ele><time>2026-03-24T15:00:03.951Z</time></trkpt><trkpt lat="40.7880418" lon="-3.6825067"><ele>839.0</ele><time>2026-03-24T15:00:04.977Z</time></trkpt><trkpt lat="40.787937" lon="-3.6823119"><ele>839.0</ele><time>2026-03-24T15:00:05.984Z</time></trkpt><trkpt lat="40.7878478" lon="-3.6821168"><ele>840.6666666666667</ele><time>2026-03-24T15:00:06.956Z</time></trkpt><trkpt lat="40.7877608" lon="-3.6819299"><ele>842.3333333333333</ele><time>2026-03-24T15:00:07.959Z</time></trkpt><trkpt lat="40.7876795" lon="-3.6817307"><ele>844.0</ele><time>2026-03-24T15:00:08.948Z</time></trkpt><trkpt lat="40.7876112" lon="-3.681528"><ele>842.3333333333333</ele><time>2026-03-24T15:00:09.936Z</time></trkpt><trkpt lat="40.7875503" lon="-3.6813196"><ele>840.6666666666667</ele><time>2026-03-24T15:00:10.927Z</time></trkpt><trkpt lat="40.787501" lon="-3.6811072"><ele>839.0</ele><time>2026-03-24T15:00:11.95Z</time></trkpt><trkpt lat="40.7874639" lon="-3.6808989"><ele>839.0</ele><time>2026-03-24T15:00:12.974Z</time></trkpt><trkpt lat="40.7874231" lon="-3.6806962"><ele>839.0</ele><time>2026-03-24T15:00:13.983Z</time></trkpt><trkpt lat="40.7873946" lon="-3.6804918"><ele>839.0</ele><time>2026-03-24T15:00:14.986Z</time></trkpt><trkpt lat="40.7873689" lon="-3.6802795"><ele>840.3333333333334</ele><time>2026-03-24T15:00:15.936Z</time></trkpt><trkpt lat="40.7873443" lon="-3.6800712"><ele>841.6666666666667</ele><time>2026-03-24T15:00:16.968Z</time></trkpt><trkpt lat="40.7873185" lon="-3.6798546"><ele>843.0</ele><time>2026-03-24T15:00:17.938Z</time></trkpt><trkpt lat="40.7872784" lon="-3.6796297"><ele>843.6666666666667</ele><time>2026-03-24T15:00:18.962Z</time></trkpt><trkpt lat="40.7872374" lon="-3.6794115"><ele>844.3333333333334</ele><time>2026-03-24T15:00:19.974Z</time></trkpt><trkpt lat="40.7871965" lon="-3.6791936"><ele>845.0</ele><time>2026-03-24T15:00:20.948Z</time></trkpt><trkpt lat="40.7871555" lon="-3.6789688"><ele>845.0</ele><time>2026-03-24T15:00:21.94Z</time></trkpt><trkpt lat="40.7871159" lon="-3.678747"><ele>845.0</ele><time>2026-03-24T15:00:22.939Z</time></trkpt><trkpt lat="40.7870697" lon="-3.6785234"><ele>845.0</ele><time>2026-03-24T15:00:23.945Z</time></trkpt><trkpt lat="40.7870186" lon="-3.6783"><ele>846.3333333333334</ele><time>2026-03-24T15:00:24.967Z</time></trkpt><trkpt lat="40.7869669" lon="-3.6780764"><ele>847.6666666666667</ele><time>2026-03-24T15:00:25.967Z</time></trkpt><trkpt lat="40.7869068" lon="-3.6778447"><ele>849.0</ele><time>2026-03-24T15:00:26.979Z</time></trkpt><trkpt lat="40.7868444" lon="-3.677603"><ele>846.6666666666667</ele><time>2026-03-24T15:00:27.971Z</time></trkpt><trkpt lat="40.7867772" lon="-3.6773662"><ele>844.3333333333334</ele><time>2026-03-24T15:00:28.978Z</time></trkpt><trkpt lat="40.7867094" lon="-3.6771314"><ele>842.0</ele><time>2026-03-24T15:00:29.978Z</time></trkpt><trkpt lat="40.786636" lon="-3.6769144"><ele>842.0</ele><time>2026-03-24T15:00:30.976Z</time></trkpt><trkpt lat="40.7865695" lon="-3.6766992"><ele>842.0</ele><time>2026-03-24T15:00:31.975Z</time></trkpt><trkpt lat="40.7865055" lon="-3.6764916"><ele>842.0</ele><time>2026-03-24T15:00:32.963Z</time></trkpt><trkpt lat="40.7864346" lon="-3.6762866"><ele>844.0</ele><time>2026-03-24T15:00:33.959Z</time></trkpt><trkpt lat="40.7863661" lon="-3.676074"><ele>846.0</ele><time>2026-03-24T15:00:34.965Z</time></trkpt><trkpt lat="40.7862903" lon="-3.6758627"><ele>848.0</ele><time>2026-03-24T15:00:35.964Z</time></trkpt><trkpt lat="40.7862182" lon="-3.6756605"><ele>848.0</ele><time>2026-03-24T15:00:36.99Z</time></trkpt><trkpt lat="40.786153" lon="-3.6754503"><ele>848.0</ele><time>2026-03-24T15:00:37.96Z</time></trkpt><trkpt lat="40.786087" lon="-3.6752465"><ele>848.0</ele><time>2026-03-24T15:00:38.954Z</time></trkpt><trkpt lat="40.7860195" lon="-3.6750435"><ele>843.6666666666667</ele><time>2026-03-24T15:00:39.955Z</time></trkpt><trkpt lat="40.7859505" lon="-3.6748448"><ele>839.3333333333333</ele><time>2026-03-24T15:00:40.977Z</time></trkpt><trkpt lat="40.7858771" lon="-3.6746419"><ele>835.0</ele><time>2026-03-24T15:00:41.969Z</time></trkpt><trkpt lat="40.7858061" lon="-3.6744417"><ele>836.0</ele><time>2026-03-24T15:00:42.968Z</time></trkpt><trkpt lat="40.7857354" lon="-3.6742344"><ele>837.0</ele><time>2026-03-24T15:00:43.973Z</time></trkpt><trkpt lat="40.785666" lon="-3.6740356"><ele>838.0</ele><time>2026-03-24T15:00:44.923Z</time></trkpt><trkpt lat="40.7856034" lon="-3.6738312"><ele>838.0</ele><time>2026-03-24T15:00:45.955Z</time></trkpt><trkpt lat="40.785542" lon="-3.6736374"><ele>838.0</ele><time>2026-03-24T15:00:46.956Z</time></trkpt><trkpt lat="40.7854868" lon="-3.6734334"><ele>838.0</ele><time>2026-03-24T15:00:47.971Z</time></trkpt><trkpt lat="40.7854495" lon="-3.6732236"><ele>840.0</ele><time>2026-03-24T15:00:48.982Z</time></trkpt><trkpt lat="40.785422" lon="-3.6730102"><ele>842.0</ele><time>2026-03-24T15:00:49.992Z</time></trkpt><trkpt lat="40.7854021" lon="-3.672798"><ele>844.0</ele><time>2026-03-24T15:00:50.971Z</time></trkpt><trkpt lat="40.7853917" lon="-3.6725836"><ele>845.6666666666666</ele><time>2026-03-24T15:00:51.957Z</time></trkpt><trkpt lat="40.7853945" lon="-3.6723692"><ele>847.3333333333333</ele><time>2026-03-24T15:00:52.975Z</time></trkpt><trkpt lat="40.7854099" lon="-3.6721638"><ele>849.0</ele><time>2026-03-24T15:00:53.957Z</time></trkpt><trkpt lat="40.7854402" lon="-3.6719643"><ele>849.3333333333333</ele><time>2026-03-24T15:00:54.985Z</time></trkpt><trkpt lat="40.7854817" lon="-3.6717732"><ele>849.6666666666666</ele><time>2026-03-24T15:00:55.948Z</time></trkpt><trkpt lat="40.7855266" lon="-3.671582"><ele>850.0</ele><time>2026-03-24T15:00:56.969Z</time></trkpt><trkpt lat="40.7855723" lon="-3.6713936"><ele>850.0</ele><time>2026-03-24T15:00:57.966Z</time></trkpt><trkpt lat="40.7856233" lon="-3.6712019"><ele>850.0</ele><time>2026-03-24T15:00:58.985Z</time></trkpt><trkpt lat="40.7856783" lon="-3.6710116"><ele>850.0</ele><time>2026-03-24T15:00:59.955Z</time></trkpt><trkpt lat="40.7857403" lon="-3.6708144"><ele>848.3333333333333</ele><time>2026-03-24T15:01:00.977Z</time></trkpt><trkpt lat="40.7858023" lon="-3.6706237"><ele>846.6666666666667</ele><time>2026-03-24T15:01:01.967Z</time></trkpt><trkpt lat="40.7858583" lon="-3.6704268"><ele>845.0</ele><time>2026-03-24T15:01:02.985Z</time></trkpt><trkpt lat="40.7859147" lon="-3.6702295"><ele>846.0</ele><time>2026-03-24T15:01:03.965Z</time></trkpt><trkpt lat="40.7859666" lon="-3.6700365"><ele>847.0</ele><time>2026-03-24T15:01:04.969Z</time></trkpt><trkpt lat="40.786009" lon="-3.6698363"><ele>848.0</ele><time>2026-03-24T15:01:05.941Z</time></trkpt><trkpt lat="40.7860429" lon="-3.6696346"><ele>844.0</ele><time>2026-03-24T15:01:06.938Z</time></trkpt><trkpt lat="40.7860627" lon="-3.6694415"><ele>840.0</ele><time>2026-03-24T15:01:07.942Z</time></trkpt><trkpt lat="40.7860611" lon="-3.6692494"><ele>836.0</ele><time>2026-03-24T15:01:08.927Z</time></trkpt><trkpt lat="40.7860559" lon="-3.669057"><ele>832.0</ele><time>2026-03-24T15:01:09.931Z</time></trkpt><trkpt lat="40.7860439" lon="-3.6688715"><ele>832.0</ele><time>2026-03-24T15:01:10.933Z</time></trkpt><trkpt lat="40.7860228" lon="-3.6686888"><ele>832.0</ele><time>2026-03-24T15:01:11.925Z</time></trkpt><trkpt lat="40.7859908" lon="-3.668519"><ele>832.0</ele><time>2026-03-24T15:01:12.925Z</time></trkpt><trkpt lat="40.7859559" lon="-3.6683602"><ele>832.0</ele><time>2026-03-24T15:01:13.93Z</time></trkpt><trkpt lat="40.7859139" lon="-3.6682151"><ele>831.75</ele><time>2026-03-24T15:01:14.922Z</time></trkpt><trkpt lat="40.7858677" lon="-3.6680783"><ele>831.5</ele><time>2026-03-24T15:01:15.934Z</time></trkpt><trkpt lat="40.7858175" lon="-3.6679435"><ele>831.25</ele><time>2026-03-24T15:01:16.92Z</time></trkpt><trkpt lat="40.7857523" lon="-3.6678183"><ele>831.0</ele><time>2026-03-24T15:01:17.932Z</time></trkpt><trkpt lat="40.7856896" lon="-3.6676711"><ele>832.0</ele><time>2026-03-24T15:01:18.927Z</time></trkpt><trkpt lat="40.7855972" lon="-3.6675258"><ele>833.0</ele><time>2026-03-24T15:01:19.924Z</time></trkpt><trkpt lat="40.7855106" lon="-3.6673728"><ele>834.0</ele><time>2026-03-24T15:01:20.926Z</time></trkpt><trkpt lat="40.7854272" lon="-3.6672216"><ele>835.0</ele><time>2026-03-24T15:01:21.928Z</time></trkpt><trkpt lat="40.7853545" lon="-3.6671121"><ele>834.9999999999999</ele><time>2026-03-24T15:01:22.931Z</time></trkpt><trkpt lat="40.7852925" lon="-3.666994"><ele>835.0</ele><time>2026-03-24T15:01:23.921Z</time></trkpt><trkpt lat="40.7852317" lon="-3.6669016"><ele>835.0</ele><time>2026-03-24T15:01:24.92Z</time></trkpt><trkpt lat="40.785174" lon="-3.6668298"><ele>835.0</ele><time>2026-03-24T15:01:25.927Z</time></trkpt><trkpt lat="40.7850968" lon="-3.6668071"><ele>834.9999999999999</ele><time>2026-03-24T15:01:27.94Z</time></trkpt><trkpt lat="40.7850466" lon="-3.6668862"><ele>835.0</ele><time>2026-03-24T15:01:29.924Z</time></trkpt><trkpt lat="40.7849911" lon="-3.6669412"><ele>834.9999999999999</ele><time>2026-03-24T15:01:32.945Z</time></trkpt><trkpt lat="40.7849323" lon="-3.6668738"><ele>835.0</ele><time>2026-03-24T15:01:35.955Z</time></trkpt><trkpt lat="40.7850025" lon="-3.6668322"><ele>835.0</ele><time>2026-03-24T15:01:55.927Z</time></trkpt><trkpt lat="40.7850656" lon="-3.6667958"><ele>835.0</ele><time>2026-03-24T15:01:58.955Z</time></trkpt><trkpt lat="40.7851766" lon="-3.6668242"><ele>834.9999999999999</ele><time>2026-03-24T15:02:00.93Z</time></trkpt><trkpt lat="40.7852437" lon="-3.6668941"><ele>835.0</ele><time>2026-03-24T15:02:01.949Z</time></trkpt><trkpt lat="40.7853145" lon="-3.6669725"><ele>835.0</ele><time>2026-03-24T15:02:02.94Z</time></trkpt><trkpt lat="40.7853807" lon="-3.6670444"><ele>835.0</ele><time>2026-03-24T15:02:03.929Z</time></trkpt><trkpt lat="40.7854436" lon="-3.6671393"><ele>835.0</ele><time>2026-03-24T15:02:04.924Z</time></trkpt><trkpt lat="40.7855131" lon="-3.6672355"><ele>835.0</ele><time>2026-03-24T15:02:05.929Z</time></trkpt><trkpt lat="40.7855785" lon="-3.6673349"><ele>835.0</ele><time>2026-03-24T15:02:06.918Z</time></trkpt><trkpt lat="40.7856285" lon="-3.6674213"><ele>835.0</ele><time>2026-03-24T15:02:07.921Z</time></trkpt><trkpt lat="40.7856724" lon="-3.6674975"><ele>835.0</ele><time>2026-03-24T15:02:08.925Z</time></trkpt><trkpt lat="40.785753" lon="-3.6675438"><ele>835.0</ele><time>2026-03-24T15:02:10.929Z</time></trkpt><trkpt lat="40.785829" lon="-3.6674968"><ele>835.0</ele><time>2026-03-24T15:02:12.94Z</time></trkpt><trkpt lat="40.785971" lon="-3.6675048"><ele>835.0</ele><time>2026-03-24T15:02:14.933Z</time></trkpt><trkpt lat="40.7860569" lon="-3.6675524"><ele>834.3333333333333</ele><time>2026-03-24T15:02:15.931Z</time></trkpt><trkpt lat="40.7861404" lon="-3.6676057"><ele>833.6666666666666</ele><time>2026-03-24T15:02:16.927Z</time></trkpt><trkpt lat="40.7862118" lon="-3.6676638"><ele>833.0</ele><time>2026-03-24T15:02:17.953Z</time></trkpt><trkpt lat="40.7862847" lon="-3.6677095"><ele>832.3333333333333</ele><time>2026-03-24T15:02:18.956Z</time></trkpt><trkpt lat="40.7863502" lon="-3.6677633"><ele>831.6666666666666</ele><time>2026-03-24T15:02:19.953Z</time></trkpt><trkpt lat="40.7864129" lon="-3.6678136"><ele>831.0</ele><time>2026-03-24T15:02:20.97Z</time></trkpt><trkpt lat="40.7864877" lon="-3.6678622"><ele>831.0</ele><time>2026-03-24T15:02:21.95Z</time></trkpt><trkpt lat="40.7865749" lon="-3.6679132"><ele>831.0</ele><time>2026-03-24T15:02:22.978Z</time></trkpt><trkpt lat="40.7866728" lon="-3.6679702"><ele>831.0</ele><time>2026-03-24T15:02:23.974Z</time></trkpt><trkpt lat="40.7867725" lon="-3.6680277"><ele>831.0</ele><time>2026-03-24T15:02:24.952Z</time></trkpt><trkpt lat="40.7868828" lon="-3.6680813"><ele>831.0</ele><time>2026-03-24T15:02:25.977Z</time></trkpt><trkpt lat="40.7869862" lon="-3.6681326"><ele>832.5</ele><time>2026-03-24T15:02:26.973Z</time></trkpt><trkpt lat="40.7870921" lon="-3.6681811"><ele>834.0</ele><time>2026-03-24T15:02:27.952Z</time></trkpt><trkpt lat="40.7872009" lon="-3.6682225"><ele>835.5</ele><time>2026-03-24T15:02:28.957Z</time></trkpt><trkpt lat="40.7873117" lon="-3.6682642"><ele>837.0</ele><time>2026-03-24T15:02:29.986Z</time></trkpt><trkpt lat="40.7874198" lon="-3.668313"><ele>837.0</ele><time>2026-03-24T15:02:30.958Z</time></trkpt><trkpt lat="40.7875343" lon="-3.6683691"><ele>837.0</ele><time>2026-03-24T15:02:31.954Z</time></trkpt><trkpt lat="40.7876451" lon="-3.6684206"><ele>837.0</ele><time>2026-03-24T15:02:32.961Z</time></trkpt><trkpt lat="40.7877495" lon="-3.6684612"><ele>837.0</ele><time>2026-03-24T15:02:33.957Z</time></trkpt><trkpt lat="40.7878514" lon="-3.6684951"><ele>838.5</ele><time>2026-03-24T15:02:34.971Z</time></trkpt><trkpt lat="40.7879546" lon="-3.6685336"><ele>840.0</ele><time>2026-03-24T15:02:35.953Z</time></trkpt><trkpt lat="40.7880684" lon="-3.6685624"><ele>841.5</ele><time>2026-03-24T15:02:36.952Z</time></trkpt><trkpt lat="40.7881841" lon="-3.6685879"><ele>843.0</ele><time>2026-03-24T15:02:37.967Z</time></trkpt><trkpt lat="40.7883072" lon="-3.6686145"><ele>840.5</ele><time>2026-03-24T15:02:38.934Z</time></trkpt><trkpt lat="40.7884317" lon="-3.6686377"><ele>838.0</ele><time>2026-03-24T15:02:39.958Z</time></trkpt><trkpt lat="40.7885646" lon="-3.668662"><ele>835.5</ele><time>2026-03-24T15:02:40.92Z</time></trkpt><trkpt lat="40.7886927" lon="-3.6686744"><ele>833.0</ele><time>2026-03-24T15:02:41.944Z</time></trkpt><trkpt lat="40.7888238" lon="-3.6686929"><ele>833.0</ele><time>2026-03-24T15:02:42.947Z</time></trkpt><trkpt lat="40.7889545" lon="-3.6687239"><ele>833.0</ele><time>2026-03-24T15:02:43.955Z</time></trkpt><trkpt lat="40.7890868" lon="-3.6687474"><ele>833.0</ele><time>2026-03-24T15:02:44.941Z</time></trkpt><trkpt lat="40.7892117" lon="-3.6687413"><ele>833.0</ele><time>2026-03-24T15:02:45.947Z</time></trkpt><trkpt lat="40.7893339" lon="-3.6687172"><ele>834.4</ele><time>2026-03-24T15:02:46.974Z</time></trkpt><trkpt lat="40.7894408" lon="-3.6686734"><ele>835.8</ele><time>2026-03-24T15:02:47.951Z</time></trkpt><trkpt lat="40.7895416" lon="-3.6686183"><ele>837.2</ele><time>2026-03-24T15:02:48.963Z</time></trkpt><trkpt lat="40.7896453" lon="-3.6685617"><ele>838.6</ele><time>2026-03-24T15:02:50.005Z</time></trkpt><trkpt lat="40.789749" lon="-3.6685117"><ele>840.0</ele><time>2026-03-24T15:02:50.947Z</time></trkpt><trkpt lat="40.7898592" lon="-3.6684685"><ele>840.25</ele><time>2026-03-24T15:02:51.969Z</time></trkpt><trkpt lat="40.7899595" lon="-3.6684274"><ele>840.5</ele><time>2026-03-24T15:02:52.978Z</time></trkpt><trkpt lat="40.7900692" lon="-3.6683816"><ele>840.75</ele><time>2026-03-24T15:02:53.975Z</time></trkpt><trkpt lat="40.7901849" lon="-3.6683337"><ele>841.0</ele><time>2026-03-24T15:02:54.967Z</time></trkpt><trkpt lat="40.7903019" lon="-3.6682828"><ele>840.5</ele><time>2026-03-24T15:02:55.973Z</time></trkpt><trkpt lat="40.7904186" lon="-3.6682424"><ele>840.0</ele><time>2026-03-24T15:02:56.997Z</time></trkpt><trkpt lat="40.7905384" lon="-3.6681957"><ele>839.5</ele><time>2026-03-24T15:02:57.95Z</time></trkpt><trkpt lat="40.7906611" lon="-3.6681512"><ele>839.0</ele><time>2026-03-24T15:02:58.989Z</time></trkpt><trkpt lat="40.7907854" lon="-3.6681018"><ele>839.0</ele><time>2026-03-24T15:02:59.964Z</time></trkpt><trkpt lat="40.7909146" lon="-3.6680554"><ele>839.0</ele><time>2026-03-24T15:03:00.994Z</time></trkpt><trkpt lat="40.7910475" lon="-3.6680119"><ele>839.0</ele><time>2026-03-24T15:03:01.956Z</time></trkpt><trkpt lat="40.7911787" lon="-3.6679751"><ele>839.0</ele><time>2026-03-24T15:03:02.957Z</time></trkpt><trkpt lat="40.7913112" lon="-3.6679501"><ele>838.75</ele><time>2026-03-24T15:03:03.955Z</time></trkpt><trkpt lat="40.7914323" lon="-3.6679339"><ele>838.5</ele><time>2026-03-24T15:03:04.953Z</time></trkpt><trkpt lat="40.7915548" lon="-3.6679204"><ele>838.25</ele><time>2026-03-24T15:03:05.94Z</time></trkpt><trkpt lat="40.7916728" lon="-3.6679067"><ele>838.0</ele><time>2026-03-24T15:03:06.957Z</time></trkpt><trkpt lat="40.791782" lon="-3.6678946"><ele>838.5</ele><time>2026-03-24T15:03:07.972Z</time></trkpt><trkpt lat="40.7918966" lon="-3.6678827"><ele>839.0</ele><time>2026-03-24T15:03:08.961Z</time></trkpt><trkpt lat="40.7920073" lon="-3.6678659"><ele>839.5</ele><time>2026-03-24T15:03:09.976Z</time></trkpt><trkpt lat="40.7921194" lon="-3.6678317"><ele>840.0</ele><time>2026-03-24T15:03:10.972Z</time></trkpt><trkpt lat="40.792232" lon="-3.6677807"><ele>840.25</ele><time>2026-03-24T15:03:11.978Z</time></trkpt><trkpt lat="40.7923432" lon="-3.6677196"><ele>840.5</ele><time>2026-03-24T15:03:12.967Z</time></trkpt><trkpt lat="40.7924496" lon="-3.6676469"><ele>840.75</ele><time>2026-03-24T15:03:13.972Z</time></trkpt><trkpt lat="40.7925467" lon="-3.6675688"><ele>841.0</ele><time>2026-03-24T15:03:14.97Z</time></trkpt><trkpt lat="40.7926339" lon="-3.6674726"><ele>840.75</ele><time>2026-03-24T15:03:15.959Z</time></trkpt><trkpt lat="40.7927175" lon="-3.6673735"><ele>840.5</ele><time>2026-03-24T15:03:16.994Z</time></trkpt><trkpt lat="40.7927952" lon="-3.6672576"><ele>840.25</ele><time>2026-03-24T15:03:17.95Z</time></trkpt><trkpt lat="40.7928621" lon="-3.6671334"><ele>840.0</ele><time>2026-03-24T15:03:18.939Z</time></trkpt><trkpt lat="40.7929259" lon="-3.6669936"><ele>840.2</ele><time>2026-03-24T15:03:19.935Z</time></trkpt><trkpt lat="40.7929858" lon="-3.6668505"><ele>840.4</ele><time>2026-03-24T15:03:20.939Z</time></trkpt><trkpt lat="40.7930497" lon="-3.6667238"><ele>840.5999999999999</ele><time>2026-03-24T15:03:21.954Z</time></trkpt><trkpt lat="40.7931145" lon="-3.66662"><ele>840.8</ele><time>2026-03-24T15:03:22.975Z</time></trkpt><trkpt lat="40.7931728" lon="-3.6665365"><ele>841.0</ele><time>2026-03-24T15:03:23.944Z</time></trkpt><trkpt lat="40.7932379" lon="-3.6664832"><ele>841.0</ele><time>2026-03-24T15:03:24.952Z</time></trkpt><trkpt lat="40.7933219" lon="-3.6664666"><ele>841.0</ele><time>2026-03-24T15:03:25.953Z</time></trkpt><trkpt lat="40.7934163" lon="-3.666468"><ele>841.0</ele><time>2026-03-24T15:03:26.942Z</time></trkpt><trkpt lat="40.7935154" lon="-3.6664729"><ele>841.0</ele><time>2026-03-24T15:03:27.963Z</time></trkpt><trkpt lat="40.7936107" lon="-3.6664786"><ele>841.0</ele><time>2026-03-24T15:03:28.932Z</time></trkpt><trkpt lat="40.7937051" lon="-3.6664885"><ele>840.8333333333333</ele><time>2026-03-24T15:03:29.935Z</time></trkpt><trkpt lat="40.7938004" lon="-3.6665114"><ele>840.6666666666666</ele><time>2026-03-24T15:03:30.942Z</time></trkpt><trkpt lat="40.7938825" lon="-3.6665179"><ele>840.5</ele><time>2026-03-24T15:03:31.929Z</time></trkpt><trkpt lat="40.7939592" lon="-3.6665201"><ele>840.3333333333333</ele><time>2026-03-24T15:03:32.939Z</time></trkpt><trkpt lat="40.7940235" lon="-3.6665274"><ele>840.1666666666666</ele><time>2026-03-24T15:03:33.936Z</time></trkpt><trkpt lat="40.7941158" lon="-3.6665615"><ele>840.0</ele><time>2026-03-24T15:03:35.943Z</time></trkpt><trkpt lat="40.7942062" lon="-3.6665726"><ele>840.0</ele><time>2026-03-24T15:03:56.963Z</time></trkpt><trkpt lat="40.7943235" lon="-3.6665567"><ele>840.0</ele><time>2026-03-24T15:03:58.968Z</time></trkpt><trkpt lat="40.7943995" lon="-3.6665226"><ele>840.0</ele><time>2026-03-24T15:03:59.964Z</time></trkpt><trkpt lat="40.794474" lon="-3.6664744"><ele>840.0</ele><time>2026-03-24T15:04:00.971Z</time></trkpt><trkpt lat="40.7945617" lon="-3.6664145"><ele>840.0</ele><time>2026-03-24T15:04:01.945Z</time></trkpt><trkpt lat="40.794659" lon="-3.6663609"><ele>839.6</ele><time>2026-03-24T15:04:02.98Z</time></trkpt><trkpt lat="40.7947513" lon="-3.6663048"><ele>839.2</ele><time>2026-03-24T15:04:03.975Z</time></trkpt><trkpt lat="40.7948481" lon="-3.6662486"><ele>838.8</ele><time>2026-03-24T15:04:04.95Z</time></trkpt><trkpt lat="40.794945" lon="-3.6661754"><ele>838.4</ele><time>2026-03-24T15:04:05.966Z</time></trkpt><trkpt lat="40.7950289" lon="-3.6660865"><ele>838.0</ele><time>2026-03-24T15:04:06.985Z</time></trkpt><trkpt lat="40.7951119" lon="-3.6659853"><ele>838.75</ele><time>2026-03-24T15:04:07.981Z</time></trkpt><trkpt lat="40.7951881" lon="-3.6658858"><ele>839.5</ele><time>2026-03-24T15:04:08.973Z</time></trkpt><trkpt lat="40.795243" lon="-3.6657601"><ele>840.25</ele><time>2026-03-24T15:04:09.982Z</time></trkpt><trkpt lat="40.7952989" lon="-3.6656325"><ele>841.0</ele><time>2026-03-24T15:04:10.975Z</time></trkpt><trkpt lat="40.7953582" lon="-3.6654918"><ele>841.0</ele><time>2026-03-24T15:04:11.969Z</time></trkpt><trkpt lat="40.7954194" lon="-3.6653425"><ele>841.0</ele><time>2026-03-24T15:04:12.95Z</time></trkpt><trkpt lat="40.7954737" lon="-3.6651983"><ele>841.0</ele><time>2026-03-24T15:04:13.953Z</time></trkpt><trkpt lat="40.7955272" lon="-3.6650699"><ele>841.0</ele><time>2026-03-24T15:04:14.964Z</time></trkpt><trkpt lat="40.7955802" lon="-3.6649476"><ele>841.5999999999999</ele><time>2026-03-24T15:04:15.983Z</time></trkpt><trkpt lat="40.7956371" lon="-3.6648363"><ele>842.2</ele><time>2026-03-24T15:04:16.987Z</time></trkpt><trkpt lat="40.795697" lon="-3.6647349"><ele>842.8</ele><time>2026-03-24T15:04:17.991Z</time></trkpt><trkpt lat="40.7957681" lon="-3.6646396"><ele>843.4000000000001</ele><time>2026-03-24T15:04:18.965Z</time></trkpt><trkpt lat="40.7958453" lon="-3.6645441"><ele>844.0</ele><time>2026-03-24T15:04:19.963Z</time></trkpt><trkpt lat="40.795919" lon="-3.6644328"><ele>843.6</ele><time>2026-03-24T15:04:20.957Z</time></trkpt><trkpt lat="40.7959883" lon="-3.6643158"><ele>843.2</ele><time>2026-03-24T15:04:21.943Z</time></trkpt><trkpt lat="40.7960441" lon="-3.6642055"><ele>842.8000000000001</ele><time>2026-03-24T15:04:22.936Z</time></trkpt><trkpt lat="40.7960967" lon="-3.664093"><ele>842.4000000000001</ele><time>2026-03-24T15:04:23.953Z</time></trkpt><trkpt lat="40.7961507" lon="-3.6639826"><ele>842.0</ele><time>2026-03-24T15:04:24.977Z</time></trkpt><trkpt lat="40.7962106" lon="-3.6638793"><ele>842.0</ele><time>2026-03-24T15:04:25.973Z</time></trkpt><trkpt lat="40.7962731" lon="-3.6637844"><ele>842.0</ele><time>2026-03-24T15:04:26.956Z</time></trkpt><trkpt lat="40.7963396" lon="-3.6636954"><ele>842.0</ele><time>2026-03-24T15:04:27.974Z</time></trkpt><trkpt lat="40.7964111" lon="-3.6636141"><ele>842.0</ele><time>2026-03-24T15:04:28.947Z</time></trkpt><trkpt lat="40.796479" lon="-3.6635365"><ele>842.0</ele><time>2026-03-24T15:04:29.972Z</time></trkpt><trkpt lat="40.7965434" lon="-3.6634627"><ele>843.0</ele><time>2026-03-24T15:04:30.954Z</time></trkpt><trkpt lat="40.7965952" lon="-3.6633798"><ele>844.0</ele><time>2026-03-24T15:04:31.944Z</time></trkpt><trkpt lat="40.7966411" lon="-3.6632804"><ele>845.0</ele><time>2026-03-24T15:04:32.964Z</time></trkpt><trkpt lat="40.796687" lon="-3.6631752"><ele>846.0</ele><time>2026-03-24T15:04:33.937Z</time></trkpt><trkpt lat="40.7967414" lon="-3.6630612"><ele>847.0</ele><time>2026-03-24T15:04:34.978Z</time></trkpt><trkpt lat="40.7967991" lon="-3.6629428"><ele>846.0</ele><time>2026-03-24T15:04:35.966Z</time></trkpt><trkpt lat="40.7968554" lon="-3.6628407"><ele>845.0</ele><time>2026-03-24T15:04:36.951Z</time></trkpt><trkpt lat="40.7969074" lon="-3.6627299"><ele>844.0</ele><time>2026-03-24T15:04:37.958Z</time></trkpt><trkpt lat="40.7969565" lon="-3.6626256"><ele>843.0</ele><time>2026-03-24T15:04:38.942Z</time></trkpt><trkpt lat="40.7970071" lon="-3.6625202"><ele>842.0</ele><time>2026-03-24T15:04:39.943Z</time></trkpt><trkpt lat="40.7970515" lon="-3.662407"><ele>842.0000000000001</ele><time>2026-03-24T15:04:40.942Z</time></trkpt><trkpt lat="40.797102" lon="-3.6623"><ele>842.0</ele><time>2026-03-24T15:04:41.957Z</time></trkpt><trkpt lat="40.7971575" lon="-3.6622043"><ele>842.0</ele><time>2026-03-24T15:04:42.969Z</time></trkpt><trkpt lat="40.7972205" lon="-3.6621122"><ele>842.0</ele><time>2026-03-24T15:04:43.959Z</time></trkpt><trkpt lat="40.7972785" lon="-3.6620289"><ele>842.0000000000001</ele><time>2026-03-24T15:04:44.931Z</time></trkpt><trkpt lat="40.7973391" lon="-3.6619765"><ele>842.0</ele><time>2026-03-24T15:04:45.929Z</time></trkpt><trkpt lat="40.7974042" lon="-3.6619461"><ele>842.0</ele><time>2026-03-24T15:04:46.934Z</time></trkpt><trkpt lat="40.7975082" lon="-3.6619522"><ele>842.0</ele><time>2026-03-24T15:04:48.927Z</time></trkpt><trkpt lat="40.7975997" lon="-3.6619736"><ele>842.0</ele><time>2026-03-24T15:04:50.93Z</time></trkpt><trkpt lat="40.7976921" lon="-3.6619516"><ele>842.0</ele><time>2026-03-24T15:04:52.945Z</time></trkpt><trkpt lat="40.7977827" lon="-3.661904"><ele>842.0</ele><time>2026-03-24T15:04:54.943Z</time></trkpt><trkpt lat="40.7978721" lon="-3.6618497"><ele>842.25</ele><time>2026-03-24T15:04:56.97Z</time></trkpt><trkpt lat="40.797987" lon="-3.6618001"><ele>842.5</ele><time>2026-03-24T15:04:58.96Z</time></trkpt><trkpt lat="40.7980968" lon="-3.6617603"><ele>842.75</ele><time>2026-03-24T15:05:00.964Z</time></trkpt><trkpt lat="40.798223" lon="-3.6616953"><ele>843.0</ele><time>2026-03-24T15:05:02.947Z</time></trkpt><trkpt lat="40.7983003" lon="-3.6616642"><ele>843.0</ele><time>2026-03-24T15:05:03.948Z</time></trkpt><trkpt lat="40.7983706" lon="-3.661625"><ele>843.0</ele><time>2026-03-24T15:05:04.926Z</time></trkpt><trkpt lat="40.7984481" lon="-3.6615747"><ele>843.0</ele><time>2026-03-24T15:05:05.951Z</time></trkpt><trkpt lat="40.798511" lon="-3.6615212"><ele>843.0</ele><time>2026-03-24T15:05:06.959Z</time></trkpt><trkpt lat="40.7985647" lon="-3.6614701"><ele>843.0</ele><time>2026-03-24T15:05:07.942Z</time></trkpt><trkpt lat="40.7986104" lon="-3.6614093"><ele>843.0</ele><time>2026-03-24T15:05:08.962Z</time></trkpt><trkpt lat="40.7986597" lon="-3.6613216"><ele>843.1666666666666</ele><time>2026-03-24T15:05:09.961Z</time></trkpt><trkpt lat="40.7987073" lon="-3.6612246"><ele>843.3333333333333</ele><time>2026-03-24T15:05:10.942Z</time></trkpt><trkpt lat="40.7987553" lon="-3.6611332"><ele>843.5</ele><time>2026-03-24T15:05:11.954Z</time></trkpt><trkpt lat="40.7988008" lon="-3.661039"><ele>843.6666666666666</ele><time>2026-03-24T15:05:12.953Z</time></trkpt><trkpt lat="40.7988493" lon="-3.660967"><ele>843.8333333333333</ele><time>2026-03-24T15:05:13.988Z</time></trkpt><trkpt lat="40.7988965" lon="-3.6608896"><ele>844.0</ele><time>2026-03-24T15:05:14.98Z</time></trkpt><trkpt lat="40.7989409" lon="-3.660827"><ele>844.2857142857143</ele><time>2026-03-24T15:05:15.968Z</time></trkpt><trkpt lat="40.7989841" lon="-3.6607641"><ele>844.5714285714287</ele><time>2026-03-24T15:05:16.973Z</time></trkpt><trkpt lat="40.7990305" lon="-3.6606962"><ele>844.8571428571429</ele><time>2026-03-24T15:05:17.961Z</time></trkpt><trkpt lat="40.7990784" lon="-3.6606376"><ele>845.1428571428571</ele><time>2026-03-24T15:05:18.971Z</time></trkpt><trkpt lat="40.7991334" lon="-3.6605844"><ele>845.4285714285714</ele><time>2026-03-24T15:05:19.973Z</time></trkpt><trkpt lat="40.7991959" lon="-3.6605271"><ele>845.7142857142857</ele><time>2026-03-24T15:05:20.976Z</time></trkpt><trkpt lat="40.7992563" lon="-3.6604691"><ele>846.0</ele><time>2026-03-24T15:05:21.981Z</time></trkpt><trkpt lat="40.7993133" lon="-3.6603963"><ele>845.6666666666666</ele><time>2026-03-24T15:05:22.988Z</time></trkpt><trkpt lat="40.7993557" lon="-3.6603106"><ele>845.3333333333333</ele><time>2026-03-24T15:05:23.967Z</time></trkpt><trkpt lat="40.7994007" lon="-3.6602166"><ele>845.0</ele><time>2026-03-24T15:05:24.952Z</time></trkpt><trkpt lat="40.7994561" lon="-3.6601226"><ele>844.6666666666666</ele><time>2026-03-24T15:05:25.972Z</time></trkpt><trkpt lat="40.7995169" lon="-3.6600374"><ele>844.3333333333333</ele><time>2026-03-24T15:05:26.937Z</time></trkpt><trkpt lat="40.7995803" lon="-3.6599521"><ele>844.0</ele><time>2026-03-24T15:05:27.939Z</time></trkpt><trkpt lat="40.7996468" lon="-3.6598729"><ele>844.0</ele><time>2026-03-24T15:05:28.935Z</time></trkpt><trkpt lat="40.799725" lon="-3.6597931"><ele>844.0</ele><time>2026-03-24T15:05:29.941Z</time></trkpt><trkpt lat="40.7998068" lon="-3.6597294"><ele>844.0</ele><time>2026-03-24T15:05:30.94Z</time></trkpt><trkpt lat="40.7998914" lon="-3.6596765"><ele>844.0</ele><time>2026-03-24T15:05:31.965Z</time></trkpt><trkpt lat="40.7999835" lon="-3.6596228"><ele>844.0</ele><time>2026-03-24T15:05:32.951Z</time></trkpt><trkpt lat="40.8000686" lon="-3.6595684"><ele>843.9999999999999</ele><time>2026-03-24T15:05:33.928Z</time></trkpt><trkpt lat="40.800146" lon="-3.659509"><ele>844.0</ele><time>2026-03-24T15:05:34.969Z</time></trkpt><trkpt lat="40.8002106" lon="-3.6594396"><ele>844.0</ele><time>2026-03-24T15:05:35.983Z</time></trkpt><trkpt lat="40.8002682" lon="-3.6593745"><ele>844.0</ele><time>2026-03-24T15:05:36.96Z</time></trkpt><trkpt lat="40.8003322" lon="-3.6593332"><ele>843.9999999999999</ele><time>2026-03-24T15:05:37.966Z</time></trkpt><trkpt lat="40.8004044" lon="-3.6593048"><ele>844.0</ele><time>2026-03-24T15:05:38.97Z</time></trkpt><trkpt lat="40.8004754" lon="-3.6592811"><ele>844.6</ele><time>2026-03-24T15:05:39.947Z</time></trkpt><trkpt lat="40.8005963" lon="-3.6592564"><ele>845.2</ele><time>2026-03-24T15:05:41.957Z</time></trkpt><trkpt lat="40.8007092" lon="-3.6592208"><ele>845.8000000000001</ele><time>2026-03-24T15:05:43.961Z</time></trkpt><trkpt lat="40.800832" lon="-3.6592045"><ele>846.4000000000001</ele><time>2026-03-24T15:05:45.959Z</time></trkpt><trkpt lat="40.8008973" lon="-3.6592014"><ele>847.0</ele><time>2026-03-24T15:05:46.968Z</time></trkpt><trkpt lat="40.8009676" lon="-3.6592156"><ele>846.9999999999999</ele><time>2026-03-24T15:05:47.993Z</time></trkpt><trkpt lat="40.8010441" lon="-3.6592318"><ele>847.0</ele><time>2026-03-24T15:05:48.944Z</time></trkpt><trkpt lat="40.8011157" lon="-3.6592422"><ele>847.0</ele><time>2026-03-24T15:05:49.978Z</time></trkpt><trkpt lat="40.8011838" lon="-3.6592552"><ele>847.0</ele><time>2026-03-24T15:05:50.955Z</time></trkpt><trkpt lat="40.8012865" lon="-3.6592445"><ele>846.9999999999999</ele><time>2026-03-24T15:05:52.949Z</time></trkpt><trkpt lat="40.8013918" lon="-3.6592131"><ele>847.0</ele><time>2026-03-24T15:05:54.978Z</time></trkpt><trkpt lat="40.8015026" lon="-3.6591795"><ele>847.0</ele><time>2026-03-24T15:05:56.958Z</time></trkpt><trkpt lat="40.8016091" lon="-3.6591565"><ele>847.0</ele><time>2026-03-24T15:05:58.969Z</time></trkpt><trkpt lat="40.8017268" lon="-3.6591558"><ele>847.0</ele><time>2026-03-24T15:06:00.963Z</time></trkpt><trkpt lat="40.801803" lon="-3.6591541"><ele>847.0</ele><time>2026-03-24T15:06:01.969Z</time></trkpt><trkpt lat="40.8018901" lon="-3.659151"><ele>847.0</ele><time>2026-03-24T15:06:02.983Z</time></trkpt><trkpt lat="40.8019719" lon="-3.6591508"><ele>846.9999999999999</ele><time>2026-03-24T15:06:03.97Z</time></trkpt><trkpt lat="40.8020552" lon="-3.6591554"><ele>847.0</ele><time>2026-03-24T15:06:04.972Z</time></trkpt><trkpt lat="40.8021426" lon="-3.6591678"><ele>847.0</ele><time>2026-03-24T15:06:05.924Z</time></trkpt><trkpt lat="40.8022286" lon="-3.6591736"><ele>847.0</ele><time>2026-03-24T15:06:06.93Z</time></trkpt><trkpt lat="40.8023204" lon="-3.659186"><ele>846.9999999999999</ele><time>2026-03-24T15:06:07.923Z</time></trkpt><trkpt lat="40.8024089" lon="-3.6591874"><ele>847.0</ele><time>2026-03-24T15:06:08.927Z</time></trkpt><trkpt lat="40.802482" lon="-3.659184"><ele>846.9999999999999</ele><time>2026-03-24T15:06:09.921Z</time></trkpt><trkpt lat="40.8025594" lon="-3.6591918"><ele>847.0</ele><time>2026-03-24T15:06:10.929Z</time></trkpt><trkpt lat="40.8026345" lon="-3.6591867"><ele>847.0</ele><time>2026-03-24T15:06:11.945Z</time></trkpt><trkpt lat="40.8027062" lon="-3.6591562"><ele>847.0</ele><time>2026-03-24T15:06:12.95Z</time></trkpt><trkpt lat="40.802776" lon="-3.6591082"><ele>846.9999999999999</ele><time>2026-03-24T15:06:13.919Z</time></trkpt><trkpt lat="40.8028421" lon="-3.6590638"><ele>847.0</ele><time>2026-03-24T15:06:14.952Z</time></trkpt><trkpt lat="40.8029415" lon="-3.6590182"><ele>847.3333333333333</ele><time>2026-03-24T15:06:16.974Z</time></trkpt><trkpt lat="40.8030552" lon="-3.6589564"><ele>847.6666666666666</ele><time>2026-03-24T15:06:18.963Z</time></trkpt><trkpt lat="40.8031302" lon="-3.6589259"><ele>848.0</ele><time>2026-03-24T15:06:19.975Z</time></trkpt><trkpt lat="40.8032091" lon="-3.6588974"><ele>848.3333333333333</ele><time>2026-03-24T15:06:20.968Z</time></trkpt><trkpt lat="40.8032859" lon="-3.6588866"><ele>848.6666666666666</ele><time>2026-03-24T15:06:21.961Z</time></trkpt><trkpt lat="40.8033606" lon="-3.6588771"><ele>849.0</ele><time>2026-03-24T15:06:22.963Z</time></trkpt><trkpt lat="40.8034301" lon="-3.6588784"><ele>849.2</ele><time>2026-03-24T15:06:23.922Z</time></trkpt><trkpt lat="40.8035016" lon="-3.6588837"><ele>849.4000000000001</ele><time>2026-03-24T15:06:24.968Z</time></trkpt><trkpt lat="40.8036161" lon="-3.6588793"><ele>849.6</ele><time>2026-03-24T15:06:26.986Z</time></trkpt><trkpt lat="40.8037055" lon="-3.6587639"><ele>849.8</ele><time>2026-03-24T15:06:28.959Z</time></trkpt><trkpt lat="40.8037568" lon="-3.6586854"><ele>850.0</ele><time>2026-03-24T15:06:29.94Z</time></trkpt><trkpt lat="40.8038157" lon="-3.6586203"><ele>850.4999999999999</ele><time>2026-03-24T15:06:30.964Z</time></trkpt><trkpt lat="40.8038854" lon="-3.6585566"><ele>851.0</ele><time>2026-03-24T15:06:31.961Z</time></trkpt><trkpt lat="40.8039622" lon="-3.6584984"><ele>851.5</ele><time>2026-03-24T15:06:32.947Z</time></trkpt><trkpt lat="40.8040419" lon="-3.6584448"><ele>852.0</ele><time>2026-03-24T15:06:33.949Z</time></trkpt><trkpt lat="40.8041133" lon="-3.6583924"><ele>852.4999999999999</ele><time>2026-03-24T15:06:34.972Z</time></trkpt><trkpt lat="40.8041885" lon="-3.6583364"><ele>853.0</ele><time>2026-03-24T15:06:35.925Z</time></trkpt><trkpt lat="40.8042629" lon="-3.6582693"><ele>853.0</ele><time>2026-03-24T15:06:36.981Z</time></trkpt><trkpt lat="40.804329" lon="-3.6581919"><ele>853.0</ele><time>2026-03-24T15:06:37.968Z</time></trkpt><trkpt lat="40.8043927" lon="-3.6580845"><ele>853.0</ele><time>2026-03-24T15:06:38.946Z</time></trkpt><trkpt lat="40.8044512" lon="-3.6579838"><ele>853.0</ele><time>2026-03-24T15:06:39.98Z</time></trkpt><trkpt lat="40.8045091" lon="-3.6578864"><ele>853.0</ele><time>2026-03-24T15:06:40.965Z</time></trkpt><trkpt lat="40.8045738" lon="-3.657802"><ele>853.3333333333333</ele><time>2026-03-24T15:06:41.965Z</time></trkpt><trkpt lat="40.8046445" lon="-3.6577364"><ele>853.6666666666666</ele><time>2026-03-24T15:06:42.965Z</time></trkpt><trkpt lat="40.8047207" lon="-3.6576829"><ele>854.0</ele><time>2026-03-24T15:06:43.968Z</time></trkpt><trkpt lat="40.8047949" lon="-3.6576242"><ele>854.3333333333333</ele><time>2026-03-24T15:06:44.967Z</time></trkpt><trkpt lat="40.804864" lon="-3.6575668"><ele>854.6666666666666</ele><time>2026-03-24T15:06:45.968Z</time></trkpt><trkpt lat="40.8049314" lon="-3.6575121"><ele>855.0</ele><time>2026-03-24T15:06:46.974Z</time></trkpt><trkpt lat="40.8050053" lon="-3.6574538"><ele>855.0</ele><time>2026-03-24T15:06:47.978Z</time></trkpt><trkpt lat="40.8050774" lon="-3.6573928"><ele>855.0</ele><time>2026-03-24T15:06:48.968Z</time></trkpt><trkpt lat="40.8051415" lon="-3.6573413"><ele>855.0</ele><time>2026-03-24T15:06:49.959Z</time></trkpt><trkpt lat="40.8051964" lon="-3.6572984"><ele>855.0</ele><time>2026-03-24T15:06:50.969Z</time></trkpt><trkpt lat="40.8052725" lon="-3.6572096"><ele>855.0</ele><time>2026-03-24T15:06:52.964Z</time></trkpt><trkpt lat="40.8053248" lon="-3.6571394"><ele>855.0</ele><time>2026-03-24T15:06:54.968Z</time></trkpt><trkpt lat="40.8053931" lon="-3.6570742"><ele>855.6</ele><time>2026-03-24T15:06:57.946Z</time></trkpt><trkpt lat="40.8054667" lon="-3.6570025"><ele>856.2</ele><time>2026-03-24T15:06:59.968Z</time></trkpt><trkpt lat="40.8055436" lon="-3.6568797"><ele>856.8</ele><time>2026-03-24T15:07:01.942Z</time></trkpt><trkpt lat="40.8056057" lon="-3.6567659"><ele>857.4</ele><time>2026-03-24T15:07:03.963Z</time></trkpt><trkpt lat="40.8056321" lon="-3.6566442"><ele>858.0</ele><time>2026-03-24T15:07:05.97Z</time></trkpt><trkpt lat="40.8056889" lon="-3.6564919"><ele>858.0</ele><time>2026-03-24T15:07:07.985Z</time></trkpt><trkpt lat="40.8057433" lon="-3.6563414"><ele>858.0</ele><time>2026-03-24T15:07:09.975Z</time></trkpt><trkpt lat="40.8057765" lon="-3.6562563"><ele>858.0</ele><time>2026-03-24T15:07:10.98Z</time></trkpt><trkpt lat="40.8058145" lon="-3.6561689"><ele>858.0</ele><time>2026-03-24T15:07:11.967Z</time></trkpt><trkpt lat="40.8058491" lon="-3.6560709"><ele>858.0</ele><time>2026-03-24T15:07:12.977Z</time></trkpt><trkpt lat="40.8058807" lon="-3.6559837"><ele>858.0</ele><time>2026-03-24T15:07:13.962Z</time></trkpt><trkpt lat="40.805913" lon="-3.6559089"><ele>858.3333333333334</ele><time>2026-03-24T15:07:14.966Z</time></trkpt><trkpt lat="40.8059365" lon="-3.6558199"><ele>858.6666666666667</ele><time>2026-03-24T15:07:15.976Z</time></trkpt><trkpt lat="40.8059596" lon="-3.6557263"><ele>859.0</ele><time>2026-03-24T15:07:16.958Z</time></trkpt><trkpt lat="40.8059871" lon="-3.655634"><ele>859.3333333333334</ele><time>2026-03-24T15:07:17.965Z</time></trkpt><trkpt lat="40.8060192" lon="-3.6555364"><ele>859.6666666666667</ele><time>2026-03-24T15:07:18.972Z</time></trkpt><trkpt lat="40.8060565" lon="-3.655432"><ele>860.0</ele><time>2026-03-24T15:07:19.968Z</time></trkpt><trkpt lat="40.8060988" lon="-3.6553228"><ele>861.0000000000001</ele><time>2026-03-24T15:07:20.969Z</time></trkpt><trkpt lat="40.806135" lon="-3.6552105"><ele>862.0</ele><time>2026-03-24T15:07:21.966Z</time></trkpt><trkpt lat="40.8061756" lon="-3.6550976"><ele>863.0</ele><time>2026-03-24T15:07:22.965Z</time></trkpt><trkpt lat="40.8062129" lon="-3.6549927"><ele>864.0</ele><time>2026-03-24T15:07:23.994Z</time></trkpt><trkpt lat="40.806254" lon="-3.6548963"><ele>865.0000000000001</ele><time>2026-03-24T15:07:24.965Z</time></trkpt><trkpt lat="40.8062967" lon="-3.6547997"><ele>866.0</ele><time>2026-03-24T15:07:25.97Z</time></trkpt><trkpt lat="40.8063379" lon="-3.6547065"><ele>866.0000000000001</ele><time>2026-03-24T15:07:26.984Z</time></trkpt><trkpt lat="40.80638" lon="-3.654618"><ele>866.0</ele><time>2026-03-24T15:07:27.952Z</time></trkpt><trkpt lat="40.8064122" lon="-3.6545229"><ele>866.0</ele><time>2026-03-24T15:07:28.971Z</time></trkpt><trkpt lat="40.8064433" lon="-3.6544152"><ele>866.0</ele><time>2026-03-24T15:07:30Z</time></trkpt><trkpt lat="40.8064702" lon="-3.654312"><ele>866.0000000000001</ele><time>2026-03-24T15:07:30.969Z</time></trkpt><trkpt lat="40.8064963" lon="-3.6542105"><ele>866.0</ele><time>2026-03-24T15:07:31.965Z</time></trkpt><trkpt lat="40.8065236" lon="-3.6541113"><ele>866.5000000000001</ele><time>2026-03-24T15:07:32.973Z</time></trkpt><trkpt lat="40.8065518" lon="-3.6540139"><ele>867.0</ele><time>2026-03-24T15:07:33.922Z</time></trkpt><trkpt lat="40.8065846" lon="-3.6539104"><ele>867.5</ele><time>2026-03-24T15:07:34.93Z</time></trkpt><trkpt lat="40.8066191" lon="-3.6538111"><ele>868.0</ele><time>2026-03-24T15:07:35.933Z</time></trkpt><trkpt lat="40.8066507" lon="-3.6537018"><ele>868.5000000000001</ele><time>2026-03-24T15:07:36.942Z</time></trkpt><trkpt lat="40.8066811" lon="-3.6535956"><ele>869.0</ele><time>2026-03-24T15:07:37.938Z</time></trkpt><trkpt lat="40.8067113" lon="-3.6534887"><ele>869.1666666666667</ele><time>2026-03-24T15:07:38.94Z</time></trkpt><trkpt lat="40.8067382" lon="-3.6533937"><ele>869.3333333333334</ele><time>2026-03-24T15:07:39.972Z</time></trkpt><trkpt lat="40.8067743" lon="-3.6532963"><ele>869.5</ele><time>2026-03-24T15:07:40.965Z</time></trkpt><trkpt lat="40.8068174" lon="-3.6532019"><ele>869.6666666666667</ele><time>2026-03-24T15:07:41.93Z</time></trkpt><trkpt lat="40.8068567" lon="-3.6531056"><ele>869.8333333333334</ele><time>2026-03-24T15:07:42.956Z</time></trkpt><trkpt lat="40.8069021" lon="-3.6530122"><ele>870.0</ele><time>2026-03-24T15:07:43.974Z</time></trkpt><trkpt lat="40.8069453" lon="-3.6529244"><ele>870.3333333333334</ele><time>2026-03-24T15:07:44.968Z</time></trkpt><trkpt lat="40.8069866" lon="-3.6528349"><ele>870.6666666666667</ele><time>2026-03-24T15:07:45.975Z</time></trkpt><trkpt lat="40.8070284" lon="-3.6527472"><ele>871.0</ele><time>2026-03-24T15:07:46.955Z</time></trkpt><trkpt lat="40.8070783" lon="-3.6526532"><ele>871.3333333333334</ele><time>2026-03-24T15:07:47.974Z</time></trkpt><trkpt lat="40.8071189" lon="-3.6525606"><ele>871.6666666666667</ele><time>2026-03-24T15:07:48.962Z</time></trkpt><trkpt lat="40.8071595" lon="-3.6524661"><ele>872.0</ele><time>2026-03-24T15:07:49.963Z</time></trkpt><trkpt lat="40.8071961" lon="-3.6523626"><ele>872.0000000000001</ele><time>2026-03-24T15:07:50.983Z</time></trkpt><trkpt lat="40.8072323" lon="-3.6522547"><ele>872.0</ele><time>2026-03-24T15:07:51.974Z</time></trkpt><trkpt lat="40.8072653" lon="-3.652157"><ele>872.0</ele><time>2026-03-24T15:07:52.961Z</time></trkpt><trkpt lat="40.8073139" lon="-3.6520716"><ele>872.0</ele><time>2026-03-24T15:07:53.967Z</time></trkpt><trkpt lat="40.8073667" lon="-3.6519961"><ele>872.0000000000001</ele><time>2026-03-24T15:07:54.932Z</time></trkpt><trkpt lat="40.8074177" lon="-3.6519231"><ele>872.0</ele><time>2026-03-24T15:07:55.929Z</time></trkpt><trkpt lat="40.8074616" lon="-3.6518471"><ele>872.0000000000001</ele><time>2026-03-24T15:07:56.943Z</time></trkpt><trkpt lat="40.807494" lon="-3.6517632"><ele>872.0</ele><time>2026-03-24T15:07:57.939Z</time></trkpt><trkpt lat="40.8075244" lon="-3.6516802"><ele>872.0</ele><time>2026-03-24T15:07:58.971Z</time></trkpt><trkpt lat="40.8075532" lon="-3.6516011"><ele>872.0</ele><time>2026-03-24T15:07:59.942Z</time></trkpt><trkpt lat="40.8075972" lon="-3.651439"><ele>872.0000000000001</ele><time>2026-03-24T15:08:01.934Z</time></trkpt><trkpt lat="40.8075997" lon="-3.651342"><ele>872.0</ele><time>2026-03-24T15:08:02.981Z</time></trkpt><trkpt lat="40.807599" lon="-3.6512351"><ele>871.8</ele><time>2026-03-24T15:08:03.96Z</time></trkpt><trkpt lat="40.8076046" lon="-3.6511188"><ele>871.6</ele><time>2026-03-24T15:08:04.957Z</time></trkpt><trkpt lat="40.8076081" lon="-3.6510002"><ele>871.3999999999999</ele><time>2026-03-24T15:08:05.936Z</time></trkpt><trkpt lat="40.8076223" lon="-3.6508803"><ele>871.1999999999999</ele><time>2026-03-24T15:08:06.926Z</time></trkpt><trkpt lat="40.8076436" lon="-3.6507637"><ele>871.0</ele><time>2026-03-24T15:08:07.931Z</time></trkpt><trkpt lat="40.8076712" lon="-3.6506437"><ele>870.9999999999999</ele><time>2026-03-24T15:08:08.95Z</time></trkpt><trkpt lat="40.807698" lon="-3.6505299"><ele>871.0</ele><time>2026-03-24T15:08:09.945Z</time></trkpt><trkpt lat="40.8077301" lon="-3.6504374"><ele>871.0</ele><time>2026-03-24T15:08:10.948Z</time></trkpt><trkpt lat="40.8077738" lon="-3.6503516"><ele>871.0</ele><time>2026-03-24T15:08:11.94Z</time></trkpt><trkpt lat="40.8078229" lon="-3.6502661"><ele>870.9999999999999</ele><time>2026-03-24T15:08:12.951Z</time></trkpt><trkpt lat="40.80787" lon="-3.650187"><ele>871.0</ele><time>2026-03-24T15:08:13.975Z</time></trkpt><trkpt lat="40.8079138" lon="-3.6501047"><ele>870.7142857142857</ele><time>2026-03-24T15:08:14.946Z</time></trkpt><trkpt lat="40.8079545" lon="-3.6500322"><ele>870.4285714285713</ele><time>2026-03-24T15:08:15.977Z</time></trkpt><trkpt lat="40.8079977" lon="-3.6499579"><ele>870.1428571428571</ele><time>2026-03-24T15:08:16.977Z</time></trkpt><trkpt lat="40.8080353" lon="-3.6498742"><ele>869.8571428571429</ele><time>2026-03-24T15:08:17.978Z</time></trkpt><trkpt lat="40.8080599" lon="-3.6497934"><ele>869.5714285714286</ele><time>2026-03-24T15:08:18.956Z</time></trkpt><trkpt lat="40.8080867" lon="-3.6497018"><ele>869.2857142857143</ele><time>2026-03-24T15:08:19.966Z</time></trkpt><trkpt lat="40.8081174" lon="-3.6496092"><ele>869.0</ele><time>2026-03-24T15:08:20.962Z</time></trkpt><trkpt lat="40.808152" lon="-3.6495154"><ele>868.8333333333334</ele><time>2026-03-24T15:08:21.975Z</time></trkpt><trkpt lat="40.8081868" lon="-3.6494285"><ele>868.6666666666667</ele><time>2026-03-24T15:08:22.988Z</time></trkpt><trkpt lat="40.808225" lon="-3.6493366"><ele>868.5</ele><time>2026-03-24T15:08:23.989Z</time></trkpt><trkpt lat="40.8082746" lon="-3.6492463"><ele>868.3333333333333</ele><time>2026-03-24T15:08:24.967Z</time></trkpt><trkpt lat="40.8083232" lon="-3.6491676"><ele>868.1666666666666</ele><time>2026-03-24T15:08:25.968Z</time></trkpt><trkpt lat="40.8083704" lon="-3.6490939"><ele>868.0</ele><time>2026-03-24T15:08:26.973Z</time></trkpt><trkpt lat="40.8084553" lon="-3.6489807"><ele>867.6666666666666</ele><time>2026-03-24T15:08:28.969Z</time></trkpt><trkpt lat="40.8085313" lon="-3.648856"><ele>867.3333333333333</ele><time>2026-03-24T15:08:30.963Z</time></trkpt><trkpt lat="40.8085727" lon="-3.6487779"><ele>867.0</ele><time>2026-03-24T15:08:31.956Z</time></trkpt><trkpt lat="40.8086135" lon="-3.648698"><ele>866.6666666666667</ele><time>2026-03-24T15:08:32.972Z</time></trkpt><trkpt lat="40.8086582" lon="-3.6486071"><ele>866.3333333333334</ele><time>2026-03-24T15:08:33.982Z</time></trkpt><trkpt lat="40.8087034" lon="-3.6485275"><ele>866.0</ele><time>2026-03-24T15:08:34.968Z</time></trkpt><trkpt lat="40.8087618" lon="-3.6484534"><ele>866.0000000000001</ele><time>2026-03-24T15:08:35.962Z</time></trkpt><trkpt lat="40.8088318" lon="-3.6483826"><ele>866.0</ele><time>2026-03-24T15:08:36.973Z</time></trkpt><trkpt lat="40.8089024" lon="-3.6483183"><ele>866.0</ele><time>2026-03-24T15:08:37.919Z</time></trkpt><trkpt lat="40.8089741" lon="-3.6482562"><ele>866.0</ele><time>2026-03-24T15:08:38.926Z</time></trkpt><trkpt lat="40.8090218" lon="-3.6481998"><ele>866.0000000000001</ele><time>2026-03-24T15:08:39.926Z</time></trkpt><trkpt lat="40.8090757" lon="-3.6481392"><ele>866.0</ele><time>2026-03-24T15:08:40.931Z</time></trkpt><trkpt lat="40.809123" lon="-3.6480623"><ele>866.0000000000001</ele><time>2026-03-24T15:08:41.92Z</time></trkpt><trkpt lat="40.8091697" lon="-3.647969"><ele>866.0</ele><time>2026-03-24T15:08:42.92Z</time></trkpt><trkpt lat="40.8092145" lon="-3.6478688"><ele>866.0</ele><time>2026-03-24T15:08:43.921Z</time></trkpt><trkpt lat="40.8092637" lon="-3.6477794"><ele>866.0</ele><time>2026-03-24T15:08:44.951Z</time></trkpt><trkpt lat="40.8093153" lon="-3.6476908"><ele>866.0000000000001</ele><time>2026-03-24T15:08:45.918Z</time></trkpt><trkpt lat="40.8093815" lon="-3.647602"><ele>866.0</ele><time>2026-03-24T15:08:46.919Z</time></trkpt><trkpt lat="40.8094463" lon="-3.6475194"><ele>865.3333333333334</ele><time>2026-03-24T15:08:47.916Z</time></trkpt><trkpt lat="40.8095124" lon="-3.6474402"><ele>864.6666666666667</ele><time>2026-03-24T15:08:48.919Z</time></trkpt><trkpt lat="40.8095727" lon="-3.6473621"><ele>864.0</ele><time>2026-03-24T15:08:49.924Z</time></trkpt><trkpt lat="40.8096312" lon="-3.6472801"><ele>863.3333333333333</ele><time>2026-03-24T15:08:50.923Z</time></trkpt><trkpt lat="40.8096837" lon="-3.6472013"><ele>862.6666666666666</ele><time>2026-03-24T15:08:51.926Z</time></trkpt><trkpt lat="40.8097504" lon="-3.6471244"><ele>862.0</ele><time>2026-03-24T15:08:52.918Z</time></trkpt><trkpt lat="40.8098271" lon="-3.6470902"><ele>861.9999999999999</ele><time>2026-03-24T15:08:53.922Z</time></trkpt><trkpt lat="40.8098941" lon="-3.6470877"><ele>862.0</ele><time>2026-03-24T15:08:54.926Z</time></trkpt><trkpt lat="40.8100049" lon="-3.64701"><ele>862.0</ele><time>2026-03-24T15:08:56.925Z</time></trkpt><trkpt lat="40.8100691" lon="-3.6469485"><ele>862.0</ele><time>2026-03-24T15:08:57.928Z</time></trkpt><trkpt lat="40.8101459" lon="-3.6468919"><ele>861.9999999999999</ele><time>2026-03-24T15:08:58.932Z</time></trkpt><trkpt lat="40.8102215" lon="-3.6468311"><ele>862.0</ele><time>2026-03-24T15:08:59.936Z</time></trkpt><trkpt lat="40.8102956" lon="-3.6467539"><ele>862.0</ele><time>2026-03-24T15:09:00.936Z</time></trkpt><trkpt lat="40.8103631" lon="-3.6466576"><ele>862.0</ele><time>2026-03-24T15:09:01.966Z</time></trkpt><trkpt lat="40.8104247" lon="-3.6465602"><ele>862.0</ele><time>2026-03-24T15:09:02.947Z</time></trkpt><trkpt lat="40.8104823" lon="-3.6464663"><ele>862.0</ele><time>2026-03-24T15:09:03.938Z</time></trkpt><trkpt lat="40.8105471" lon="-3.6463807"><ele>862.0</ele><time>2026-03-24T15:09:04.931Z</time></trkpt><trkpt lat="40.8106023" lon="-3.6462986"><ele>862.0</ele><time>2026-03-24T15:09:05.939Z</time></trkpt><trkpt lat="40.8106548" lon="-3.6462217"><ele>862.0</ele><time>2026-03-24T15:09:06.942Z</time></trkpt><trkpt lat="40.8107006" lon="-3.646152"><ele>862.0</ele><time>2026-03-24T15:09:07.944Z</time></trkpt><trkpt lat="40.8107843" lon="-3.6460548"><ele>862.0</ele><time>2026-03-24T15:09:09.934Z</time></trkpt><trkpt lat="40.8108584" lon="-3.6460165"><ele>862.0</ele><time>2026-03-24T15:09:12.941Z</time></trkpt><trkpt lat="40.8109516" lon="-3.6459172"><ele>862.0</ele><time>2026-03-24T15:13:34.922Z</time></trkpt><trkpt lat="40.8110173" lon="-3.645853"><ele>862.0</ele><time>2026-03-24T15:13:36.923Z</time></trkpt><trkpt lat="40.8111113" lon="-3.6457566"><ele>862.0</ele><time>2026-03-24T15:13:38.922Z</time></trkpt><trkpt lat="40.81116" lon="-3.6457024"><ele>862.0</ele><time>2026-03-24T15:13:39.931Z</time></trkpt><trkpt lat="40.8112086" lon="-3.645649"><ele>862.0</ele><time>2026-03-24T15:13:40.917Z</time></trkpt><trkpt lat="40.8112953" lon="-3.6455349"><ele>861.9999999999999</ele><time>2026-03-24T15:13:42.926Z</time></trkpt><trkpt lat="40.81134" lon="-3.6454713"><ele>862.0</ele><time>2026-03-24T15:13:43.93Z</time></trkpt><trkpt lat="40.8113883" lon="-3.6453908"><ele>862.0</ele><time>2026-03-24T15:13:44.921Z</time></trkpt><trkpt lat="40.8114317" lon="-3.6453181"><ele>862.0</ele><time>2026-03-24T15:13:45.939Z</time></trkpt><trkpt lat="40.8114926" lon="-3.6452174"><ele>861.9999999999999</ele><time>2026-03-24T15:13:46.937Z</time></trkpt><trkpt lat="40.8115526" lon="-3.6451011"><ele>862.0</ele><time>2026-03-24T15:13:47.918Z</time></trkpt><trkpt lat="40.8116" lon="-3.6449999"><ele>862.3333333333333</ele><time>2026-03-24T15:13:48.949Z</time></trkpt><trkpt lat="40.8116543" lon="-3.6449068"><ele>862.6666666666666</ele><time>2026-03-24T15:13:49.92Z</time></trkpt><trkpt lat="40.8117092" lon="-3.644823"><ele>863.0</ele><time>2026-03-24T15:13:50.932Z</time></trkpt><trkpt lat="40.8117598" lon="-3.6447565"><ele>863.3333333333333</ele><time>2026-03-24T15:13:51.941Z</time></trkpt><trkpt lat="40.8118225" lon="-3.6446843"><ele>863.6666666666666</ele><time>2026-03-24T15:13:52.939Z</time></trkpt><trkpt lat="40.8118849" lon="-3.6445916"><ele>864.0</ele><time>2026-03-24T15:13:53.933Z</time></trkpt><trkpt lat="40.8119516" lon="-3.6444966"><ele>862.6</ele><time>2026-03-24T15:13:54.922Z</time></trkpt><trkpt lat="40.812027" lon="-3.6444046"><ele>861.2</ele><time>2026-03-24T15:13:55.935Z</time></trkpt><trkpt lat="40.8121017" lon="-3.644298"><ele>859.8000000000001</ele><time>2026-03-24T15:13:56.921Z</time></trkpt><trkpt lat="40.8121725" lon="-3.6441855"><ele>858.4000000000001</ele><time>2026-03-24T15:13:57.964Z</time></trkpt><trkpt lat="40.8122434" lon="-3.644076"><ele>857.0</ele><time>2026-03-24T15:13:58.928Z</time></trkpt><trkpt lat="40.8123104" lon="-3.6439628"><ele>857.0</ele><time>2026-03-24T15:13:59.922Z</time></trkpt><trkpt lat="40.8123688" lon="-3.6438628"><ele>857.0</ele><time>2026-03-24T15:14:00.931Z</time></trkpt><trkpt lat="40.8124347" lon="-3.6437816"><ele>857.0</ele><time>2026-03-24T15:14:01.948Z</time></trkpt><trkpt lat="40.8124983" lon="-3.6437031"><ele>857.0</ele><time>2026-03-24T15:14:02.94Z</time></trkpt><trkpt lat="40.8125458" lon="-3.6436022"><ele>857.0</ele><time>2026-03-24T15:14:03.934Z</time></trkpt><trkpt lat="40.8125825" lon="-3.6434853"><ele>857.4000000000001</ele><time>2026-03-24T15:14:04.931Z</time></trkpt><trkpt lat="40.8126293" lon="-3.643365"><ele>857.8000000000001</ele><time>2026-03-24T15:14:05.932Z</time></trkpt><trkpt lat="40.8126967" lon="-3.6432465"><ele>858.2</ele><time>2026-03-24T15:14:06.924Z</time></trkpt><trkpt lat="40.812767" lon="-3.643137"><ele>858.6</ele><time>2026-03-24T15:14:07.93Z</time></trkpt><trkpt lat="40.8128383" lon="-3.6430383"><ele>859.0</ele><time>2026-03-24T15:14:08.917Z</time></trkpt><trkpt lat="40.8129226" lon="-3.6429523"><ele>859.2</ele><time>2026-03-24T15:14:09.933Z</time></trkpt><trkpt lat="40.8130103" lon="-3.6428625"><ele>859.4000000000001</ele><time>2026-03-24T15:14:10.933Z</time></trkpt><trkpt lat="40.8131095" lon="-3.6427726"><ele>859.6</ele><time>2026-03-24T15:14:11.925Z</time></trkpt><trkpt lat="40.8131969" lon="-3.6426831"><ele>859.8</ele><time>2026-03-24T15:14:12.932Z</time></trkpt><trkpt lat="40.8132802" lon="-3.6425965"><ele>860.0</ele><time>2026-03-24T15:14:13.913Z</time></trkpt><trkpt lat="40.8133648" lon="-3.6425061"><ele>859.8</ele><time>2026-03-24T15:14:14.946Z</time></trkpt><trkpt lat="40.813453" lon="-3.6424238"><ele>859.6</ele><time>2026-03-24T15:14:15.923Z</time></trkpt><trkpt lat="40.8135452" lon="-3.6423398"><ele>859.4000000000001</ele><time>2026-03-24T15:14:16.917Z</time></trkpt><trkpt lat="40.8136286" lon="-3.6422467"><ele>859.2</ele><time>2026-03-24T15:14:17.927Z</time></trkpt><trkpt lat="40.8137089" lon="-3.6421437"><ele>859.0</ele><time>2026-03-24T15:14:18.929Z</time></trkpt><trkpt lat="40.813781" lon="-3.6420252"><ele>858.5</ele><time>2026-03-24T15:14:19.93Z</time></trkpt><trkpt lat="40.8138433" lon="-3.6418929"><ele>858.0</ele><time>2026-03-24T15:14:20.937Z</time></trkpt><trkpt lat="40.8138994" lon="-3.6417591"><ele>857.5</ele><time>2026-03-24T15:14:21.926Z</time></trkpt><trkpt lat="40.8139522" lon="-3.6416296"><ele>857.0</ele><time>2026-03-24T15:14:22.937Z</time></trkpt><trkpt lat="40.8140019" lon="-3.6414981"><ele>857.0</ele><time>2026-03-24T15:14:23.933Z</time></trkpt><trkpt lat="40.8140523" lon="-3.6413719"><ele>857.0</ele><time>2026-03-24T15:14:24.926Z</time></trkpt><trkpt lat="40.8140987" lon="-3.6412406"><ele>857.0</ele><time>2026-03-24T15:14:25.938Z</time></trkpt><trkpt lat="40.8141302" lon="-3.6411193"><ele>857.0</ele><time>2026-03-24T15:14:26.935Z</time></trkpt><trkpt lat="40.8141547" lon="-3.6409974"><ele>857.0</ele><time>2026-03-24T15:14:27.929Z</time></trkpt><trkpt lat="40.8141575" lon="-3.6408853"><ele>857.3333333333334</ele><time>2026-03-24T15:14:28.92Z</time></trkpt><trkpt lat="40.814142" lon="-3.6407668"><ele>857.6666666666667</ele><time>2026-03-24T15:14:29.966Z</time></trkpt><trkpt lat="40.8141206" lon="-3.6406639"><ele>858.0</ele><time>2026-03-24T15:14:30.947Z</time></trkpt><trkpt lat="40.8141208" lon="-3.6405771"><ele>858.3333333333333</ele><time>2026-03-24T15:14:31.93Z</time></trkpt><trkpt lat="40.8141525" lon="-3.6405031"><ele>858.6666666666666</ele><time>2026-03-24T15:14:32.973Z</time></trkpt><trkpt lat="40.8142042" lon="-3.6404231"><ele>859.0</ele><time>2026-03-24T15:14:33.934Z</time></trkpt><trkpt lat="40.8142565" lon="-3.6403445"><ele>859.0</ele><time>2026-03-24T15:14:34.965Z</time></trkpt><trkpt lat="40.8142934" lon="-3.6402647"><ele>859.0000000000001</ele><time>2026-03-24T15:14:35.956Z</time></trkpt><trkpt lat="40.8143265" lon="-3.6401859"><ele>859.0000000000001</ele><time>2026-03-24T15:14:36.985Z</time></trkpt><trkpt lat="40.8143787" lon="-3.6400692"><ele>859.0</ele><time>2026-03-24T15:14:38.952Z</time></trkpt><trkpt lat="40.81442" lon="-3.639927"><ele>859.0</ele><time>2026-03-24T15:14:40.97Z</time></trkpt><trkpt lat="40.8144617" lon="-3.6397844"><ele>859.0</ele><time>2026-03-24T15:14:42.98Z</time></trkpt><trkpt lat="40.8144552" lon="-3.6396716"><ele>859.0000000000001</ele><time>2026-03-24T15:14:44.955Z</time></trkpt><trkpt lat="40.8144074" lon="-3.6395735"><ele>859.0000000000001</ele><time>2026-03-24T15:14:47.951Z</time></trkpt><trkpt lat="40.8143031" lon="-3.6395028"><ele>859.0</ele><time>2026-03-24T15:14:50.941Z</time></trkpt><trkpt lat="40.8142112" lon="-3.639404"><ele>859.0</ele><time>2026-03-24T15:14:52.962Z</time></trkpt><trkpt lat="40.8141725" lon="-3.6393328"><ele>858.6</ele><time>2026-03-24T15:14:53.966Z</time></trkpt><trkpt lat="40.8141458" lon="-3.6392424"><ele>858.2</ele><time>2026-03-24T15:14:54.966Z</time></trkpt><trkpt lat="40.8141402" lon="-3.6391542"><ele>857.8000000000001</ele><time>2026-03-24T15:14:55.962Z</time></trkpt><trkpt lat="40.8142075" lon="-3.6390002"><ele>857.4000000000001</ele><time>2026-03-24T15:14:57.943Z</time></trkpt><trkpt lat="40.8142563" lon="-3.6389234"><ele>857.0</ele><time>2026-03-24T15:14:58.958Z</time></trkpt><trkpt lat="40.8143161" lon="-3.6387842"><ele>857.2</ele><time>2026-03-24T15:15:00.975Z</time></trkpt><trkpt lat="40.8143565" lon="-3.6386412"><ele>857.4000000000001</ele><time>2026-03-24T15:15:02.946Z</time></trkpt><trkpt lat="40.8143054" lon="-3.6385038"><ele>857.5999999999999</ele><time>2026-03-24T15:15:04.94Z</time></trkpt><trkpt lat="40.8142653" lon="-3.6384311"><ele>857.8</ele><time>2026-03-24T15:15:05.953Z</time></trkpt><trkpt lat="40.8142165" lon="-3.6383474"><ele>858.0</ele><time>2026-03-24T15:15:06.954Z</time></trkpt><trkpt lat="40.8141557" lon="-3.6382592"><ele>858.0</ele><time>2026-03-24T15:15:07.973Z</time></trkpt><trkpt lat="40.8140784" lon="-3.6381736"><ele>858.0</ele><time>2026-03-24T15:15:08.951Z</time></trkpt><trkpt lat="40.8139948" lon="-3.6380954"><ele>858.0</ele><time>2026-03-24T15:15:09.953Z</time></trkpt><trkpt lat="40.8139133" lon="-3.6380037"><ele>858.0</ele><time>2026-03-24T15:15:11.053Z</time></trkpt><trkpt lat="40.8138406" lon="-3.6379168"><ele>858.0</ele><time>2026-03-24T15:15:11.974Z</time></trkpt><trkpt lat="40.813765" lon="-3.6378256"><ele>858.0</ele><time>2026-03-24T15:15:12.961Z</time></trkpt><trkpt lat="40.8136932" lon="-3.6377258"><ele>858.0</ele><time>2026-03-24T15:15:13.977Z</time></trkpt><trkpt lat="40.8136386" lon="-3.6376311"><ele>858.0</ele><time>2026-03-24T15:15:14.993Z</time></trkpt><trkpt lat="40.8136029" lon="-3.6375492"><ele>858.0</ele><time>2026-03-24T15:15:15.959Z</time></trkpt><trkpt lat="40.8135263" lon="-3.6374447"><ele>858.0</ele><time>2026-03-24T15:15:17.961Z</time></trkpt><trkpt lat="40.8134887" lon="-3.6373367"><ele>858.0</ele><time>2026-03-24T15:15:19.953Z</time></trkpt><trkpt lat="40.8134725" lon="-3.637227"><ele>858.0</ele><time>2026-03-24T15:15:21.951Z</time></trkpt><trkpt lat="40.8134486" lon="-3.6371465"><ele>858.0</ele><time>2026-03-24T15:15:22.987Z</time></trkpt><trkpt lat="40.8134228" lon="-3.6370484"><ele>858.0</ele><time>2026-03-24T15:15:23.963Z</time></trkpt><trkpt lat="40.813382" lon="-3.6369456"><ele>858.0</ele><time>2026-03-24T15:15:24.952Z</time></trkpt><trkpt lat="40.813337" lon="-3.6368565"><ele>858.0</ele><time>2026-03-24T15:15:25.968Z</time></trkpt><trkpt lat="40.8132769" lon="-3.6368035"><ele>858.5</ele><time>2026-03-24T15:15:26.93Z</time></trkpt><trkpt lat="40.8132011" lon="-3.6367816"><ele>859.0</ele><time>2026-03-24T15:15:27.933Z</time></trkpt><trkpt lat="40.8131226" lon="-3.6367646"><ele>859.5</ele><time>2026-03-24T15:15:28.925Z</time></trkpt><trkpt lat="40.8130386" lon="-3.636727"><ele>860.0</ele><time>2026-03-24T15:15:29.918Z</time></trkpt><trkpt lat="40.8129522" lon="-3.636686"><ele>860.5</ele><time>2026-03-24T15:15:30.922Z</time></trkpt><trkpt lat="40.8128699" lon="-3.636629"><ele>861.0</ele><time>2026-03-24T15:15:31.921Z</time></trkpt><trkpt lat="40.8127846" lon="-3.6365623"><ele>861.0</ele><time>2026-03-24T15:15:32.921Z</time></trkpt><trkpt lat="40.8126941" lon="-3.6365001"><ele>860.9999999999999</ele><time>2026-03-24T15:15:33.929Z</time></trkpt><trkpt lat="40.8125925" lon="-3.6364359"><ele>860.9999999999999</ele><time>2026-03-24T15:15:34.922Z</time></trkpt><trkpt lat="40.8124904" lon="-3.6363692"><ele>861.0</ele><time>2026-03-24T15:15:35.927Z</time></trkpt><trkpt lat="40.8123856" lon="-3.6362962"><ele>861.0</ele><time>2026-03-24T15:15:36.92Z</time></trkpt><trkpt lat="40.8122894" lon="-3.6362391"><ele>861.0</ele><time>2026-03-24T15:15:37.922Z</time></trkpt><trkpt lat="40.8121971" lon="-3.636165"><ele>860.9999999999999</ele><time>2026-03-24T15:15:38.918Z</time></trkpt><trkpt lat="40.8121076" lon="-3.6360827"><ele>860.9999999999999</ele><time>2026-03-24T15:15:39.919Z</time></trkpt><trkpt lat="40.8120391" lon="-3.6360061"><ele>861.0</ele><time>2026-03-24T15:15:40.929Z</time></trkpt><trkpt lat="40.8119678" lon="-3.6359578"><ele>861.0</ele><time>2026-03-24T15:15:41.928Z</time></trkpt><trkpt lat="40.8118916" lon="-3.6359146"><ele>860.8</ele><time>2026-03-24T15:15:42.924Z</time></trkpt><trkpt lat="40.8118004" lon="-3.6359004"><ele>860.5999999999999</ele><time>2026-03-24T15:15:43.939Z</time></trkpt><trkpt lat="40.8117122" lon="-3.6358714"><ele>860.4</ele><time>2026-03-24T15:15:44.919Z</time></trkpt><trkpt lat="40.8116277" lon="-3.6358279"><ele>860.2</ele><time>2026-03-24T15:15:45.922Z</time></trkpt><trkpt lat="40.8115446" lon="-3.6357781"><ele>860.0</ele><time>2026-03-24T15:15:46.926Z</time></trkpt><trkpt lat="40.8114618" lon="-3.6357259"><ele>860.0</ele><time>2026-03-24T15:15:47.939Z</time></trkpt><trkpt lat="40.8113915" lon="-3.6356453"><ele>860.0</ele><time>2026-03-24T15:15:48.931Z</time></trkpt><trkpt lat="40.8113174" lon="-3.6355598"><ele>860.0</ele><time>2026-03-24T15:15:49.931Z</time></trkpt><trkpt lat="40.8112332" lon="-3.6354923"><ele>860.0</ele><time>2026-03-24T15:15:50.94Z</time></trkpt><trkpt lat="40.8111584" lon="-3.6354266"><ele>860.0</ele><time>2026-03-24T15:15:51.938Z</time></trkpt><trkpt lat="40.8110852" lon="-3.6353695"><ele>860.0</ele><time>2026-03-24T15:15:52.957Z</time></trkpt><trkpt lat="40.8110206" lon="-3.6353172"><ele>860.0</ele><time>2026-03-24T15:15:53.936Z</time></trkpt><trkpt lat="40.81094" lon="-3.6351765"><ele>860.0</ele><time>2026-03-24T15:15:55.936Z</time></trkpt><trkpt lat="40.8108896" lon="-3.6350684"><ele>860.0</ele><time>2026-03-24T15:15:56.934Z</time></trkpt><trkpt lat="40.8108352" lon="-3.6349572"><ele>860.0</ele><time>2026-03-24T15:15:57.937Z</time></trkpt><trkpt lat="40.8107832" lon="-3.6348458"><ele>859.8</ele><time>2026-03-24T15:15:58.946Z</time></trkpt><trkpt lat="40.8107258" lon="-3.6347339"><ele>859.6</ele><time>2026-03-24T15:15:59.933Z</time></trkpt><trkpt lat="40.8106701" lon="-3.634619"><ele>859.4000000000001</ele><time>2026-03-24T15:16:00.933Z</time></trkpt><trkpt lat="40.8106201" lon="-3.63451"><ele>859.2</ele><time>2026-03-24T15:16:01.922Z</time></trkpt><trkpt lat="40.8105784" lon="-3.6343941"><ele>859.0</ele><time>2026-03-24T15:16:02.936Z</time></trkpt><trkpt lat="40.8105386" lon="-3.6342879"><ele>859.0</ele><time>2026-03-24T15:16:03.948Z</time></trkpt><trkpt lat="40.8104943" lon="-3.6341896"><ele>859.0000000000001</ele><time>2026-03-24T15:16:04.942Z</time></trkpt><trkpt lat="40.8104443" lon="-3.6340956"><ele>859.0000000000001</ele><time>2026-03-24T15:16:05.925Z</time></trkpt><trkpt lat="40.8103878" lon="-3.6340033"><ele>859.0</ele><time>2026-03-24T15:16:06.947Z</time></trkpt><trkpt lat="40.810333" lon="-3.6339193"><ele>859.0</ele><time>2026-03-24T15:16:07.94Z</time></trkpt><trkpt lat="40.8102906" lon="-3.6337813"><ele>859.8000000000001</ele><time>2026-03-24T15:16:09.935Z</time></trkpt><trkpt lat="40.8102456" lon="-3.6336131"><ele>860.6000000000001</ele><time>2026-03-24T15:16:11.944Z</time></trkpt><trkpt lat="40.8102069" lon="-3.6335079"><ele>861.4</ele><time>2026-03-24T15:16:12.964Z</time></trkpt><trkpt lat="40.8101726" lon="-3.6333985"><ele>862.2</ele><time>2026-03-24T15:16:13.953Z</time></trkpt><trkpt lat="40.8101278" lon="-3.6332949"><ele>863.0</ele><time>2026-03-24T15:16:14.948Z</time></trkpt><trkpt lat="40.8100854" lon="-3.6332052"><ele>863.1666666666667</ele><time>2026-03-24T15:16:15.945Z</time></trkpt><trkpt lat="40.8100467" lon="-3.633119"><ele>863.3333333333334</ele><time>2026-03-24T15:16:16.944Z</time></trkpt><trkpt lat="40.8100241" lon="-3.6330281"><ele>863.5</ele><time>2026-03-24T15:16:17.946Z</time></trkpt><trkpt lat="40.8100054" lon="-3.632931"><ele>863.6666666666667</ele><time>2026-03-24T15:16:18.975Z</time></trkpt><trkpt lat="40.8099825" lon="-3.6328276"><ele>863.8333333333334</ele><time>2026-03-24T15:16:19.925Z</time></trkpt><trkpt lat="40.8099648" lon="-3.6327226"><ele>864.0</ele><time>2026-03-24T15:16:20.961Z</time></trkpt><trkpt lat="40.8099441" lon="-3.6326149"><ele>864.8333333333334</ele><time>2026-03-24T15:16:21.975Z</time></trkpt><trkpt lat="40.8099149" lon="-3.6324974"><ele>865.6666666666667</ele><time>2026-03-24T15:16:23.004Z</time></trkpt><trkpt lat="40.8098815" lon="-3.6323842"><ele>866.5</ele><time>2026-03-24T15:16:23.999Z</time></trkpt><trkpt lat="40.8098554" lon="-3.6322702"><ele>867.3333333333334</ele><time>2026-03-24T15:16:24.972Z</time></trkpt><trkpt lat="40.8098285" lon="-3.632165"><ele>868.1666666666667</ele><time>2026-03-24T15:16:25.972Z</time></trkpt><trkpt lat="40.8098123" lon="-3.6320642"><ele>869.0</ele><time>2026-03-24T15:16:26.966Z</time></trkpt><trkpt lat="40.809805" lon="-3.6319729"><ele>869.6666666666667</ele><time>2026-03-24T15:16:27.952Z</time></trkpt><trkpt lat="40.8097803" lon="-3.6318932"><ele>870.3333333333334</ele><time>2026-03-24T15:16:28.968Z</time></trkpt><trkpt lat="40.8097444" lon="-3.6318084"><ele>871.0</ele><time>2026-03-24T15:16:29.938Z</time></trkpt><trkpt lat="40.8096989" lon="-3.6317336"><ele>871.6666666666667</ele><time>2026-03-24T15:16:30.956Z</time></trkpt><trkpt lat="40.8096532" lon="-3.6316358"><ele>872.3333333333334</ele><time>2026-03-24T15:16:31.941Z</time></trkpt><trkpt lat="40.8096188" lon="-3.631517"><ele>873.0</ele><time>2026-03-24T15:16:32.939Z</time></trkpt><trkpt lat="40.8095858" lon="-3.6313943"><ele>873.0</ele><time>2026-03-24T15:16:33.951Z</time></trkpt><trkpt lat="40.8095569" lon="-3.63127"><ele>873.0</ele><time>2026-03-24T15:16:34.984Z</time></trkpt><trkpt lat="40.8095261" lon="-3.6311399"><ele>873.0</ele><time>2026-03-24T15:16:35.979Z</time></trkpt><trkpt lat="40.8094913" lon="-3.6310127"><ele>873.0</ele><time>2026-03-24T15:16:36.949Z</time></trkpt><trkpt lat="40.8094503" lon="-3.6308949"><ele>873.0</ele><time>2026-03-24T15:16:37.96Z</time></trkpt><trkpt lat="40.8094123" lon="-3.6307726"><ele>873.4</ele><time>2026-03-24T15:16:38.93Z</time></trkpt><trkpt lat="40.8093684" lon="-3.6306475"><ele>873.8</ele><time>2026-03-24T15:16:39.982Z</time></trkpt><trkpt lat="40.8093284" lon="-3.6305245"><ele>874.2</ele><time>2026-03-24T15:16:40.979Z</time></trkpt><trkpt lat="40.8093001" lon="-3.6304034"><ele>874.6</ele><time>2026-03-24T15:16:41.953Z</time></trkpt><trkpt lat="40.8092734" lon="-3.6302777"><ele>875.0</ele><time>2026-03-24T15:16:42.975Z</time></trkpt><trkpt lat="40.8092571" lon="-3.6301534"><ele>876.6</ele><time>2026-03-24T15:16:43.975Z</time></trkpt><trkpt lat="40.8092476" lon="-3.6300231"><ele>878.2</ele><time>2026-03-24T15:16:44.949Z</time></trkpt><trkpt lat="40.8092413" lon="-3.6298931"><ele>879.8</ele><time>2026-03-24T15:16:45.932Z</time></trkpt><trkpt lat="40.8092458" lon="-3.6297555"><ele>881.4</ele><time>2026-03-24T15:16:46.94Z</time></trkpt><trkpt lat="40.8092457" lon="-3.6296185"><ele>883.0</ele><time>2026-03-24T15:16:47.923Z</time></trkpt><trkpt lat="40.8092427" lon="-3.6294896"><ele>883.3333333333333</ele><time>2026-03-24T15:16:48.917Z</time></trkpt><trkpt lat="40.8092347" lon="-3.6293625"><ele>883.6666666666666</ele><time>2026-03-24T15:16:49.917Z</time></trkpt><trkpt lat="40.809229" lon="-3.6292337"><ele>884.0</ele><time>2026-03-24T15:16:50.929Z</time></trkpt><trkpt lat="40.8092324" lon="-3.6291158"><ele>884.3333333333333</ele><time>2026-03-24T15:16:51.943Z</time></trkpt><trkpt lat="40.8092314" lon="-3.6290125"><ele>884.6666666666666</ele><time>2026-03-24T15:16:52.925Z</time></trkpt><trkpt lat="40.8092214" lon="-3.6289141"><ele>885.0</ele><time>2026-03-24T15:16:53.932Z</time></trkpt><trkpt lat="40.8092057" lon="-3.6288223"><ele>885.0</ele><time>2026-03-24T15:16:54.937Z</time></trkpt><trkpt lat="40.8092022" lon="-3.6287282"><ele>885.0</ele><time>2026-03-24T15:16:55.928Z</time></trkpt><trkpt lat="40.8091948" lon="-3.6286203"><ele>885.0</ele><time>2026-03-24T15:16:56.958Z</time></trkpt><trkpt lat="40.8091733" lon="-3.6285118"><ele>885.0</ele><time>2026-03-24T15:16:57.953Z</time></trkpt><trkpt lat="40.8091562" lon="-3.6283811"><ele>885.0</ele><time>2026-03-24T15:16:58.961Z</time></trkpt><trkpt lat="40.8091353" lon="-3.6282611"><ele>885.0</ele><time>2026-03-24T15:16:59.971Z</time></trkpt><trkpt lat="40.8091175" lon="-3.6281386"><ele>884.6666666666666</ele><time>2026-03-24T15:17:00.961Z</time></trkpt><trkpt lat="40.809108" lon="-3.6280297"><ele>884.3333333333333</ele><time>2026-03-24T15:17:01.974Z</time></trkpt><trkpt lat="40.8090948" lon="-3.6279281"><ele>884.0</ele><time>2026-03-24T15:17:02.958Z</time></trkpt><trkpt lat="40.8090728" lon="-3.6278272"><ele>883.6666666666666</ele><time>2026-03-24T15:17:03.946Z</time></trkpt><trkpt lat="40.8090568" lon="-3.627732"><ele>883.3333333333333</ele><time>2026-03-24T15:17:04.974Z</time></trkpt><trkpt lat="40.809046" lon="-3.6276203"><ele>883.0</ele><time>2026-03-24T15:17:05.97Z</time></trkpt><trkpt lat="40.8090276" lon="-3.6274984"><ele>882.5999999999999</ele><time>2026-03-24T15:17:06.97Z</time></trkpt><trkpt lat="40.8090047" lon="-3.6273696"><ele>882.1999999999999</ele><time>2026-03-24T15:17:07.933Z</time></trkpt><trkpt lat="40.8089891" lon="-3.6272423"><ele>881.8</ele><time>2026-03-24T15:17:08.977Z</time></trkpt><trkpt lat="40.8089753" lon="-3.6271118"><ele>881.4</ele><time>2026-03-24T15:17:09.97Z</time></trkpt><trkpt lat="40.8089548" lon="-3.6269916"><ele>881.0</ele><time>2026-03-24T15:17:10.976Z</time></trkpt><trkpt lat="40.8089372" lon="-3.6268762"><ele>880.4</ele><time>2026-03-24T15:17:11.967Z</time></trkpt><trkpt lat="40.8089249" lon="-3.6267523"><ele>879.8</ele><time>2026-03-24T15:17:12.959Z</time></trkpt><trkpt lat="40.8089143" lon="-3.6266139"><ele>879.1999999999999</ele><time>2026-03-24T15:17:13.965Z</time></trkpt><trkpt lat="40.8089011" lon="-3.6264732"><ele>878.5999999999999</ele><time>2026-03-24T15:17:14.982Z</time></trkpt><trkpt lat="40.8088799" lon="-3.6263286"><ele>878.0</ele><time>2026-03-24T15:17:15.955Z</time></trkpt><trkpt lat="40.8088588" lon="-3.6261836"><ele>878.8</ele><time>2026-03-24T15:17:16.953Z</time></trkpt><trkpt lat="40.8088412" lon="-3.6260468"><ele>879.5999999999999</ele><time>2026-03-24T15:17:17.933Z</time></trkpt><trkpt lat="40.8088179" lon="-3.6259174"><ele>880.4000000000001</ele><time>2026-03-24T15:17:18.926Z</time></trkpt><trkpt lat="40.8087969" lon="-3.6257936"><ele>881.2</ele><time>2026-03-24T15:17:19.918Z</time></trkpt><trkpt lat="40.8087722" lon="-3.6256786"><ele>882.0</ele><time>2026-03-24T15:17:20.922Z</time></trkpt><trkpt lat="40.8087475" lon="-3.6255715"><ele>882.0</ele><time>2026-03-24T15:17:21.937Z</time></trkpt><trkpt lat="40.808719" lon="-3.6254515"><ele>882.0</ele><time>2026-03-24T15:17:22.922Z</time></trkpt><trkpt lat="40.8086834" lon="-3.6253447"><ele>882.0</ele><time>2026-03-24T15:17:23.934Z</time></trkpt><trkpt lat="40.8086442" lon="-3.6252434"><ele>882.0</ele><time>2026-03-24T15:17:24.923Z</time></trkpt><trkpt lat="40.8086067" lon="-3.6251423"><ele>882.0</ele><time>2026-03-24T15:17:25.939Z</time></trkpt><trkpt lat="40.8085635" lon="-3.625054"><ele>882.0</ele><time>2026-03-24T15:17:26.934Z</time></trkpt><trkpt lat="40.8085211" lon="-3.6249811"><ele>883.6666666666666</ele><time>2026-03-24T15:17:27.944Z</time></trkpt><trkpt lat="40.8084584" lon="-3.6248649"><ele>885.3333333333333</ele><time>2026-03-24T15:17:29.948Z</time></trkpt><trkpt lat="40.8084087" lon="-3.6248073"><ele>887.0</ele><time>2026-03-24T15:17:31.94Z</time></trkpt><trkpt lat="40.8083378" lon="-3.6247917"><ele>888.6666666666666</ele><time>2026-03-24T15:17:34.961Z</time></trkpt><trkpt lat="40.8082712" lon="-3.6247969"><ele>890.3333333333333</ele><time>2026-03-24T15:17:36.946Z</time></trkpt><trkpt lat="40.8081832" lon="-3.6248101"><ele>892.0</ele><time>2026-03-24T15:17:38.945Z</time></trkpt><trkpt lat="40.8080481" lon="-3.6247928"><ele>891.9999999999999</ele><time>2026-03-24T15:17:40.944Z</time></trkpt><trkpt lat="40.8079658" lon="-3.6247822"><ele>892.0</ele><time>2026-03-24T15:17:41.961Z</time></trkpt><trkpt lat="40.8078836" lon="-3.6247714"><ele>892.0</ele><time>2026-03-24T15:17:42.955Z</time></trkpt><trkpt lat="40.8077996" lon="-3.6247673"><ele>892.0</ele><time>2026-03-24T15:17:43.949Z</time></trkpt><trkpt lat="40.8077067" lon="-3.624766"><ele>891.9999999999999</ele><time>2026-03-24T15:17:44.936Z</time></trkpt><trkpt lat="40.8076201" lon="-3.6247701"><ele>892.0</ele><time>2026-03-24T15:17:45.937Z</time></trkpt><trkpt lat="40.8075413" lon="-3.6247666"><ele>892.6</ele><time>2026-03-24T15:17:46.95Z</time></trkpt><trkpt lat="40.8074529" lon="-3.6247535"><ele>893.2</ele><time>2026-03-24T15:17:47.941Z</time></trkpt><trkpt lat="40.8073583" lon="-3.6247431"><ele>893.8</ele><time>2026-03-24T15:17:48.937Z</time></trkpt><trkpt lat="40.8072679" lon="-3.6247383"><ele>894.4</ele><time>2026-03-24T15:17:49.941Z</time></trkpt><trkpt lat="40.8071782" lon="-3.6247342"><ele>895.0</ele><time>2026-03-24T15:17:50.954Z</time></trkpt><trkpt lat="40.807088" lon="-3.6247262"><ele>895.0</ele><time>2026-03-24T15:17:51.94Z</time></trkpt><trkpt lat="40.8069922" lon="-3.6247181"><ele>895.0</ele><time>2026-03-24T15:17:52.938Z</time></trkpt><trkpt lat="40.806899" lon="-3.6247157"><ele>895.0</ele><time>2026-03-24T15:17:53.924Z</time></trkpt><trkpt lat="40.8068025" lon="-3.6247099"><ele>895.0</ele><time>2026-03-24T15:17:54.957Z</time></trkpt><trkpt lat="40.8067023" lon="-3.6247124"><ele>895.0</ele><time>2026-03-24T15:17:55.933Z</time></trkpt><trkpt lat="40.8066033" lon="-3.6247083"><ele>895.6</ele><time>2026-03-24T15:17:56.924Z</time></trkpt><trkpt lat="40.8065084" lon="-3.624703"><ele>896.2</ele><time>2026-03-24T15:17:57.952Z</time></trkpt><trkpt lat="40.8064113" lon="-3.6247"><ele>896.8</ele><time>2026-03-24T15:17:58.95Z</time></trkpt><trkpt lat="40.8063173" lon="-3.6247005"><ele>897.4</ele><time>2026-03-24T15:17:59.957Z</time></trkpt><trkpt lat="40.8062201" lon="-3.6246965"><ele>898.0</ele><time>2026-03-24T15:18:00.941Z</time></trkpt><trkpt lat="40.8061219" lon="-3.6246943"><ele>897.9999999999999</ele><time>2026-03-24T15:18:01.956Z</time></trkpt><trkpt lat="40.806036" lon="-3.6246952"><ele>898.0</ele><time>2026-03-24T15:18:02.929Z</time></trkpt><trkpt lat="40.8059596" lon="-3.6246909"><ele>898.0</ele><time>2026-03-24T15:18:03.93Z</time></trkpt><trkpt lat="40.8058876" lon="-3.6246891"><ele>898.0</ele><time>2026-03-24T15:18:04.923Z</time></trkpt><trkpt lat="40.8058213" lon="-3.6246876"><ele>897.9999999999999</ele><time>2026-03-24T15:18:05.958Z</time></trkpt><trkpt lat="40.8057164" lon="-3.6246755"><ele>898.0</ele><time>2026-03-24T15:18:07.932Z</time></trkpt><trkpt lat="40.8056592" lon="-3.6245994"><ele>898.4999999999999</ele><time>2026-03-24T15:18:10.918Z</time></trkpt><trkpt lat="40.8056511" lon="-3.6244975"><ele>899.0</ele><time>2026-03-24T15:18:13.936Z</time></trkpt><trkpt lat="40.8055742" lon="-3.6244529"><ele>899.5</ele><time>2026-03-24T15:18:15.935Z</time></trkpt><trkpt lat="40.8055043" lon="-3.6244551"><ele>900.0</ele><time>2026-03-24T15:18:16.925Z</time></trkpt><trkpt lat="40.805423" lon="-3.6244658"><ele>900.4999999999999</ele><time>2026-03-24T15:18:17.939Z</time></trkpt><trkpt lat="40.80532" lon="-3.6244614"><ele>901.0</ele><time>2026-03-24T15:18:18.919Z</time></trkpt><trkpt lat="40.8052135" lon="-3.6244517"><ele>900.0</ele><time>2026-03-24T15:18:19.917Z</time></trkpt><trkpt lat="40.8051141" lon="-3.6244506"><ele>898.9999999999999</ele><time>2026-03-24T15:18:20.94Z</time></trkpt><trkpt lat="40.8050091" lon="-3.6244396"><ele>897.9999999999999</ele><time>2026-03-24T15:18:21.932Z</time></trkpt><trkpt lat="40.8048974" lon="-3.6244219"><ele>897.0</ele><time>2026-03-24T15:18:22.927Z</time></trkpt><trkpt lat="40.804784" lon="-3.6243939"><ele>896.0</ele><time>2026-03-24T15:18:23.941Z</time></trkpt><trkpt lat="40.8046642" lon="-3.6243581"><ele>896.0</ele><time>2026-03-24T15:18:24.94Z</time></trkpt><trkpt lat="40.8045354" lon="-3.6243218"><ele>896.0</ele><time>2026-03-24T15:18:25.921Z</time></trkpt><trkpt lat="40.8044038" lon="-3.6242707"><ele>896.0</ele><time>2026-03-24T15:18:26.931Z</time></trkpt><trkpt lat="40.8042783" lon="-3.624211"><ele>896.0</ele><time>2026-03-24T15:18:27.918Z</time></trkpt><trkpt lat="40.804152" lon="-3.6241475"><ele>896.5</ele><time>2026-03-24T15:18:28.946Z</time></trkpt><trkpt lat="40.8040318" lon="-3.62407"><ele>897.0</ele><time>2026-03-24T15:18:29.919Z</time></trkpt><trkpt lat="40.8039123" lon="-3.6239857"><ele>897.5</ele><time>2026-03-24T15:18:30.928Z</time></trkpt><trkpt lat="40.8037928" lon="-3.6238924"><ele>898.0</ele><time>2026-03-24T15:18:31.936Z</time></trkpt><trkpt lat="40.8036764" lon="-3.6237908"><ele>898.0</ele><time>2026-03-24T15:18:32.925Z</time></trkpt><trkpt lat="40.8035644" lon="-3.6236788"><ele>898.0</ele><time>2026-03-24T15:18:33.938Z</time></trkpt><trkpt lat="40.8034492" lon="-3.6235708"><ele>898.0</ele><time>2026-03-24T15:18:34.93Z</time></trkpt><trkpt lat="40.8033361" lon="-3.6234644"><ele>898.0</ele><time>2026-03-24T15:18:35.942Z</time></trkpt><trkpt lat="40.803221" lon="-3.6233553"><ele>897.5</ele><time>2026-03-24T15:18:36.934Z</time></trkpt><trkpt lat="40.8030953" lon="-3.6232544"><ele>897.0</ele><time>2026-03-24T15:18:37.924Z</time></trkpt><trkpt lat="40.8029706" lon="-3.623146"><ele>896.5</ele><time>2026-03-24T15:18:38.932Z</time></trkpt><trkpt lat="40.8028389" lon="-3.6230543"><ele>896.0</ele><time>2026-03-24T15:18:39.934Z</time></trkpt><trkpt lat="40.8027048" lon="-3.622976"><ele>896.5</ele><time>2026-03-24T15:18:40.925Z</time></trkpt><trkpt lat="40.8025669" lon="-3.6229113"><ele>897.0</ele><time>2026-03-24T15:18:41.933Z</time></trkpt><trkpt lat="40.802425" lon="-3.6228623"><ele>897.5</ele><time>2026-03-24T15:18:42.937Z</time></trkpt><trkpt lat="40.8022739" lon="-3.6228207"><ele>898.0</ele><time>2026-03-24T15:18:43.927Z</time></trkpt><trkpt lat="40.8021284" lon="-3.622778"><ele>898.0</ele><time>2026-03-24T15:18:44.941Z</time></trkpt><trkpt lat="40.8019813" lon="-3.6227565"><ele>898.0</ele><time>2026-03-24T15:18:45.934Z</time></trkpt><trkpt lat="40.801826" lon="-3.6227508"><ele>898.0</ele><time>2026-03-24T15:18:46.943Z</time></trkpt><trkpt lat="40.8016719" lon="-3.6227687"><ele>898.3333333333333</ele><time>2026-03-24T15:18:47.951Z</time></trkpt><trkpt lat="40.8015189" lon="-3.6228011"><ele>898.6666666666667</ele><time>2026-03-24T15:18:48.939Z</time></trkpt><trkpt lat="40.8013652" lon="-3.6228528"><ele>899.0</ele><time>2026-03-24T15:18:49.966Z</time></trkpt><trkpt lat="40.8012155" lon="-3.6229041"><ele>900.0</ele><time>2026-03-24T15:18:50.947Z</time></trkpt><trkpt lat="40.8010663" lon="-3.6229544"><ele>901.0</ele><time>2026-03-24T15:18:51.942Z</time></trkpt><trkpt lat="40.8009249" lon="-3.623007"><ele>902.0</ele><time>2026-03-24T15:18:52.927Z</time></trkpt><trkpt lat="40.8007899" lon="-3.6230646"><ele>903.0</ele><time>2026-03-24T15:18:53.941Z</time></trkpt><trkpt lat="40.8006507" lon="-3.6231127"><ele>903.0</ele><time>2026-03-24T15:18:54.916Z</time></trkpt><trkpt lat="40.8005165" lon="-3.6231594"><ele>903.0</ele><time>2026-03-24T15:18:55.916Z</time></trkpt><trkpt lat="40.8003894" lon="-3.6232073"><ele>903.0</ele><time>2026-03-24T15:18:56.922Z</time></trkpt><trkpt lat="40.8002633" lon="-3.62324"><ele>903.0</ele><time>2026-03-24T15:18:57.915Z</time></trkpt><trkpt lat="40.8001428" lon="-3.6232639"><ele>901.25</ele><time>2026-03-24T15:18:58.937Z</time></trkpt><trkpt lat="40.8000206" lon="-3.6232811"><ele>899.5</ele><time>2026-03-24T15:18:59.926Z</time></trkpt><trkpt lat="40.7999034" lon="-3.6232861"><ele>897.75</ele><time>2026-03-24T15:19:00.935Z</time></trkpt><trkpt lat="40.7997909" lon="-3.6232838"><ele>896.0</ele><time>2026-03-24T15:19:01.926Z</time></trkpt><trkpt lat="40.7996856" lon="-3.6232783"><ele>896.0</ele><time>2026-03-24T15:19:02.919Z</time></trkpt><trkpt lat="40.7995775" lon="-3.6232621"><ele>895.9999999999999</ele><time>2026-03-24T15:19:03.93Z</time></trkpt><trkpt lat="40.7994723" lon="-3.623239"><ele>895.9999999999999</ele><time>2026-03-24T15:19:04.942Z</time></trkpt><trkpt lat="40.7993718" lon="-3.6232148"><ele>896.0</ele><time>2026-03-24T15:19:05.926Z</time></trkpt><trkpt lat="40.7992799" lon="-3.6231996"><ele>896.0</ele><time>2026-03-24T15:19:06.93Z</time></trkpt><trkpt lat="40.799186" lon="-3.6231956"><ele>895.1999999999999</ele><time>2026-03-24T15:19:07.931Z</time></trkpt><trkpt lat="40.7990881" lon="-3.6231838"><ele>894.3999999999999</ele><time>2026-03-24T15:19:08.94Z</time></trkpt><trkpt lat="40.7990008" lon="-3.6231496"><ele>893.6</ele><time>2026-03-24T15:19:09.923Z</time></trkpt><trkpt lat="40.7989142" lon="-3.623085"><ele>892.8</ele><time>2026-03-24T15:19:10.941Z</time></trkpt><trkpt lat="40.7988454" lon="-3.6230142"><ele>892.0</ele><time>2026-03-24T15:19:11.947Z</time></trkpt><trkpt lat="40.798786" lon="-3.6229379"><ele>891.9999999999999</ele><time>2026-03-24T15:19:12.935Z</time></trkpt><trkpt lat="40.7987215" lon="-3.6228723"><ele>892.0</ele><time>2026-03-24T15:19:13.931Z</time></trkpt><trkpt lat="40.7986547" lon="-3.6228162"><ele>892.0</ele><time>2026-03-24T15:19:14.938Z</time></trkpt><trkpt lat="40.7985852" lon="-3.6227681"><ele>892.0</ele><time>2026-03-24T15:19:15.934Z</time></trkpt><trkpt lat="40.7985193" lon="-3.6227271"><ele>891.9999999999999</ele><time>2026-03-24T15:19:16.926Z</time></trkpt><trkpt lat="40.7984195" lon="-3.6226593"><ele>892.0</ele><time>2026-03-24T15:19:18.94Z</time></trkpt><trkpt lat="40.7983628" lon="-3.6226222"><ele>890.6666666666666</ele><time>2026-03-24T15:19:19.935Z</time></trkpt><trkpt lat="40.7982961" lon="-3.6225867"><ele>889.3333333333333</ele><time>2026-03-24T15:19:20.927Z</time></trkpt><trkpt lat="40.798226" lon="-3.6225472"><ele>888.0</ele><time>2026-03-24T15:19:21.94Z</time></trkpt><trkpt lat="40.7981581" lon="-3.6224976"><ele>886.6666666666667</ele><time>2026-03-24T15:19:22.933Z</time></trkpt><trkpt lat="40.7980899" lon="-3.6224455"><ele>885.3333333333334</ele><time>2026-03-24T15:19:23.938Z</time></trkpt><trkpt lat="40.7980236" lon="-3.6224027"><ele>884.0</ele><time>2026-03-24T15:19:24.947Z</time></trkpt><trkpt lat="40.7979512" lon="-3.6223583"><ele>884.0000000000001</ele><time>2026-03-24T15:19:25.921Z</time></trkpt><trkpt lat="40.7978796" lon="-3.6223174"><ele>884.0</ele><time>2026-03-24T15:19:26.929Z</time></trkpt><trkpt lat="40.7978027" lon="-3.6222654"><ele>884.0</ele><time>2026-03-24T15:19:27.943Z</time></trkpt><trkpt lat="40.7977197" lon="-3.6222116"><ele>884.0</ele><time>2026-03-24T15:19:28.932Z</time></trkpt><trkpt lat="40.7976409" lon="-3.622149"><ele>884.0000000000001</ele><time>2026-03-24T15:19:29.919Z</time></trkpt><trkpt lat="40.7975618" lon="-3.6220904"><ele>884.0</ele><time>2026-03-24T15:19:30.925Z</time></trkpt><trkpt lat="40.7974819" lon="-3.6220259"><ele>882.5000000000001</ele><time>2026-03-24T15:19:31.918Z</time></trkpt><trkpt lat="40.7974034" lon="-3.6219732"><ele>881.0</ele><time>2026-03-24T15:19:32.935Z</time></trkpt><trkpt lat="40.7973343" lon="-3.6219198"><ele>879.5</ele><time>2026-03-24T15:19:33.919Z</time></trkpt><trkpt lat="40.7972674" lon="-3.6218769"><ele>878.0</ele><time>2026-03-24T15:19:34.916Z</time></trkpt><trkpt lat="40.7972005" lon="-3.6218489"><ele>876.5000000000001</ele><time>2026-03-24T15:19:35.921Z</time></trkpt><trkpt lat="40.7971314" lon="-3.6218107"><ele>875.0</ele><time>2026-03-24T15:19:36.936Z</time></trkpt><trkpt lat="40.7970653" lon="-3.6217542"><ele>875.0</ele><time>2026-03-24T15:19:37.925Z</time></trkpt><trkpt lat="40.7970169" lon="-3.6216948"><ele>875.0</ele><time>2026-03-24T15:19:38.925Z</time></trkpt><trkpt lat="40.796959" lon="-3.6216341"><ele>875.0</ele><time>2026-03-24T15:19:39.921Z</time></trkpt><trkpt lat="40.7968928" lon="-3.6215846"><ele>875.0</ele><time>2026-03-24T15:19:40.919Z</time></trkpt><trkpt lat="40.7968215" lon="-3.6215418"><ele>875.0</ele><time>2026-03-24T15:19:41.921Z</time></trkpt><trkpt lat="40.7967564" lon="-3.6215106"><ele>875.0</ele><time>2026-03-24T15:19:42.913Z</time></trkpt><trkpt lat="40.7966944" lon="-3.6214729"><ele>875.0</ele><time>2026-03-24T15:19:43.934Z</time></trkpt><trkpt lat="40.7966316" lon="-3.6214303"><ele>873.7142857142857</ele><time>2026-03-24T15:19:44.924Z</time></trkpt><trkpt lat="40.7965696" lon="-3.621387"><ele>872.4285714285714</ele><time>2026-03-24T15:19:45.918Z</time></trkpt><trkpt lat="40.7965091" lon="-3.6213469"><ele>871.1428571428571</ele><time>2026-03-24T15:19:46.934Z</time></trkpt><trkpt lat="40.7964482" lon="-3.6213096"><ele>869.8571428571429</ele><time>2026-03-24T15:19:47.947Z</time></trkpt><trkpt lat="40.7963854" lon="-3.6212682"><ele>868.5714285714286</ele><time>2026-03-24T15:19:48.932Z</time></trkpt><trkpt lat="40.7963151" lon="-3.6212246"><ele>867.2857142857142</ele><time>2026-03-24T15:19:49.948Z</time></trkpt><trkpt lat="40.7962358" lon="-3.6211692"><ele>866.0</ele><time>2026-03-24T15:19:50.942Z</time></trkpt><trkpt lat="40.7961499" lon="-3.6211009"><ele>864.0</ele><time>2026-03-24T15:19:51.935Z</time></trkpt><trkpt lat="40.7960574" lon="-3.6210193"><ele>862.0</ele><time>2026-03-24T15:19:52.932Z</time></trkpt><trkpt lat="40.7959586" lon="-3.6209426"><ele>860.0</ele><time>2026-03-24T15:19:53.916Z</time></trkpt><trkpt lat="40.7958575" lon="-3.6208724"><ele>858.0</ele><time>2026-03-24T15:19:54.964Z</time></trkpt><trkpt lat="40.7957536" lon="-3.6208015"><ele>857.5</ele><time>2026-03-24T15:19:55.937Z</time></trkpt><trkpt lat="40.7956512" lon="-3.6207332"><ele>857.0</ele><time>2026-03-24T15:19:56.966Z</time></trkpt><trkpt lat="40.7955462" lon="-3.6206606"><ele>856.5</ele><time>2026-03-24T15:19:57.954Z</time></trkpt><trkpt lat="40.7954402" lon="-3.6205823"><ele>856.0</ele><time>2026-03-24T15:19:58.952Z</time></trkpt><trkpt lat="40.7953408" lon="-3.6205041"><ele>856.0</ele><time>2026-03-24T15:19:59.976Z</time></trkpt><trkpt lat="40.7952413" lon="-3.6204305"><ele>855.9999999999999</ele><time>2026-03-24T15:20:00.982Z</time></trkpt><trkpt lat="40.7951497" lon="-3.6203665"><ele>855.9999999999999</ele><time>2026-03-24T15:20:01.936Z</time></trkpt><trkpt lat="40.7950585" lon="-3.620303"><ele>856.0</ele><time>2026-03-24T15:20:02.941Z</time></trkpt><trkpt lat="40.7949716" lon="-3.6202444"><ele>856.0</ele><time>2026-03-24T15:20:03.969Z</time></trkpt><trkpt lat="40.794879" lon="-3.6201784"><ele>856.5999999999999</ele><time>2026-03-24T15:20:04.942Z</time></trkpt><trkpt lat="40.7947859" lon="-3.6201131"><ele>857.1999999999999</ele><time>2026-03-24T15:20:05.955Z</time></trkpt><trkpt lat="40.7946884" lon="-3.6200395"><ele>857.8000000000001</ele><time>2026-03-24T15:20:06.955Z</time></trkpt><trkpt lat="40.7945913" lon="-3.619973"><ele>858.4000000000001</ele><time>2026-03-24T15:20:07.959Z</time></trkpt><trkpt lat="40.7944895" lon="-3.6199079"><ele>859.0</ele><time>2026-03-24T15:20:08.985Z</time></trkpt><trkpt lat="40.7943942" lon="-3.6198442"><ele>858.2</ele><time>2026-03-24T15:20:09.973Z</time></trkpt><trkpt lat="40.7943001" lon="-3.6197777"><ele>857.4000000000001</ele><time>2026-03-24T15:20:10.936Z</time></trkpt><trkpt lat="40.7942071" lon="-3.6197148"><ele>856.6</ele><time>2026-03-24T15:20:11.95Z</time></trkpt><trkpt lat="40.7941107" lon="-3.6196505"><ele>855.8</ele><time>2026-03-24T15:20:12.955Z</time></trkpt><trkpt lat="40.7940166" lon="-3.6195832"><ele>855.0</ele><time>2026-03-24T15:20:13.936Z</time></trkpt><trkpt lat="40.7939224" lon="-3.6195191"><ele>855.0</ele><time>2026-03-24T15:20:14.937Z</time></trkpt><trkpt lat="40.7938276" lon="-3.6194652"><ele>855.0</ele><time>2026-03-24T15:20:15.952Z</time></trkpt><trkpt lat="40.7937306" lon="-3.619421"><ele>855.0</ele><time>2026-03-24T15:20:16.928Z</time></trkpt><trkpt lat="40.7936345" lon="-3.619385"><ele>855.0</ele><time>2026-03-24T15:20:17.944Z</time></trkpt><trkpt lat="40.7935376" lon="-3.61937"><ele>855.0</ele><time>2026-03-24T15:20:18.969Z</time></trkpt><trkpt lat="40.7934266" lon="-3.6193593"><ele>855.0</ele><time>2026-03-24T15:20:19.964Z</time></trkpt><trkpt lat="40.7933138" lon="-3.6193599"><ele>855.0</ele><time>2026-03-24T15:20:20.963Z</time></trkpt><trkpt lat="40.793204" lon="-3.6193899"><ele>855.0</ele><time>2026-03-24T15:20:21.953Z</time></trkpt><trkpt lat="40.7930882" lon="-3.6194284"><ele>855.0</ele><time>2026-03-24T15:20:22.973Z</time></trkpt><trkpt lat="40.7929703" lon="-3.6194674"><ele>854.5</ele><time>2026-03-24T15:20:23.966Z</time></trkpt><trkpt lat="40.7928576" lon="-3.6194968"><ele>854.0</ele><time>2026-03-24T15:20:24.947Z</time></trkpt><trkpt lat="40.792742" lon="-3.619534"><ele>853.5</ele><time>2026-03-24T15:20:25.953Z</time></trkpt><trkpt lat="40.7926231" lon="-3.6195632"><ele>853.0</ele><time>2026-03-24T15:20:26.958Z</time></trkpt><trkpt lat="40.7925018" lon="-3.6195911"><ele>852.4</ele><time>2026-03-24T15:20:27.936Z</time></trkpt><trkpt lat="40.7923841" lon="-3.6196149"><ele>851.8</ele><time>2026-03-24T15:20:28.913Z</time></trkpt><trkpt lat="40.7922792" lon="-3.6196363"><ele>851.2</ele><time>2026-03-24T15:20:29.937Z</time></trkpt><trkpt lat="40.7921762" lon="-3.6196347"><ele>850.6</ele><time>2026-03-24T15:20:30.925Z</time></trkpt><trkpt lat="40.7920854" lon="-3.6196113"><ele>850.0</ele><time>2026-03-24T15:20:31.926Z</time></trkpt><trkpt lat="40.7919965" lon="-3.6195759"><ele>849.9999999999999</ele><time>2026-03-24T15:20:32.935Z</time></trkpt><trkpt lat="40.7919167" lon="-3.619538"><ele>850.0</ele><time>2026-03-24T15:20:33.921Z</time></trkpt><trkpt lat="40.7918495" lon="-3.6195123"><ele>850.0</ele><time>2026-03-24T15:20:34.94Z</time></trkpt><trkpt lat="40.7917849" lon="-3.6195101"><ele>850.0</ele><time>2026-03-24T15:20:35.933Z</time></trkpt><trkpt lat="40.7917203" lon="-3.6195232"><ele>849.9999999999999</ele><time>2026-03-24T15:20:36.928Z</time></trkpt><trkpt lat="40.7916034" lon="-3.6195072"><ele>850.0</ele><time>2026-03-24T15:20:38.929Z</time></trkpt><trkpt lat="40.7914895" lon="-3.6193977"><ele>849.7142857142857</ele><time>2026-03-24T15:20:40.935Z</time></trkpt><trkpt lat="40.7914407" lon="-3.6193206"><ele>849.4285714285713</ele><time>2026-03-24T15:20:41.938Z</time></trkpt><trkpt lat="40.7913976" lon="-3.6192453"><ele>849.1428571428571</ele><time>2026-03-24T15:20:42.937Z</time></trkpt><trkpt lat="40.7913618" lon="-3.6191629"><ele>848.8571428571429</ele><time>2026-03-24T15:20:43.938Z</time></trkpt><trkpt lat="40.7913273" lon="-3.6190681"><ele>848.5714285714286</ele><time>2026-03-24T15:20:44.934Z</time></trkpt><trkpt lat="40.7913056" lon="-3.618983"><ele>848.2857142857143</ele><time>2026-03-24T15:20:45.937Z</time></trkpt><trkpt lat="40.7912614" lon="-3.618904"><ele>848.0</ele><time>2026-03-24T15:20:46.93Z</time></trkpt><trkpt lat="40.7912152" lon="-3.6188335"><ele>848.0</ele><time>2026-03-24T15:20:47.931Z</time></trkpt><trkpt lat="40.7911718" lon="-3.6187543"><ele>848.0</ele><time>2026-03-24T15:20:48.919Z</time></trkpt><trkpt lat="40.7911383" lon="-3.6186672"><ele>848.0</ele><time>2026-03-24T15:20:49.925Z</time></trkpt><trkpt lat="40.7911102" lon="-3.6185744"><ele>848.0</ele><time>2026-03-24T15:20:50.959Z</time></trkpt><trkpt lat="40.7910863" lon="-3.6184774"><ele>848.0</ele><time>2026-03-24T15:20:51.933Z</time></trkpt><trkpt lat="40.7910701" lon="-3.6183786"><ele>848.0</ele><time>2026-03-24T15:20:52.941Z</time></trkpt><trkpt lat="40.7910619" lon="-3.6182952"><ele>848.0</ele><time>2026-03-24T15:20:53.934Z</time></trkpt><trkpt lat="40.7910594" lon="-3.6182114"><ele>848.4</ele><time>2026-03-24T15:20:54.941Z</time></trkpt><trkpt lat="40.7910693" lon="-3.6181202"><ele>848.8</ele><time>2026-03-24T15:20:55.948Z</time></trkpt><trkpt lat="40.7910784" lon="-3.618036"><ele>849.2</ele><time>2026-03-24T15:20:56.942Z</time></trkpt><trkpt lat="40.7910381" lon="-3.6178992"><ele>849.6</ele><time>2026-03-24T15:20:58.914Z</time></trkpt><trkpt lat="40.7909179" lon="-3.6178352"><ele>850.0</ele><time>2026-03-24T15:21:00.915Z</time></trkpt><trkpt lat="40.790848" lon="-3.6177979"><ele>850.6666666666666</ele><time>2026-03-24T15:21:01.918Z</time></trkpt><trkpt lat="40.7907696" lon="-3.6177466"><ele>851.3333333333333</ele><time>2026-03-24T15:21:02.92Z</time></trkpt><trkpt lat="40.7906879" lon="-3.6177079"><ele>852.0</ele><time>2026-03-24T15:21:03.93Z</time></trkpt><trkpt lat="40.7906052" lon="-3.617674"><ele>852.6666666666667</ele><time>2026-03-24T15:21:04.926Z</time></trkpt><trkpt lat="40.7905329" lon="-3.6176243"><ele>853.3333333333334</ele><time>2026-03-24T15:21:05.925Z</time></trkpt><trkpt lat="40.7904664" lon="-3.6175556"><ele>854.0</ele><time>2026-03-24T15:21:06.928Z</time></trkpt><trkpt lat="40.7904273" lon="-3.6174715"><ele>854.0000000000001</ele><time>2026-03-24T15:21:07.928Z</time></trkpt><trkpt lat="40.7903485" lon="-3.6173383"><ele>854.0</ele><time>2026-03-24T15:21:09.93Z</time></trkpt><trkpt lat="40.7903018" lon="-3.6172379"><ele>854.0</ele><time>2026-03-24T15:21:11.946Z</time></trkpt><trkpt lat="40.7902916" lon="-3.6171495"><ele>854.0</ele><time>2026-03-24T15:21:13.933Z</time></trkpt><trkpt lat="40.790268" lon="-3.6170705"><ele>854.0000000000001</ele><time>2026-03-24T15:21:15.93Z</time></trkpt><trkpt lat="40.790255" lon="-3.616961"><ele>854.0</ele><time>2026-03-24T15:21:18.953Z</time></trkpt><trkpt lat="40.7902175" lon="-3.61689"><ele>857.2</ele><time>2026-03-24T15:21:19.936Z</time></trkpt><trkpt lat="40.7901343" lon="-3.6168041"><ele>860.4000000000001</ele><time>2026-03-24T15:21:21.936Z</time></trkpt><trkpt lat="40.7900613" lon="-3.6167786"><ele>863.6</ele><time>2026-03-24T15:21:23.927Z</time></trkpt><trkpt lat="40.7900003" lon="-3.6167505"><ele>866.8</ele><time>2026-03-24T15:21:25.923Z</time></trkpt><trkpt lat="40.7899168" lon="-3.6167008"><ele>870.0</ele><time>2026-03-24T15:21:27.915Z</time></trkpt><trkpt lat="40.7898135" lon="-3.6166278"><ele>870.0</ele><time>2026-03-24T15:21:29.922Z</time></trkpt><trkpt lat="40.7897565" lon="-3.6165827"><ele>870.0</ele><time>2026-03-24T15:21:30.948Z</time></trkpt><trkpt lat="40.7896928" lon="-3.6165265"><ele>870.0</ele><time>2026-03-24T15:21:31.92Z</time></trkpt><trkpt lat="40.7896355" lon="-3.6164766"><ele>870.0</ele><time>2026-03-24T15:21:32.934Z</time></trkpt><trkpt lat="40.7895429" lon="-3.616406"><ele>870.0</ele><time>2026-03-24T15:21:34.93Z</time></trkpt><trkpt lat="40.7894625" lon="-3.6163445"><ele>870.0</ele><time>2026-03-24T15:21:36.934Z</time></trkpt><trkpt lat="40.7893708" lon="-3.6162989"><ele>872.2</ele><time>2026-03-24T15:21:38.935Z</time></trkpt><trkpt lat="40.7892849" lon="-3.6162849"><ele>874.4</ele><time>2026-03-24T15:21:40.953Z</time></trkpt><trkpt lat="40.7891926" lon="-3.6163217"><ele>876.5999999999999</ele><time>2026-03-24T15:21:42.943Z</time></trkpt><trkpt lat="40.7890858" lon="-3.6164206"><ele>878.8</ele><time>2026-03-24T15:21:44.927Z</time></trkpt><trkpt lat="40.7890287" lon="-3.6164777"><ele>881.0</ele><time>2026-03-24T15:21:45.943Z</time></trkpt><trkpt lat="40.7889715" lon="-3.6165434"><ele>881.0000000000001</ele><time>2026-03-24T15:21:46.94Z</time></trkpt><trkpt lat="40.7889102" lon="-3.6166167"><ele>881.0</ele><time>2026-03-24T15:21:47.921Z</time></trkpt><trkpt lat="40.7888569" lon="-3.6166994"><ele>881.0</ele><time>2026-03-24T15:21:48.93Z</time></trkpt><trkpt lat="40.7888052" lon="-3.616786"><ele>881.0</ele><time>2026-03-24T15:21:49.942Z</time></trkpt><trkpt lat="40.7887575" lon="-3.6168686"><ele>881.0000000000001</ele><time>2026-03-24T15:21:50.934Z</time></trkpt><trkpt lat="40.7887085" lon="-3.6169494"><ele>881.0</ele><time>2026-03-24T15:21:51.956Z</time></trkpt><trkpt lat="40.7886532" lon="-3.6170383"><ele>881.5999999999999</ele><time>2026-03-24T15:21:52.931Z</time></trkpt><trkpt lat="40.7885945" lon="-3.6171297"><ele>882.1999999999999</ele><time>2026-03-24T15:21:53.921Z</time></trkpt><trkpt lat="40.7885335" lon="-3.617224"><ele>882.8000000000001</ele><time>2026-03-24T15:21:54.947Z</time></trkpt><trkpt lat="40.7884705" lon="-3.6173251"><ele>883.4000000000001</ele><time>2026-03-24T15:21:55.945Z</time></trkpt><trkpt lat="40.7884082" lon="-3.6174242"><ele>884.0</ele><time>2026-03-24T15:21:56.967Z</time></trkpt><trkpt lat="40.7883468" lon="-3.6175168"><ele>884.5000000000001</ele><time>2026-03-24T15:21:57.936Z</time></trkpt><trkpt lat="40.7882869" lon="-3.6176135"><ele>885.0</ele><time>2026-03-24T15:21:58.967Z</time></trkpt><trkpt lat="40.7882261" lon="-3.6177046"><ele>885.5</ele><time>2026-03-24T15:21:59.951Z</time></trkpt><trkpt lat="40.7881646" lon="-3.617778"><ele>886.0</ele><time>2026-03-24T15:22:00.944Z</time></trkpt><trkpt lat="40.7880987" lon="-3.6178398"><ele>886.5000000000001</ele><time>2026-03-24T15:22:01.96Z</time></trkpt><trkpt lat="40.7880223" lon="-3.6178872"><ele>887.0</ele><time>2026-03-24T15:22:02.937Z</time></trkpt><trkpt lat="40.787938" lon="-3.6179059"><ele>887.0</ele><time>2026-03-24T15:22:03.96Z</time></trkpt><trkpt lat="40.7878414" lon="-3.6178745"><ele>887.0</ele><time>2026-03-24T15:22:04.928Z</time></trkpt><trkpt lat="40.7877608" lon="-3.6178458"><ele>887.0</ele><time>2026-03-24T15:22:05.917Z</time></trkpt><trkpt lat="40.7876873" lon="-3.6178029"><ele>887.0</ele><time>2026-03-24T15:22:06.931Z</time></trkpt><trkpt lat="40.7876241" lon="-3.6177687"><ele>887.0</ele><time>2026-03-24T15:22:07.917Z</time></trkpt><trkpt lat="40.78752" lon="-3.617667"><ele>888.0000000000001</ele><time>2026-03-24T15:22:09.923Z</time></trkpt><trkpt lat="40.7874582" lon="-3.6175997"><ele>889.0</ele><time>2026-03-24T15:22:10.954Z</time></trkpt><trkpt lat="40.787397" lon="-3.6175252"><ele>890.0</ele><time>2026-03-24T15:22:11.945Z</time></trkpt><trkpt lat="40.7873345" lon="-3.6174584"><ele>891.0</ele><time>2026-03-24T15:22:12.962Z</time></trkpt><trkpt lat="40.7872724" lon="-3.6173945"><ele>892.0000000000001</ele><time>2026-03-24T15:22:13.943Z</time></trkpt><trkpt lat="40.7871991" lon="-3.6173384"><ele>893.0</ele><time>2026-03-24T15:22:14.942Z</time></trkpt><trkpt lat="40.7871221" lon="-3.6172751"><ele>893.0</ele><time>2026-03-24T15:22:15.927Z</time></trkpt><trkpt lat="40.7870424" lon="-3.6172153"><ele>893.0</ele><time>2026-03-24T15:22:16.937Z</time></trkpt><trkpt lat="40.7869569" lon="-3.6171612"><ele>893.0</ele><time>2026-03-24T15:22:17.93Z</time></trkpt><trkpt lat="40.7868663" lon="-3.6170944"><ele>893.0</ele><time>2026-03-24T15:22:18.93Z</time></trkpt><trkpt lat="40.7867848" lon="-3.6170263"><ele>893.0</ele><time>2026-03-24T15:22:19.934Z</time></trkpt><trkpt lat="40.7866982" lon="-3.6169456"><ele>894.5999999999999</ele><time>2026-03-24T15:22:20.917Z</time></trkpt><trkpt lat="40.7866" lon="-3.6168568"><ele>896.1999999999999</ele><time>2026-03-24T15:22:21.931Z</time></trkpt><trkpt lat="40.7865016" lon="-3.6167673"><ele>897.8</ele><time>2026-03-24T15:22:22.927Z</time></trkpt><trkpt lat="40.7864164" lon="-3.6166981"><ele>899.4</ele><time>2026-03-24T15:22:23.925Z</time></trkpt><trkpt lat="40.7863418" lon="-3.6166299"><ele>901.0</ele><time>2026-03-24T15:22:24.913Z</time></trkpt><trkpt lat="40.7862828" lon="-3.6165823"><ele>900.9999999999999</ele><time>2026-03-24T15:22:25.933Z</time></trkpt><trkpt lat="40.7862254" lon="-3.616531"><ele>901.0</ele><time>2026-03-24T15:22:26.928Z</time></trkpt><trkpt lat="40.7861341" lon="-3.6164911"><ele>901.0</ele><time>2026-03-24T15:22:28.943Z</time></trkpt><trkpt lat="40.7860366" lon="-3.6164393"><ele>901.0</ele><time>2026-03-24T15:22:30.932Z</time></trkpt><trkpt lat="40.7859618" lon="-3.6163498"><ele>900.9999999999999</ele><time>2026-03-24T15:22:32.947Z</time></trkpt><trkpt lat="40.7859181" lon="-3.616288"><ele>901.0</ele><time>2026-03-24T15:22:33.948Z</time></trkpt><trkpt lat="40.7858683" lon="-3.616229"><ele>900.8333333333333</ele><time>2026-03-24T15:22:34.94Z</time></trkpt><trkpt lat="40.7858093" lon="-3.6161694"><ele>900.6666666666666</ele><time>2026-03-24T15:22:35.932Z</time></trkpt><trkpt lat="40.7857391" lon="-3.6161124"><ele>900.5</ele><time>2026-03-24T15:22:36.939Z</time></trkpt><trkpt lat="40.785658" lon="-3.6160677"><ele>900.3333333333333</ele><time>2026-03-24T15:22:37.93Z</time></trkpt><trkpt lat="40.7855771" lon="-3.6160361"><ele>900.1666666666666</ele><time>2026-03-24T15:22:38.965Z</time></trkpt><trkpt lat="40.7855005" lon="-3.6160156"><ele>900.0</ele><time>2026-03-24T15:22:39.934Z</time></trkpt><trkpt lat="40.7854259" lon="-3.615992"><ele>899.8333333333334</ele><time>2026-03-24T15:22:40.943Z</time></trkpt><trkpt lat="40.7853498" lon="-3.61595"><ele>899.6666666666667</ele><time>2026-03-24T15:22:41.965Z</time></trkpt><trkpt lat="40.7852747" lon="-3.6159027"><ele>899.5</ele><time>2026-03-24T15:22:42.961Z</time></trkpt><trkpt lat="40.7851978" lon="-3.6158576"><ele>899.3333333333334</ele><time>2026-03-24T15:22:43.959Z</time></trkpt><trkpt lat="40.785119" lon="-3.6158251"><ele>899.1666666666667</ele><time>2026-03-24T15:22:44.954Z</time></trkpt><trkpt lat="40.785046" lon="-3.6157904"><ele>899.0</ele><time>2026-03-24T15:22:45.962Z</time></trkpt><trkpt lat="40.7849696" lon="-3.6157659"><ele>899.6666666666667</ele><time>2026-03-24T15:22:46.955Z</time></trkpt><trkpt lat="40.7848945" lon="-3.6157347"><ele>900.3333333333334</ele><time>2026-03-24T15:22:47.934Z</time></trkpt><trkpt lat="40.7848207" lon="-3.615706"><ele>901.0</ele><time>2026-03-24T15:22:48.943Z</time></trkpt><trkpt lat="40.7847291" lon="-3.6156802"><ele>901.6666666666667</ele><time>2026-03-24T15:22:50.955Z</time></trkpt><trkpt lat="40.7846829" lon="-3.6156116"><ele>902.3333333333334</ele><time>2026-03-24T15:22:54.963Z</time></trkpt><trkpt lat="40.7847265" lon="-3.6154755"><ele>903.0</ele><time>2026-03-24T15:23:00.939Z</time></trkpt><trkpt lat="40.7847761" lon="-3.6153787"><ele>902.8</ele><time>2026-03-24T15:23:01.952Z</time></trkpt><trkpt lat="40.7848244" lon="-3.6152957"><ele>902.5999999999999</ele><time>2026-03-24T15:23:02.947Z</time></trkpt><trkpt lat="40.784885" lon="-3.6151956"><ele>902.4000000000001</ele><time>2026-03-24T15:23:03.958Z</time></trkpt><trkpt lat="40.7849463" lon="-3.6150918"><ele>902.2</ele><time>2026-03-24T15:23:04.957Z</time></trkpt><trkpt lat="40.7849987" lon="-3.6150004"><ele>902.0</ele><time>2026-03-24T15:23:05.936Z</time></trkpt><trkpt lat="40.785061" lon="-3.6149012"><ele>902.0000000000001</ele><time>2026-03-24T15:23:06.96Z</time></trkpt><trkpt lat="40.7851252" lon="-3.6147994"><ele>902.0</ele><time>2026-03-24T15:23:07.962Z</time></trkpt><trkpt lat="40.7851771" lon="-3.6147013"><ele>902.0</ele><time>2026-03-24T15:23:08.964Z</time></trkpt><trkpt lat="40.7852083" lon="-3.6146082"><ele>902.0</ele><time>2026-03-24T15:23:09.935Z</time></trkpt><trkpt lat="40.7852152" lon="-3.6145071"><ele>902.0000000000001</ele><time>2026-03-24T15:23:10.964Z</time></trkpt><trkpt lat="40.7852164" lon="-3.6143902"><ele>902.0</ele><time>2026-03-24T15:23:11.941Z</time></trkpt><trkpt lat="40.7852305" lon="-3.6142827"><ele>904.0</ele><time>2026-03-24T15:23:12.941Z</time></trkpt><trkpt lat="40.7852774" lon="-3.6141877"><ele>906.0</ele><time>2026-03-24T15:23:13.952Z</time></trkpt><trkpt lat="40.7853373" lon="-3.6140983"><ele>908.0</ele><time>2026-03-24T15:23:14.959Z</time></trkpt><trkpt lat="40.7853878" lon="-3.6139941"><ele>910.0</ele><time>2026-03-24T15:23:15.969Z</time></trkpt><trkpt lat="40.7854288" lon="-3.6138714"><ele>912.0</ele><time>2026-03-24T15:23:16.959Z</time></trkpt><trkpt lat="40.7854419" lon="-3.6137313"><ele>912.6</ele><time>2026-03-24T15:23:17.976Z</time></trkpt><trkpt lat="40.7854568" lon="-3.6135885"><ele>913.2</ele><time>2026-03-24T15:23:18.967Z</time></trkpt><trkpt lat="40.7854726" lon="-3.6134494"><ele>913.8</ele><time>2026-03-24T15:23:19.962Z</time></trkpt><trkpt lat="40.7854913" lon="-3.6133045"><ele>914.4</ele><time>2026-03-24T15:23:20.934Z</time></trkpt><trkpt lat="40.7855045" lon="-3.6131691"><ele>915.0</ele><time>2026-03-24T15:23:21.936Z</time></trkpt><trkpt lat="40.7855231" lon="-3.6130381"><ele>915.0</ele><time>2026-03-24T15:23:22.939Z</time></trkpt><trkpt lat="40.785535" lon="-3.6129009"><ele>915.0</ele><time>2026-03-24T15:23:23.959Z</time></trkpt><trkpt lat="40.7855492" lon="-3.6127602"><ele>915.0</ele><time>2026-03-24T15:23:24.963Z</time></trkpt><trkpt lat="40.7855633" lon="-3.6126191"><ele>915.0</ele><time>2026-03-24T15:23:25.932Z</time></trkpt><trkpt lat="40.7855826" lon="-3.6124733"><ele>915.0</ele><time>2026-03-24T15:23:26.94Z</time></trkpt><trkpt lat="40.7856068" lon="-3.6123225"><ele>914.75</ele><time>2026-03-24T15:23:27.927Z</time></trkpt><trkpt lat="40.7856337" lon="-3.6121718"><ele>914.5</ele><time>2026-03-24T15:23:28.926Z</time></trkpt><trkpt lat="40.7856629" lon="-3.6120194"><ele>914.25</ele><time>2026-03-24T15:23:29.959Z</time></trkpt><trkpt lat="40.785689" lon="-3.6118695"><ele>914.0</ele><time>2026-03-24T15:23:30.95Z</time></trkpt><trkpt lat="40.7857074" lon="-3.6117206"><ele>914.4000000000001</ele><time>2026-03-24T15:23:31.914Z</time></trkpt><trkpt lat="40.785732" lon="-3.6115845"><ele>914.8000000000001</ele><time>2026-03-24T15:23:32.917Z</time></trkpt><trkpt lat="40.7857573" lon="-3.6114628"><ele>915.1999999999999</ele><time>2026-03-24T15:23:33.923Z</time></trkpt><trkpt lat="40.785778" lon="-3.6113494"><ele>915.5999999999999</ele><time>2026-03-24T15:23:34.947Z</time></trkpt><trkpt lat="40.785801" lon="-3.6112344"><ele>916.0</ele><time>2026-03-24T15:23:35.929Z</time></trkpt><trkpt lat="40.7858193" lon="-3.6111122"><ele>915.9999999999999</ele><time>2026-03-24T15:23:36.954Z</time></trkpt><trkpt lat="40.7858387" lon="-3.6109881"><ele>916.0</ele><time>2026-03-24T15:23:37.943Z</time></trkpt><trkpt lat="40.785862" lon="-3.6108738"><ele>916.0</ele><time>2026-03-24T15:23:38.924Z</time></trkpt><trkpt lat="40.7858833" lon="-3.6107553"><ele>916.0</ele><time>2026-03-24T15:23:39.95Z</time></trkpt><trkpt lat="40.7859027" lon="-3.6106513"><ele>915.9999999999999</ele><time>2026-03-24T15:23:40.942Z</time></trkpt><trkpt lat="40.785924" lon="-3.6105469"><ele>916.0</ele><time>2026-03-24T15:23:41.933Z</time></trkpt><trkpt lat="40.7859517" lon="-3.6104522"><ele>915.9999999999999</ele><time>2026-03-24T15:23:42.948Z</time></trkpt><trkpt lat="40.7859719" lon="-3.6103563"><ele>916.0</ele><time>2026-03-24T15:23:43.92Z</time></trkpt><trkpt lat="40.7859976" lon="-3.6102633"><ele>916.0</ele><time>2026-03-24T15:23:44.951Z</time></trkpt><trkpt lat="40.7860259" lon="-3.6101692"><ele>916.0</ele><time>2026-03-24T15:23:45.931Z</time></trkpt><trkpt lat="40.7860618" lon="-3.610069"><ele>915.9999999999999</ele><time>2026-03-24T15:23:46.96Z</time></trkpt><trkpt lat="40.7861015" lon="-3.6099559"><ele>916.0</ele><time>2026-03-24T15:23:47.964Z</time></trkpt><trkpt lat="40.7861427" lon="-3.6098298"><ele>916.25</ele><time>2026-03-24T15:23:48.952Z</time></trkpt><trkpt lat="40.7861815" lon="-3.6096941"><ele>916.5</ele><time>2026-03-24T15:23:49.953Z</time></trkpt><trkpt lat="40.7862239" lon="-3.6095574"><ele>916.75</ele><time>2026-03-24T15:23:50.933Z</time></trkpt><trkpt lat="40.7862674" lon="-3.6094107"><ele>917.0</ele><time>2026-03-24T15:23:51.948Z</time></trkpt><trkpt lat="40.7863146" lon="-3.6092729"><ele>918.0</ele><time>2026-03-24T15:23:52.95Z</time></trkpt><trkpt lat="40.7863655" lon="-3.6091506"><ele>919.0</ele><time>2026-03-24T15:23:53.969Z</time></trkpt><trkpt lat="40.7864267" lon="-3.6090403"><ele>920.0</ele><time>2026-03-24T15:23:54.954Z</time></trkpt><trkpt lat="40.7864912" lon="-3.6089318"><ele>921.0</ele><time>2026-03-24T15:23:55.943Z</time></trkpt><trkpt lat="40.7865686" lon="-3.6088339"><ele>922.0</ele><time>2026-03-24T15:23:56.963Z</time></trkpt><trkpt lat="40.7866622" lon="-3.6087475"><ele>922.0</ele><time>2026-03-24T15:23:57.985Z</time></trkpt><trkpt lat="40.7867568" lon="-3.608665"><ele>922.0</ele><time>2026-03-24T15:23:58.925Z</time></trkpt><trkpt lat="40.7868548" lon="-3.6085889"><ele>922.0</ele><time>2026-03-24T15:23:59.952Z</time></trkpt><trkpt lat="40.7869488" lon="-3.6085105"><ele>922.0</ele><time>2026-03-24T15:24:00.944Z</time></trkpt><trkpt lat="40.7870384" lon="-3.6084375"><ele>922.0</ele><time>2026-03-24T15:24:01.977Z</time></trkpt><trkpt lat="40.7871187" lon="-3.6083692"><ele>923.8333333333333</ele><time>2026-03-24T15:24:02.957Z</time></trkpt><trkpt lat="40.7871953" lon="-3.6083066"><ele>925.6666666666666</ele><time>2026-03-24T15:24:03.967Z</time></trkpt><trkpt lat="40.7872635" lon="-3.6082411"><ele>927.5</ele><time>2026-03-24T15:24:04.945Z</time></trkpt><trkpt lat="40.7873281" lon="-3.6081879"><ele>929.3333333333333</ele><time>2026-03-24T15:24:05.951Z</time></trkpt><trkpt lat="40.7873877" lon="-3.6081387"><ele>931.1666666666666</ele><time>2026-03-24T15:24:06.971Z</time></trkpt><trkpt lat="40.787476" lon="-3.6080657"><ele>933.0</ele><time>2026-03-24T15:24:08.924Z</time></trkpt><trkpt lat="40.7875254" lon="-3.6079969"><ele>933.0</ele><time>2026-03-24T15:24:10.949Z</time></trkpt><trkpt lat="40.7875411" lon="-3.6079127"><ele>933.0</ele><time>2026-03-24T15:24:12.956Z</time></trkpt><trkpt lat="40.787563" lon="-3.6077917"><ele>933.0</ele><time>2026-03-24T15:24:14.939Z</time></trkpt><trkpt lat="40.7876008" lon="-3.6076551"><ele>933.0</ele><time>2026-03-24T15:24:16.94Z</time></trkpt><trkpt lat="40.7876256" lon="-3.6075621"><ele>933.0</ele><time>2026-03-24T15:24:17.939Z</time></trkpt><trkpt lat="40.7876399" lon="-3.6074581"><ele>933.0</ele><time>2026-03-24T15:24:18.936Z</time></trkpt><trkpt lat="40.7876555" lon="-3.6073415"><ele>932.2</ele><time>2026-03-24T15:24:19.942Z</time></trkpt><trkpt lat="40.7876817" lon="-3.6072243"><ele>931.4</ele><time>2026-03-24T15:24:20.93Z</time></trkpt><trkpt lat="40.7877081" lon="-3.607102"><ele>930.6000000000001</ele><time>2026-03-24T15:24:21.915Z</time></trkpt><trkpt lat="40.7877357" lon="-3.6069863"><ele>929.8000000000001</ele><time>2026-03-24T15:24:22.924Z</time></trkpt><trkpt lat="40.7877613" lon="-3.606868"><ele>929.0</ele><time>2026-03-24T15:24:23.933Z</time></trkpt><trkpt lat="40.7877861" lon="-3.6067468"><ele>928.2</ele><time>2026-03-24T15:24:24.926Z</time></trkpt><trkpt lat="40.7878074" lon="-3.6066217"><ele>927.4000000000001</ele><time>2026-03-24T15:24:25.941Z</time></trkpt><trkpt lat="40.7878244" lon="-3.6064915"><ele>926.6</ele><time>2026-03-24T15:24:26.959Z</time></trkpt><trkpt lat="40.7878178" lon="-3.6063568"><ele>925.8</ele><time>2026-03-24T15:24:27.928Z</time></trkpt><trkpt lat="40.7877934" lon="-3.6062114"><ele>925.0</ele><time>2026-03-24T15:24:28.937Z</time></trkpt><trkpt lat="40.7877745" lon="-3.6060585"><ele>924.0</ele><time>2026-03-24T15:24:29.968Z</time></trkpt><trkpt lat="40.7877866" lon="-3.6058991"><ele>923.0</ele><time>2026-03-24T15:24:30.968Z</time></trkpt><trkpt lat="40.7878149" lon="-3.6057414"><ele>922.0</ele><time>2026-03-24T15:24:31.967Z</time></trkpt><trkpt lat="40.7878535" lon="-3.6055834"><ele>921.0</ele><time>2026-03-24T15:24:32.955Z</time></trkpt><trkpt lat="40.7878994" lon="-3.6054394"><ele>920.8</ele><time>2026-03-24T15:24:33.95Z</time></trkpt><trkpt lat="40.787938" lon="-3.605302"><ele>920.5999999999999</ele><time>2026-03-24T15:24:34.927Z</time></trkpt><trkpt lat="40.7879797" lon="-3.6051741"><ele>920.4</ele><time>2026-03-24T15:24:35.934Z</time></trkpt><trkpt lat="40.7880215" lon="-3.6050398"><ele>920.2</ele><time>2026-03-24T15:24:36.935Z</time></trkpt><trkpt lat="40.7880687" lon="-3.6049048"><ele>920.0</ele><time>2026-03-24T15:24:37.953Z</time></trkpt><trkpt lat="40.7881175" lon="-3.6047832"><ele>920.0000000000001</ele><time>2026-03-24T15:24:38.946Z</time></trkpt><trkpt lat="40.7881692" lon="-3.6046724"><ele>920.0</ele><time>2026-03-24T15:24:39.943Z</time></trkpt><trkpt lat="40.7882132" lon="-3.6045613"><ele>920.0</ele><time>2026-03-24T15:24:40.948Z</time></trkpt><trkpt lat="40.7882372" lon="-3.6044575"><ele>920.0</ele><time>2026-03-24T15:24:41.932Z</time></trkpt><trkpt lat="40.7882455" lon="-3.6043647"><ele>920.0000000000001</ele><time>2026-03-24T15:24:42.964Z</time></trkpt><trkpt lat="40.7882048" lon="-3.6042471"><ele>920.0</ele><time>2026-03-24T15:24:44.929Z</time></trkpt><trkpt lat="40.788138" lon="-3.604223"><ele>920.6</ele><time>2026-03-24T15:24:46.941Z</time></trkpt><trkpt lat="40.7880493" lon="-3.6041777"><ele>921.2</ele><time>2026-03-24T15:24:48.919Z</time></trkpt><trkpt lat="40.787991" lon="-3.6041196"><ele>921.8</ele><time>2026-03-24T15:24:49.918Z</time></trkpt><trkpt lat="40.7879182" lon="-3.6040382"><ele>922.4</ele><time>2026-03-24T15:24:50.935Z</time></trkpt><trkpt lat="40.7878496" lon="-3.6039383"><ele>923.0</ele><time>2026-03-24T15:24:51.924Z</time></trkpt><trkpt lat="40.7877963" lon="-3.6038481"><ele>923.0000000000001</ele><time>2026-03-24T15:24:52.935Z</time></trkpt><trkpt lat="40.7877489" lon="-3.6037627"><ele>923.0</ele><time>2026-03-24T15:24:53.931Z</time></trkpt><trkpt lat="40.7877104" lon="-3.603672"><ele>923.0</ele><time>2026-03-24T15:24:54.917Z</time></trkpt><trkpt lat="40.7876727" lon="-3.6035684"><ele>923.0</ele><time>2026-03-24T15:24:55.919Z</time></trkpt><trkpt lat="40.7876346" lon="-3.6034593"><ele>923.0000000000001</ele><time>2026-03-24T15:24:56.927Z</time></trkpt><trkpt lat="40.7875995" lon="-3.603352"><ele>923.0</ele><time>2026-03-24T15:24:57.922Z</time></trkpt><trkpt lat="40.7875576" lon="-3.6032565"><ele>924.0</ele><time>2026-03-24T15:24:58.924Z</time></trkpt><trkpt lat="40.7875022" lon="-3.6031582"><ele>925.0</ele><time>2026-03-24T15:24:59.939Z</time></trkpt><trkpt lat="40.7874364" lon="-3.6030647"><ele>926.0</ele><time>2026-03-24T15:25:00.954Z</time></trkpt><trkpt lat="40.7873636" lon="-3.6029726"><ele>927.0</ele><time>2026-03-24T15:25:01.945Z</time></trkpt><trkpt lat="40.7872951" lon="-3.6028778"><ele>928.0</ele><time>2026-03-24T15:25:02.935Z</time></trkpt><trkpt lat="40.7872219" lon="-3.6027811"><ele>929.0</ele><time>2026-03-24T15:25:03.961Z</time></trkpt><trkpt lat="40.7871441" lon="-3.6026842"><ele>930.0</ele><time>2026-03-24T15:25:04.963Z</time></trkpt><trkpt lat="40.7870706" lon="-3.6025906"><ele>931.0</ele><time>2026-03-24T15:25:05.936Z</time></trkpt><trkpt lat="40.7870011" lon="-3.6024959"><ele>932.0</ele><time>2026-03-24T15:25:06.939Z</time></trkpt><trkpt lat="40.7869262" lon="-3.6023979"><ele>933.0</ele><time>2026-03-24T15:25:07.937Z</time></trkpt><trkpt lat="40.7868505" lon="-3.602303"><ele>932.8</ele><time>2026-03-24T15:25:08.924Z</time></trkpt><trkpt lat="40.7867712" lon="-3.6022119"><ele>932.5999999999999</ele><time>2026-03-24T15:25:09.938Z</time></trkpt><trkpt lat="40.7866835" lon="-3.6021238"><ele>932.4000000000001</ele><time>2026-03-24T15:25:10.945Z</time></trkpt><trkpt lat="40.7865964" lon="-3.6020436"><ele>932.2</ele><time>2026-03-24T15:25:11.945Z</time></trkpt><trkpt lat="40.7865167" lon="-3.6019589"><ele>932.0</ele><time>2026-03-24T15:25:12.942Z</time></trkpt><trkpt lat="40.7864495" lon="-3.6018701"><ele>932.4285714285714</ele><time>2026-03-24T15:25:13.926Z</time></trkpt><trkpt lat="40.7863912" lon="-3.6017845"><ele>932.8571428571429</ele><time>2026-03-24T15:25:14.928Z</time></trkpt><trkpt lat="40.7863463" lon="-3.6017107"><ele>933.2857142857143</ele><time>2026-03-24T15:25:15.942Z</time></trkpt><trkpt lat="40.7863061" lon="-3.6016352"><ele>933.7142857142858</ele><time>2026-03-24T15:25:16.96Z</time></trkpt><trkpt lat="40.7862721" lon="-3.6015595"><ele>934.1428571428571</ele><time>2026-03-24T15:25:17.939Z</time></trkpt><trkpt lat="40.7862416" lon="-3.6014836"><ele>934.5714285714287</ele><time>2026-03-24T15:25:18.958Z</time></trkpt><trkpt lat="40.7862194" lon="-3.6014048"><ele>935.0000000000001</ele><time>2026-03-24T15:25:19.956Z</time></trkpt><trkpt lat="40.7861869" lon="-3.6012559"><ele>935.0000000000001</ele><time>2026-03-24T15:25:21.935Z</time></trkpt><trkpt lat="40.7861664" lon="-3.6011472"><ele>935.0</ele><time>2026-03-24T15:25:23.956Z</time></trkpt><trkpt lat="40.7861557" lon="-3.6010518"><ele>935.0</ele><time>2026-03-24T15:25:27.944Z</time></trkpt><trkpt lat="40.7861123" lon="-3.6009897"><ele>935.0</ele><time>2026-03-24T15:25:49.929Z</time></trkpt><trkpt lat="40.7860967" lon="-3.6008816"><ele>935.0000000000001</ele><time>2026-03-24T15:25:52.941Z</time></trkpt><trkpt lat="40.7860849" lon="-3.600739"><ele>935.0</ele><time>2026-03-24T15:25:54.941Z</time></trkpt><trkpt lat="40.7860458" lon="-3.6005782"><ele>935.0000000000001</ele><time>2026-03-24T15:25:56.933Z</time></trkpt><trkpt lat="40.7860204" lon="-3.600482"><ele>935.0</ele><time>2026-03-24T15:25:57.932Z</time></trkpt><trkpt lat="40.785995" lon="-3.60038"><ele>935.0</ele><time>2026-03-24T15:25:58.94Z</time></trkpt><trkpt lat="40.7859662" lon="-3.6002671"><ele>935.0</ele><time>2026-03-24T15:25:59.924Z</time></trkpt><trkpt lat="40.7859385" lon="-3.6001567"><ele>935.0000000000001</ele><time>2026-03-24T15:26:00.941Z</time></trkpt><trkpt lat="40.7859105" lon="-3.6000387"><ele>935.0</ele><time>2026-03-24T15:26:01.951Z</time></trkpt><trkpt lat="40.7858793" lon="-3.5999127"><ele>934.4</ele><time>2026-03-24T15:26:02.96Z</time></trkpt><trkpt lat="40.7858481" lon="-3.599791"><ele>933.8</ele><time>2026-03-24T15:26:03.939Z</time></trkpt><trkpt lat="40.7858114" lon="-3.5996663"><ele>933.2</ele><time>2026-03-24T15:26:04.976Z</time></trkpt><trkpt lat="40.7857805" lon="-3.5995179"><ele>932.6</ele><time>2026-03-24T15:26:05.973Z</time></trkpt><trkpt lat="40.7857442" lon="-3.5993853"><ele>932.0</ele><time>2026-03-24T15:26:06.938Z</time></trkpt><trkpt lat="40.7857123" lon="-3.5992602"><ele>932.0</ele><time>2026-03-24T15:26:07.956Z</time></trkpt><trkpt lat="40.7856806" lon="-3.5991395"><ele>932.0</ele><time>2026-03-24T15:26:08.961Z</time></trkpt><trkpt lat="40.7856487" lon="-3.5990308"><ele>932.0</ele><time>2026-03-24T15:26:09.97Z</time></trkpt><trkpt lat="40.7856205" lon="-3.5989193"><ele>932.0</ele><time>2026-03-24T15:26:10.957Z</time></trkpt><trkpt lat="40.7855945" lon="-3.5988001"><ele>932.0</ele><time>2026-03-24T15:26:11.966Z</time></trkpt><trkpt lat="40.7855706" lon="-3.5986736"><ele>931.8</ele><time>2026-03-24T15:26:12.95Z</time></trkpt><trkpt lat="40.785551" lon="-3.5985374"><ele>931.6</ele><time>2026-03-24T15:26:13.953Z</time></trkpt><trkpt lat="40.7855298" lon="-3.5984104"><ele>931.3999999999999</ele><time>2026-03-24T15:26:14.931Z</time></trkpt><trkpt lat="40.7855121" lon="-3.5982902"><ele>931.1999999999999</ele><time>2026-03-24T15:26:15.948Z</time></trkpt><trkpt lat="40.7854863" lon="-3.598165"><ele>931.0</ele><time>2026-03-24T15:26:16.934Z</time></trkpt><trkpt lat="40.7854526" lon="-3.5980357"><ele>931.0</ele><time>2026-03-24T15:26:17.962Z</time></trkpt><trkpt lat="40.7854215" lon="-3.5978951"><ele>930.9999999999999</ele><time>2026-03-24T15:26:18.973Z</time></trkpt><trkpt lat="40.7853881" lon="-3.5977547"><ele>930.9999999999999</ele><time>2026-03-24T15:26:19.918Z</time></trkpt><trkpt lat="40.7853498" lon="-3.5976229"><ele>931.0</ele><time>2026-03-24T15:26:20.919Z</time></trkpt><trkpt lat="40.7853083" lon="-3.5974806"><ele>931.0</ele><time>2026-03-24T15:26:21.924Z</time></trkpt><trkpt lat="40.7852625" lon="-3.597331"><ele>930.75</ele><time>2026-03-24T15:26:22.925Z</time></trkpt><trkpt lat="40.7852043" lon="-3.5971872"><ele>930.5</ele><time>2026-03-24T15:26:23.914Z</time></trkpt><trkpt lat="40.7851482" lon="-3.5970456"><ele>930.25</ele><time>2026-03-24T15:26:24.928Z</time></trkpt><trkpt lat="40.7850994" lon="-3.5969166"><ele>930.0</ele><time>2026-03-24T15:26:25.923Z</time></trkpt><trkpt lat="40.7850544" lon="-3.596789"><ele>930.0</ele><time>2026-03-24T15:26:26.917Z</time></trkpt><trkpt lat="40.7850094" lon="-3.5966653"><ele>930.0</ele><time>2026-03-24T15:26:27.935Z</time></trkpt><trkpt lat="40.7849656" lon="-3.5965479"><ele>930.0</ele><time>2026-03-24T15:26:28.946Z</time></trkpt><trkpt lat="40.7849135" lon="-3.5964384"><ele>930.0</ele><time>2026-03-24T15:26:29.924Z</time></trkpt><trkpt lat="40.7848547" lon="-3.5963239"><ele>930.0</ele><time>2026-03-24T15:26:30.935Z</time></trkpt><trkpt lat="40.78479" lon="-3.5962153"><ele>929.5</ele><time>2026-03-24T15:26:31.945Z</time></trkpt><trkpt lat="40.7847308" lon="-3.5960999"><ele>929.0</ele><time>2026-03-24T15:26:32.941Z</time></trkpt><trkpt lat="40.7846687" lon="-3.5959804"><ele>928.5</ele><time>2026-03-24T15:26:33.939Z</time></trkpt><trkpt lat="40.7845936" lon="-3.5958501"><ele>928.0</ele><time>2026-03-24T15:26:34.932Z</time></trkpt><trkpt lat="40.7845212" lon="-3.5957207"><ele>928.0</ele><time>2026-03-24T15:26:35.94Z</time></trkpt><trkpt lat="40.7844503" lon="-3.5955884"><ele>928.0</ele><time>2026-03-24T15:26:36.93Z</time></trkpt><trkpt lat="40.7843951" lon="-3.5954558"><ele>928.0</ele><time>2026-03-24T15:26:37.96Z</time></trkpt><trkpt lat="40.7843475" lon="-3.5953279"><ele>928.0</ele><time>2026-03-24T15:26:38.967Z</time></trkpt><trkpt lat="40.7843081" lon="-3.5952017"><ele>928.0</ele><time>2026-03-24T15:26:39.963Z</time></trkpt><trkpt lat="40.7842777" lon="-3.5950653"><ele>927.25</ele><time>2026-03-24T15:26:40.936Z</time></trkpt><trkpt lat="40.7842585" lon="-3.5949166"><ele>926.5</ele><time>2026-03-24T15:26:41.955Z</time></trkpt><trkpt lat="40.7842282" lon="-3.5947631"><ele>925.75</ele><time>2026-03-24T15:26:42.948Z</time></trkpt><trkpt lat="40.7841921" lon="-3.5946031"><ele>925.0</ele><time>2026-03-24T15:26:43.963Z</time></trkpt><trkpt lat="40.7841586" lon="-3.594436"><ele>924.0</ele><time>2026-03-24T15:26:44.951Z</time></trkpt><trkpt lat="40.7841185" lon="-3.5942715"><ele>923.0</ele><time>2026-03-24T15:26:45.942Z</time></trkpt><trkpt lat="40.7840801" lon="-3.5941159"><ele>922.0</ele><time>2026-03-24T15:26:46.961Z</time></trkpt><trkpt lat="40.7840419" lon="-3.5939763"><ele>921.0</ele><time>2026-03-24T15:26:47.951Z</time></trkpt><trkpt lat="40.7840027" lon="-3.5938414"><ele>921.0</ele><time>2026-03-24T15:26:48.959Z</time></trkpt><trkpt lat="40.7839598" lon="-3.5937163"><ele>920.9999999999999</ele><time>2026-03-24T15:26:49.953Z</time></trkpt><trkpt lat="40.783911" lon="-3.593592"><ele>920.9999999999999</ele><time>2026-03-24T15:26:50.965Z</time></trkpt><trkpt lat="40.7838678" lon="-3.5934578"><ele>921.0</ele><time>2026-03-24T15:26:51.975Z</time></trkpt><trkpt lat="40.7838244" lon="-3.5933308"><ele>921.0</ele><time>2026-03-24T15:26:52.964Z</time></trkpt><trkpt lat="40.7837858" lon="-3.5932091"><ele>921.0</ele><time>2026-03-24T15:26:53.944Z</time></trkpt><trkpt lat="40.7837567" lon="-3.5930963"><ele>921.0</ele><time>2026-03-24T15:26:54.956Z</time></trkpt><trkpt lat="40.7837264" lon="-3.5929853"><ele>921.0</ele><time>2026-03-24T15:26:55.969Z</time></trkpt><trkpt lat="40.7836905" lon="-3.592892"><ele>921.0</ele><time>2026-03-24T15:26:56.958Z</time></trkpt><trkpt lat="40.7836565" lon="-3.5927964"><ele>921.0</ele><time>2026-03-24T15:26:57.93Z</time></trkpt><trkpt lat="40.7836182" lon="-3.5927031"><ele>921.0</ele><time>2026-03-24T15:26:58.927Z</time></trkpt><trkpt lat="40.7835822" lon="-3.5926067"><ele>921.0</ele><time>2026-03-24T15:26:59.925Z</time></trkpt><trkpt lat="40.7835534" lon="-3.5925083"><ele>921.0</ele><time>2026-03-24T15:27:00.956Z</time></trkpt><trkpt lat="40.7835219" lon="-3.5924104"><ele>921.0</ele><time>2026-03-24T15:27:01.941Z</time></trkpt><trkpt lat="40.7834962" lon="-3.5923153"><ele>921.0</ele><time>2026-03-24T15:27:02.96Z</time></trkpt><trkpt lat="40.7834698" lon="-3.5922229"><ele>921.0</ele><time>2026-03-24T15:27:03.96Z</time></trkpt><trkpt lat="40.7834333" lon="-3.5921431"><ele>921.0</ele><time>2026-03-24T15:27:04.972Z</time></trkpt><trkpt lat="40.7833867" lon="-3.5920773"><ele>922.0</ele><time>2026-03-24T15:27:05.954Z</time></trkpt><trkpt lat="40.7833349" lon="-3.5919975"><ele>923.0</ele><time>2026-03-24T15:27:06.947Z</time></trkpt><trkpt lat="40.7832857" lon="-3.5919136"><ele>924.0</ele><time>2026-03-24T15:27:07.965Z</time></trkpt><trkpt lat="40.7832432" lon="-3.5918309"><ele>925.0</ele><time>2026-03-24T15:27:08.957Z</time></trkpt><trkpt lat="40.7832016" lon="-3.5917444"><ele>926.0</ele><time>2026-03-24T15:27:09.963Z</time></trkpt><trkpt lat="40.7831599" lon="-3.5916418"><ele>927.0</ele><time>2026-03-24T15:27:10.958Z</time></trkpt><trkpt lat="40.783136" lon="-3.5915296"><ele>927.0</ele><time>2026-03-24T15:27:11.953Z</time></trkpt><trkpt lat="40.7831239" lon="-3.5914222"><ele>927.0</ele><time>2026-03-24T15:27:12.936Z</time></trkpt><trkpt lat="40.7831034" lon="-3.5913042"><ele>927.0</ele><time>2026-03-24T15:27:13.938Z</time></trkpt><trkpt lat="40.7830978" lon="-3.5911837"><ele>927.0</ele><time>2026-03-24T15:27:14.933Z</time></trkpt><trkpt lat="40.7830662" lon="-3.5910565"><ele>927.0</ele><time>2026-03-24T15:27:15.922Z</time></trkpt><trkpt lat="40.7830286" lon="-3.5909326"><ele>926.5</ele><time>2026-03-24T15:27:16.948Z</time></trkpt><trkpt lat="40.7829851" lon="-3.5908077"><ele>926.0</ele><time>2026-03-24T15:27:17.975Z</time></trkpt><trkpt lat="40.7829392" lon="-3.590669"><ele>925.5</ele><time>2026-03-24T15:27:18.933Z</time></trkpt><trkpt lat="40.7828857" lon="-3.5905285"><ele>925.0</ele><time>2026-03-24T15:27:19.957Z</time></trkpt><trkpt lat="40.7828292" lon="-3.5903854"><ele>924.6</ele><time>2026-03-24T15:27:20.962Z</time></trkpt><trkpt lat="40.7827651" lon="-3.5902501"><ele>924.2</ele><time>2026-03-24T15:27:21.951Z</time></trkpt><trkpt lat="40.7827067" lon="-3.590125"><ele>923.8</ele><time>2026-03-24T15:27:22.95Z</time></trkpt><trkpt lat="40.7826419" lon="-3.5900099"><ele>923.4</ele><time>2026-03-24T15:27:23.948Z</time></trkpt><trkpt lat="40.782582" lon="-3.5899064"><ele>923.0</ele><time>2026-03-24T15:27:24.945Z</time></trkpt><trkpt lat="40.7825183" lon="-3.5897887"><ele>923.0</ele><time>2026-03-24T15:27:25.952Z</time></trkpt><trkpt lat="40.7824487" lon="-3.5896718"><ele>923.0</ele><time>2026-03-24T15:27:26.953Z</time></trkpt><trkpt lat="40.7823765" lon="-3.5895551"><ele>923.0</ele><time>2026-03-24T15:27:27.955Z</time></trkpt><trkpt lat="40.782305" lon="-3.5894457"><ele>923.0</ele><time>2026-03-24T15:27:28.951Z</time></trkpt><trkpt lat="40.7822336" lon="-3.5893482"><ele>923.0</ele><time>2026-03-24T15:27:29.947Z</time></trkpt><trkpt lat="40.7821669" lon="-3.5892597"><ele>922.5999999999999</ele><time>2026-03-24T15:27:30.931Z</time></trkpt><trkpt lat="40.7820852" lon="-3.589172"><ele>922.1999999999999</ele><time>2026-03-24T15:27:31.927Z</time></trkpt><trkpt lat="40.7820047" lon="-3.5890737"><ele>921.8</ele><time>2026-03-24T15:27:32.971Z</time></trkpt><trkpt lat="40.7819301" lon="-3.588974"><ele>921.4</ele><time>2026-03-24T15:27:33.961Z</time></trkpt><trkpt lat="40.7818549" lon="-3.5888807"><ele>921.0</ele><time>2026-03-24T15:27:34.952Z</time></trkpt><trkpt lat="40.7817833" lon="-3.5887879"><ele>921.0</ele><time>2026-03-24T15:27:35.96Z</time></trkpt><trkpt lat="40.7817071" lon="-3.5886918"><ele>920.9999999999999</ele><time>2026-03-24T15:27:36.919Z</time></trkpt><trkpt lat="40.7816258" lon="-3.5886015"><ele>920.9999999999999</ele><time>2026-03-24T15:27:37.914Z</time></trkpt><trkpt lat="40.7815529" lon="-3.5885071"><ele>921.0</ele><time>2026-03-24T15:27:38.92Z</time></trkpt><trkpt lat="40.7814825" lon="-3.5884197"><ele>921.0</ele><time>2026-03-24T15:27:39.916Z</time></trkpt><trkpt lat="40.7814149" lon="-3.5883326"><ele>920.1999999999999</ele><time>2026-03-24T15:27:40.917Z</time></trkpt><trkpt lat="40.7813475" lon="-3.5882418"><ele>919.3999999999999</ele><time>2026-03-24T15:27:41.924Z</time></trkpt><trkpt lat="40.7812786" lon="-3.5881439"><ele>918.6</ele><time>2026-03-24T15:27:42.948Z</time></trkpt><trkpt lat="40.7812188" lon="-3.5880545"><ele>917.8</ele><time>2026-03-24T15:27:43.941Z</time></trkpt><trkpt lat="40.781153" lon="-3.5879662"><ele>917.0</ele><time>2026-03-24T15:27:44.931Z</time></trkpt><trkpt lat="40.7810875" lon="-3.58787"><ele>916.8</ele><time>2026-03-24T15:27:45.925Z</time></trkpt><trkpt lat="40.7810286" lon="-3.5877651"><ele>916.6</ele><time>2026-03-24T15:27:46.939Z</time></trkpt><trkpt lat="40.7809695" lon="-3.5876419"><ele>916.3999999999999</ele><time>2026-03-24T15:27:47.945Z</time></trkpt><trkpt lat="40.7809089" lon="-3.5875324"><ele>916.1999999999999</ele><time>2026-03-24T15:27:48.953Z</time></trkpt><trkpt lat="40.7808482" lon="-3.5874212"><ele>916.0</ele><time>2026-03-24T15:27:49.945Z</time></trkpt><trkpt lat="40.7807957" lon="-3.5873147"><ele>916.0</ele><time>2026-03-24T15:27:50.938Z</time></trkpt><trkpt lat="40.7807357" lon="-3.5871939"><ele>915.9999999999999</ele><time>2026-03-24T15:27:51.934Z</time></trkpt><trkpt lat="40.780676" lon="-3.5870762"><ele>915.9999999999999</ele><time>2026-03-24T15:27:52.943Z</time></trkpt><trkpt lat="40.7806173" lon="-3.5869532"><ele>916.0</ele><time>2026-03-24T15:27:53.96Z</time></trkpt><trkpt lat="40.7805587" lon="-3.586854"><ele>916.0</ele><time>2026-03-24T15:27:54.951Z</time></trkpt><trkpt lat="40.7805127" lon="-3.5867532"><ele>915.5999999999999</ele><time>2026-03-24T15:27:55.954Z</time></trkpt><trkpt lat="40.7804711" lon="-3.5866418"><ele>915.1999999999999</ele><time>2026-03-24T15:27:56.971Z</time></trkpt><trkpt lat="40.7804367" lon="-3.5865259"><ele>914.8000000000001</ele><time>2026-03-24T15:27:57.964Z</time></trkpt><trkpt lat="40.7803984" lon="-3.5863991"><ele>914.4000000000001</ele><time>2026-03-24T15:27:58.95Z</time></trkpt><trkpt lat="40.7803595" lon="-3.5862743"><ele>914.0</ele><time>2026-03-24T15:27:59.955Z</time></trkpt><trkpt lat="40.7803132" lon="-3.5861477"><ele>914.0</ele><time>2026-03-24T15:28:00.937Z</time></trkpt><trkpt lat="40.7802571" lon="-3.5860215"><ele>914.0000000000001</ele><time>2026-03-24T15:28:01.947Z</time></trkpt><trkpt lat="40.780205" lon="-3.5858933"><ele>914.0000000000001</ele><time>2026-03-24T15:28:02.933Z</time></trkpt><trkpt lat="40.7801549" lon="-3.5857802"><ele>914.0</ele><time>2026-03-24T15:28:03.934Z</time></trkpt><trkpt lat="40.7801067" lon="-3.5856711"><ele>914.0</ele><time>2026-03-24T15:28:04.928Z</time></trkpt><trkpt lat="40.7800628" lon="-3.5855832"><ele>914.5000000000001</ele><time>2026-03-24T15:28:05.941Z</time></trkpt><trkpt lat="40.7800381" lon="-3.5854716"><ele>915.0</ele><time>2026-03-24T15:28:07.95Z</time></trkpt><trkpt lat="40.7799858" lon="-3.5853872"><ele>915.5</ele><time>2026-03-24T15:28:45.946Z</time></trkpt><trkpt lat="40.7799376" lon="-3.5853068"><ele>916.0</ele><time>2026-03-24T15:28:47.943Z</time></trkpt><trkpt lat="40.7798876" lon="-3.5851621"><ele>916.5000000000001</ele><time>2026-03-24T15:28:49.929Z</time></trkpt><trkpt lat="40.7798636" lon="-3.585085"><ele>917.0</ele><time>2026-03-24T15:28:50.962Z</time></trkpt><trkpt lat="40.7798384" lon="-3.5850049"><ele>917.0</ele><time>2026-03-24T15:28:51.965Z</time></trkpt><trkpt lat="40.7798129" lon="-3.5848614"><ele>917.0</ele><time>2026-03-24T15:28:53.946Z</time></trkpt><trkpt lat="40.7797855" lon="-3.5846989"><ele>917.0</ele><time>2026-03-24T15:28:55.939Z</time></trkpt><trkpt lat="40.7797673" lon="-3.5846148"><ele>917.0</ele><time>2026-03-24T15:28:56.929Z</time></trkpt><trkpt lat="40.779733" lon="-3.5844475"><ele>917.0</ele><time>2026-03-24T15:28:58.935Z</time></trkpt><trkpt lat="40.7797115" lon="-3.5843621"><ele>917.2857142857142</ele><time>2026-03-24T15:28:59.968Z</time></trkpt><trkpt lat="40.7796865" lon="-3.5842761"><ele>917.5714285714286</ele><time>2026-03-24T15:29:00.947Z</time></trkpt><trkpt lat="40.7796628" lon="-3.5841968"><ele>917.8571428571429</ele><time>2026-03-24T15:29:01.948Z</time></trkpt><trkpt lat="40.7796395" lon="-3.5841115"><ele>918.1428571428571</ele><time>2026-03-24T15:29:02.96Z</time></trkpt><trkpt lat="40.7796119" lon="-3.5840344"><ele>918.4285714285713</ele><time>2026-03-24T15:29:03.954Z</time></trkpt><trkpt lat="40.7795902" lon="-3.5839563"><ele>918.7142857142857</ele><time>2026-03-24T15:29:04.964Z</time></trkpt><trkpt lat="40.7795618" lon="-3.5838783"><ele>919.0</ele><time>2026-03-24T15:29:05.936Z</time></trkpt><trkpt lat="40.7795229" lon="-3.5837324"><ele>918.8000000000001</ele><time>2026-03-24T15:29:07.925Z</time></trkpt><trkpt lat="40.7795022" lon="-3.5835926"><ele>918.6000000000001</ele><time>2026-03-24T15:29:09.949Z</time></trkpt><trkpt lat="40.7794601" lon="-3.5834741"><ele>918.4</ele><time>2026-03-24T15:29:11.936Z</time></trkpt><trkpt lat="40.7793918" lon="-3.583424"><ele>918.2</ele><time>2026-03-24T15:29:13.933Z</time></trkpt><trkpt lat="40.7793318" lon="-3.583359"><ele>918.0</ele><time>2026-03-24T15:29:15.922Z</time></trkpt><trkpt lat="40.7792551" lon="-3.5832639"><ele>918.0</ele><time>2026-03-24T15:29:17.945Z</time></trkpt><trkpt lat="40.7791984" lon="-3.5832108"><ele>918.0</ele><time>2026-03-24T15:29:18.917Z</time></trkpt><trkpt lat="40.7791447" lon="-3.5831462"><ele>918.0</ele><time>2026-03-24T15:29:19.965Z</time></trkpt><trkpt lat="40.779096" lon="-3.5830854"><ele>918.0</ele><time>2026-03-24T15:29:20.955Z</time></trkpt><trkpt lat="40.7790405" lon="-3.5830181"><ele>918.0</ele><time>2026-03-24T15:29:21.944Z</time></trkpt><trkpt lat="40.7789818" lon="-3.5829526"><ele>918.0</ele><time>2026-03-24T15:29:22.95Z</time></trkpt><trkpt lat="40.7789181" lon="-3.5828796"><ele>918.0</ele><time>2026-03-24T15:29:23.958Z</time></trkpt><trkpt lat="40.7788568" lon="-3.5828049"><ele>918.0</ele><time>2026-03-24T15:29:24.946Z</time></trkpt><trkpt lat="40.7787974" lon="-3.5827209"><ele>918.0</ele><time>2026-03-24T15:29:25.944Z</time></trkpt><trkpt lat="40.7787404" lon="-3.5826337"><ele>918.0</ele><time>2026-03-24T15:29:26.944Z</time></trkpt><trkpt lat="40.7786754" lon="-3.5825489"><ele>918.0</ele><time>2026-03-24T15:29:27.982Z</time></trkpt><trkpt lat="40.778613" lon="-3.5824687"><ele>918.0</ele><time>2026-03-24T15:29:28.965Z</time></trkpt><trkpt lat="40.7785572" lon="-3.5823803"><ele>918.0</ele><time>2026-03-24T15:29:29.958Z</time></trkpt><trkpt lat="40.7784959" lon="-3.5822898"><ele>918.0</ele><time>2026-03-24T15:29:30.939Z</time></trkpt><trkpt lat="40.778426" lon="-3.5821993"><ele>918.0</ele><time>2026-03-24T15:29:31.95Z</time></trkpt><trkpt lat="40.778361" lon="-3.5821114"><ele>918.0</ele><time>2026-03-24T15:29:32.929Z</time></trkpt><trkpt lat="40.7782986" lon="-3.5820134"><ele>918.0</ele><time>2026-03-24T15:29:33.952Z</time></trkpt><trkpt lat="40.7782402" lon="-3.5819191"><ele>918.0</ele><time>2026-03-24T15:29:34.928Z</time></trkpt><trkpt lat="40.7781795" lon="-3.5818253"><ele>917.8</ele><time>2026-03-24T15:29:35.95Z</time></trkpt><trkpt lat="40.7781228" lon="-3.5817329"><ele>917.5999999999999</ele><time>2026-03-24T15:29:36.952Z</time></trkpt><trkpt lat="40.7780681" lon="-3.5816397"><ele>917.4000000000001</ele><time>2026-03-24T15:29:37.934Z</time></trkpt><trkpt lat="40.7780192" lon="-3.5815434"><ele>917.2</ele><time>2026-03-24T15:29:38.948Z</time></trkpt><trkpt lat="40.7779636" lon="-3.581441"><ele>917.0</ele><time>2026-03-24T15:29:39.953Z</time></trkpt><trkpt lat="40.7779098" lon="-3.5813426"><ele>917.0000000000001</ele><time>2026-03-24T15:29:40.959Z</time></trkpt><trkpt lat="40.7778617" lon="-3.5812351"><ele>917.0</ele><time>2026-03-24T15:29:41.963Z</time></trkpt><trkpt lat="40.7778153" lon="-3.5811271"><ele>917.0</ele><time>2026-03-24T15:29:42.944Z</time></trkpt><trkpt lat="40.777766" lon="-3.5810243"><ele>917.0</ele><time>2026-03-24T15:29:43.964Z</time></trkpt><trkpt lat="40.7777272" lon="-3.5809302"><ele>917.0000000000001</ele><time>2026-03-24T15:29:44.977Z</time></trkpt><trkpt lat="40.7776889" lon="-3.5808397"><ele>917.0</ele><time>2026-03-24T15:29:45.945Z</time></trkpt><trkpt lat="40.7776455" lon="-3.5807497"><ele>917.3333333333334</ele><time>2026-03-24T15:29:46.941Z</time></trkpt><trkpt lat="40.7776037" lon="-3.5806548"><ele>917.6666666666667</ele><time>2026-03-24T15:29:47.935Z</time></trkpt><trkpt lat="40.7775574" lon="-3.5805557"><ele>918.0</ele><time>2026-03-24T15:29:48.928Z</time></trkpt><trkpt lat="40.7775188" lon="-3.5804528"><ele>918.3333333333333</ele><time>2026-03-24T15:29:49.93Z</time></trkpt><trkpt lat="40.7774731" lon="-3.5803558"><ele>918.6666666666666</ele><time>2026-03-24T15:29:50.936Z</time></trkpt><trkpt lat="40.7774288" lon="-3.580275"><ele>919.0</ele><time>2026-03-24T15:29:51.92Z</time></trkpt><trkpt lat="40.7773849" lon="-3.5802011"><ele>918.9999999999999</ele><time>2026-03-24T15:29:52.923Z</time></trkpt><trkpt lat="40.7773452" lon="-3.580133"><ele>919.0</ele><time>2026-03-24T15:29:53.934Z</time></trkpt><trkpt lat="40.7772581" lon="-3.5799978"><ele>919.0</ele><time>2026-03-24T15:29:55.928Z</time></trkpt><trkpt lat="40.7771995" lon="-3.5799354"><ele>919.0</ele><time>2026-03-24T15:29:56.919Z</time></trkpt><trkpt lat="40.7771448" lon="-3.5798756"><ele>918.9999999999999</ele><time>2026-03-24T15:29:57.94Z</time></trkpt><trkpt lat="40.7770901" lon="-3.579799"><ele>919.0</ele><time>2026-03-24T15:29:58.928Z</time></trkpt><trkpt lat="40.7770345" lon="-3.5797098"><ele>919.0</ele><time>2026-03-24T15:29:59.921Z</time></trkpt><trkpt lat="40.7769856" lon="-3.5796112"><ele>919.0000000000001</ele><time>2026-03-24T15:30:00.938Z</time></trkpt><trkpt lat="40.7769273" lon="-3.5795149"><ele>919.0000000000001</ele><time>2026-03-24T15:30:01.936Z</time></trkpt><trkpt lat="40.7768707" lon="-3.579414"><ele>919.0</ele><time>2026-03-24T15:30:02.945Z</time></trkpt><trkpt lat="40.776812" lon="-3.5793141"><ele>919.0</ele><time>2026-03-24T15:30:03.933Z</time></trkpt><trkpt lat="40.7767464" lon="-3.5792229"><ele>918.4000000000001</ele><time>2026-03-24T15:30:04.922Z</time></trkpt><trkpt lat="40.7766841" lon="-3.5791316"><ele>917.8000000000001</ele><time>2026-03-24T15:30:05.933Z</time></trkpt><trkpt lat="40.7766183" lon="-3.5790348"><ele>917.1999999999999</ele><time>2026-03-24T15:30:06.931Z</time></trkpt><trkpt lat="40.7765552" lon="-3.5789458"><ele>916.5999999999999</ele><time>2026-03-24T15:30:07.928Z</time></trkpt><trkpt lat="40.7764921" lon="-3.5788525"><ele>916.0</ele><time>2026-03-24T15:30:08.941Z</time></trkpt><trkpt lat="40.776427" lon="-3.5787638"><ele>915.4</ele><time>2026-03-24T15:30:09.931Z</time></trkpt><trkpt lat="40.7763628" lon="-3.5786648"><ele>914.8</ele><time>2026-03-24T15:30:10.962Z</time></trkpt><trkpt lat="40.7763092" lon="-3.5785764"><ele>914.1999999999999</ele><time>2026-03-24T15:30:11.942Z</time></trkpt><trkpt lat="40.7762614" lon="-3.5784794"><ele>913.5999999999999</ele><time>2026-03-24T15:30:12.932Z</time></trkpt><trkpt lat="40.7762049" lon="-3.5783861"><ele>913.0</ele><time>2026-03-24T15:30:13.94Z</time></trkpt><trkpt lat="40.7761504" lon="-3.578292"><ele>913.0</ele><time>2026-03-24T15:30:14.947Z</time></trkpt><trkpt lat="40.7760927" lon="-3.5781977"><ele>913.0</ele><time>2026-03-24T15:30:15.942Z</time></trkpt><trkpt lat="40.7760333" lon="-3.578099"><ele>913.0</ele><time>2026-03-24T15:30:16.931Z</time></trkpt><trkpt lat="40.7759671" lon="-3.5779941"><ele>913.0</ele><time>2026-03-24T15:30:17.945Z</time></trkpt><trkpt lat="40.7758987" lon="-3.5778914"><ele>913.0</ele><time>2026-03-24T15:30:18.946Z</time></trkpt><trkpt lat="40.7758263" lon="-3.5777973"><ele>912.4</ele><time>2026-03-24T15:30:19.923Z</time></trkpt><trkpt lat="40.775749" lon="-3.5777091"><ele>911.8</ele><time>2026-03-24T15:30:20.941Z</time></trkpt><trkpt lat="40.7756784" lon="-3.5776189"><ele>911.2</ele><time>2026-03-24T15:30:21.931Z</time></trkpt><trkpt lat="40.7756107" lon="-3.5775264"><ele>910.6</ele><time>2026-03-24T15:30:22.933Z</time></trkpt><trkpt lat="40.7755479" lon="-3.5774323"><ele>910.0</ele><time>2026-03-24T15:30:23.925Z</time></trkpt><trkpt lat="40.7754851" lon="-3.5773316"><ele>910.0</ele><time>2026-03-24T15:30:24.925Z</time></trkpt><trkpt lat="40.7754261" lon="-3.5772332"><ele>910.0</ele><time>2026-03-24T15:30:25.952Z</time></trkpt><trkpt lat="40.7753643" lon="-3.57713"><ele>910.0</ele><time>2026-03-24T15:30:26.927Z</time></trkpt><trkpt lat="40.7753089" lon="-3.5770313"><ele>910.0</ele><time>2026-03-24T15:30:27.933Z</time></trkpt><trkpt lat="40.7752552" lon="-3.5769447"><ele>910.0</ele><time>2026-03-24T15:30:28.939Z</time></trkpt><trkpt lat="40.7751986" lon="-3.5768505"><ele>910.4</ele><time>2026-03-24T15:30:29.934Z</time></trkpt><trkpt lat="40.7751493" lon="-3.5767545"><ele>910.8</ele><time>2026-03-24T15:30:30.92Z</time></trkpt><trkpt lat="40.7750883" lon="-3.5766586"><ele>911.2</ele><time>2026-03-24T15:30:31.931Z</time></trkpt><trkpt lat="40.7750246" lon="-3.5765634"><ele>911.6</ele><time>2026-03-24T15:30:32.923Z</time></trkpt><trkpt lat="40.774964" lon="-3.5764697"><ele>912.0</ele><time>2026-03-24T15:30:33.934Z</time></trkpt><trkpt lat="40.7749005" lon="-3.5763771"><ele>912.0</ele><time>2026-03-24T15:30:34.927Z</time></trkpt><trkpt lat="40.7748383" lon="-3.5762946"><ele>912.0</ele><time>2026-03-24T15:30:35.931Z</time></trkpt><trkpt lat="40.774783" lon="-3.5762144"><ele>912.0</ele><time>2026-03-24T15:30:36.923Z</time></trkpt><trkpt lat="40.7747062" lon="-3.5761239"><ele>912.0</ele><time>2026-03-24T15:30:38.937Z</time></trkpt><trkpt lat="40.774638" lon="-3.5761164"><ele>912.0</ele><time>2026-03-24T15:30:52.939Z</time></trkpt><trkpt lat="40.7745613" lon="-3.5761423"><ele>912.0</ele><time>2026-03-24T15:30:54.922Z</time></trkpt><trkpt lat="40.7744564" lon="-3.576214"><ele>912.0</ele><time>2026-03-24T15:30:56.949Z</time></trkpt><trkpt lat="40.7743929" lon="-3.5762641"><ele>912.0</ele><time>2026-03-24T15:30:57.949Z</time></trkpt><trkpt lat="40.7743198" lon="-3.576305"><ele>912.0</ele><time>2026-03-24T15:30:58.923Z</time></trkpt><trkpt lat="40.7742562" lon="-3.5763417"><ele>912.0</ele><time>2026-03-24T15:30:59.942Z</time></trkpt><trkpt lat="40.7741443" lon="-3.576404"><ele>912.0</ele><time>2026-03-24T15:31:01.931Z</time></trkpt><trkpt lat="40.7740762" lon="-3.5764821"><ele>912.0</ele><time>2026-03-24T15:31:03.93Z</time></trkpt><trkpt lat="40.7740969" lon="-3.5765909"><ele>912.6</ele><time>2026-03-24T15:31:05.939Z</time></trkpt><trkpt lat="40.7741367" lon="-3.5767065"><ele>913.2</ele><time>2026-03-24T15:31:07.943Z</time></trkpt><trkpt lat="40.7741587" lon="-3.5768859"><ele>913.8</ele><time>2026-03-24T15:31:09.94Z</time></trkpt><trkpt lat="40.7741641" lon="-3.5770005"><ele>914.4</ele><time>2026-03-24T15:31:10.938Z</time></trkpt><trkpt lat="40.7741657" lon="-3.5771058"><ele>915.0</ele><time>2026-03-24T15:31:11.948Z</time></trkpt><trkpt lat="40.774181" lon="-3.5772006"><ele>915.1666666666666</ele><time>2026-03-24T15:31:12.931Z</time></trkpt><trkpt lat="40.7741944" lon="-3.5772969"><ele>915.3333333333333</ele><time>2026-03-24T15:31:13.928Z</time></trkpt><trkpt lat="40.7741952" lon="-3.5774073"><ele>915.5</ele><time>2026-03-24T15:31:14.931Z</time></trkpt><trkpt lat="40.7741867" lon="-3.5775224"><ele>915.6666666666666</ele><time>2026-03-24T15:31:15.935Z</time></trkpt><trkpt lat="40.7741784" lon="-3.5776311"><ele>915.8333333333333</ele><time>2026-03-24T15:31:16.952Z</time></trkpt><trkpt lat="40.7741806" lon="-3.5777393"><ele>916.0</ele><time>2026-03-24T15:31:17.942Z</time></trkpt><trkpt lat="40.77418" lon="-3.5778508"><ele>916.3333333333333</ele><time>2026-03-24T15:31:18.945Z</time></trkpt><trkpt lat="40.7741773" lon="-3.5779643"><ele>916.6666666666666</ele><time>2026-03-24T15:31:19.926Z</time></trkpt><trkpt lat="40.7741685" lon="-3.5780743"><ele>917.0</ele><time>2026-03-24T15:31:20.961Z</time></trkpt><trkpt lat="40.7741501" lon="-3.5781889"><ele>917.3333333333333</ele><time>2026-03-24T15:31:21.939Z</time></trkpt><trkpt lat="40.7741243" lon="-3.5782928"><ele>917.6666666666666</ele><time>2026-03-24T15:31:22.948Z</time></trkpt><trkpt lat="40.774093" lon="-3.5783935"><ele>918.0</ele><time>2026-03-24T15:31:23.952Z</time></trkpt><trkpt lat="40.7740567" lon="-3.578492"><ele>918.0</ele><time>2026-03-24T15:31:24.948Z</time></trkpt><trkpt lat="40.7740211" lon="-3.5785834"><ele>918.0</ele><time>2026-03-24T15:31:25.94Z</time></trkpt><trkpt lat="40.7739831" lon="-3.5786704"><ele>918.0</ele><time>2026-03-24T15:31:26.959Z</time></trkpt><trkpt lat="40.7739406" lon="-3.5787474"><ele>918.0</ele><time>2026-03-24T15:31:27.952Z</time></trkpt><trkpt lat="40.7738903" lon="-3.5788"><ele>918.0</ele><time>2026-03-24T15:31:28.952Z</time></trkpt><trkpt lat="40.7738173" lon="-3.5788963"><ele>918.0</ele><time>2026-03-24T15:31:30.937Z</time></trkpt><trkpt lat="40.7737676" lon="-3.5789823"><ele>918.0</ele><time>2026-03-24T15:31:33.924Z</time></trkpt><trkpt lat="40.7737537" lon="-3.5790999"><ele>918.0</ele><time>2026-03-24T15:31:36.949Z</time></trkpt><trkpt lat="40.7737698" lon="-3.5789841"><ele>918.0</ele><time>2026-03-24T15:32:11.928Z</time></trkpt><trkpt lat="40.7738281" lon="-3.5788697"><ele>918.0</ele><time>2026-03-24T15:32:14.93Z</time></trkpt><trkpt lat="40.7738898" lon="-3.5787587"><ele>918.0</ele><time>2026-03-24T15:32:16.938Z</time></trkpt><trkpt lat="40.7739742" lon="-3.5786514"><ele>918.0</ele><time>2026-03-24T15:32:18.936Z</time></trkpt><trkpt lat="40.774018" lon="-3.5785857"><ele>918.0</ele><time>2026-03-24T15:32:19.938Z</time></trkpt><trkpt lat="40.7740748" lon="-3.5784474"><ele>918.0</ele><time>2026-03-24T15:32:21.939Z</time></trkpt><trkpt lat="40.7741057" lon="-3.5783585"><ele>918.0</ele><time>2026-03-24T15:32:22.952Z</time></trkpt><trkpt lat="40.7741327" lon="-3.5782741"><ele>918.0</ele><time>2026-03-24T15:32:23.94Z</time></trkpt><trkpt lat="40.7741627" lon="-3.578188"><ele>918.0</ele><time>2026-03-24T15:32:24.939Z</time></trkpt><trkpt lat="40.7741851" lon="-3.578103"><ele>918.0</ele><time>2026-03-24T15:32:25.95Z</time></trkpt><trkpt lat="40.7741963" lon="-3.5780203"><ele>918.0</ele><time>2026-03-24T15:32:26.935Z</time></trkpt><trkpt lat="40.774205" lon="-3.5779378"><ele>918.0</ele><time>2026-03-24T15:32:27.935Z</time></trkpt><trkpt lat="40.7742056" lon="-3.5778477"><ele>918.0</ele><time>2026-03-24T15:32:28.942Z</time></trkpt><trkpt lat="40.7741997" lon="-3.5777623"><ele>918.0</ele><time>2026-03-24T15:32:29.961Z</time></trkpt><trkpt lat="40.7741958" lon="-3.577676"><ele>918.0</ele><time>2026-03-24T15:32:30.935Z</time></trkpt><trkpt lat="40.7741919" lon="-3.5775884"><ele>918.0</ele><time>2026-03-24T15:32:31.945Z</time></trkpt><trkpt lat="40.7741948" lon="-3.5774882"><ele>917.6666666666666</ele><time>2026-03-24T15:32:32.96Z</time></trkpt><trkpt lat="40.7741926" lon="-3.5773916"><ele>917.3333333333333</ele><time>2026-03-24T15:32:33.913Z</time></trkpt><trkpt lat="40.7741942" lon="-3.5773"><ele>917.0</ele><time>2026-03-24T15:32:34.913Z</time></trkpt><trkpt lat="40.774192" lon="-3.5772146"><ele>916.6666666666666</ele><time>2026-03-24T15:32:35.911Z</time></trkpt><trkpt lat="40.7741644" lon="-3.5770701"><ele>916.3333333333333</ele><time>2026-03-24T15:32:37.924Z</time></trkpt><trkpt lat="40.7741475" lon="-3.5769172"><ele>916.0</ele><time>2026-03-24T15:32:39.939Z</time></trkpt><trkpt lat="40.7741304" lon="-3.5767743"><ele>915.8333333333333</ele><time>2026-03-24T15:32:41.937Z</time></trkpt><trkpt lat="40.7741148" lon="-3.5766556"><ele>915.6666666666666</ele><time>2026-03-24T15:32:43.959Z</time></trkpt><trkpt lat="40.7740793" lon="-3.5765547"><ele>915.5</ele><time>2026-03-24T15:32:45.92Z</time></trkpt><trkpt lat="40.7740255" lon="-3.5764791"><ele>915.3333333333333</ele><time>2026-03-24T15:32:48.959Z</time></trkpt><trkpt lat="40.7739745" lon="-3.5763916"><ele>915.1666666666666</ele><time>2026-03-24T15:32:54.952Z</time></trkpt><trkpt lat="40.7739616" lon="-3.5763068"><ele>915.0</ele><time>2026-03-24T15:32:55.958Z</time></trkpt><trkpt lat="40.7739577" lon="-3.5762079"><ele>915.1428571428572</ele><time>2026-03-24T15:32:56.971Z</time></trkpt><trkpt lat="40.7739608" lon="-3.5761116"><ele>915.2857142857144</ele><time>2026-03-24T15:32:57.948Z</time></trkpt><trkpt lat="40.7739601" lon="-3.5760054"><ele>915.4285714285714</ele><time>2026-03-24T15:32:58.952Z</time></trkpt><trkpt lat="40.7739617" lon="-3.5759102"><ele>915.5714285714287</ele><time>2026-03-24T15:32:59.937Z</time></trkpt><trkpt lat="40.7739524" lon="-3.5758064"><ele>915.7142857142858</ele><time>2026-03-24T15:33:01.945Z</time></trkpt><trkpt lat="40.7738858" lon="-3.5758087"><ele>915.8571428571429</ele><time>2026-03-24T15:33:18.939Z</time></trkpt><trkpt lat="40.7738821" lon="-3.5759006"><ele>916.0</ele><time>2026-03-24T15:33:22.921Z</time></trkpt><trkpt lat="40.7738613" lon="-3.5759825"><ele>915.9999999999999</ele><time>2026-03-24T15:33:48.947Z</time></trkpt><trkpt lat="40.7739292" lon="-3.5759439"><ele>916.0</ele><time>2026-03-24T15:33:54.94Z</time></trkpt><trkpt lat="40.7739784" lon="-3.5758091"><ele>916.0</ele><time>2026-03-24T15:33:56.942Z</time></trkpt><trkpt lat="40.7740063" lon="-3.5757118"><ele>916.0</ele><time>2026-03-24T15:33:58.941Z</time></trkpt><trkpt lat="40.7740473" lon="-3.5756214"><ele>915.9999999999999</ele><time>2026-03-24T15:34:01.944Z</time></trkpt><trkpt lat="40.7740846" lon="-3.5755313"><ele>916.0</ele><time>2026-03-24T15:34:04.946Z</time></trkpt><trkpt lat="40.7740387" lon="-3.5754316"><ele>917.0</ele><time>2026-03-24T15:35:09.938Z</time></trkpt><trkpt lat="40.7739372" lon="-3.5753368"><ele>917.9999999999999</ele><time>2026-03-24T15:35:11.925Z</time></trkpt><trkpt lat="40.7738344" lon="-3.5752132"><ele>918.9999999999999</ele><time>2026-03-24T15:35:13.96Z</time></trkpt><trkpt lat="40.7737912" lon="-3.5751125"><ele>920.0</ele><time>2026-03-24T15:35:14.95Z</time></trkpt><trkpt lat="40.7737591" lon="-3.5750108"><ele>921.0</ele><time>2026-03-24T15:35:15.928Z</time></trkpt><trkpt lat="40.7737396" lon="-3.5749271"><ele>921.0</ele><time>2026-03-24T15:35:16.933Z</time></trkpt><trkpt lat="40.7737145" lon="-3.5748175"><ele>921.0</ele><time>2026-03-24T15:35:17.944Z</time></trkpt><trkpt lat="40.7736957" lon="-3.5747227"><ele>921.0</ele><time>2026-03-24T15:35:18.966Z</time></trkpt><trkpt lat="40.773671" lon="-3.5746273"><ele>921.0</ele><time>2026-03-24T15:35:19.951Z</time></trkpt><trkpt lat="40.7736442" lon="-3.5745375"><ele>921.0</ele><time>2026-03-24T15:35:20.956Z</time></trkpt><trkpt lat="40.7736275" lon="-3.5744531"><ele>921.0</ele><time>2026-03-24T15:35:21.937Z</time></trkpt><trkpt lat="40.7736212" lon="-3.5743528"><ele>921.6666666666666</ele><time>2026-03-24T15:35:22.941Z</time></trkpt><trkpt lat="40.7736181" lon="-3.5742376"><ele>922.3333333333333</ele><time>2026-03-24T15:35:23.927Z</time></trkpt><trkpt lat="40.7736117" lon="-3.5741369"><ele>923.0</ele><time>2026-03-24T15:35:24.943Z</time></trkpt><trkpt lat="40.7736083" lon="-3.5740389"><ele>923.6666666666666</ele><time>2026-03-24T15:35:25.938Z</time></trkpt><trkpt lat="40.7736052" lon="-3.5739449"><ele>924.3333333333333</ele><time>2026-03-24T15:35:26.947Z</time></trkpt><trkpt lat="40.773602" lon="-3.5737928"><ele>925.0</ele><time>2026-03-24T15:35:28.954Z</time></trkpt><trkpt lat="40.7736145" lon="-3.5736775"><ele>925.6</ele><time>2026-03-24T15:35:30.944Z</time></trkpt><trkpt lat="40.773622" lon="-3.5735082"><ele>926.2</ele><time>2026-03-24T15:35:32.936Z</time></trkpt><trkpt lat="40.7736312" lon="-3.5734158"><ele>926.8</ele><time>2026-03-24T15:35:33.964Z</time></trkpt><trkpt lat="40.7736419" lon="-3.5733316"><ele>927.4</ele><time>2026-03-24T15:35:34.945Z</time></trkpt><trkpt lat="40.7736568" lon="-3.5731975"><ele>928.0</ele><time>2026-03-24T15:35:36.94Z</time></trkpt><trkpt lat="40.7736738" lon="-3.5730835"><ele>928.0</ele><time>2026-03-24T15:35:38.928Z</time></trkpt><trkpt lat="40.7736742" lon="-3.5729741"><ele>928.0</ele><time>2026-03-24T15:35:40.918Z</time></trkpt><trkpt lat="40.7736617" lon="-3.5728503"><ele>928.0</ele><time>2026-03-24T15:35:42.943Z</time></trkpt><trkpt lat="40.7736948" lon="-3.5727285"><ele>928.0</ele><time>2026-03-24T15:35:44.927Z</time></trkpt><trkpt lat="40.7737171" lon="-3.5725936"><ele>928.0</ele><time>2026-03-24T15:35:46.922Z</time></trkpt><trkpt lat="40.7737224" lon="-3.5724508"><ele>926.8</ele><time>2026-03-24T15:35:48.945Z</time></trkpt><trkpt lat="40.7737215" lon="-3.5723631"><ele>925.5999999999999</ele><time>2026-03-24T15:35:49.924Z</time></trkpt><trkpt lat="40.773722" lon="-3.5722736"><ele>924.4000000000001</ele><time>2026-03-24T15:35:50.948Z</time></trkpt><trkpt lat="40.7737163" lon="-3.5721223"><ele>923.2</ele><time>2026-03-24T15:35:52.964Z</time></trkpt><trkpt lat="40.7737181" lon="-3.5719455"><ele>922.0</ele><time>2026-03-24T15:35:54.948Z</time></trkpt><trkpt lat="40.7737376" lon="-3.571783"><ele>921.0</ele><time>2026-03-24T15:35:56.93Z</time></trkpt><trkpt lat="40.7737461" lon="-3.5716172"><ele>920.0</ele><time>2026-03-24T15:35:58.956Z</time></trkpt><trkpt lat="40.7737485" lon="-3.5714527"><ele>919.0</ele><time>2026-03-24T15:36:00.945Z</time></trkpt><trkpt lat="40.7737501" lon="-3.5713602"><ele>918.0</ele><time>2026-03-24T15:36:01.937Z</time></trkpt><trkpt lat="40.7737569" lon="-3.5712735"><ele>917.0</ele><time>2026-03-24T15:36:02.964Z</time></trkpt><trkpt lat="40.7737643" lon="-3.5711864"><ele>916.1666666666667</ele><time>2026-03-24T15:36:03.954Z</time></trkpt><trkpt lat="40.7737687" lon="-3.571101"><ele>915.3333333333334</ele><time>2026-03-24T15:36:04.941Z</time></trkpt><trkpt lat="40.773786" lon="-3.5709451"><ele>914.5</ele><time>2026-03-24T15:36:06.948Z</time></trkpt><trkpt lat="40.7737956" lon="-3.570855"><ele>913.6666666666667</ele><time>2026-03-24T15:36:07.943Z</time></trkpt><trkpt lat="40.773804" lon="-3.5707679"><ele>912.8333333333334</ele><time>2026-03-24T15:36:08.927Z</time></trkpt><trkpt lat="40.7738107" lon="-3.5706814"><ele>912.0</ele><time>2026-03-24T15:36:09.941Z</time></trkpt><trkpt lat="40.7738298" lon="-3.5705865"><ele>912.0</ele><time>2026-03-24T15:36:10.956Z</time></trkpt><trkpt lat="40.7738415" lon="-3.5704936"><ele>911.9999999999999</ele><time>2026-03-24T15:36:11.943Z</time></trkpt><trkpt lat="40.7738444" lon="-3.5704067"><ele>912.0</ele><time>2026-03-24T15:36:12.959Z</time></trkpt><trkpt lat="40.7738308" lon="-3.5703105"><ele>912.0</ele><time>2026-03-24T15:36:13.953Z</time></trkpt><trkpt lat="40.7738091" lon="-3.5702153"><ele>911.9999999999999</ele><time>2026-03-24T15:36:14.947Z</time></trkpt><trkpt lat="40.773786" lon="-3.570124"><ele>912.0</ele><time>2026-03-24T15:36:15.944Z</time></trkpt><trkpt lat="40.7737692" lon="-3.5700355"><ele>912.0</ele><time>2026-03-24T15:36:16.95Z</time></trkpt><trkpt lat="40.7737542" lon="-3.5699431"><ele>911.6</ele><time>2026-03-24T15:36:17.959Z</time></trkpt><trkpt lat="40.7737396" lon="-3.5698405"><ele>911.2</ele><time>2026-03-24T15:36:18.953Z</time></trkpt><trkpt lat="40.7737113" lon="-3.5697084"><ele>910.8</ele><time>2026-03-24T15:36:20.953Z</time></trkpt><trkpt lat="40.7736834" lon="-3.5696164"><ele>910.4</ele><time>2026-03-24T15:36:22.945Z</time></trkpt><trkpt lat="40.7736042" lon="-3.5695033"><ele>910.0</ele><time>2026-03-24T15:36:24.946Z</time></trkpt><trkpt lat="40.7735485" lon="-3.5694293"><ele>910.0</ele><time>2026-03-24T15:36:25.947Z</time></trkpt><trkpt lat="40.7734925" lon="-3.5693451"><ele>910.0</ele><time>2026-03-24T15:36:26.919Z</time></trkpt><trkpt lat="40.7734343" lon="-3.5692724"><ele>910.0</ele><time>2026-03-24T15:36:27.936Z</time></trkpt><trkpt lat="40.7733623" lon="-3.5691884"><ele>910.0</ele><time>2026-03-24T15:36:28.926Z</time></trkpt><trkpt lat="40.7732859" lon="-3.5691036"><ele>910.0</ele><time>2026-03-24T15:36:29.928Z</time></trkpt><trkpt lat="40.7732064" lon="-3.5690098"><ele>910.0</ele><time>2026-03-24T15:36:30.928Z</time></trkpt><trkpt lat="40.7731198" lon="-3.5689228"><ele>910.0</ele><time>2026-03-24T15:36:31.924Z</time></trkpt><trkpt lat="40.7730384" lon="-3.5688375"><ele>910.0</ele><time>2026-03-24T15:36:32.918Z</time></trkpt><trkpt lat="40.7729598" lon="-3.5687604"><ele>910.0</ele><time>2026-03-24T15:36:33.927Z</time></trkpt><trkpt lat="40.7728917" lon="-3.5686824"><ele>910.0</ele><time>2026-03-24T15:36:34.931Z</time></trkpt><trkpt lat="40.7728238" lon="-3.5686098"><ele>910.4999999999999</ele><time>2026-03-24T15:36:35.919Z</time></trkpt><trkpt lat="40.7727628" lon="-3.5685262"><ele>911.0</ele><time>2026-03-24T15:36:36.913Z</time></trkpt><trkpt lat="40.7727114" lon="-3.5684439"><ele>911.5</ele><time>2026-03-24T15:36:37.919Z</time></trkpt><trkpt lat="40.7726371" lon="-3.5683116"><ele>912.0</ele><time>2026-03-24T15:36:39.924Z</time></trkpt><trkpt lat="40.7725977" lon="-3.5682417"><ele>912.4999999999999</ele><time>2026-03-24T15:36:40.935Z</time></trkpt><trkpt lat="40.7725606" lon="-3.5681695"><ele>913.0</ele><time>2026-03-24T15:36:41.926Z</time></trkpt><trkpt lat="40.7725267" lon="-3.5680982"><ele>913.0</ele><time>2026-03-24T15:36:42.93Z</time></trkpt><trkpt lat="40.7724933" lon="-3.5680095"><ele>913.0</ele><time>2026-03-24T15:36:43.933Z</time></trkpt><trkpt lat="40.7724547" lon="-3.5679282"><ele>913.0</ele><time>2026-03-24T15:36:44.935Z</time></trkpt><trkpt lat="40.7723919" lon="-3.5677878"><ele>913.0</ele><time>2026-03-24T15:36:46.917Z</time></trkpt><trkpt lat="40.7723331" lon="-3.5676644"><ele>913.0</ele><time>2026-03-24T15:36:48.914Z</time></trkpt><trkpt lat="40.7722684" lon="-3.5675467"><ele>913.1666666666666</ele><time>2026-03-24T15:36:50.94Z</time></trkpt><trkpt lat="40.7722248" lon="-3.5674044"><ele>913.3333333333333</ele><time>2026-03-24T15:36:52.947Z</time></trkpt><trkpt lat="40.7722325" lon="-3.5673123"><ele>913.5</ele><time>2026-03-24T15:36:53.942Z</time></trkpt><trkpt lat="40.7722449" lon="-3.5672178"><ele>913.6666666666667</ele><time>2026-03-24T15:36:54.921Z</time></trkpt><trkpt lat="40.7722589" lon="-3.5671269"><ele>913.8333333333334</ele><time>2026-03-24T15:36:55.937Z</time></trkpt><trkpt lat="40.7722772" lon="-3.5670356"><ele>914.0</ele><time>2026-03-24T15:36:56.916Z</time></trkpt><trkpt lat="40.7722829" lon="-3.5669394"><ele>912.8333333333334</ele><time>2026-03-24T15:36:57.938Z</time></trkpt><trkpt lat="40.7722909" lon="-3.5668449"><ele>911.6666666666667</ele><time>2026-03-24T15:36:58.926Z</time></trkpt><trkpt lat="40.7722933" lon="-3.5667514"><ele>910.5</ele><time>2026-03-24T15:36:59.929Z</time></trkpt><trkpt lat="40.7722809" lon="-3.5666572"><ele>909.3333333333333</ele><time>2026-03-24T15:37:00.941Z</time></trkpt><trkpt lat="40.7722639" lon="-3.56656"><ele>908.1666666666666</ele><time>2026-03-24T15:37:01.913Z</time></trkpt><trkpt lat="40.7722622" lon="-3.5664485"><ele>907.0</ele><time>2026-03-24T15:37:02.914Z</time></trkpt><trkpt lat="40.7722679" lon="-3.5663384"><ele>906.9999999999999</ele><time>2026-03-24T15:37:03.915Z</time></trkpt><trkpt lat="40.7722841" lon="-3.5662234"><ele>907.0</ele><time>2026-03-24T15:37:04.911Z</time></trkpt><trkpt lat="40.7722961" lon="-3.5661106"><ele>907.0</ele><time>2026-03-24T15:37:05.914Z</time></trkpt><trkpt lat="40.7723093" lon="-3.565994"><ele>907.0</ele><time>2026-03-24T15:37:06.909Z</time></trkpt><trkpt lat="40.7723192" lon="-3.5658751"><ele>906.9999999999999</ele><time>2026-03-24T15:37:07.92Z</time></trkpt><trkpt lat="40.7723236" lon="-3.565752"><ele>907.0</ele><time>2026-03-24T15:37:08.913Z</time></trkpt><trkpt lat="40.7723315" lon="-3.565634"><ele>906.2</ele><time>2026-03-24T15:37:09.936Z</time></trkpt><trkpt lat="40.7723415" lon="-3.5655117"><ele>905.4000000000001</ele><time>2026-03-24T15:37:10.953Z</time></trkpt><trkpt lat="40.7723589" lon="-3.565392"><ele>904.5999999999999</ele><time>2026-03-24T15:37:11.961Z</time></trkpt><trkpt lat="40.7723742" lon="-3.5652733"><ele>903.8</ele><time>2026-03-24T15:37:12.932Z</time></trkpt><trkpt lat="40.7723954" lon="-3.5651616"><ele>903.0</ele><time>2026-03-24T15:37:13.97Z</time></trkpt><trkpt lat="40.7724211" lon="-3.5650499"><ele>903.0</ele><time>2026-03-24T15:37:14.95Z</time></trkpt><trkpt lat="40.7724497" lon="-3.564946"><ele>903.0</ele><time>2026-03-24T15:37:15.929Z</time></trkpt><trkpt lat="40.7724788" lon="-3.564857"><ele>903.0</ele><time>2026-03-24T15:37:16.923Z</time></trkpt><trkpt lat="40.7725152" lon="-3.5647703"><ele>903.0</ele><time>2026-03-24T15:37:17.928Z</time></trkpt><trkpt lat="40.7725578" lon="-3.5646974"><ele>903.0</ele><time>2026-03-24T15:37:18.926Z</time></trkpt><trkpt lat="40.7726121" lon="-3.5646229"><ele>903.0</ele><time>2026-03-24T15:37:19.941Z</time></trkpt><trkpt lat="40.7726719" lon="-3.5645529"><ele>901.8</ele><time>2026-03-24T15:37:20.946Z</time></trkpt><trkpt lat="40.7727419" lon="-3.5644809"><ele>900.5999999999999</ele><time>2026-03-24T15:37:21.946Z</time></trkpt><trkpt lat="40.7728207" lon="-3.564408"><ele>899.4000000000001</ele><time>2026-03-24T15:37:22.961Z</time></trkpt><trkpt lat="40.7728982" lon="-3.5643348"><ele>898.2</ele><time>2026-03-24T15:37:23.95Z</time></trkpt><trkpt lat="40.7729715" lon="-3.5642631"><ele>897.0</ele><time>2026-03-24T15:37:24.954Z</time></trkpt><trkpt lat="40.7730438" lon="-3.5641902"><ele>897.0</ele><time>2026-03-24T15:37:25.934Z</time></trkpt><trkpt lat="40.7731114" lon="-3.5641208"><ele>897.0</ele><time>2026-03-24T15:37:26.944Z</time></trkpt><trkpt lat="40.7731717" lon="-3.5640407"><ele>897.0</ele><time>2026-03-24T15:37:27.947Z</time></trkpt><trkpt lat="40.7732245" lon="-3.5639428"><ele>897.0</ele><time>2026-03-24T15:37:28.966Z</time></trkpt><trkpt lat="40.773262" lon="-3.5638375"><ele>897.0</ele><time>2026-03-24T15:37:29.929Z</time></trkpt><trkpt lat="40.7732752" lon="-3.5637238"><ele>897.0</ele><time>2026-03-24T15:37:30.972Z</time></trkpt><trkpt lat="40.7732769" lon="-3.5636091"><ele>897.3333333333334</ele><time>2026-03-24T15:37:31.938Z</time></trkpt><trkpt lat="40.7732715" lon="-3.5634972"><ele>897.6666666666667</ele><time>2026-03-24T15:37:32.975Z</time></trkpt><trkpt lat="40.7732409" lon="-3.5633878"><ele>898.0</ele><time>2026-03-24T15:37:33.923Z</time></trkpt><trkpt lat="40.7731921" lon="-3.5633018"><ele>898.3333333333334</ele><time>2026-03-24T15:37:34.917Z</time></trkpt><trkpt lat="40.7731442" lon="-3.5632369"><ele>898.6666666666667</ele><time>2026-03-24T15:37:35.92Z</time></trkpt><trkpt lat="40.7730751" lon="-3.563223"><ele>899.0</ele><time>2026-03-24T15:37:37.912Z</time></trkpt><trkpt lat="40.7729958" lon="-3.5633397"><ele>899.0000000000001</ele><time>2026-03-24T15:37:39.92Z</time></trkpt><trkpt lat="40.7729491" lon="-3.5634128"><ele>899.0</ele><time>2026-03-24T15:37:40.929Z</time></trkpt><trkpt lat="40.7728922" lon="-3.5634951"><ele>899.0</ele><time>2026-03-24T15:37:41.913Z</time></trkpt><trkpt lat="40.7728192" lon="-3.5635927"><ele>899.0</ele><time>2026-03-24T15:37:42.921Z</time></trkpt><trkpt lat="40.7727515" lon="-3.5636773"><ele>899.0000000000001</ele><time>2026-03-24T15:37:43.926Z</time></trkpt><trkpt lat="40.7726793" lon="-3.5637463"><ele>899.0</ele><time>2026-03-24T15:37:44.917Z</time></trkpt><trkpt lat="40.7726036" lon="-3.563813"><ele>901.0</ele><time>2026-03-24T15:37:45.923Z</time></trkpt><trkpt lat="40.7725154" lon="-3.5638689"><ele>903.0000000000001</ele><time>2026-03-24T15:37:46.927Z</time></trkpt><trkpt lat="40.7724294" lon="-3.5639137"><ele>905.0000000000001</ele><time>2026-03-24T15:37:47.929Z</time></trkpt><trkpt lat="40.7723426" lon="-3.5639481"><ele>907.0</ele><time>2026-03-24T15:37:48.929Z</time></trkpt><trkpt lat="40.7722545" lon="-3.5639876"><ele>909.0</ele><time>2026-03-24T15:37:49.941Z</time></trkpt><trkpt lat="40.7721659" lon="-3.5640137"><ele>909.0</ele><time>2026-03-24T15:37:50.939Z</time></trkpt><trkpt lat="40.7720908" lon="-3.5640123"><ele>909.0</ele><time>2026-03-24T15:37:51.927Z</time></trkpt><trkpt lat="40.772015" lon="-3.5639847"><ele>909.0</ele><time>2026-03-24T15:37:52.929Z</time></trkpt><trkpt lat="40.7719287" lon="-3.5639499"><ele>909.0</ele><time>2026-03-24T15:37:53.929Z</time></trkpt><trkpt lat="40.7718417" lon="-3.5639266"><ele>909.0</ele><time>2026-03-24T15:37:54.953Z</time></trkpt><trkpt lat="40.7717547" lon="-3.5639241"><ele>909.0</ele><time>2026-03-24T15:37:55.936Z</time></trkpt><trkpt lat="40.77168" lon="-3.5639326"><ele>910.0</ele><time>2026-03-24T15:37:56.954Z</time></trkpt><trkpt lat="40.7715978" lon="-3.563837"><ele>911.0000000000001</ele><time>2026-03-24T15:37:58.958Z</time></trkpt><trkpt lat="40.7715741" lon="-3.5637437"><ele>912.0000000000001</ele><time>2026-03-24T15:37:59.955Z</time></trkpt><trkpt lat="40.7715622" lon="-3.5636404"><ele>913.0</ele><time>2026-03-24T15:38:00.955Z</time></trkpt><trkpt lat="40.7715482" lon="-3.5635504"><ele>914.0</ele><time>2026-03-24T15:38:01.94Z</time></trkpt><trkpt lat="40.7715838" lon="-3.5633875"><ele>914.2</ele><time>2026-03-24T15:38:03.962Z</time></trkpt><trkpt lat="40.7716278" lon="-3.563305"><ele>914.4000000000001</ele><time>2026-03-24T15:38:04.944Z</time></trkpt><trkpt lat="40.7716715" lon="-3.5632256"><ele>914.6</ele><time>2026-03-24T15:38:05.937Z</time></trkpt><trkpt lat="40.7717394" lon="-3.5631024"><ele>914.8</ele><time>2026-03-24T15:38:07.947Z</time></trkpt><trkpt lat="40.7718139" lon="-3.5629714"><ele>915.0</ele><time>2026-03-24T15:38:09.936Z</time></trkpt><trkpt lat="40.771863" lon="-3.5629044"><ele>914.8333333333334</ele><time>2026-03-24T15:38:10.943Z</time></trkpt><trkpt lat="40.7719177" lon="-3.5628444"><ele>914.6666666666667</ele><time>2026-03-24T15:38:11.946Z</time></trkpt><trkpt lat="40.7719896" lon="-3.5627424"><ele>914.5</ele><time>2026-03-24T15:38:13.934Z</time></trkpt><trkpt lat="40.772045" lon="-3.5626794"><ele>914.3333333333334</ele><time>2026-03-24T15:38:15.94Z</time></trkpt><trkpt lat="40.77211" lon="-3.562614"><ele>914.1666666666667</ele><time>2026-03-24T15:38:18.952Z</time></trkpt><trkpt lat="40.7720482" lon="-3.5626707"><ele>914.0</ele><time>2026-03-24T15:44:41.934Z</time></trkpt><trkpt lat="40.7720062" lon="-3.5627377"><ele>914.0</ele><time>2026-03-24T15:44:43.953Z</time></trkpt><trkpt lat="40.7719217" lon="-3.5628318"><ele>914.0000000000001</ele><time>2026-03-24T15:44:45.965Z</time></trkpt><trkpt lat="40.7718497" lon="-3.5629428"><ele>914.0000000000001</ele><time>2026-03-24T15:44:47.947Z</time></trkpt><trkpt lat="40.7717685" lon="-3.5630455"><ele>914.0</ele><time>2026-03-24T15:44:49.939Z</time></trkpt><trkpt lat="40.7717247" lon="-3.5631147"><ele>914.0</ele><time>2026-03-24T15:44:50.942Z</time></trkpt><trkpt lat="40.7716797" lon="-3.5631934"><ele>914.0000000000001</ele><time>2026-03-24T15:44:51.948Z</time></trkpt><trkpt lat="40.7716357" lon="-3.5632713"><ele>914.0</ele><time>2026-03-24T15:44:52.951Z</time></trkpt><trkpt lat="40.7715958" lon="-3.5633507"><ele>914.0</ele><time>2026-03-24T15:44:53.964Z</time></trkpt><trkpt lat="40.7715633" lon="-3.5634294"><ele>914.0</ele><time>2026-03-24T15:44:54.955Z</time></trkpt><trkpt lat="40.7715477" lon="-3.5635705"><ele>914.0000000000001</ele><time>2026-03-24T15:44:56.977Z</time></trkpt><trkpt lat="40.7715647" lon="-3.5636582"><ele>914.0</ele><time>2026-03-24T15:44:57.918Z</time></trkpt><trkpt lat="40.7715763" lon="-3.5637611"><ele>914.0000000000001</ele><time>2026-03-24T15:44:58.907Z</time></trkpt><trkpt lat="40.7715902" lon="-3.5638515"><ele>914.0</ele><time>2026-03-24T15:44:59.931Z</time></trkpt><trkpt lat="40.7716205" lon="-3.5639262"><ele>914.0000000000001</ele><time>2026-03-24T15:45:00.929Z</time></trkpt><trkpt lat="40.7717033" lon="-3.563952"><ele>914.0000000000001</ele><time>2026-03-24T15:45:03.024Z</time></trkpt><trkpt lat="40.7717701" lon="-3.5639368"><ele>914.0</ele><time>2026-03-24T15:45:03.946Z</time></trkpt><trkpt lat="40.7718396" lon="-3.5639266"><ele>914.0000000000001</ele><time>2026-03-24T15:45:04.968Z</time></trkpt><trkpt lat="40.7719036" lon="-3.5639427"><ele>914.0000000000001</ele><time>2026-03-24T15:45:05.952Z</time></trkpt><trkpt lat="40.7719634" lon="-3.563971"><ele>913.0</ele><time>2026-03-24T15:45:06.952Z</time></trkpt><trkpt lat="40.7720554" lon="-3.5639977"><ele>912.0000000000001</ele><time>2026-03-24T15:45:08.95Z</time></trkpt><trkpt lat="40.7721404" lon="-3.5639961"><ele>911.0000000000001</ele><time>2026-03-24T15:45:10.953Z</time></trkpt><trkpt lat="40.7722695" lon="-3.563953"><ele>910.0</ele><time>2026-03-24T15:45:12.938Z</time></trkpt><trkpt lat="40.7723495" lon="-3.5639219"><ele>909.0</ele><time>2026-03-24T15:45:13.954Z</time></trkpt><trkpt lat="40.7724261" lon="-3.5638883"><ele>909.0</ele><time>2026-03-24T15:45:14.956Z</time></trkpt><trkpt lat="40.7725031" lon="-3.5638437"><ele>909.0</ele><time>2026-03-24T15:45:15.962Z</time></trkpt><trkpt lat="40.7725822" lon="-3.5637953"><ele>909.0</ele><time>2026-03-24T15:45:16.944Z</time></trkpt><trkpt lat="40.7726584" lon="-3.5637407"><ele>909.0</ele><time>2026-03-24T15:45:17.926Z</time></trkpt><trkpt lat="40.7727213" lon="-3.5636809"><ele>909.0</ele><time>2026-03-24T15:45:18.929Z</time></trkpt><trkpt lat="40.7727756" lon="-3.5636101"><ele>909.0</ele><time>2026-03-24T15:45:19.944Z</time></trkpt><trkpt lat="40.772841" lon="-3.5635284"><ele>907.3333333333334</ele><time>2026-03-24T15:45:20.965Z</time></trkpt><trkpt lat="40.7729046" lon="-3.563441"><ele>905.6666666666667</ele><time>2026-03-24T15:45:21.935Z</time></trkpt><trkpt lat="40.7729513" lon="-3.5633588"><ele>904.0</ele><time>2026-03-24T15:45:22.947Z</time></trkpt><trkpt lat="40.7729976" lon="-3.563293"><ele>902.3333333333334</ele><time>2026-03-24T15:45:23.964Z</time></trkpt><trkpt lat="40.7730706" lon="-3.5632182"><ele>900.6666666666667</ele><time>2026-03-24T15:45:25.947Z</time></trkpt><trkpt lat="40.7731519" lon="-3.5632504"><ele>899.0</ele><time>2026-03-24T15:45:27.916Z</time></trkpt><trkpt lat="40.7731956" lon="-3.563362"><ele>899.0</ele><time>2026-03-24T15:45:29.943Z</time></trkpt><trkpt lat="40.7732507" lon="-3.5634889"><ele>899.0000000000001</ele><time>2026-03-24T15:45:31.958Z</time></trkpt><trkpt lat="40.7732634" lon="-3.5636211"><ele>899.0000000000001</ele><time>2026-03-24T15:45:33.926Z</time></trkpt><trkpt lat="40.7732452" lon="-3.5637402"><ele>899.0</ele><time>2026-03-24T15:45:35.952Z</time></trkpt><trkpt lat="40.7732336" lon="-3.5638476"><ele>899.0</ele><time>2026-03-24T15:45:37.936Z</time></trkpt><trkpt lat="40.7731986" lon="-3.5639423"><ele>899.0000000000001</ele><time>2026-03-24T15:45:39.92Z</time></trkpt><trkpt lat="40.7731566" lon="-3.5640084"><ele>899.0</ele><time>2026-03-24T15:45:41.96Z</time></trkpt><trkpt lat="40.7732291" lon="-3.5640348"><ele>899.0</ele><time>2026-03-24T15:45:47.91Z</time></trkpt><trkpt lat="40.7733095" lon="-3.5639656"><ele>899.0</ele><time>2026-03-24T15:45:50.931Z</time></trkpt><trkpt lat="40.7733815" lon="-3.5638789"><ele>899.0000000000001</ele><time>2026-03-24T15:45:52.92Z</time></trkpt><trkpt lat="40.773428" lon="-3.5637596"><ele>899.0</ele><time>2026-03-24T15:45:54.932Z</time></trkpt><trkpt lat="40.7734703" lon="-3.5636114"><ele>899.0</ele><time>2026-03-24T15:45:56.957Z</time></trkpt><trkpt lat="40.7734994" lon="-3.5634712"><ele>899.0000000000001</ele><time>2026-03-24T15:45:58.93Z</time></trkpt><trkpt lat="40.7735273" lon="-3.5633207"><ele>899.0000000000001</ele><time>2026-03-24T15:46:00.947Z</time></trkpt><trkpt lat="40.7735521" lon="-3.5631889"><ele>899.0</ele><time>2026-03-24T15:46:02.96Z</time></trkpt><trkpt lat="40.7735694" lon="-3.5630749"><ele>899.0</ele><time>2026-03-24T15:46:04.926Z</time></trkpt><trkpt lat="40.7736041" lon="-3.5629702"><ele>898.2857142857141</ele><time>2026-03-24T15:46:06.93Z</time></trkpt><trkpt lat="40.7736343" lon="-3.5628792"><ele>897.5714285714286</ele><time>2026-03-24T15:46:08.945Z</time></trkpt><trkpt lat="40.7736557" lon="-3.5627864"><ele>896.8571428571428</ele><time>2026-03-24T15:46:11.956Z</time></trkpt><trkpt lat="40.7736858" lon="-3.5626942"><ele>896.1428571428571</ele><time>2026-03-24T15:46:14.953Z</time></trkpt><trkpt lat="40.7737107" lon="-3.5625952"><ele>895.4285714285713</ele><time>2026-03-24T15:46:17.939Z</time></trkpt><trkpt lat="40.7737323" lon="-3.5625042"><ele>894.7142857142857</ele><time>2026-03-24T15:46:19.954Z</time></trkpt><trkpt lat="40.7737347" lon="-3.5624136"><ele>894.0</ele><time>2026-03-24T15:46:21.959Z</time></trkpt><trkpt lat="40.7737464" lon="-3.562299"><ele>893.5714285714286</ele><time>2026-03-24T15:46:24.963Z</time></trkpt><trkpt lat="40.7737635" lon="-3.5622027"><ele>893.1428571428571</ele><time>2026-03-24T15:46:28.961Z</time></trkpt><trkpt lat="40.7737671" lon="-3.5621148"><ele>892.7142857142858</ele><time>2026-03-24T15:46:31.955Z</time></trkpt><trkpt lat="40.7737953" lon="-3.5620273"><ele>892.2857142857142</ele><time>2026-03-24T15:46:34.933Z</time></trkpt><trkpt lat="40.7738136" lon="-3.5619297"><ele>891.8571428571429</ele><time>2026-03-24T15:46:37.929Z</time></trkpt><trkpt lat="40.7738032" lon="-3.5618232"><ele>891.4285714285714</ele><time>2026-03-24T15:46:41.937Z</time></trkpt><trkpt lat="40.7738076" lon="-3.5617295"><ele>891.0</ele><time>2026-03-24T15:46:46.954Z</time></trkpt><trkpt lat="40.7738247" lon="-3.5616456"><ele>890.4285714285714</ele><time>2026-03-24T15:46:51.95Z</time></trkpt><trkpt lat="40.7738303" lon="-3.5615484"><ele>889.8571428571429</ele><time>2026-03-24T15:46:56.942Z</time></trkpt><trkpt lat="40.7738384" lon="-3.5614567"><ele>889.2857142857142</ele><time>2026-03-24T15:47:00.93Z</time></trkpt><trkpt lat="40.773826" lon="-3.5613642"><ele>888.7142857142858</ele><time>2026-03-24T15:47:05.914Z</time></trkpt><trkpt lat="40.7738396" lon="-3.5612795"><ele>888.1428571428571</ele><time>2026-03-24T15:47:11.927Z</time></trkpt><trkpt lat="40.7738203" lon="-3.5611883"><ele>887.5714285714286</ele><time>2026-03-24T15:47:18.936Z</time></trkpt><trkpt lat="40.7738329" lon="-3.5611055"><ele>887.0</ele><time>2026-03-24T15:47:22.94Z</time></trkpt><trkpt lat="40.7738292" lon="-3.561006"><ele>886.1428571428571</ele><time>2026-03-24T15:47:26.937Z</time></trkpt><trkpt lat="40.7738298" lon="-3.5609149"><ele>885.2857142857142</ele><time>2026-03-24T15:47:28.936Z</time></trkpt><trkpt lat="40.7738462" lon="-3.5608154"><ele>884.4285714285713</ele><time>2026-03-24T15:47:31.925Z</time></trkpt><trkpt lat="40.7738488" lon="-3.5607155"><ele>883.5714285714286</ele><time>2026-03-24T15:47:36.947Z</time></trkpt><trkpt lat="40.7738601" lon="-3.5606188"><ele>882.7142857142858</ele><time>2026-03-24T15:47:42.944Z</time></trkpt><trkpt lat="40.7738633" lon="-3.560534"><ele>881.8571428571428</ele><time>2026-03-24T15:47:55.948Z</time></trkpt><trkpt lat="40.7738852" lon="-3.5604375"><ele>881.0</ele><time>2026-03-24T15:47:58.956Z</time></trkpt><trkpt lat="40.7739184" lon="-3.5603611"><ele>879.8571428571428</ele><time>2026-03-24T15:48:06.94Z</time></trkpt><trkpt lat="40.7739401" lon="-3.5602803"><ele>878.7142857142858</ele><time>2026-03-24T15:48:19.94Z</time></trkpt><trkpt lat="40.773973" lon="-3.560187"><ele>877.5714285714286</ele><time>2026-03-24T15:48:22.959Z</time></trkpt><trkpt lat="40.7740055" lon="-3.5600954"><ele>876.4285714285713</ele><time>2026-03-24T15:48:24.953Z</time></trkpt><trkpt lat="40.774019" lon="-3.5600006"><ele>875.2857142857142</ele><time>2026-03-24T15:48:26.934Z</time></trkpt><trkpt lat="40.7740075" lon="-3.5599135"><ele>874.1428571428571</ele><time>2026-03-24T15:48:31.951Z</time></trkpt><trkpt lat="40.7740244" lon="-3.5598156"><ele>873.0</ele><time>2026-03-24T15:48:40.923Z</time></trkpt><trkpt lat="40.7740463" lon="-3.559727"><ele>872.9999999999999</ele><time>2026-03-24T15:48:44.938Z</time></trkpt><trkpt lat="40.7740618" lon="-3.5596353"><ele>873.0</ele><time>2026-03-24T15:48:51.931Z</time></trkpt><trkpt lat="40.7740548" lon="-3.5595493"><ele>873.0</ele><time>2026-03-24T15:48:58.951Z</time></trkpt><trkpt lat="40.7740546" lon="-3.5594525"><ele>873.0</ele><time>2026-03-24T15:49:02.947Z</time></trkpt><trkpt lat="40.7740591" lon="-3.5593374"><ele>873.0</ele><time>2026-03-24T15:49:05.934Z</time></trkpt><trkpt lat="40.7740657" lon="-3.5592523"><ele>872.9999999999999</ele><time>2026-03-24T15:49:08.942Z</time></trkpt><trkpt lat="40.7740751" lon="-3.5591573"><ele>873.0</ele><time>2026-03-24T15:49:29.936Z</time></trkpt><trkpt lat="40.7741104" lon="-3.5590847"><ele>871.9999999999999</ele><time>2026-03-24T15:49:32.913Z</time></trkpt><trkpt lat="40.7741489" lon="-3.5590155"><ele>871.0</ele><time>2026-03-24T15:49:48.905Z</time></trkpt><trkpt lat="40.7741358" lon="-3.5589316"><ele>870.0</ele><time>2026-03-24T15:50:08.939Z</time></trkpt><trkpt lat="40.7741531" lon="-3.5588505"><ele>869.0</ele><time>2026-03-24T15:50:31.917Z</time></trkpt><trkpt lat="40.7741309" lon="-3.5587602"><ele>868.0</ele><time>2026-03-24T15:50:38.938Z</time></trkpt><trkpt lat="40.7741379" lon="-3.5586595"><ele>866.9999999999999</ele><time>2026-03-24T15:50:45.943Z</time></trkpt><trkpt lat="40.7741423" lon="-3.5585474"><ele>866.0</ele><time>2026-03-24T15:50:48.919Z</time></trkpt><trkpt lat="40.7741459" lon="-3.5584435"><ele>865.0000000000001</ele><time>2026-03-24T15:50:51.907Z</time></trkpt><trkpt lat="40.7741698" lon="-3.5583439"><ele>864.0</ele><time>2026-03-24T15:50:54.904Z</time></trkpt><trkpt lat="40.7742002" lon="-3.5582592"><ele>863.0</ele><time>2026-03-24T15:50:56.924Z</time></trkpt><trkpt lat="40.7742103" lon="-3.5581434"><ele>862.0</ele><time>2026-03-24T15:50:59.927Z</time></trkpt><trkpt lat="40.7741911" lon="-3.5580483"><ele>861.0000000000001</ele><time>2026-03-24T15:51:02.945Z</time></trkpt><trkpt lat="40.7741595" lon="-3.5579368"><ele>860.0</ele><time>2026-03-24T15:51:36.944Z</time></trkpt><trkpt lat="40.7741489" lon="-3.5578394"><ele>859.5714285714286</ele><time>2026-03-24T15:52:53.951Z</time></trkpt><trkpt lat="40.7741336" lon="-3.5577367"><ele>859.1428571428572</ele><time>2026-03-24T15:52:56.93Z</time></trkpt><trkpt lat="40.7740918" lon="-3.5576682"><ele>858.7142857142858</ele><time>2026-03-24T15:52:59.949Z</time></trkpt><trkpt lat="40.7740589" lon="-3.557597"><ele>858.2857142857142</ele><time>2026-03-24T15:53:14.926Z</time></trkpt><trkpt lat="40.7740352" lon="-3.5575192"><ele>857.8571428571429</ele><time>2026-03-24T15:53:28.906Z</time></trkpt><trkpt lat="40.7740137" lon="-3.5574195"><ele>857.4285714285714</ele><time>2026-03-24T15:53:46.944Z</time></trkpt><trkpt lat="40.7739942" lon="-3.5573305"><ele>857.0</ele><time>2026-03-24T15:53:49.93Z</time></trkpt><trkpt lat="40.7739748" lon="-3.5572313"><ele>857.0000000000001</ele><time>2026-03-24T15:53:52.939Z</time></trkpt><trkpt lat="40.7739496" lon="-3.557114"><ele>857.0</ele><time>2026-03-24T15:53:55.936Z</time></trkpt><trkpt lat="40.7739277" lon="-3.5570306"><ele>857.0</ele><time>2026-03-24T15:53:57.934Z</time></trkpt><trkpt lat="40.7738943" lon="-3.5569273"><ele>857.0</ele><time>2026-03-24T15:54:00.959Z</time></trkpt><trkpt lat="40.7738671" lon="-3.5568348"><ele>857.0000000000001</ele><time>2026-03-24T15:54:02.936Z</time></trkpt><trkpt lat="40.7738298" lon="-3.5567409"><ele>857.0</ele><time>2026-03-24T15:54:05.94Z</time></trkpt><trkpt lat="40.7737765" lon="-3.5566493"><ele>856.8333333333334</ele><time>2026-03-24T15:54:08.945Z</time></trkpt><trkpt lat="40.7737484" lon="-3.5565582"><ele>856.6666666666667</ele><time>2026-03-24T15:54:12.041Z</time></trkpt><trkpt lat="40.7737456" lon="-3.5564426"><ele>856.5</ele><time>2026-03-24T15:54:14.954Z</time></trkpt><trkpt lat="40.7737305" lon="-3.5563409"><ele>856.3333333333333</ele><time>2026-03-24T15:54:18.95Z</time></trkpt><trkpt lat="40.7737114" lon="-3.5562573"><ele>856.1666666666666</ele><time>2026-03-24T15:54:22.022Z</time></trkpt><trkpt lat="40.773695" lon="-3.5561352"><ele>856.0</ele><time>2026-03-24T15:54:24.94Z</time></trkpt><trkpt lat="40.7736936" lon="-3.5560299"><ele>854.4999999999999</ele><time>2026-03-24T15:54:26.935Z</time></trkpt><trkpt lat="40.7737057" lon="-3.5559105"><ele>853.0</ele><time>2026-03-24T15:54:28.921Z</time></trkpt><trkpt lat="40.7737328" lon="-3.5558108"><ele>851.5</ele><time>2026-03-24T15:54:30.956Z</time></trkpt><trkpt lat="40.7737664" lon="-3.5557079"><ele>850.0</ele><time>2026-03-24T15:54:32.94Z</time></trkpt><trkpt lat="40.7737698" lon="-3.5556075"><ele>848.4999999999999</ele><time>2026-03-24T15:54:34.943Z</time></trkpt><trkpt lat="40.7737512" lon="-3.555525"><ele>847.0</ele><time>2026-03-24T15:54:36.92Z</time></trkpt><trkpt lat="40.7737268" lon="-3.5554154"><ele>844.6666666666666</ele><time>2026-03-24T15:54:39.936Z</time></trkpt><trkpt lat="40.7736787" lon="-3.5553247"><ele>842.3333333333333</ele><time>2026-03-24T15:54:42.974Z</time></trkpt><trkpt lat="40.7736369" lon="-3.5552563"><ele>840.0</ele><time>2026-03-24T15:54:44.942Z</time></trkpt><trkpt lat="40.7736108" lon="-3.5551472"><ele>837.6666666666667</ele><time>2026-03-24T15:54:47.943Z</time></trkpt><trkpt lat="40.7735985" lon="-3.555065"><ele>835.3333333333334</ele><time>2026-03-24T15:54:49.928Z</time></trkpt><trkpt lat="40.7735734" lon="-3.5549467"><ele>833.0</ele><time>2026-03-24T15:54:52.917Z</time></trkpt><trkpt lat="40.7735166" lon="-3.5548602"><ele>832.8333333333334</ele><time>2026-03-24T15:54:54.935Z</time></trkpt><trkpt lat="40.7734723" lon="-3.5547651"><ele>832.6666666666667</ele><time>2026-03-24T15:54:56.922Z</time></trkpt><trkpt lat="40.7734564" lon="-3.5546843"><ele>832.5</ele><time>2026-03-24T15:54:58.935Z</time></trkpt><trkpt lat="40.7734385" lon="-3.5545884"><ele>832.3333333333333</ele><time>2026-03-24T15:55:00.95Z</time></trkpt><trkpt lat="40.7734046" lon="-3.5544649"><ele>832.1666666666666</ele><time>2026-03-24T15:55:02.925Z</time></trkpt><trkpt lat="40.7733669" lon="-3.5543351"><ele>832.0</ele><time>2026-03-24T15:55:04.919Z</time></trkpt><trkpt lat="40.7733182" lon="-3.554229"><ele>831.3333333333333</ele><time>2026-03-24T15:55:06.931Z</time></trkpt><trkpt lat="40.7732868" lon="-3.5541235"><ele>830.6666666666666</ele><time>2026-03-24T15:55:08.952Z</time></trkpt><trkpt lat="40.7732505" lon="-3.5540429"><ele>830.0</ele><time>2026-03-24T15:55:10.939Z</time></trkpt><trkpt lat="40.7732281" lon="-3.5539305"><ele>829.3333333333333</ele><time>2026-03-24T15:55:12.936Z</time></trkpt><trkpt lat="40.7732066" lon="-3.5538202"><ele>828.6666666666666</ele><time>2026-03-24T15:55:14.958Z</time></trkpt><trkpt lat="40.7731777" lon="-3.5537086"><ele>828.0</ele><time>2026-03-24T15:55:16.956Z</time></trkpt><trkpt lat="40.7731463" lon="-3.5536"><ele>826.5</ele><time>2026-03-24T15:55:18.942Z</time></trkpt><trkpt lat="40.7731215" lon="-3.5534822"><ele>825.0</ele><time>2026-03-24T15:55:20.938Z</time></trkpt><trkpt lat="40.7730873" lon="-3.5533476"><ele>823.5</ele><time>2026-03-24T15:55:22.929Z</time></trkpt><trkpt lat="40.7730649" lon="-3.5532276"><ele>822.0</ele><time>2026-03-24T15:55:24.935Z</time></trkpt><trkpt lat="40.7730306" lon="-3.5531379"><ele>820.5</ele><time>2026-03-24T15:55:26.947Z</time></trkpt><trkpt lat="40.7729773" lon="-3.5530631"><ele>819.0</ele><time>2026-03-24T15:55:28.94Z</time></trkpt><trkpt lat="40.7729358" lon="-3.5529628"><ele>818.0</ele><time>2026-03-24T15:55:30.944Z</time></trkpt><trkpt lat="40.7729125" lon="-3.5528573"><ele>817.0</ele><time>2026-03-24T15:55:32.957Z</time></trkpt><trkpt lat="40.7729069" lon="-3.5527599"><ele>816.0</ele><time>2026-03-24T15:55:34.923Z</time></trkpt><trkpt lat="40.7729054" lon="-3.5526691"><ele>815.0</ele><time>2026-03-24T15:55:36.947Z</time></trkpt><trkpt lat="40.7729024" lon="-3.5525775"><ele>814.0</ele><time>2026-03-24T15:55:38.947Z</time></trkpt><trkpt lat="40.7729002" lon="-3.5524829"><ele>813.0</ele><time>2026-03-24T15:55:40.945Z</time></trkpt><trkpt lat="40.7728917" lon="-3.5523835"><ele>812.0</ele><time>2026-03-24T15:55:42.943Z</time></trkpt><trkpt lat="40.7729517" lon="-3.5523061"><ele>812.0000000000001</ele><time>2026-03-24T15:55:45.946Z</time></trkpt><trkpt lat="40.772996" lon="-3.552232"><ele>812.0</ele><time>2026-03-24T15:55:47.95Z</time></trkpt><trkpt lat="40.7729989" lon="-3.5521426"><ele>812.0</ele><time>2026-03-24T15:55:49.934Z</time></trkpt><trkpt lat="40.772986" lon="-3.5520593"><ele>812.0</ele><time>2026-03-24T15:57:41.935Z</time></trkpt><trkpt lat="40.7730066" lon="-3.5519479"><ele>812.0000000000001</ele><time>2026-03-24T15:57:43.927Z</time></trkpt><trkpt lat="40.7730102" lon="-3.55178"><ele>812.0</ele><time>2026-03-24T15:57:45.935Z</time></trkpt><trkpt lat="40.7730085" lon="-3.5516792"><ele>810.0000000000001</ele><time>2026-03-24T15:57:46.953Z</time></trkpt><trkpt lat="40.7730078" lon="-3.5515717"><ele>808.0</ele><time>2026-03-24T15:57:47.957Z</time></trkpt><trkpt lat="40.773005" lon="-3.5514671"><ele>806.0</ele><time>2026-03-24T15:57:48.942Z</time></trkpt><trkpt lat="40.7729975" lon="-3.5513658"><ele>804.0</ele><time>2026-03-24T15:57:49.95Z</time></trkpt><trkpt lat="40.7729885" lon="-3.5512613"><ele>802.0000000000001</ele><time>2026-03-24T15:57:50.943Z</time></trkpt><trkpt lat="40.7729769" lon="-3.5511613"><ele>800.0</ele><time>2026-03-24T15:57:51.957Z</time></trkpt><trkpt lat="40.7729603" lon="-3.5510605"><ele>798.0000000000001</ele><time>2026-03-24T15:57:52.96Z</time></trkpt><trkpt lat="40.7729421" lon="-3.5509645"><ele>796.0</ele><time>2026-03-24T15:57:53.946Z</time></trkpt><trkpt lat="40.772931" lon="-3.5508697"><ele>794.0</ele><time>2026-03-24T15:57:54.938Z</time></trkpt><trkpt lat="40.7729137" lon="-3.550769"><ele>792.0</ele><time>2026-03-24T15:57:55.963Z</time></trkpt><trkpt lat="40.7728966" lon="-3.5506748"><ele>790.0000000000001</ele><time>2026-03-24T15:57:56.963Z</time></trkpt><trkpt lat="40.7728731" lon="-3.5505801"><ele>788.0</ele><time>2026-03-24T15:57:57.92Z</time></trkpt><trkpt lat="40.7728452" lon="-3.5504849"><ele>788.0000000000001</ele><time>2026-03-24T15:57:58.924Z</time></trkpt><trkpt lat="40.7728156" lon="-3.5503925"><ele>788.0</ele><time>2026-03-24T15:57:59.925Z</time></trkpt><trkpt lat="40.7727847" lon="-3.5503029"><ele>788.0</ele><time>2026-03-24T15:58:00.943Z</time></trkpt><trkpt lat="40.772751" lon="-3.5502118"><ele>788.0</ele><time>2026-03-24T15:58:01.92Z</time></trkpt><trkpt lat="40.7727225" lon="-3.5501159"><ele>788.0000000000001</ele><time>2026-03-24T15:58:02.947Z</time></trkpt><trkpt lat="40.7726979" lon="-3.550023"><ele>788.0</ele><time>2026-03-24T15:58:03.93Z</time></trkpt><trkpt lat="40.7726731" lon="-3.5499273"><ele>787.6666666666667</ele><time>2026-03-24T15:58:04.937Z</time></trkpt><trkpt lat="40.7726476" lon="-3.5498299"><ele>787.3333333333334</ele><time>2026-03-24T15:58:05.939Z</time></trkpt><trkpt lat="40.7726295" lon="-3.5497445"><ele>787.0</ele><time>2026-03-24T15:58:06.956Z</time></trkpt><trkpt lat="40.7725785" lon="-3.5495911"><ele>786.6666666666667</ele><time>2026-03-24T15:58:08.956Z</time></trkpt><trkpt lat="40.7725479" lon="-3.5495062"><ele>786.3333333333334</ele><time>2026-03-24T15:58:09.942Z</time></trkpt><trkpt lat="40.7725159" lon="-3.5494306"><ele>786.0</ele><time>2026-03-24T15:58:10.938Z</time></trkpt><trkpt lat="40.7724876" lon="-3.5493535"><ele>784.5</ele><time>2026-03-24T15:58:11.954Z</time></trkpt><trkpt lat="40.7724571" lon="-3.5492771"><ele>783.0</ele><time>2026-03-24T15:58:12.956Z</time></trkpt><trkpt lat="40.7724253" lon="-3.5491975"><ele>781.5</ele><time>2026-03-24T15:58:13.939Z</time></trkpt><trkpt lat="40.7724028" lon="-3.5491167"><ele>780.0</ele><time>2026-03-24T15:58:14.946Z</time></trkpt><trkpt lat="40.7723597" lon="-3.5489799"><ele>778.5</ele><time>2026-03-24T15:58:16.941Z</time></trkpt><trkpt lat="40.7723215" lon="-3.5488437"><ele>777.0</ele><time>2026-03-24T15:58:18.961Z</time></trkpt><trkpt lat="40.7722951" lon="-3.5487209"><ele>775.3333333333334</ele><time>2026-03-24T15:58:20.929Z</time></trkpt><trkpt lat="40.7722649" lon="-3.5486166"><ele>773.6666666666666</ele><time>2026-03-24T15:58:22.933Z</time></trkpt><trkpt lat="40.7722447" lon="-3.5485131"><ele>772.0</ele><time>2026-03-24T15:58:24.948Z</time></trkpt><trkpt lat="40.7722248" lon="-3.5484114"><ele>770.3333333333333</ele><time>2026-03-24T15:58:26.94Z</time></trkpt><trkpt lat="40.7721978" lon="-3.5483037"><ele>768.6666666666666</ele><time>2026-03-24T15:58:28.94Z</time></trkpt><trkpt lat="40.7721663" lon="-3.5482119"><ele>767.0</ele><time>2026-03-24T15:58:30.942Z</time></trkpt><trkpt lat="40.7721479" lon="-3.548121"><ele>767.0</ele><time>2026-03-24T15:58:32.939Z</time></trkpt><trkpt lat="40.7721311" lon="-3.5480395"><ele>767.0</ele><time>2026-03-24T15:58:34.935Z</time></trkpt><trkpt lat="40.7721118" lon="-3.5479571"><ele>767.0</ele><time>2026-03-24T15:58:36.923Z</time></trkpt><trkpt lat="40.7720858" lon="-3.5478564"><ele>767.0</ele><time>2026-03-24T15:58:39.936Z</time></trkpt><trkpt lat="40.7720593" lon="-3.5479398"><ele>767.0</ele><time>2026-03-24T15:59:29.91Z</time></trkpt><trkpt lat="40.7720696" lon="-3.5478507"><ele>767.0</ele><time>2026-03-24T15:59:40.916Z</time></trkpt><trkpt lat="40.7720741" lon="-3.5477645"><ele>767.0</ele><time>2026-03-24T15:59:57.909Z</time></trkpt><trkpt lat="40.772035" lon="-3.5476876"><ele>763.0</ele><time>2026-03-24T16:00:16.904Z</time></trkpt><trkpt lat="40.772051" lon="-3.5477796"><ele>763.0</ele><time>2026-03-24T16:00:29.917Z</time></trkpt><trkpt lat="40.7720817" lon="-3.5478591"><ele>763.0</ele><time>2026-03-24T16:00:36.911Z</time></trkpt><trkpt lat="40.7720545" lon="-3.5479353"><ele>767.0</ele><time>2026-03-24T16:01:19.914Z</time></trkpt><trkpt lat="40.7720837" lon="-3.5478597"><ele>763.0</ele><time>2026-03-24T16:01:40.903Z</time></trkpt></trkseg></trk></gpx>